# Wetter Temperatur Luftdruck Luftfeuchtigkeit Sichtweite Windgeschwindigkeit Windrichtung Zeit
1 Rain 15 1010 73 10000 10.8 288 08:31 02.10.2022
2 Rain 15 1010 72 10000 11.3 286 08:31 02.10.2022
3 Clear 15 1009 75 10000 10.56 281 05:32 02.10.2022
4 Rain 15 1008 76 10000 10.71 274 02:49 02.10.2022
5 Rain 15 1007 76 10000 11.22 268 00:45 02.10.2022
6 Clear 15 1007 74 10000 10.85 271 23:42 01.10.2022
7 Clear 15 1007 74 10000 10.83 275 22:31 01.10.2022
8 Clouds 15 1004 76 10000 10.63 283 19:58 01.10.2022
9 Clouds 15 1002 75 10000 10.81 289 17:49 01.10.2022
10 Clouds 15 1001 78 10000 11.14 291 16:29 01.10.2022
11 Clouds 15 999 79 10000 8.51 261 14:19 01.10.2022
12 Clouds 15 999 76 10000 8.08 270 12:57 01.10.2022
13 Clouds 15 998 77 10000 7.96 278 12:29 01.10.2022
14 Clouds 15 997 77 10000 7.92 284 11:19 01.10.2022
15 Clouds 15 997 77 10000 7.92 284 10:30 01.10.2022
16 Clouds 12 997 94 10000 13.81 211 09:27 01.10.2022
17 Clouds 12 997 94 10000 13.81 211 08:41 01.10.2022
18 Rain 12 1000 86 6845 15.17 184 03:55 01.10.2022
19 Rain 13 1001 79 10000 15 197 03:28 01.10.2022
20 Clouds 15 1003 70 10000 13.26 189 23:33 30.09.2022
21 Clouds 15 1004 71 10000 12.19 194 22:19 30.09.2022
22 Clouds 15 1004 71 10000 12.19 194 22:19 30.09.2022
23 Clouds 15 1005 71 10000 12.19 198 21:22 30.09.2022
24 Clouds 15 1005 73 10000 12.21 200 20:42 30.09.2022
25 Clear 15 1005 72 10000 11.76 200 19:30 30.09.2022
26 Clear 15 1006 68 10000 8.51 216 17:27 30.09.2022
27 Clear 14 1007 72 10000 8.68 219 15:26 30.09.2022
28 Clear 14 1008 76 10000 8.13 211 13:27 30.09.2022
29 Rain 14 1008 74 10000 6.58 218 11:56 30.09.2022
30 Clouds 14 1007 70 10000 3.31 229 10:18 30.09.2022
31 Clouds 13 1007 70 10000 2.6 292 08:21 30.09.2022
32 Clouds 14 1006 70 10000 4.58 311 04:55 30.09.2022
33 Clouds 13 1006 70 10000 4.95 343 02:27 30.09.2022
34 Clouds 14 1005 69 10000 6.5 8 22:24 29.09.2022
35 Clouds 14 1005 69 10000 6.03 11 21:26 29.09.2022
36 Rain 14 1005 69 10000 6.03 11 20:31 29.09.2022
37 Clouds 14 1004 73 10000 7.54 28 18:32 29.09.2022
38 Clouds 14 1002 71 10000 6.52 18 17:22 29.09.2022
39 Clouds 13 1002 75 10000 5.87 15 16:28 29.09.2022
40 Rain 13 1002 75 10000 5.87 15 15:35 29.09.2022
41 Clouds 12 1002 81 10000 5.17 286 14:24 29.09.2022
42 Rain 13 1000 70 10000 4.99 338 09:45 29.09.2022
43 Clouds 13 999 63 10000 3.46 307 06:45 29.09.2022
44 Clouds 13 999 63 10000 1.54 274 02:45 29.09.2022
45 Clouds 13 999 64 10000 0.32 248 23:54 28.09.2022
46 Clouds 13 998 65 10000 0.48 275 22:32 28.09.2022
47 Clouds 13 998 64 10000 0.89 295 21:29 28.09.2022
48 Clouds 13 997 63 10000 0.67 280 20:22 28.09.2022
49 Clouds 13 996 62 10000 1.34 309 18:20 28.09.2022
50 Rain 13 996 66 10000 2.55 327 14:52 28.09.2022
51 Clouds 12 995 70 10000 2.9 3 12:49 28.09.2022
52 Clouds 12 994 71 10000 2.71 13 10:51 28.09.2022
53 Clouds 12 994 72 10000 2.79 356 08:33 28.09.2022
54 Clouds 12 993 71 10000 1.58 320 06:50 28.09.2022
55 Rain 12 994 73 10000 0.84 224 02:36 28.09.2022
56 Rain 12 994 68 10000 0.31 5 01:33 28.09.2022
57 Rain 12 994 66 10000 1.95 319 23:20 27.09.2022
58 Clouds 12 994 66 10000 2.4 311 21:42 27.09.2022
59 Clouds 12 994 67 10000 2.85 306 20:38 27.09.2022
60 Clouds 12 994 68 10000 3.43 306 19:48 27.09.2022
61 Clouds 13 994 68 10000 3.97 313 18:40 27.09.2022
62 Rain 13 994 68 10000 4.64 316 17:44 27.09.2022
63 Clouds 13 993 65 10000 5.68 319 15:40 27.09.2022
64 Clouds 13 993 63 10000 6.12 320 14:55 27.09.2022
65 Clouds 13 993 61 10000 7.64 324 12:50 27.09.2022
66 Clouds 13 993 61 10000 8.85 331 11:34 27.09.2022
67 Clouds 13 991 70 10000 10.59 341 08:50 27.09.2022
68 Clouds 13 991 72 10000 10.4 335 06:46 27.09.2022
69 Rain 13 991 74 10000 7.38 348 02:41 27.09.2022
70 Rain 13 992 76 10000 7.99 341 01:29 27.09.2022
71 Clouds 13 992 80 10000 8.52 341 23:26 26.09.2022
72 Rain 13 992 80 10000 8.52 341 22:38 26.09.2022
73 Clouds 13 992 85 9089 5.43 282 20:46 26.09.2022
74 Clouds 14 992 86 10000 10.29 210 19:32 26.09.2022
75 Clouds 13 992 92 10000 12.05 208 18:32 26.09.2022
76 Rain 13 993 92 9478 14.38 208 16:36 26.09.2022
77 Rain 12 994 92 10000 15.81 199 14:41 26.09.2022
78 Rain 12 996 90 10000 15.65 197 11:35 26.09.2022
79 Rain 13 997 88 10000 15.94 200 10:41 26.09.2022
80 Rain 13 997 87 10000 15.6 200 10:21 26.09.2022
81 Rain 13 997 87 10000 15.6 200 09:55 26.09.2022
82 Rain 13 998 87 10000 15.07 201 09:24 26.09.2022
83 Rain 12 998 86 10000 15.43 202 08:57 26.09.2022
84 Rain 14 1003 74 10000 10.66 243 02:57 26.09.2022
85 Clouds 14 1006 68 10000 9.86 239 00:35 26.09.2022
86 Clouds 14 1008 67 10000 8.28 250 22:59 25.09.2022
87 Clouds 14 1009 67 10000 6.96 251 21:41 25.09.2022
88 Clouds 14 1010 65 10000 7.08 266 20:49 25.09.2022
89 Clouds 14 1010 62 10000 6.45 273 19:55 25.09.2022
90 Clouds 14 1011 59 10000 6.45 287 18:43 25.09.2022
91 Clouds 14 1011 56 10000 6.77 293 18:20 25.09.2022
92 Clouds 14 1011 58 10000 6.11 303 16:49 25.09.2022
93 Clouds 14 1012 60 10000 6.12 313 15:45 25.09.2022
94 Clouds 14 1013 64 10000 6.71 316 14:30 25.09.2022
95 Clouds 14 1013 66 10000 7.25 320 13:19 25.09.2022
96 Clouds 14 1014 69 10000 6.94 333 10:37 25.09.2022
97 Clouds 14 1014 64 10000 7.24 342 08:25 25.09.2022
98 Clear 14 1014 66 10000 8.36 349 06:24 25.09.2022
99 Clouds 14 1014 70 10000 8.72 350 03:40 25.09.2022
100 Clouds 14 1014 72 10000 8.6 359 23:23 24.09.2022
101 Clouds 15 1014 73 10000 8.69 8 21:19 24.09.2022
102 Clouds 14 1013 82 10000 9.79 17 19:24 24.09.2022
103 Clouds 14 1013 83 10000 9.72 19 18:25 24.09.2022
104 Clouds 14 1013 85 10000 9.16 23 16:37 24.09.2022
105 Clouds 14 1012 85 10000 8.71 26 15:23 24.09.2022
106 Clouds 14 1012 86 10000 8.39 31 14:18 24.09.2022
107 Clouds 14 1012 87 10000 8.24 33 12:59 24.09.2022
108 Clouds 14 1012 87 10000 8.79 31 12:20 24.09.2022
109 Clouds 14 1012 90 10000 6.26 53 09:58 24.09.2022
110 Clouds 14 1011 90 10000 5.11 73 08:51 24.09.2022
111 Clouds 14 1011 90 10000 3.79 68 07:40 24.09.2022
112 Rain 14 1011 91 10000 0.34 294 04:50 24.09.2022
113 Rain 14 1011 92 10000 1.98 210 03:44 24.09.2022
114 Rain 14 1013 85 10000 4.9 202 22:54 23.09.2022
115 Rain 15 1013 85 10000 4.45 208 21:33 23.09.2022
116 Clouds 15 1013 85 10000 4.36 215 20:57 23.09.2022
117 Rain 15 1013 84 10000 4.98 224 20:26 23.09.2022
118 Clouds 15 1013 78 10000 4.69 219 19:19 23.09.2022
119 Clouds 15 1014 67 10000 5.29 206 15:29 23.09.2022
120 Clouds 15 1016 67 10000 5.76 196 11:47 23.09.2022
121 Clouds 14 1016 68 10000 5.9 197 09:36 23.09.2022
122 Clouds 14 1016 68 10000 6.44 194 06:51 23.09.2022
123 Clouds 15 1019 67 10000 6.39 181 00:42 23.09.2022
124 Clouds 15 1019 68 10000 4.95 170 23:23 22.09.2022
125 Clouds 15 1020 67 10000 4.12 166 22:27 22.09.2022
126 Clouds 15 1020 64 10000 3.58 160 21:19 22.09.2022
127 Clouds 15 1020 62 10000 2.96 147 19:58 22.09.2022
128 Clouds 15 1021 59 10000 2.79 158 17:41 22.09.2022
129 Clouds 14 1023 66 10000 4.38 202 13:38 22.09.2022
130 Clouds 14 1023 74 10000 5.43 197 10:37 22.09.2022
131 Clear 14 1023 74 10000 4.84 195 10:18 22.09.2022
132 Clouds 14 1023 72 10000 3.46 190 07:36 22.09.2022
133 Clouds 14 1024 69 10000 2.95 185 04:37 22.09.2022
134 Clouds 14 1025 68 10000 1.17 159 23:33 21.09.2022
135 Clouds 14 1025 68 10000 0.53 337 22:26 21.09.2022
136 Clouds 14 1025 67 10000 1.01 333 20:54 21.09.2022
137 Clouds 14 1025 66 10000 0.68 278 18:30 21.09.2022
138 Clouds 15 1025 66 10000 1.87 259 17:22 21.09.2022
139 Clouds 14 1026 67 10000 2.29 243 15:18 21.09.2022
140 Clouds 14 1027 68 10000 2.79 245 13:38 21.09.2022
141 Clouds 14 1026 68 10000 2.62 232 11:34 21.09.2022
142 Clouds 14 1026 67 10000 2.12 233 10:50 21.09.2022
143 Clouds 14 1026 67 10000 2.12 233 10:50 21.09.2022
144 Clouds 14 1026 67 10000 1.88 252 09:38 21.09.2022
145 Clouds 14 1026 67 10000 2.16 305 08:23 21.09.2022
146 Clear 15 1025 65 10000 2.11 326 02:51 21.09.2022
147 Clear 15 1025 65 10000 2.11 326 02:33 21.09.2022
148 Clear 14 1025 62 10000 1.63 332 01:49 21.09.2022
149 Clear 14 1025 62 10000 2.02 4 23:50 20.09.2022
150 Clear 14 1024 63 10000 3.15 10 21:34 20.09.2022
151 Clear 15 1023 62 10000 3.8 355 20:23 20.09.2022
152 Clear 14 1022 61 10000 3.99 350 17:53 20.09.2022
153 Clear 14 1022 63 10000 5.07 351 15:18 20.09.2022
154 Clouds 14 1022 62 10000 5.65 335 13:59 20.09.2022
155 Clouds 14 1021 59 10000 6.4 340 11:28 20.09.2022
156 Clouds 14 1020 65 10000 8.04 336 08:30 20.09.2022
157 Clouds 14 1020 64 10000 7.83 337 07:32 20.09.2022
158 Rain 14 1019 65 10000 8.47 327 04:33 20.09.2022
159 Clouds 15 1019 62 10000 9.27 334 01:29 20.09.2022
160 Clouds 15 1018 59 10000 9.62 335 22:41 19.09.2022
161 Rain 15 1018 64 10000 11.34 336 21:28 19.09.2022
162 Clouds 15 1018 64 10000 11.34 336 20:39 19.09.2022
163 Clouds 14 1017 67 10000 11.4 333 18:43 19.09.2022
164 Clouds 14 1017 68 10000 11.3 334 16:48 19.09.2022
165 Clouds 15 1016 71 10000 11.37 342 13:47 19.09.2022
166 Clouds 15 1015 70 10000 10.93 329 11:57 19.09.2022
167 Clouds 15 1014 72 10000 10.79 328 09:44 19.09.2022
168 Clouds 15 1014 72 10000 9.53 328 08:32 19.09.2022
169 Clear 15 1012 68 10000 9.55 341 03:37 19.09.2022
170 Clouds 15 1011 69 10000 11.09 340 00:44 19.09.2022
171 Rain 15 1011 67 10000 11.72 355 22:32 18.09.2022
172 Rain 15 1009 71 10000 12.86 352 21:18 18.09.2022
173 Clouds 15 1008 68 10000 12.55 352 19:33 18.09.2022
174 Clouds 14 1007 69 10000 13.16 347 17:52 18.09.2022
175 Rain 14 1007 70 10000 13.94 335 16:49 18.09.2022
176 Rain 14 1006 73 10000 15.57 317 14:51 18.09.2022
177 Clouds 14 1007 69 10000 15.76 311 13:35 18.09.2022
178 Clouds 13 1007 61 10000 13.95 313 12:20 18.09.2022
179 Rain 13 1008 64 10000 12.8 319 09:25 18.09.2022
180 Clouds 13 1009 67 10000 13.17 317 01:44 18.09.2022
181 Clouds 13 1009 67 10000 13.43 321 01:20 18.09.2022
182 Clouds 13 1009 68 10000 13.67 322 22:57 17.09.2022
183 Clouds 14 1009 67 10000 14.18 326 20:55 17.09.2022
184 Clouds 14 1008 65 10000 14.13 324 19:39 17.09.2022
185 Clouds 14 1008 64 10000 14.28 324 18:30 17.09.2022
186 Clouds 14 1007 71 10000 16.54 329 14:27 17.09.2022
187 Rain 14 1006 74 10000 17.01 328 13:32 17.09.2022
188 Rain 13 1006 78 8418 16.33 318 10:49 17.09.2022
189 Rain 13 1007 68 10000 15.82 316 08:30 17.09.2022
190 Rain 14 1007 63 10000 14.79 315 06:21 17.09.2022
191 Clouds 14 1006 70 10000 15.14 325 23:41 16.09.2022
192 Clouds 15 1005 70 10000 16.24 331 22:27 16.09.2022
193 Clouds 15 1005 71 10000 16.78 333 20:54 16.09.2022
194 Clouds 15 1005 71 10000 16.78 333 20:54 16.09.2022
195 Clouds 15 1004 71 10000 16.53 331 19:35 16.09.2022
196 Clouds 15 1002 77 10000 16.65 326 16:26 16.09.2022
197 Rain 15 1002 80 9083 16.93 320 14:52 16.09.2022
198 Rain 13 1002 87 5103 17.25 280 13:21 16.09.2022
199 Clouds 15 1004 64 10000 15.47 296 10:27 16.09.2022
200 Clouds 14 1004 62 10000 14.32 295 07:52 16.09.2022
201 Clouds 14 1004 64 10000 14.01 299 06:48 16.09.2022
202 Clouds 14 1005 64 10000 13.53 302 05:58 16.09.2022
203 Clouds 14 1005 60 10000 12.85 310 02:35 16.09.2022
204 Clouds 15 1005 64 10000 11.92 314 22:20 15.09.2022
205 Rain 15 1005 62 10000 11.89 314 20:39 15.09.2022
206 Clouds 15 1005 61 10000 11.36 310 19:42 15.09.2022
207 Clouds 15 1004 66 10000 10.31 311 17:58 15.09.2022
208 Clouds 15 1004 68 10000 10.45 313 17:28 15.09.2022
209 Clouds 15 1005 68 10000 10.84 313 15:49 15.09.2022
210 Clouds 16 1004 65 10000 10.69 312 12:51 15.09.2022
211 Rain 16 1004 64 10000 10.86 310 11:48 15.09.2022
212 Clouds 16 1004 65 10000 10.49 310 09:46 15.09.2022
213 Clouds 16 1003 68 10000 10.67 310 07:45 15.09.2022
214 Clouds 16 1003 68 10000 11.55 306 03:48 15.09.2022
215 Clouds 17 1003 68 10000 10.56 305 23:30 14.09.2022
216 Clouds 17 1003 73 10000 9.7 276 20:48 14.09.2022
217 Clouds 17 1003 74 10000 9.01 273 19:33 14.09.2022
218 Clouds 17 1004 70 10000 7.99 279 18:26 14.09.2022
219 Clouds 17 1004 70 10000 7.73 279 16:37 14.09.2022
220 Clouds 17 1005 69 10000 6.62 281 15:29 14.09.2022
221 Clouds 16 1005 69 10000 5.28 285 12:57 14.09.2022
222 Clouds 16 1006 69 10000 5.59 310 10:40 14.09.2022
223 Clouds 16 1006 70 10000 7.24 308 08:41 14.09.2022
224 Clouds 16 1006 70 10000 7.87 303 06:50 14.09.2022
225 Clouds 16 1006 70 10000 7.87 303 06:31 14.09.2022
226 Clouds 16 1007 73 10000 7.84 301 03:21 14.09.2022
227 Clouds 17 1007 68 10000 8.71 305 01:41 14.09.2022
228 Clouds 17 1007 69 10000 8.42 308 01:19 14.09.2022
229 Clouds 17 1007 71 10000 8.91 306 23:55 13.09.2022
230 Clouds 17 1007 71 10000 8.91 306 23:37 13.09.2022
231 Clouds 17 1007 71 10000 8.91 306 23:37 13.09.2022
232 Clouds 17 1007 72 10000 9.16 308 23:19 13.09.2022
233 Clouds 17 1007 72 10000 9.16 308 22:43 13.09.2022
234 Clouds 17 1008 73 10000 8.93 304 21:40 13.09.2022
235 Clouds 17 1008 72 10000 9.44 303 19:32 13.09.2022
236 Clouds 17 1008 71 10000 9.89 290 16:45 13.09.2022
237 Clouds 17 1008 72 10000 9.63 287 15:53 13.09.2022
238 Clouds 17 1008 69 10000 9.3 293 13:50 13.09.2022
239 Clouds 17 1008 64 10000 9.68 291 11:34 13.09.2022
240 Clouds 17 1007 68 10000 8.88 293 08:32 13.09.2022
241 Clouds 18 1007 89 10000 9.1 291 04:24 13.09.2022
242 Rain 19 1009 80 10000 6.53 211 23:23 12.09.2022
243 Rain 19 1009 80 10000 6.53 211 22:46 12.09.2022
244 Clouds 19 1009 79 10000 5.41 215 21:35 12.09.2022
245 Clouds 20 1011 70 10000 4.18 183 20:24 12.09.2022
246 Clouds 20 1011 70 10000 3.37 180 18:42 12.09.2022
247 Clouds 19 1013 75 10000 4.15 199 16:20 12.09.2022
248 Clouds 18 1014 77 10000 5.76 189 13:41 12.09.2022
249 Clouds 17 1015 84 10000 6.65 185 11:22 12.09.2022
250 Clouds 16 1015 84 10000 6.73 184 09:35 12.09.2022
251 Clouds 17 1016 77 10000 4.53 180 04:46 12.09.2022
252 Clouds 17 1017 74 10000 3.59 168 03:25 12.09.2022
253 Clouds 17 1018 73 10000 1.42 85 23:22 11.09.2022
254 Clouds 17 1018 73 10000 1.43 47 21:57 11.09.2022
255 Clouds 17 1018 74 10000 1.92 14 20:46 11.09.2022
256 Clear 17 1018 75 10000 2.45 359 19:51 11.09.2022
257 Clear 17 1018 75 10000 2.61 354 19:22 11.09.2022
258 Clear 17 1018 75 10000 2.47 347 18:20 11.09.2022
259 Clear 17 1019 75 10000 2.22 354 16:34 11.09.2022
260 Clear 16 1019 78 10000 2.2 13 14:19 11.09.2022
261 Clear 16 1019 76 10000 2.44 9 12:33 11.09.2022
262 Clear 16 1018 77 10000 4.55 25 08:39 11.09.2022
263 Clear 16 1017 78 10000 4.81 26 06:44 11.09.2022
264 Clouds 17 1015 81 10000 4.84 55 00:50 11.09.2022
265 Clouds 17 1015 80 10000 6.35 59 22:55 10.09.2022
266 Clouds 18 1014 80 10000 5.32 52 20:59 10.09.2022
267 Clouds 18 1013 79 10000 4.71 22 19:46 10.09.2022
268 Clouds 18 1013 79 10000 4.41 17 19:28 10.09.2022
269 Clouds 18 1013 79 10000 4.41 17 18:51 10.09.2022
270 Clouds 18 1012 78 10000 3.99 31 15:49 10.09.2022
271 Clouds 17 1012 78 10000 2.86 38 14:42 10.09.2022
272 Clouds 17 1011 82 10000 2.3 188 12:52 10.09.2022
273 Clouds 17 1011 83 10000 2.66 165 10:46 10.09.2022
274 Clouds 17 1010 84 10000 3.05 158 09:37 10.09.2022
275 Clouds 17 1010 84 10000 3.68 142 08:36 10.09.2022
276 Clouds 16 1009 87 10000 4.83 142 06:43 10.09.2022
277 Clouds 17 1009 81 10000 5.73 161 00:40 10.09.2022
278 Clouds 18 1008 81 10000 5.45 163 23:32 09.09.2022
279 Clouds 18 1008 79 10000 5 162 21:50 09.09.2022
280 Clouds 18 1008 79 10000 5.04 163 20:46 09.09.2022
281 Rain 18 1007 77 10000 3.7 181 19:24 09.09.2022
282 Clouds 18 1007 77 10000 3.7 181 18:46 09.09.2022
283 Clouds 18 1007 77 10000 4.55 194 16:23 09.09.2022
284 Clouds 18 1007 80 7316 6.29 195 13:49 09.09.2022
285 Clouds 17 1007 80 10000 6.39 192 12:30 09.09.2022
286 Clouds 17 1006 83 10000 7.63 200 09:55 09.09.2022
287 Clouds 17 1006 81 10000 6.25 196 05:19 09.09.2022
288 Clouds 18 1006 80 10000 5.84 218 03:20 09.09.2022
289 Clouds 16 1007 86 10000 3.04 184 21:53 08.09.2022
290 Clouds 16 1007 87 10000 2.92 159 20:51 08.09.2022
291 Clouds 16 1007 89 10000 3.4 116 20:31 08.09.2022
292 Rain 16 1007 90 10000 4.09 96 19:56 08.09.2022
293 Rain 16 1007 92 5740 0.91 32 18:22 08.09.2022
294 Rain 16 1007 93 3689 3.97 152 16:19 08.09.2022
295 Rain 17 1008 90 4937 4.68 133 14:40 08.09.2022
296 Rain 18 1008 89 10000 6.72 134 13:27 08.09.2022
297 Clouds 17 1008 90 10000 8.86 124 11:57 08.09.2022
298 Clouds 17 1008 89 10000 9.16 98 10:52 08.09.2022
299 Clouds 17 1008 87 10000 8.67 91 08:51 08.09.2022
300 Clouds 17 1009 89 10000 6.68 91 06:42 08.09.2022
301 Clouds 18 1010 88 10000 6.57 96 02:37 08.09.2022
302 Clouds 18 1011 88 10000 6.04 92 02:18 08.09.2022
303 Clouds 18 1011 87 10000 5.21 84 00:56 08.09.2022
304 Clouds 18 1011 83 10000 3.63 55 22:44 07.09.2022
305 Clouds 18 1012 84 10000 2.25 48 21:42 07.09.2022
306 Clouds 18 1012 85 10000 1.61 49 20:49 07.09.2022
307 Clouds 18 1012 88 10000 0.97 44 19:40 07.09.2022
308 Clouds 18 1012 88 10000 1.96 137 17:49 07.09.2022
309 Clouds 17 1013 87 10000 6.52 118 14:26 07.09.2022
310 Clouds 17 1013 85 10000 6.88 121 10:48 07.09.2022
311 Clouds 16 1012 90 10000 9.33 70 09:19 07.09.2022
312 Rain 17 1013 81 10000 5.95 89 07:23 07.09.2022
313 Rain 17 1013 77 10000 9.4 115 03:19 07.09.2022
314 Clouds 18 1015 81 10000 8.88 113 22:59 06.09.2022
315 Clouds 18 1015 80 10000 9.12 111 21:41 06.09.2022
316 Clouds 19 1015 68 10000 8.8 116 20:24 06.09.2022
317 Clouds 20 1015 67 10000 9.19 115 18:45 06.09.2022
318 Clouds 20 1016 67 10000 9.34 119 18:22 06.09.2022
319 Clouds 20 1016 67 10000 9.18 121 17:22 06.09.2022
320 Clouds 20 1016 67 10000 9.18 121 16:37 06.09.2022
321 Clouds 19 1017 66 10000 9.96 111 15:22 06.09.2022
322 Clouds 18 1018 64 10000 10.64 108 13:45 06.09.2022
323 Clouds 18 1018 65 10000 10.43 112 13:23 06.09.2022
324 Rain 17 1019 66 10000 10.15 116 11:57 06.09.2022
325 Rain 17 1019 68 10000 10.2 121 10:41 06.09.2022
326 Clouds 17 1019 69 10000 11.52 119 08:50 06.09.2022
327 Clouds 17 1018 71 10000 12.2 113 07:45 06.09.2022
328 Clouds 18 1019 73 10000 11.58 107 02:44 06.09.2022
329 Clouds 19 1020 71 10000 10.34 100 23:23 05.09.2022
330 Clouds 20 1021 69 10000 10.54 102 22:20 05.09.2022
331 Clouds 20 1021 67 10000 10.06 97 20:35 05.09.2022
332 Clouds 21 1021 72 10000 7.74 96 19:20 05.09.2022
333 Clouds 21 1021 72 10000 7.74 96 18:45 05.09.2022
334 Clouds 21 1021 72 10000 6.94 98 18:21 05.09.2022
335 Clouds 21 1021 72 10000 7.36 98 16:37 05.09.2022
336 Clouds 20 1022 72 10000 7.68 104 15:47 05.09.2022
337 Clouds 20 1022 73 10000 7.98 110 13:26 05.09.2022
338 Clouds 19 1022 72 10000 8.35 118 12:27 05.09.2022
339 Clouds 18 1023 74 10000 9.57 115 09:44 05.09.2022
340 Clouds 18 1022 73 10000 9.44 116 06:41 05.09.2022
341 Clouds 18 1022 71 10000 10.8 108 02:19 05.09.2022
342 Clouds 19 1022 70 10000 11.18 96 23:18 04.09.2022
343 Clouds 19 1022 67 10000 11.24 93 22:27 04.09.2022
344 Clouds 19 1022 67 10000 11.24 93 21:31 04.09.2022
345 Clouds 20 1021 67 10000 6.2 73 19:38 04.09.2022
346 Clouds 21 1020 63 10000 5.39 77 18:19 04.09.2022
347 Clouds 20 1020 64 10000 5.1 84 16:44 04.09.2022
348 Clouds 19 1021 69 10000 6.32 98 14:33 04.09.2022
349 Clouds 19 1021 69 10000 6.32 98 13:49 04.09.2022
350 Clouds 18 1021 66 10000 8.93 109 11:54 04.09.2022
351 Clouds 17 1021 69 10000 9.28 110 10:47 04.09.2022
352 Clouds 17 1019 69 10000 10.09 115 08:20 04.09.2022
353 Clouds 17 1018 67 10000 9.84 115 05:35 04.09.2022
354 Clear 18 1018 66 10000 11.58 107 00:50 04.09.2022
355 Clear 19 1017 64 10000 10.22 93 22:24 03.09.2022
356 Clear 20 1016 61 10000 9.15 96 21:23 03.09.2022
357 Clear 20 1015 62 10000 7.8 96 19:56 03.09.2022
358 Clear 20 1015 61 10000 6.71 83 17:29 03.09.2022
359 Clear 20 1015 61 10000 6.71 83 16:33 03.09.2022
360 Clear 20 1016 59 10000 7.17 99 14:46 03.09.2022
361 Clouds 19 1016 59 10000 8.86 109 14:26 03.09.2022
362 Clouds 19 1016 61 10000 9.97 113 12:32 03.09.2022
363 Clouds 18 1017 62 10000 11.4 112 10:55 03.09.2022
364 Clouds 17 1017 65 10000 10.93 115 08:41 03.09.2022
365 Clouds 17 1017 66 10000 10.39 119 06:58 03.09.2022
366 Clouds 17 1017 65 10000 10.6 119 04:38 03.09.2022
367 Clouds 19 1017 67 10000 11.13 115 00:41 03.09.2022
368 Clouds 19 1017 70 10000 11.11 103 23:20 02.09.2022
369 Clouds 20 1017 64 10000 7.58 93 21:19 02.09.2022
370 Clouds 20 1017 65 10000 9.45 87 20:39 02.09.2022
371 Clouds 20 1017 64 10000 6.91 65 19:30 02.09.2022
372 Clouds 20 1017 64 10000 6.89 50 18:43 02.09.2022
373 Clouds 20 1017 62 10000 6.68 54 18:24 02.09.2022
374 Clouds 20 1017 62 10000 6.69 54 18:24 02.09.2022
375 Clouds 19 1018 62 10000 6.17 61 16:50 02.09.2022
376 Clouds 19 1018 62 10000 5.92 72 15:35 02.09.2022
377 Clear 18 1020 60 10000 8.36 110 12:49 02.09.2022
378 Clear 17 1021 70 10000 8.82 110 10:25 02.09.2022
379 Clear 17 1021 70 10000 8.83 110 09:41 02.09.2022
380 Clear 17 1021 72 10000 7.94 107 07:54 02.09.2022
381 Clear 17 1021 71 10000 7.65 110 06:41 02.09.2022
382 Clear 17 1021 72 10000 7.64 116 03:53 02.09.2022
383 Clear 18 1023 60 10000 8.7 101 22:54 01.09.2022
384 Clear 19 1023 59 10000 8.52 89 21:45 01.09.2022
385 Clear 19 1023 63 10000 7.54 69 21:25 01.09.2022
386 Clear 19 1023 63 10000 7.54 69 20:46 01.09.2022
387 Clouds 19 1022 66 10000 5.68 48 19:23 01.09.2022
388 Clouds 19 1023 64 10000 4.93 58 17:48 01.09.2022
389 Clear 19 1024 64 10000 5.12 48 16:29 01.09.2022
390 Clear 18 1024 65 10000 3.84 52 14:33 01.09.2022
391 Clouds 18 1025 69 10000 4.57 91 12:59 01.09.2022
392 Clouds 17 1025 72 10000 4.86 95 11:55 01.09.2022
393 Clouds 17 1025 72 10000 4.87 95 11:36 01.09.2022
394 Clouds 17 1025 75 10000 5.27 96 11:18 01.09.2022
395 Clouds 17 1024 77 10000 6.36 79 08:53 01.09.2022
396 Clear 17 1024 76 10000 6.97 71 06:26 01.09.2022
397 Clear 17 1025 70 10000 7.07 65 01:45 01.09.2022
398 Clear 18 1025 66 10000 8.35 81 00:19 01.09.2022
399 Clear 19 1025 62 10000 8.24 77 21:45 31.08.2022
400 Clouds 20 1024 66 10000 7.9 39 20:22 31.08.2022
401 Clouds 19 1024 65 10000 9.27 9 18:19 31.08.2022
402 Clouds 19 1025 61 10000 7.48 9 16:31 31.08.2022
403 Clouds 18 1026 59 10000 6.13 17 14:44 31.08.2022
404 Clouds 17 1026 66 10000 6.53 48 12:25 31.08.2022
405 Clouds 17 1026 66 10000 6.53 48 11:37 31.08.2022
406 Clear 17 1026 73 10000 7.94 56 09:25 31.08.2022
407 Clear 17 1025 70 10000 7.78 55 06:19 31.08.2022
408 Clouds 18 1025 60 10000 7.27 68 01:25 31.08.2022
409 Clouds 19 1024 54 10000 7.27 75 21:49 30.08.2022
410 Clouds 19 1024 56 10000 7.24 62 20:59 30.08.2022
411 Clouds 19 1023 66 10000 7.38 34 18:52 30.08.2022
412 Clouds 19 1024 67 10000 5.56 56 15:43 30.08.2022
413 Clouds 18 1024 65 10000 5.52 58 13:25 30.08.2022
414 Clouds 17 1024 71 10000 6.44 52 11:22 30.08.2022
415 Clouds 17 1024 71 10000 6.44 52 10:57 30.08.2022
416 Clouds 17 1024 70 10000 6.61 48 08:46 30.08.2022
417 Clouds 17 1023 66 10000 5.39 52 03:33 30.08.2022
418 Clouds 18 1023 62 10000 6.51 79 23:45 29.08.2022
419 Clouds 19 1023 62 10000 7.25 77 22:34 29.08.2022
420 Clouds 19 1022 65 10000 7.54 76 21:34 29.08.2022
421 Clouds 19 1022 65 10000 7.54 76 21:34 29.08.2022
422 Clouds 19 1022 68 10000 6.32 71 20:34 29.08.2022
423 Clouds 19 1021 71 10000 6.55 3 18:39 29.08.2022
424 Clouds 19 1022 71 10000 4.58 14 17:25 29.08.2022
425 Clouds 19 1022 71 10000 4.58 14 16:50 29.08.2022
426 Clouds 18 1022 75 10000 4.72 24 15:18 29.08.2022
427 Clouds 18 1022 76 10000 5.58 26 13:34 29.08.2022
428 Clouds 18 1021 77 10000 7.15 17 11:44 29.08.2022
429 Clouds 18 1021 75 10000 7.56 14 10:42 29.08.2022
430 Clouds 19 1021 73 10000 6.74 15 08:40 29.08.2022
431 Clouds 19 1020 77 10000 7.43 8 06:26 29.08.2022
432 Clouds 18 1020 83 10000 7.6 327 01:53 29.08.2022
433 Clouds 18 1020 82 10000 8.99 335 22:55 28.08.2022
434 Clouds 18 1020 81 10000 9.61 335 21:46 28.08.2022
435 Clouds 18 1019 77 10000 9.85 330 20:59 28.08.2022
436 Clouds 18 1019 75 10000 9.92 323 19:44 28.08.2022
437 Clouds 18 1019 74 10000 10.15 327 18:22 28.08.2022
438 Clouds 18 1019 74 10000 10.15 327 17:45 28.08.2022
439 Clouds 18 1019 74 10000 10.58 328 16:33 28.08.2022
440 Clouds 17 1019 72 10000 9.39 318 14:46 28.08.2022
441 Clouds 17 1019 72 10000 9.39 318 14:46 28.08.2022
442 Clouds 17 1019 73 10000 9.32 319 12:56 28.08.2022
443 Clear 17 1019 73 10000 9.88 325 11:19 28.08.2022
444 Clear 17 1018 68 10000 10.19 325 10:19 28.08.2022
445 Clear 17 1018 67 10000 10.28 326 08:42 28.08.2022
446 Clear 17 1018 68 10000 10.31 329 07:50 28.08.2022
447 Clear 17 1018 70 10000 10.16 337 03:44 28.08.2022
448 Clear 17 1018 71 10000 10.24 341 00:33 28.08.2022
449 Clear 17 1017 69 10000 10.03 341 22:50 27.08.2022
450 Clear 17 1017 70 10000 9.8 344 22:19 27.08.2022
451 Clear 18 1017 69 10000 9.79 346 20:27 27.08.2022
452 Clear 18 1017 69 10000 9.95 344 18:42 27.08.2022
453 Clear 18 1017 71 10000 9.41 346 16:25 27.08.2022
454 Clear 18 1017 71 10000 9.41 346 15:30 27.08.2022
455 Clouds 18 1017 68 10000 8.64 347 12:41 27.08.2022
456 Clouds 18 1016 69 10000 8.68 350 11:56 27.08.2022
457 Clouds 18 1016 72 10000 9.09 356 09:52 27.08.2022
458 Clouds 18 1016 73 10000 9.29 358 09:25 27.08.2022
459 Clouds 18 1015 75 10000 9.22 352 05:24 27.08.2022
460 Clouds 18 1015 80 10000 9.73 347 00:51 27.08.2022
461 Clouds 18 1015 80 10000 9.7 345 23:35 26.08.2022
462 Clouds 19 1015 81 10000 9.41 349 21:45 26.08.2022
463 Clouds 19 1014 82 10000 9.92 336 19:40 26.08.2022
464 Clouds 19 1014 86 10000 9.48 333 17:29 26.08.2022
465 Clouds 19 1015 87 10000 8.79 333 15:40 26.08.2022
466 Clouds 19 1015 88 10000 9.08 335 14:56 26.08.2022
467 Clouds 20 1014 91 10000 7.93 328 12:56 26.08.2022
468 Clouds 20 1014 92 10000 6.51 321 11:43 26.08.2022
469 Clear 20 1014 89 10000 3.94 300 11:21 26.08.2022
470 Clear 20 1013 87 10000 5 145 07:56 26.08.2022
471 Clear 21 1014 85 10000 6.15 131 02:57 26.08.2022
472 Clear 21 1014 83 10000 6.3 113 23:45 25.08.2022
473 Clear 22 1015 76 10000 6.44 114 22:20 25.08.2022
474 Clear 23 1015 72 10000 5.88 101 20:53 25.08.2022
475 Clear 22 1014 73 10000 5.43 56 19:35 25.08.2022
476 Clear 23 1015 69 10000 4.69 71 18:29 25.08.2022
477 Clear 23 1015 69 10000 4.69 71 17:31 25.08.2022
478 Clear 23 1016 71 10000 4.33 83 16:40 25.08.2022
479 Clear 22 1017 75 10000 5.03 101 15:29 25.08.2022
480 Clear 22 1017 77 10000 5.73 103 13:51 25.08.2022
481 Clouds 20 1019 88 10000 7.65 110 10:49 25.08.2022
482 Clouds 20 1019 89 10000 8.17 115 09:52 25.08.2022
483 Clouds 20 1019 89 10000 8.56 119 07:35 25.08.2022
484 Clouds 21 1020 84 10000 7.29 117 02:51 25.08.2022
485 Clouds 21 1020 80 10000 6.81 104 23:36 24.08.2022
486 Clouds 22 1020 78 10000 6.51 99 22:55 24.08.2022
487 Clouds 22 1020 77 10000 5.24 54 21:53 24.08.2022
488 Clouds 22 1020 71 10000 4.55 31 21:28 24.08.2022
489 Clear 22 1019 70 10000 4.22 21 19:56 24.08.2022
490 Clear 22 1019 69 10000 1.92 23 16:58 24.08.2022
491 Clear 22 1019 72 10000 0.83 72 15:54 24.08.2022
492 Clear 22 1019 72 10000 2.08 136 15:18 24.08.2022
493 Clouds 21 1019 74 10000 3.93 156 12:51 24.08.2022
494 Clouds 20 1019 77 10000 5.8 148 11:19 24.08.2022
495 Clouds 20 1018 76 10000 6.37 147 08:45 24.08.2022
496 Clouds 20 1017 75 10000 7.29 150 06:23 24.08.2022
497 Clouds 21 1017 73 10000 7.92 142 00:53 24.08.2022
498 Clouds 21 1017 71 10000 9.67 119 22:38 23.08.2022
499 Clouds 22 1016 71 10000 6.94 116 21:55 23.08.2022
500 Clouds 22 1016 70 10000 4.92 125 20:47 23.08.2022
501 Clouds 22 1016 72 10000 2.57 108 19:18 23.08.2022
502 Clouds 22 1016 73 10000 2.41 111 18:18 23.08.2022
503 Clouds 22 1016 71 10000 3.94 114 17:28 23.08.2022
504 Clouds 22 1016 69 10000 5.21 119 16:26 23.08.2022
505 Clouds 22 1016 69 10000 6.1 125 14:30 23.08.2022
506 Clouds 21 1017 71 10000 6.95 143 12:46 23.08.2022
507 Clear 20 1017 76 10000 7.88 147 11:19 23.08.2022
508 Clear 20 1017 76 10000 7.88 147 10:33 23.08.2022
509 Clouds 20 1016 77 10000 7.56 147 09:38 23.08.2022
510 Clear 20 1016 76 10000 7.38 151 08:47 23.08.2022
511 Clouds 20 1016 75 10000 6.37 148 08:19 23.08.2022
512 Clouds 20 1016 75 10000 6.37 148 07:33 23.08.2022
513 Clouds 20 1015 74 10000 5.5 154 06:25 23.08.2022
514 Clouds 19 1015 80 10000 7.57 114 01:49 23.08.2022
515 Clouds 20 1016 80 10000 7.21 89 00:27 23.08.2022
516 Clouds 20 1016 80 10000 7.21 89 23:32 22.08.2022
517 Clouds 20 1016 78 10000 6.52 69 22:25 22.08.2022
518 Clouds 19 1016 77 10000 6.64 52 20:53 22.08.2022
519 Clouds 19 1016 76 10000 5.71 36 19:46 22.08.2022
520 Clouds 19 1016 73 10000 5.3 26 18:37 22.08.2022
521 Clouds 19 1017 73 10000 3.09 39 16:23 22.08.2022
522 Clouds 18 1017 72 10000 2.1 64 15:22 22.08.2022
523 Clouds 18 1018 72 10000 2.26 93 12:53 22.08.2022
524 Clouds 18 1018 63 10000 1.27 14 09:27 22.08.2022
525 Clouds 18 1017 64 10000 1.64 344 07:20 22.08.2022
526 Clouds 18 1017 68 10000 2.05 315 02:42 22.08.2022
527 Clouds 18 1017 68 10000 3.3 314 00:37 22.08.2022
528 Clouds 18 1016 69 10000 3.84 319 23:34 21.08.2022
529 Clouds 18 1016 70 10000 4.41 315 21:56 21.08.2022
530 Clouds 19 1016 71 10000 5.14 311 21:20 21.08.2022
531 Clouds 19 1015 75 10000 5.75 301 20:20 21.08.2022
532 Clouds 19 1015 75 10000 6.24 291 18:59 21.08.2022
533 Clouds 19 1015 72 10000 7.05 282 16:52 21.08.2022
534 Clouds 19 1015 75 10000 7.2 277 15:52 21.08.2022
535 Clouds 19 1015 75 10000 7.07 274 14:57 21.08.2022
536 Clouds 19 1015 76 10000 7.31 257 13:51 21.08.2022
537 Clouds 19 1015 76 10000 7.65 237 12:56 21.08.2022
538 Clear 18 1015 82 10000 7.8 221 10:41 21.08.2022
539 Clear 18 1014 80 10000 7.87 220 09:21 21.08.2022
540 Clear 18 1014 80 10000 7.87 220 08:56 21.08.2022
541 Clear 18 1014 78 10000 8.41 219 08:38 21.08.2022
542 Clear 18 1014 76 10000 8.4 210 06:59 21.08.2022
543 Clear 19 1015 69 10000 6.05 228 02:35 21.08.2022
544 Clear 19 1016 67 10000 5.02 245 23:35 20.08.2022
545 Clear 19 1016 68 10000 4.12 248 22:23 20.08.2022
546 Clear 19 1016 67 10000 3.57 249 21:22 20.08.2022
547 Clear 19 1016 62 10000 3.03 267 19:49 20.08.2022
548 Clear 19 1016 62 10000 3.5 273 19:21 20.08.2022
549 Clear 19 1016 63 10000 4.42 277 18:27 20.08.2022
550 Clear 19 1016 64 10000 4.85 280 17:25 20.08.2022
551 Clear 19 1016 64 10000 5.38 285 16:23 20.08.2022
552 Clear 19 1016 65 10000 5.82 289 14:55 20.08.2022
553 Clouds 19 1016 66 10000 5.92 299 12:28 20.08.2022
554 Clouds 19 1016 66 10000 5.92 299 11:46 20.08.2022
555 Clouds 19 1015 68 10000 6.8 301 09:25 20.08.2022
556 Clouds 18 1014 67 10000 7.09 300 08:25 20.08.2022
557 Clouds 19 1013 76 10000 6.32 296 05:48 20.08.2022
558 Clouds 19 1013 87 10000 6.1 327 00:58 20.08.2022
559 Clouds 19 1013 89 10000 5.89 319 23:52 19.08.2022
560 Clouds 19 1013 91 10000 5.94 310 22:50 19.08.2022
561 Clouds 20 1013 89 10000 4.89 298 21:34 19.08.2022
562 Clouds 20 1012 80 10000 2.35 266 19:41 19.08.2022
563 Clouds 20 1012 75 10000 1.71 245 16:40 19.08.2022
564 Clouds 19 1013 75 10000 1.55 212 14:51 19.08.2022
565 Clouds 19 1013 74 10000 1.51 222 12:47 19.08.2022
566 Clouds 18 1013 74 10000 1.73 292 10:43 19.08.2022
567 Clouds 18 1013 75 10000 2.77 286 09:39 19.08.2022
568 Clouds 18 1013 79 10000 2.36 291 05:30 19.08.2022
569 Clouds 18 1014 74 10000 5.19 339 00:46 19.08.2022
570 Clouds 18 1014 76 10000 4.88 339 00:22 19.08.2022
571 Clouds 18 1013 78 10000 4.86 341 23:00 18.08.2022
572 Clouds 18 1013 78 10000 4.86 341 22:37 18.08.2022
573 Clouds 18 1013 79 10000 5.4 337 21:53 18.08.2022
574 Clouds 18 1013 80 10000 5.64 334 21:23 18.08.2022
575 Clouds 18 1013 81 10000 5.95 327 19:54 18.08.2022
576 Clouds 18 1013 83 10000 6.46 330 19:24 18.08.2022
577 Clouds 18 1013 83 10000 6.84 331 17:49 18.08.2022
578 Clouds 18 1013 87 10000 7.82 335 16:55 18.08.2022
579 Clouds 18 1013 85 10000 5.42 352 14:22 18.08.2022
580 Clouds 18 1013 85 10000 5.42 352 13:58 18.08.2022
581 Clouds 18 1013 86 10000 6.19 357 12:46 18.08.2022
582 Clouds 19 1013 89 10000 7.69 5 11:23 18.08.2022
583 Clouds 19 1013 89 10000 7.85 358 09:43 18.08.2022
584 Clouds 19 1012 89 10000 6.41 356 08:31 18.08.2022
585 Clouds 19 1012 89 10000 7.13 18 07:18 18.08.2022
586 Clouds 19 1012 89 10000 4.98 24 03:23 18.08.2022
587 Rain 19 1012 90 10000 10.02 48 23:18 17.08.2022
588 Rain 18 1011 93 10000 12.7 23 21:39 17.08.2022
589 Rain 19 1012 92 4580 6.87 8 19:59 17.08.2022
590 Clouds 19 1012 88 10000 7.5 7 19:28 17.08.2022
591 Clouds 20 1011 87 10000 9.76 358 17:32 17.08.2022
592 Clouds 20 1011 87 10000 8.78 2 16:21 17.08.2022
593 Clouds 20 1012 87 10000 6.99 13 15:18 17.08.2022
594 Clouds 20 1013 85 10000 4.59 17 12:54 17.08.2022
595 Clouds 20 1013 85 10000 3.88 28 11:36 17.08.2022
596 Clouds 20 1013 85 10000 3.88 28 11:36 17.08.2022
597 Clouds 20 1012 85 10000 3.85 38 09:31 17.08.2022
598 Clouds 20 1012 82 10000 2.5 333 07:55 17.08.2022
599 Clouds 20 1011 84 10000 3.63 294 02:24 17.08.2022
600 Clouds 20 1010 85 10000 4.09 291 23:49 16.08.2022
601 Clouds 20 1010 85 10000 3.68 260 22:30 16.08.2022
602 Clouds 20 1010 85 10000 3.57 243 20:52 16.08.2022
603 Clouds 21 1009 85 10000 2.87 265 19:53 16.08.2022
604 Clouds 21 1008 86 10000 4.56 291 18:34 16.08.2022
605 Clouds 21 1008 86 10000 5.47 291 17:41 16.08.2022
606 Clear 21 1007 78 10000 4.11 245 15:47 16.08.2022
607 Clear 21 1007 76 10000 3.14 227 14:55 16.08.2022
608 Clear 21 1007 76 10000 3.14 227 14:37 16.08.2022
609 Clouds 21 1007 78 10000 4.8 219 12:44 16.08.2022
610 Clouds 20 1007 84 10000 5.75 210 10:37 16.08.2022
611 Clouds 20 1006 85 10000 5.56 214 09:44 16.08.2022
612 Clouds 20 1006 85 10000 5.53 224 08:45 16.08.2022
613 Clouds 20 1006 85 10000 4.45 221 07:33 16.08.2022
614 Clouds 20 1004 82 10000 3.77 210 02:19 16.08.2022
615 Clouds 19 1004 88 9766 2.72 215 22:30 15.08.2022
616 Clouds 19 1004 88 9766 2.72 215 22:30 15.08.2022
617 Clouds 20 1004 88 10000 4.43 200 21:54 15.08.2022
618 Clouds 20 1004 88 10000 4.43 200 21:34 15.08.2022
619 Rain 21 1003 79 10000 6.85 164 20:19 15.08.2022
620 Clouds 21 1002 72 10000 3.34 227 18:42 15.08.2022
621 Clouds 21 1002 81 10000 7.18 245 17:36 15.08.2022
622 Clear 23 1002 66 10000 2.69 66 16:22 15.08.2022
623 Clouds 22 1003 72 10000 3.22 102 13:58 15.08.2022
624 Clouds 22 1004 76 10000 3.74 110 12:38 15.08.2022
625 Clouds 20 1004 84 10000 6.02 109 10:18 15.08.2022
626 Clouds 20 1004 81 10000 5.89 108 08:51 15.08.2022
627 Clouds 20 1004 84 10000 5.5 133 06:33 15.08.2022
628 Clouds 20 1005 82 10000 8.17 103 02:57 15.08.2022
629 Clouds 21 1006 80 10000 7.59 80 23:22 14.08.2022
630 Clouds 22 1007 79 10000 7.66 96 21:43 14.08.2022
631 Clouds 22 1007 80 10000 8.36 60 20:33 14.08.2022
632 Clouds 22 1007 80 10000 8.36 60 19:36 14.08.2022
633 Clouds 22 1008 81 10000 6.72 62 18:21 14.08.2022
634 Clouds 21 1009 85 10000 5.38 53 17:27 14.08.2022
635 Clouds 21 1009 82 10000 3.63 49 16:22 14.08.2022
636 Clouds 21 1010 83 10000 3.36 81 14:39 14.08.2022
637 Clouds 21 1011 77 10000 4.52 107 13:50 14.08.2022
638 Clouds 21 1011 77 10000 5.15 91 13:31 14.08.2022
639 Clouds 21 1011 77 10000 4.52 107 13:31 14.08.2022
640 Clouds 21 1011 77 10000 5.15 91 12:35 14.08.2022
641 Clouds 20 1013 79 10000 4.76 92 11:22 14.08.2022
642 Clouds 20 1013 78 10000 6.43 99 08:56 14.08.2022
643 Clouds 20 1013 81 10000 5.33 113 06:27 14.08.2022
644 Clouds 20 1014 80 10000 5.03 113 04:47 14.08.2022
645 Clouds 21 1015 75 10000 5.41 103 01:36 14.08.2022
646 Clouds 22 1016 71 10000 7.17 78 22:56 13.08.2022
647 Clouds 22 1016 68 10000 7.29 52 22:27 13.08.2022
648 Clouds 22 1016 69 10000 6.86 47 20:50 13.08.2022
649 Clear 22 1016 74 10000 6.43 42 19:48 13.08.2022
650 Clear 22 1016 75 10000 6.51 37 19:18 13.08.2022
651 Clear 23 1017 62 10000 4.58 11 17:21 13.08.2022
652 Clear 22 1018 67 10000 2.05 37 14:50 13.08.2022
653 Clear 22 1019 69 10000 1.64 73 13:50 13.08.2022
654 Clear 21 1019 67 10000 2 114 13:28 13.08.2022
655 Clear 21 1019 69 10000 3.05 139 11:29 13.08.2022
656 Clear 21 1019 71 10000 2.3 154 09:23 13.08.2022
657 Clear 21 1019 73 10000 3.74 144 06:54 13.08.2022
658 Clouds 21 1020 74 10000 5.96 117 01:51 13.08.2022
659 Clouds 21 1020 75 10000 6.24 61 23:32 12.08.2022
660 Clouds 21 1020 79 10000 7.11 38 21:39 12.08.2022
661 Clear 22 1019 75 10000 6.58 20 19:49 12.08.2022
662 Clear 22 1020 72 10000 6.25 17 19:23 12.08.2022
663 Clear 22 1020 68 10000 5.62 16 18:29 12.08.2022
664 Clear 22 1020 63 10000 3.57 28 16:27 12.08.2022
665 Clear 22 1021 63 10000 3.05 37 15:21 12.08.2022
666 Clear 21 1021 64 10000 2.75 56 13:47 12.08.2022
667 Clear 21 1022 67 10000 2.73 75 12:38 12.08.2022
668 Clear 19 1022 76 10000 4.44 97 09:22 12.08.2022
669 Clear 19 1022 75 10000 4.84 99 07:46 12.08.2022
670 Clear 19 1022 76 10000 4.86 97 06:24 12.08.2022
671 Clear 20 1023 72 10000 6.07 85 00:49 12.08.2022
672 Clear 20 1022 77 10000 5.75 59 00:18 12.08.2022
673 Clear 20 1022 81 10000 6.11 41 23:27 11.08.2022
674 Clear 21 1022 79 10000 6.05 35 21:55 11.08.2022
675 Clear 21 1022 76 10000 6.13 33 21:28 11.08.2022
676 Clear 21 1022 76 10000 6.13 33 20:31 11.08.2022
677 Clear 21 1022 77 10000 6.41 24 19:41 11.08.2022
678 Clear 21 1022 73 10000 5.76 10 19:21 11.08.2022
679 Clear 21 1023 69 10000 4.44 3 17:23 11.08.2022
680 Clear 21 1024 69 10000 3.65 12 15:51 11.08.2022
681 Clear 21 1024 72 10000 3.39 29 15:20 11.08.2022
682 Clear 20 1024 73 10000 2.78 71 12:35 11.08.2022
683 Clear 19 1025 77 10000 3.58 115 09:24 11.08.2022
684 Clear 19 1025 75 10000 3.39 99 06:58 11.08.2022
685 Clear 19 1025 78 10000 4.07 81 03:25 11.08.2022
686 Clouds 19 1026 75 10000 4.97 52 00:28 11.08.2022
687 Clouds 19 1026 74 10000 5.06 27 22:18 10.08.2022
688 Clouds 19 1026 75 10000 5.19 19 21:20 10.08.2022
689 Clouds 19 1026 75 10000 5.19 19 20:43 10.08.2022
690 Clouds 19 1026 75 10000 5.19 19 20:43 10.08.2022
691 Clouds 20 1026 75 10000 5.33 7 18:53 10.08.2022
692 Clouds 20 1027 73 10000 3.7 7 17:31 10.08.2022
693 Clouds 19 1027 74 10000 2.8 24 15:53 10.08.2022
694 Clouds 19 1028 73 10000 1.86 41 13:34 10.08.2022
695 Clouds 18 1028 76 10000 2.14 92 12:24 10.08.2022
696 Clouds 18 1029 80 10000 2.06 79 08:45 10.08.2022
697 Clouds 18 1029 77 10000 2.03 84 07:44 10.08.2022
698 Clouds 18 1028 77 10000 2.13 50 06:22 10.08.2022
699 Clouds 18 1029 77 10000 3.24 41 02:45 10.08.2022
700 Clouds 18 1029 77 10000 4.56 15 23:34 09.08.2022
701 Clouds 18 1029 77 10000 4.56 11 22:55 09.08.2022
702 Clouds 18 1029 78 10000 5.1 4 21:34 09.08.2022
703 Clouds 18 1029 78 10000 4.59 355 19:34 09.08.2022
704 Clear 19 1029 75 10000 4.46 344 18:23 09.08.2022
705 Clear 18 1029 72 10000 3.44 342 17:26 09.08.2022
706 Clear 18 1029 72 10000 3.44 342 16:40 09.08.2022
707 Clear 18 1029 72 10000 3.15 345 15:40 09.08.2022
708 Clouds 18 1029 73 10000 1.89 45 12:25 09.08.2022
709 Clouds 18 1029 73 10000 3 25 09:22 09.08.2022
710 Clouds 18 1029 73 10000 3 25 08:33 09.08.2022
711 Clouds 17 1029 73 10000 3.13 21 07:20 09.08.2022
712 Clouds 17 1028 73 10000 3.83 22 03:32 09.08.2022
713 Clear 18 1028 74 10000 5.04 2 23:27 08.08.2022
714 Clear 18 1028 74 10000 5.04 2 23:27 08.08.2022
715 Clear 18 1028 74 10000 5.04 2 22:53 08.08.2022
716 Clear 18 1028 73 10000 4.86 1 21:49 08.08.2022
717 Clear 18 1027 73 10000 4.92 4 20:55 08.08.2022
718 Clouds 18 1027 75 10000 5.8 0 19:50 08.08.2022
719 Clouds 18 1026 75 10000 5.71 357 18:35 08.08.2022
720 Clouds 18 1026 77 10000 4.77 356 16:37 08.08.2022
721 Clouds 18 1026 75 10000 3.92 353 15:38 08.08.2022
722 Clouds 18 1026 74 10000 2.45 334 12:51 08.08.2022
723 Clouds 18 1026 75 10000 2.46 328 11:53 08.08.2022
724 Clouds 17 1025 77 10000 2.5 299 09:36 08.08.2022
725 Clouds 17 1024 78 10000 4.05 287 05:43 08.08.2022
726 Clouds 17 1024 75 10000 3.58 276 02:27 08.08.2022
727 Clouds 17 1024 75 10000 4.7 296 22:25 07.08.2022
728 Clouds 17 1024 75 10000 4.7 296 21:38 07.08.2022
729 Clouds 18 1023 73 10000 4.65 284 20:25 07.08.2022
730 Clouds 18 1023 73 10000 4.65 284 19:54 07.08.2022
731 Clouds 18 1023 73 10000 4.65 284 19:33 07.08.2022
732 Clouds 17 1024 70 10000 4.79 277 18:23 07.08.2022
733 Clouds 17 1024 69 10000 4.9 273 16:54 07.08.2022
734 Clouds 17 1024 68 10000 4.76 268 16:28 07.08.2022
735 Clouds 17 1025 68 10000 4.8 267 15:19 07.08.2022
736 Clouds 17 1025 67 10000 4.43 253 13:24 07.08.2022
737 Clouds 17 1026 67 10000 4.82 265 10:59 07.08.2022
738 Clouds 16 1026 67 10000 5.1 266 10:34 07.08.2022
739 Clouds 16 1025 67 10000 5.45 268 06:52 07.08.2022
740 Clouds 17 1026 68 10000 4.98 265 03:19 07.08.2022
741 Clouds 17 1026 67 10000 5.36 265 00:31 07.08.2022
742 Clouds 17 1027 63 10000 4.35 275 22:24 06.08.2022
743 Clouds 17 1027 63 10000 4.24 284 20:42 06.08.2022
744 Clear 17 1027 63 10000 4.74 290 19:41 06.08.2022
745 Clouds 17 1027 65 10000 5.51 294 18:28 06.08.2022
746 Clouds 17 1027 65 10000 5.51 294 17:32 06.08.2022
747 Clear 17 1027 66 10000 6.41 303 14:43 06.08.2022
748 Clear 17 1027 65 10000 6.82 298 13:44 06.08.2022
749 Clear 16 1027 62 10000 6.76 300 11:55 06.08.2022
750 Clear 16 1026 61 10000 6.85 301 10:32 06.08.2022
751 Clear 16 1025 63 10000 7.98 306 08:32 06.08.2022
752 Clear 16 1023 65 10000 6.69 304 03:52 06.08.2022
753 Clear 16 1022 67 10000 7.82 308 23:50 05.08.2022
754 Clear 16 1021 68 10000 7.92 305 22:32 05.08.2022
755 Clear 16 1019 66 10000 8.36 307 19:46 05.08.2022
756 Clouds 17 1019 67 10000 7.8 316 18:46 05.08.2022
757 Clouds 16 1019 73 10000 9.04 318 18:22 05.08.2022
758 Rain 17 1018 74 10000 9.27 308 16:49 05.08.2022
759 Clear 17 1017 74 10000 5.95 283 15:22 05.08.2022
760 Clear 17 1017 74 10000 5.95 283 14:31 05.08.2022
761 Clouds 17 1016 73 10000 3.13 294 13:24 05.08.2022
762 Clouds 17 1016 73 10000 3.13 294 12:30 05.08.2022
763 Clouds 17 1016 72 10000 3.6 313 10:53 05.08.2022
764 Clouds 17 1015 73 10000 3.32 337 08:30 05.08.2022
765 Clouds 17 1014 74 10000 3.86 335 07:22 05.08.2022
766 Clouds 18 1015 78 10000 4.96 358 01:28 05.08.2022
767 Clouds 18 1015 78 10000 6.29 344 22:33 04.08.2022
768 Clear 18 1014 79 10000 7.08 333 21:27 04.08.2022
769 Clear 18 1014 79 10000 7.08 333 20:45 04.08.2022
770 Clouds 18 1013 80 10000 7.42 333 19:49 04.08.2022
771 Clouds 19 1013 81 10000 6.81 337 18:51 04.08.2022
772 Clouds 19 1013 81 10000 6.81 337 18:32 04.08.2022
773 Clouds 19 1012 92 10000 5.1 284 14:45 04.08.2022
774 Clouds 19 1012 91 10000 3.98 273 13:22 04.08.2022
775 Clouds 19 1012 91 10000 3.38 252 11:37 04.08.2022
776 Clouds 19 1012 88 10000 2.38 205 09:58 04.08.2022
777 Clouds 19 1012 87 10000 4 170 07:31 04.08.2022
778 Clear 19 1013 85 10000 5.11 152 02:42 04.08.2022
779 Clear 19 1014 88 10000 1.51 116 23:52 03.08.2022
780 Clear 19 1014 88 10000 1.51 116 23:33 03.08.2022
781 Clear 19 1014 90 10000 4.08 278 21:26 03.08.2022
782 Clouds 19 1014 90 10000 4.72 273 20:19 03.08.2022
783 Clouds 19 1014 91 10000 3.19 272 18:53 03.08.2022
784 Clouds 19 1013 91 10000 4.53 275 16:27 03.08.2022
785 Clouds 19 1013 91 10000 4.53 275 15:53 03.08.2022
786 Clouds 19 1014 90 10000 5.75 240 13:38 03.08.2022
787 Clouds 19 1014 90 10000 7.22 219 10:44 03.08.2022
788 Clouds 18 1013 90 10000 8.04 206 07:21 03.08.2022
789 Clouds 19 1013 90 10000 7.68 199 04:22 03.08.2022
790 Clouds 19 1013 89 10000 6.72 200 03:23 03.08.2022
791 Clouds 19 1014 90 10000 5.8 183 00:46 03.08.2022
792 Clouds 19 1014 88 10000 5.5 200 22:36 02.08.2022
793 Clouds 19 1014 88 10000 5.24 206 21:51 02.08.2022
794 Clouds 19 1014 87 10000 5.05 211 20:29 02.08.2022
795 Rain 18 1013 87 10000 5.3 217 17:47 02.08.2022
796 Rain 19 1014 76 10000 4.77 188 14:39 02.08.2022
797 Clouds 17 1016 68 10000 7.57 180 10:50 02.08.2022
798 Clouds 15 1017 69 10000 7.05 186 08:54 02.08.2022
799 Clouds 15 1017 69 10000 7.05 186 08:54 02.08.2022
800 Clouds 15 1017 69 10000 7.62 187 07:52 02.08.2022
801 Clouds 16 1018 64 10000 4.7 194 04:59 02.08.2022
802 Clouds 16 1018 62 10000 3.7 195 03:37 02.08.2022
803 Clouds 15 1019 61 10000 1.76 311 23:35 01.08.2022
804 Clear 15 1019 62 10000 2.95 320 22:21 01.08.2022
805 Clear 16 1019 62 10000 3.21 331 20:40 01.08.2022
806 Clouds 16 1019 65 10000 4.71 333 19:22 01.08.2022
807 Clouds 16 1018 66 10000 5.76 329 17:27 01.08.2022
808 Clouds 16 1018 66 10000 5.76 329 16:50 01.08.2022
809 Clouds 16 1018 66 10000 5.45 329 15:51 01.08.2022
810 Clouds 16 1018 67 10000 5.63 331 15:28 01.08.2022
811 Clouds 16 1018 68 10000 6.12 328 13:45 01.08.2022
812 Clouds 16 1018 70 10000 6.84 332 11:49 01.08.2022
813 Clouds 16 1017 71 10000 7.91 337 09:39 01.08.2022
814 Clouds 16 1016 73 10000 8.14 340 08:21 01.08.2022
815 Clouds 16 1014 82 10000 9.81 345 04:46 01.08.2022
816 Clouds 17 1013 90 10000 9.84 333 02:31 01.08.2022
817 Clouds 18 1012 95 10000 7.23 307 23:54 31.07.2022
818 Clouds 18 1012 95 10000 6.18 302 22:36 31.07.2022
819 Clouds 18 1012 95 10000 6.18 302 22:36 31.07.2022
820 Clouds 18 1011 97 10000 3.32 298 20:50 31.07.2022
821 Clouds 18 1011 96 10000 1.56 180 19:40 31.07.2022
822 Rain 17 1012 95 10000 3.22 174 17:47 31.07.2022
823 Rain 17 1013 93 6001 3.77 220 15:35 31.07.2022
824 Rain 19 1014 78 10000 3.65 165 13:41 31.07.2022
825 Clouds 18 1015 81 10000 5.56 158 11:52 31.07.2022
826 Clouds 18 1016 84 10000 4.92 187 09:28 31.07.2022
827 Clouds 18 1016 84 10000 5.08 204 06:48 31.07.2022
828 Clouds 18 1017 83 10000 3.09 246 02:57 31.07.2022
829 Clouds 18 1018 77 10000 2.86 269 23:35 30.07.2022
830 Clouds 17 1018 83 10000 4.44 289 22:19 30.07.2022
831 Clouds 17 1018 83 10000 4.44 289 21:48 30.07.2022
832 Clouds 18 1018 86 10000 5.64 291 20:56 30.07.2022
833 Clouds 18 1018 87 10000 6.28 285 19:58 30.07.2022
834 Clouds 20 1017 76 10000 4.1 290 18:53 30.07.2022
835 Clouds 20 1017 72 10000 3.15 306 17:42 30.07.2022
836 Clouds 20 1017 70 10000 2 303 15:49 30.07.2022
837 Clouds 19 1017 71 10000 1.16 306 15:21 30.07.2022
838 Clouds 19 1017 76 10000 1.09 334 12:55 30.07.2022
839 Clouds 18 1018 79 10000 0.51 313 11:55 30.07.2022
840 Clouds 18 1018 83 10000 0.35 122 10:31 30.07.2022
841 Clouds 18 1017 85 10000 1.31 89 09:47 30.07.2022
842 Clouds 17 1017 85 10000 3.38 37 07:55 30.07.2022
843 Clouds 18 1017 81 10000 5.24 84 02:37 30.07.2022
844 Clouds 18 1018 80 10000 5.13 85 01:49 30.07.2022
845 Clouds 19 1018 72 10000 7.09 69 22:25 29.07.2022
846 Clouds 19 1018 74 10000 7.14 60 21:24 29.07.2022
847 Clouds 19 1018 74 10000 7.14 60 20:35 29.07.2022
848 Clouds 18 1018 77 10000 6.9 28 17:59 29.07.2022
849 Clouds 18 1019 73 10000 5.24 42 15:27 29.07.2022
850 Clouds 17 1019 67 10000 4.97 65 13:19 29.07.2022
851 Clouds 16 1020 70 10000 6.3 81 11:22 29.07.2022
852 Clouds 16 1020 72 10000 6.06 75 08:50 29.07.2022
853 Clouds 15 1020 70 10000 5.72 77 07:54 29.07.2022
854 Clouds 16 1021 71 10000 6.58 52 01:52 29.07.2022
855 Clouds 16 1021 66 10000 5.43 25 22:49 28.07.2022
856 Clouds 16 1021 65 10000 5.26 20 21:28 28.07.2022
857 Clouds 16 1021 65 10000 5.26 20 20:32 28.07.2022
858 Clouds 16 1020 66 10000 5.29 17 19:43 28.07.2022
859 Clouds 16 1020 65 10000 4.98 20 19:23 28.07.2022
860 Clouds 16 1020 64 10000 4.6 19 17:44 28.07.2022
861 Clouds 16 1021 64 10000 4.05 21 16:57 28.07.2022
862 Clouds 16 1021 64 10000 3.79 21 16:28 28.07.2022
863 Clouds 15 1021 64 10000 3.13 5 13:30 28.07.2022
864 Clouds 15 1021 66 10000 2.79 1 11:27 28.07.2022
865 Clouds 15 1020 69 10000 4.55 340 06:46 28.07.2022
866 Clouds 15 1020 69 10000 4.63 332 05:33 28.07.2022
867 Clouds 15 1020 70 10000 5.07 330 02:40 28.07.2022
868 Clouds 15 1020 69 10000 5.98 329 22:45 27.07.2022
869 Clouds 15 1020 69 10000 7.29 329 21:29 27.07.2022
870 Clouds 15 1019 69 10000 7.43 327 19:44 27.07.2022
871 Clouds 15 1019 70 10000 7.37 327 18:39 27.07.2022
872 Clouds 15 1019 68 10000 7.91 322 16:31 27.07.2022
873 Clouds 15 1019 67 10000 7.83 318 15:40 27.07.2022
874 Clouds 15 1019 68 10000 7.98 319 14:41 27.07.2022
875 Clouds 15 1019 70 10000 8.2 307 12:52 27.07.2022
876 Clouds 15 1018 71 10000 8.4 313 08:55 27.07.2022
877 Clouds 15 1018 67 10000 8.79 311 07:33 27.07.2022
878 Clouds 15 1017 67 10000 9.77 312 02:43 27.07.2022
879 Clouds 15 1017 66 10000 8.9 304 22:39 26.07.2022
880 Clouds 15 1017 66 10000 9.33 309 21:23 26.07.2022
881 Clouds 15 1017 66 10000 9.33 309 20:47 26.07.2022
882 Clouds 16 1016 68 10000 9.92 306 18:46 26.07.2022
883 Clouds 16 1016 68 10000 9.92 306 18:46 26.07.2022
884 Clouds 16 1016 67 10000 9.89 305 18:20 26.07.2022
885 Clouds 16 1016 67 10000 9.75 307 16:54 26.07.2022
886 Clouds 16 1016 67 10000 10.15 309 15:43 26.07.2022
887 Clouds 16 1015 67 10000 9.9 305 14:00 26.07.2022
888 Clouds 16 1014 68 10000 9.78 305 11:47 26.07.2022
889 Clouds 16 1013 70 10000 9.5 316 09:35 26.07.2022
890 Clouds 16 1012 73 10000 9.76 319 08:18 26.07.2022
891 Clouds 18 1008 86 10000 9.39 269 01:44 26.07.2022
892 Clouds 18 1008 82 10000 8.94 254 23:37 25.07.2022
893 Clouds 18 1008 82 10000 9.45 256 22:33 25.07.2022
894 Clouds 18 1008 81 10000 9.37 255 21:43 25.07.2022
895 Clouds 18 1007 82 10000 9.55 257 20:42 25.07.2022
896 Clouds 19 1006 80 10000 9.54 256 19:55 25.07.2022
897 Clouds 19 1006 82 10000 9.79 263 19:20 25.07.2022
898 Clouds 19 1007 84 10000 9.61 263 17:35 25.07.2022
899 Clouds 19 1007 87 10000 9.33 258 16:40 25.07.2022
900 Clouds 20 1006 84 10000 7.18 239 12:58 25.07.2022
901 Clouds 20 1006 84 10000 5.62 231 10:47 25.07.2022
902 Clouds 20 1008 82 10000 5.02 169 07:29 25.07.2022
903 Clouds 20 1012 78 10000 8.08 138 23:57 24.07.2022
904 Clouds 20 1013 79 10000 6.35 136 23:22 24.07.2022
905 Clouds 20 1013 79 10000 6.35 136 22:43 24.07.2022
906 Clouds 20 1013 77 10000 5.29 138 21:33 24.07.2022
907 Clouds 20 1014 78 10000 2.45 169 20:58 24.07.2022
908 Clouds 20 1014 78 10000 2.45 169 20:35 24.07.2022
909 Clouds 19 1014 81 10000 3.87 254 19:18 24.07.2022
910 Clouds 19 1015 81 10000 4.9 253 17:56 24.07.2022
911 Clouds 19 1015 81 10000 5.6 253 15:54 24.07.2022
912 Clouds 19 1016 81 10000 6.01 250 14:41 24.07.2022
913 Clouds 20 1016 79 10000 5.72 231 13:47 24.07.2022
914 Clouds 19 1017 79 10000 6.58 207 12:28 24.07.2022
915 Clouds 19 1017 79 10000 6.58 207 11:30 24.07.2022
916 Clouds 18 1017 80 10000 8.15 181 09:44 24.07.2022
917 Clouds 17 1017 79 10000 8.52 182 07:53 24.07.2022
918 Clouds 17 1018 78 10000 8.43 180 07:31 24.07.2022
919 Clouds 17 1019 72 10000 5.11 181 02:57 24.07.2022
920 Clear 16 1020 68 10000 1.88 268 22:52 23.07.2022
921 Clear 16 1019 69 10000 4.02 291 20:47 23.07.2022
922 Clear 16 1019 70 10000 5.73 301 19:25 23.07.2022
923 Clear 16 1019 70 10000 5.73 301 18:36 23.07.2022
924 Clear 16 1019 70 10000 6.35 300 17:27 23.07.2022
925 Clouds 16 1019 70 10000 6.83 296 16:24 23.07.2022
926 Clear 16 1019 71 10000 6.91 290 15:22 23.07.2022
927 Clear 16 1019 71 10000 6.91 290 14:52 23.07.2022
928 Clouds 16 1019 71 10000 6.26 295 14:23 23.07.2022
929 Clouds 16 1018 72 10000 7.05 297 11:56 23.07.2022
930 Clouds 16 1018 73 10000 7.23 298 10:41 23.07.2022
931 Clouds 16 1017 72 10000 7.28 300 09:38 23.07.2022
932 Clouds 16 1017 72 10000 7.22 295 07:37 23.07.2022
933 Clouds 16 1017 74 10000 6.35 298 03:37 23.07.2022
934 Clouds 16 1018 73 10000 5.31 306 00:37 23.07.2022
935 Clouds 16 1018 74 10000 5.2 303 21:36 22.07.2022
936 Clouds 16 1018 74 10000 5.61 304 20:33 22.07.2022
937 Clouds 16 1018 71 10000 6.22 291 18:56 22.07.2022
938 Clouds 16 1018 74 10000 6.29 295 17:40 22.07.2022
939 Clouds 16 1019 76 10000 6.69 293 16:26 22.07.2022
940 Clouds 16 1019 76 10000 7.17 297 13:24 22.07.2022
941 Clouds 16 1019 77 10000 7.47 298 10:40 22.07.2022
942 Clouds 16 1018 76 10000 7.83 306 09:25 22.07.2022
943 Clouds 16 1018 77 10000 8.13 309 08:26 22.07.2022
944 Clouds 16 1018 78 10000 8.77 312 04:24 22.07.2022
945 Clouds 16 1018 82 10000 8.07 333 23:44 21.07.2022
946 Clouds 17 1017 84 10000 8.63 344 22:20 21.07.2022
947 Rain 17 1017 86 10000 8.34 346 20:36 21.07.2022
948 Rain 17 1016 90 10000 6.95 356 18:52 21.07.2022
949 Rain 18 1016 94 10000 3.69 308 17:29 21.07.2022
950 Rain 18 1016 94 10000 3.69 308 16:43 21.07.2022
951 Rain 18 1016 93 10000 2.72 282 14:52 21.07.2022
952 Rain 18 1016 94 10000 3 251 14:22 21.07.2022
953 Rain 18 1016 94 10000 4.85 241 12:27 21.07.2022
954 Clouds 18 1016 96 10000 4.41 252 10:37 21.07.2022
955 Rain 18 1015 94 10000 7.29 264 08:54 21.07.2022
956 Rain 18 1015 94 10000 7.29 264 08:35 21.07.2022
957 Rain 19 1016 91 10000 7.37 229 07:23 21.07.2022
958 Clouds 19 1016 89 10000 4.89 262 03:48 21.07.2022
959 Clear 19 1016 83 10000 5.12 303 23:25 20.07.2022
960 Clear 19 1016 83 10000 6.15 291 22:21 20.07.2022
961 Clear 19 1016 84 10000 6.24 285 20:50 20.07.2022
962 Clear 19 1015 85 10000 6.33 280 19:48 20.07.2022
963 Clear 19 1016 85 10000 7.69 273 19:20 20.07.2022
964 Clear 19 1016 85 10000 7.69 273 18:33 20.07.2022
965 Clear 19 1017 88 10000 8.85 266 17:43 20.07.2022
966 Clear 20 1016 88 10000 6.77 253 15:59 20.07.2022
967 Clear 20 1016 88 10000 5.83 252 14:57 20.07.2022
968 Clear 21 1015 81 10000 5.31 256 13:53 20.07.2022
969 Clear 21 1015 74 10000 4.39 206 11:32 20.07.2022
970 Clear 20 1014 71 10000 7.41 151 07:50 20.07.2022
971 Clear 21 1015 70 10000 7.82 128 02:45 20.07.2022
972 Clear 21 1015 70 10000 8.41 127 00:46 20.07.2022
973 Clear 22 1015 69 10000 8.4 121 23:37 19.07.2022
974 Clear 23 1016 65 10000 7.1 107 22:22 19.07.2022
975 Clear 24 1015 62 10000 6.69 104 21:18 19.07.2022
976 Clear 24 1016 63 10000 6.26 100 20:27 19.07.2022
977 Clear 23 1016 65 10000 6.26 95 18:43 19.07.2022
978 Clear 23 1017 66 10000 5.94 97 17:57 19.07.2022
979 Clear 23 1017 67 10000 5.45 97 16:31 19.07.2022
980 Clear 21 1018 73 10000 4.2 115 14:36 19.07.2022
981 Clear 19 1019 80 10000 3.72 152 11:39 19.07.2022
982 Clear 19 1019 80 10000 3.75 161 10:47 19.07.2022
983 Clouds 19 1019 80 10000 3.16 169 09:22 19.07.2022
984 Clouds 19 1019 80 10000 3.16 169 08:32 19.07.2022
985 Clouds 19 1019 78 10000 3.68 177 07:19 19.07.2022
986 Clouds 19 1019 67 10000 3.39 186 05:27 19.07.2022
987 Clouds 19 1019 67 10000 3.39 186 04:53 19.07.2022
988 Clouds 20 1019 66 10000 1.77 220 00:38 19.07.2022
989 Clouds 19 1020 70 10000 1.34 252 23:36 18.07.2022
990 Clouds 19 1020 70 10000 1.88 281 23:18 18.07.2022
991 Clouds 20 1020 70 10000 2.26 273 21:58 18.07.2022
992 Clouds 20 1020 70 10000 2.56 271 20:51 18.07.2022
993 Clouds 20 1019 70 10000 2.54 276 19:33 18.07.2022
994 Clouds 20 1020 73 10000 3.19 260 17:31 18.07.2022
995 Clouds 19 1021 73 10000 4.2 243 15:55 18.07.2022
996 Clouds 19 1021 75 10000 4.83 233 14:51 18.07.2022
997 Clouds 19 1022 73 10000 5.51 213 13:23 18.07.2022
998 Clouds 19 1022 76 10000 5.5 207 11:31 18.07.2022
999 Clouds 18 1023 82 10000 6.62 197 09:28 18.07.2022
1000 Clouds 17 1023 80 10000 6.74 200 07:43 18.07.2022
1001 Clouds 18 1025 77 10000 4.76 211 01:44 18.07.2022
1002 Clouds 18 1025 77 10000 3.66 221 22:46 17.07.2022
1003 Clouds 18 1025 78 10000 3.01 226 22:23 17.07.2022
1004 Clouds 18 1025 78 10000 3.26 242 21:24 17.07.2022
1005 Clouds 18 1025 78 10000 3.26 242 20:44 17.07.2022
1006 Clouds 17 1026 76 10000 3.27 266 19:34 17.07.2022
1007 Clouds 17 1026 75 10000 2.82 261 18:56 17.07.2022
1008 Clouds 17 1026 76 10000 4.77 273 17:39 17.07.2022
1009 Clouds 17 1026 76 10000 5.59 267 16:51 17.07.2022
1010 Clouds 17 1027 76 10000 5.46 268 16:27 17.07.2022
1011 Clouds 17 1027 76 10000 5.36 266 15:27 17.07.2022
1012 Clouds 16 1027 75 10000 4.95 265 13:34 17.07.2022
1013 Clouds 16 1027 77 10000 5.43 278 12:22 17.07.2022
1014 Clouds 16 1027 77 10000 5.76 289 09:30 17.07.2022
1015 Clouds 15 1026 72 10000 5.89 298 06:37 17.07.2022
1016 Clouds 15 1026 71 10000 5.99 304 02:33 17.07.2022
1017 Clouds 15 1025 69 10000 7.51 311 23:22 16.07.2022
1018 Clouds 15 1025 69 10000 7.51 311 23:22 16.07.2022
1019 Clouds 15 1025 68 10000 7.83 311 21:57 16.07.2022
1020 Clouds 15 1024 67 10000 8.61 310 20:28 16.07.2022
1021 Clouds 16 1024 66 10000 8.76 308 18:42 16.07.2022
1022 Clouds 15 1024 66 10000 8.67 310 17:20 16.07.2022
1023 Clouds 15 1024 67 10000 8.97 312 15:41 16.07.2022
1024 Clouds 15 1022 66 10000 10.56 319 11:55 16.07.2022
1025 Clouds 15 1021 67 10000 11.01 320 09:37 16.07.2022
1026 Clouds 15 1020 66 10000 10.94 323 08:58 16.07.2022
1027 Clouds 15 1020 66 10000 10.94 323 08:33 16.07.2022
1028 Clouds 15 1019 69 10000 10.26 320 06:47 16.07.2022
1029 Clouds 15 1018 77 10000 9.99 320 03:31 16.07.2022
1030 Clouds 15 1017 89 10000 8.79 298 23:52 15.07.2022
1031 Rain 15 1017 90 4825 7.01 262 22:46 15.07.2022
1032 Rain 15 1018 85 10000 7.06 269 21:52 15.07.2022
1033 Rain 15 1018 86 10000 8.69 281 20:35 15.07.2022
1034 Rain 16 1018 77 10000 9.4 267 18:46 15.07.2022
1035 Rain 16 1019 76 10000 9.08 264 17:51 15.07.2022
1036 Clouds 16 1020 73 10000 7.97 256 16:46 15.07.2022
1037 Clouds 16 1020 67 10000 7.8 281 13:58 15.07.2022
1038 Clouds 15 1021 67 10000 7.64 291 12:22 15.07.2022
1039 Clouds 15 1020 64 10000 7.96 304 10:52 15.07.2022
1040 Clouds 15 1020 66 10000 9.94 312 07:48 15.07.2022
1041 Clouds 15 1019 68 10000 11.16 311 02:51 15.07.2022
1042 Clear 15 1019 68 10000 10.75 310 00:39 15.07.2022
1043 Clear 15 1019 68 10000 10.75 310 00:39 15.07.2022
1044 Clear 15 1019 69 10000 10.23 308 22:56 14.07.2022
1045 Clear 15 1019 68 10000 10.27 311 22:19 14.07.2022
1046 Clear 15 1019 68 10000 10.27 311 21:39 14.07.2022
1047 Clear 15 1019 67 10000 10.07 311 21:19 14.07.2022
1048 Clear 15 1019 67 10000 10.07 311 20:42 14.07.2022
1049 Clouds 15 1019 68 10000 9.92 312 20:18 14.07.2022
1050 Clouds 16 1018 72 10000 9.15 318 17:59 14.07.2022
1051 Clouds 16 1018 72 10000 9.67 312 16:19 14.07.2022
1052 Rain 16 1018 71 10000 9.84 297 14:55 14.07.2022
1053 Clouds 16 1018 74 10000 9.64 283 13:51 14.07.2022
1054 Clouds 16 1018 75 10000 10.03 276 12:34 14.07.2022
1055 Clouds 16 1018 72 10000 7.31 269 11:26 14.07.2022
1056 Clouds 16 1018 72 10000 7.31 269 10:51 14.07.2022
1057 Clouds 16 1019 72 10000 6.02 273 08:52 14.07.2022
1058 Clouds 15 1019 68 10000 5.76 298 04:44 14.07.2022
1059 Clouds 15 1020 67 10000 6.65 316 01:19 14.07.2022
1060 Clouds 15 1020 67 10000 6.65 316 00:51 14.07.2022
1061 Clouds 16 1020 70 10000 7.16 321 22:31 13.07.2022
1062 Clouds 16 1020 71 10000 7.68 319 21:42 13.07.2022
1063 Clear 16 1020 72 10000 8.07 321 20:38 13.07.2022
1064 Clear 16 1019 73 10000 7.95 327 18:40 13.07.2022
1065 Clear 16 1019 76 10000 8.41 327 17:31 13.07.2022
1066 Clear 16 1019 76 10000 8.41 327 17:31 13.07.2022
1067 Clear 17 1019 77 10000 8.65 308 16:19 13.07.2022
1068 Clear 17 1018 80 10000 8.88 309 14:47 13.07.2022
1069 Clouds 18 1017 89 10000 6.75 288 11:54 13.07.2022
1070 Clouds 18 1016 88 10000 5.69 280 10:45 13.07.2022
1071 Clouds 18 1016 89 10000 4.69 263 09:54 13.07.2022
1072 Clouds 18 1016 88 10000 4.19 238 09:20 13.07.2022
1073 Clouds 18 1018 84 10000 5.32 213 05:29 13.07.2022
1074 Clouds 18 1020 84 10000 4.8 224 01:22 13.07.2022
1075 Clouds 18 1021 84 10000 4.46 241 23:35 12.07.2022
1076 Clouds 18 1021 83 10000 4.39 225 21:53 12.07.2022
1077 Clouds 19 1022 82 10000 5.12 243 21:18 12.07.2022
1078 Rain 19 1022 82 10000 5.12 243 20:41 12.07.2022
1079 Clouds 19 1022 83 10000 5.03 243 18:56 12.07.2022
1080 Clouds 19 1022 82 10000 4.93 244 17:38 12.07.2022
1081 Clouds 18 1023 82 10000 5.34 246 15:42 12.07.2022
1082 Clouds 17 1023 85 10000 4.45 224 14:23 12.07.2022
1083 Clouds 17 1024 87 10000 4.74 216 12:19 12.07.2022
1084 Clouds 16 1024 88 10000 4.55 211 10:51 12.07.2022
1085 Clouds 16 1025 88 10000 3.65 228 09:22 12.07.2022
1086 Clouds 16 1024 87 10000 3.27 236 08:18 12.07.2022
1087 Clouds 16 1024 86 10000 2.52 252 06:24 12.07.2022
1088 Clouds 16 1024 86 10000 2.52 252 05:39 12.07.2022
1089 Clouds 16 1024 85 10000 2.25 298 01:57 12.07.2022
1090 Clouds 16 1024 87 10000 2.23 290 01:57 12.07.2022
1091 Clouds 16 1024 85 10000 2.25 298 01:57 12.07.2022
1092 Clouds 16 1024 88 10000 3.71 342 22:59 11.07.2022
1093 Clouds 16 1024 88 10000 4.52 332 21:45 11.07.2022
1094 Clouds 16 1023 87 10000 4.95 333 20:33 11.07.2022
1095 Clouds 16 1023 87 10000 5.72 331 19:36 11.07.2022
1096 Clouds 16 1023 87 10000 6.15 326 18:32 11.07.2022
1097 Clouds 16 1023 87 10000 5.68 325 17:39 11.07.2022
1098 Clouds 16 1023 88 10000 6.1 328 16:18 11.07.2022
1099 Clouds 16 1023 88 10000 6.73 324 14:37 11.07.2022
1100 Clouds 16 1023 88 10000 6.39 324 11:49 11.07.2022
1101 Clouds 16 1022 87 10000 6.15 333 10:29 11.07.2022
1102 Clouds 16 1022 83 10000 5.67 337 09:42 11.07.2022
1103 Clouds 16 1022 84 10000 5.93 336 08:34 11.07.2022
1104 Clouds 16 1021 86 10000 6.63 327 05:51 11.07.2022
1105 Clouds 15 1022 82 10000 7.14 324 00:22 11.07.2022
1106 Clouds 15 1022 82 10000 7.03 323 22:58 10.07.2022
1107 Clouds 15 1022 81 10000 6.87 323 21:51 10.07.2022
1108 Clouds 15 1022 81 10000 6.97 325 20:54 10.07.2022
1109 Clouds 15 1022 81 10000 6.94 327 19:50 10.07.2022
1110 Clouds 15 1022 81 10000 6.94 327 19:50 10.07.2022
1111 Clouds 15 1022 81 10000 6.94 327 19:50 10.07.2022
1112 Clouds 15 1022 81 10000 7.36 327 18:49 10.07.2022
1113 Clouds 15 1022 80 10000 7.96 328 17:40 10.07.2022
1114 Clouds 15 1022 80 10000 8.26 328 16:57 10.07.2022
1115 Clouds 15 1023 79 10000 8.75 328 16:19 10.07.2022
1116 Clouds 15 1023 79 10000 9.35 328 14:33 10.07.2022
1117 Clouds 15 1023 77 10000 9.3 327 12:30 10.07.2022
1118 Clouds 15 1022 75 10000 10.37 327 11:25 10.07.2022
1119 Clouds 15 1022 74 10000 11 328 08:46 10.07.2022
1120 Clouds 15 1022 74 10000 10.96 327 08:24 10.07.2022
1121 Clouds 14 1023 74 10000 11.79 324 03:38 10.07.2022
1122 Rain 15 1023 73 10000 11.72 320 23:30 09.07.2022
1123 Clouds 15 1024 73 10000 12.01 319 22:25 09.07.2022
1124 Clouds 15 1024 72 10000 11.99 319 21:29 09.07.2022
1125 Clouds 15 1024 70 10000 12.06 318 18:59 09.07.2022
1126 Clouds 15 1024 71 10000 11.92 319 17:59 09.07.2022
1127 Clouds 15 1024 71 10000 11.58 316 16:59 09.07.2022
1128 Clouds 15 1024 71 10000 11.36 318 15:54 09.07.2022
1129 Clouds 15 1024 71 10000 11.36 318 15:35 09.07.2022
1130 Clouds 15 1024 71 10000 11.06 317 13:54 09.07.2022
1131 Clouds 16 1024 72 10000 10.15 318 13:27 09.07.2022
1132 Clouds 15 1024 74 10000 9.53 328 11:33 09.07.2022
1133 Clouds 16 1024 80 10000 9.74 334 10:24 09.07.2022
1134 Clouds 17 1023 82 10000 6.59 311 08:25 09.07.2022
1135 Clouds 17 1024 84 10000 7.39 303 06:59 09.07.2022
1136 Clouds 16 1024 85 10000 8.72 298 04:34 09.07.2022
1137 Clear 16 1026 82 10000 6.84 295 23:27 08.07.2022
1138 Clear 16 1027 81 10000 7.13 305 21:59 08.07.2022
1139 Clear 16 1027 81 10000 7.87 309 21:20 08.07.2022
1140 Clear 16 1027 81 10000 7.87 309 20:33 08.07.2022
1141 Clouds 16 1027 82 10000 8.09 311 18:36 08.07.2022
1142 Clouds 16 1028 83 10000 8.3 308 17:45 08.07.2022
1143 Clouds 16 1028 83 10000 7.76 305 15:53 08.07.2022
1144 Clear 16 1028 85 10000 7.91 307 14:50 08.07.2022
1145 Clouds 16 1028 85 10000 8.33 298 12:30 08.07.2022
1146 Clouds 16 1028 87 10000 8.61 303 10:46 08.07.2022
1147 Clouds 15 1027 86 10000 9.02 305 09:24 08.07.2022
1148 Clouds 15 1027 83 10000 9.17 310 06:55 08.07.2022
1149 Clear 15 1026 78 10000 9.97 315 04:32 08.07.2022
1150 Clear 15 1025 75 10000 11.88 333 00:23 08.07.2022
1151 Clear 15 1025 75 10000 12.62 334 22:47 07.07.2022
1152 Clouds 15 1024 75 10000 13.23 334 21:41 07.07.2022
1153 Clouds 15 1022 79 10000 14.26 330 19:28 07.07.2022
1154 Clouds 15 1021 78 10000 14.38 326 17:42 07.07.2022
1155 Clouds 15 1021 76 10000 13.99 323 15:57 07.07.2022
1156 Clouds 15 1019 73 10000 13.45 329 13:30 07.07.2022
1157 Clouds 15 1019 73 10000 13.14 330 12:40 07.07.2022
1158 Clouds 15 1018 75 10000 13.35 334 12:21 07.07.2022
1159 Clouds 15 1018 75 10000 13.35 334 11:31 07.07.2022
1160 Clouds 16 1017 82 10000 12.97 339 10:45 07.07.2022
1161 Clouds 16 1016 83 10000 11.12 329 10:26 07.07.2022
1162 Clouds 16 1014 85 10000 12.13 332 08:21 07.07.2022
1163 Clouds 16 1012 90 10000 10.3 288 05:23 07.07.2022
1164 Rain 17 1015 92 10000 11.94 262 23:37 06.07.2022
1165 Rain 16 1016 92 10000 11.84 254 23:19 06.07.2022
1166 Rain 16 1016 92 10000 11.83 254 22:58 06.07.2022
1167 Clouds 16 1016 92 10000 11.84 254 22:40 06.07.2022
1168 Rain 16 1017 90 10000 11.09 256 21:59 06.07.2022
1169 Rain 16 1018 92 10000 10.68 258 19:45 06.07.2022
1170 Clouds 16 1019 86 10000 10.89 246 18:41 06.07.2022
1171 Clouds 16 1021 75 10000 10.05 250 16:43 06.07.2022
1172 Clouds 16 1022 71 10000 8.11 265 15:28 06.07.2022
1173 Clouds 15 1022 69 10000 7.86 272 12:44 06.07.2022
1174 Clouds 15 1022 69 10000 7.19 279 11:49 06.07.2022
1175 Clouds 15 1022 64 10000 7.37 295 10:22 06.07.2022
1176 Clouds 15 1022 64 10000 7.52 303 08:41 06.07.2022
1177 Clouds 15 1022 67 10000 8.51 309 07:36 06.07.2022
1178 Clouds 15 1021 70 10000 8.8 316 05:37 06.07.2022
1179 Clouds 16 1021 70 10000 8.59 309 22:49 05.07.2022
1180 Clouds 16 1021 72 10000 8.44 308 22:27 05.07.2022
1181 Clouds 15 1021 74 10000 7.97 306 20:42 05.07.2022
1182 Clouds 16 1021 71 10000 7.98 305 19:44 05.07.2022
1183 Clouds 16 1020 74 10000 7.85 297 19:25 05.07.2022
1184 Clouds 16 1020 74 10000 8.42 284 17:48 05.07.2022
1185 Clouds 16 1020 73 10000 8.72 281 16:57 05.07.2022
1186 Clouds 16 1020 73 10000 8.79 279 15:38 05.07.2022
1187 Clouds 16 1020 74 10000 9.25 280 14:33 05.07.2022
1188 Clouds 16 1020 76 10000 8.72 273 12:52 05.07.2022
1189 Clouds 16 1020 74 10000 7.89 271 12:19 05.07.2022
1190 Clouds 16 1020 73 10000 7.1 269 10:44 05.07.2022
1191 Clouds 16 1019 72 10000 7.15 265 09:28 05.07.2022
1192 Clouds 16 1019 72 10000 7.4 263 08:18 05.07.2022
1193 Clouds 16 1018 69 10000 7.5 256 06:22 05.07.2022
1194 Clear 16 1018 70 10000 7.77 267 04:26 05.07.2022
1195 Clouds 16 1018 74 10000 7.96 263 00:38 05.07.2022
1196 Clouds 16 1018 73 10000 8.34 264 23:34 04.07.2022
1197 Clouds 16 1018 72 10000 8.69 267 22:54 04.07.2022
1198 Clouds 16 1018 73 10000 9.07 270 21:53 04.07.2022
1199 Clouds 16 1018 74 10000 9.66 270 20:54 04.07.2022
1200 Clouds 16 1018 74 10000 9.66 270 20:35 04.07.2022
1201 Clouds 16 1018 74 10000 10.47 268 19:55 04.07.2022
1202 Clouds 16 1018 75 10000 9.9 266 19:36 04.07.2022
1203 Clouds 16 1018 74 10000 10.11 262 18:26 04.07.2022
1204 Clouds 16 1018 74 10000 10.03 260 16:36 04.07.2022
1205 Clouds 17 1018 74 10000 9.62 260 15:34 04.07.2022
1206 Clouds 17 1018 73 10000 9.01 258 13:35 04.07.2022
1207 Clouds 17 1018 74 10000 9 263 12:36 04.07.2022
1208 Clouds 17 1018 75 10000 9.34 252 10:35 04.07.2022
1209 Clouds 17 1018 74 10000 9.04 250 09:53 04.07.2022
1210 Clouds 16 1017 78 10000 8.79 243 08:31 04.07.2022
1211 Clear 16 1017 76 10000 8.23 263 05:34 04.07.2022
1212 Clouds 16 1017 75 10000 5.94 276 00:42 04.07.2022
1213 Clouds 17 1017 74 10000 5.76 288 23:25 03.07.2022
1214 Clouds 17 1017 74 10000 5.56 303 21:58 03.07.2022
1215 Clouds 17 1016 75 10000 5.27 322 20:41 03.07.2022
1216 Rain 17 1016 77 10000 5 302 19:42 03.07.2022
1217 Rain 17 1017 76 10000 4.77 294 19:23 03.07.2022
1218 Clouds 17 1017 76 10000 5.15 288 17:45 03.07.2022
1219 Clouds 17 1017 78 10000 4.86 280 16:58 03.07.2022
1220 Clear 18 1017 81 10000 4.44 269 15:25 03.07.2022
1221 Clear 18 1017 81 10000 4.44 269 14:37 03.07.2022
1222 Clouds 18 1017 81 10000 4.84 262 13:49 03.07.2022
1223 Clouds 18 1017 78 10000 4.65 265 12:42 03.07.2022
1224 Clouds 18 1017 76 10000 4.79 258 11:40 03.07.2022
1225 Clouds 18 1017 77 10000 4.74 260 10:40 03.07.2022
1226 Clouds 18 1016 80 10000 4.95 265 09:59 03.07.2022
1227 Clouds 17 1016 77 10000 5.72 237 07:37 03.07.2022
1228 Clouds 18 1016 77 10000 4.44 162 05:22 03.07.2022
1229 Rain 18 1018 74 10000 4.01 105 00:24 03.07.2022
1230 Clouds 18 1018 70 10000 4.21 96 22:36 02.07.2022
1231 Clouds 17 1019 68 10000 2.95 94 21:43 02.07.2022
1232 Clouds 17 1019 69 10000 1.94 100 20:20 02.07.2022
1233 Clouds 17 1019 69 10000 1.94 100 19:49 02.07.2022
1234 Clouds 17 1020 72 10000 1.41 305 17:58 02.07.2022
1235 Clouds 17 1020 72 10000 1.41 305 17:37 02.07.2022
1236 Clouds 17 1021 76 10000 4.88 277 15:32 02.07.2022
1237 Clouds 16 1021 78 10000 8.07 226 12:24 02.07.2022
1238 Clear 16 1021 77 10000 8.84 220 11:28 02.07.2022
1239 Clear 16 1021 77 10000 8.84 220 10:48 02.07.2022
1240 Clear 16 1021 76 10000 9.53 214 09:49 02.07.2022
1241 Clear 16 1021 78 10000 9.36 214 08:37 02.07.2022
1242 Clear 16 1020 78 10000 9.15 217 08:18 02.07.2022
1243 Clouds 16 1020 79 10000 7.78 226 02:53 02.07.2022
1244 Clouds 17 1019 75 10000 7.46 244 00:27 02.07.2022
1245 Clouds 17 1019 75 10000 7.2 252 22:59 01.07.2022
1246 Clouds 16 1019 74 10000 7.61 254 22:26 01.07.2022
1247 Clouds 16 1019 74 10000 7.61 254 21:37 01.07.2022
1248 Clouds 16 1018 75 10000 7.67 254 20:58 01.07.2022
1249 Clouds 16 1017 73 10000 7.84 260 20:19 01.07.2022
1250 Clouds 16 1017 72 10000 7 264 19:34 01.07.2022
1251 Clouds 17 1017 74 10000 6.59 259 16:40 01.07.2022
1252 Clouds 17 1016 77 10000 7.8 256 14:27 01.07.2022
1253 Clouds 17 1015 78 10000 7.74 256 13:33 01.07.2022
1254 Rain 16 1015 80 10000 8.54 255 10:53 01.07.2022
1255 Clouds 16 1014 81 10000 8.79 260 10:19 01.07.2022
1256 Clouds 16 1011 90 10000 12.4 270 06:21 01.07.2022
1257 Rain 18 1010 96 6593 5.91 172 02:19 01.07.2022
1258 Clouds 19 1009 87 10000 8.01 98 23:34 30.06.2022
1259 Clouds 20 1010 86 10000 8.53 88 22:50 30.06.2022
1260 Clouds 20 1010 86 10000 8.53 88 22:31 30.06.2022
1261 Clouds 21 1010 82 10000 7.37 83 21:53 30.06.2022
1262 Clouds 21 1010 78 10000 6.54 61 20:45 30.06.2022
1263 Clouds 21 1010 75 10000 5.71 52 20:20 30.06.2022
1264 Clouds 21 1010 75 10000 5.71 52 19:47 30.06.2022
1265 Clouds 20 1010 75 10000 4.77 43 18:52 30.06.2022
1266 Clouds 20 1011 74 10000 4.35 48 17:53 30.06.2022
1267 Clouds 20 1011 71 10000 4.34 58 17:18 30.06.2022
1268 Clouds 20 1012 73 10000 3.64 72 16:18 30.06.2022
1269 Clouds 20 1013 77 10000 4.1 101 13:59 30.06.2022
1270 Clouds 19 1013 77 10000 5.02 105 13:20 30.06.2022
1271 Clouds 19 1013 77 10000 5.02 105 12:33 30.06.2022
1272 Clouds 18 1013 82 10000 6.63 105 10:49 30.06.2022
1273 Clouds 18 1013 83 10000 7.1 106 09:47 30.06.2022
1274 Clear 18 1013 82 10000 7.65 108 08:31 30.06.2022
1275 Clouds 18 1013 81 10000 7.43 117 07:41 30.06.2022
1276 Clouds 18 1013 75 10000 7.41 129 05:45 30.06.2022
1277 Clouds 19 1014 78 10000 8.25 102 23:39 29.06.2022
1278 Clouds 19 1014 78 10000 8.9 98 22:42 29.06.2022
1279 Clouds 20 1014 76 10000 9.3 91 22:20 29.06.2022
1280 Clouds 20 1013 75 10000 9.15 92 20:54 29.06.2022
1281 Clouds 20 1013 75 10000 9.15 92 20:32 29.06.2022
1282 Clouds 21 1013 71 10000 5.23 72 19:31 29.06.2022
1283 Clouds 20 1014 72 10000 4.86 75 17:39 29.06.2022
1284 Clouds 20 1015 76 10000 3.85 90 16:24 29.06.2022
1285 Clouds 19 1016 80 10000 4.38 112 13:58 29.06.2022
1286 Clouds 19 1016 80 10000 5.62 116 12:38 29.06.2022
1287 Clouds 18 1017 84 10000 7.19 120 10:19 29.06.2022
1288 Clouds 18 1017 84 10000 7.19 120 09:31 29.06.2022
1289 Clear 17 1018 81 10000 7.1 123 06:57 29.06.2022
1290 Clear 17 1018 81 10000 6.91 124 04:48 29.06.2022
1291 Clouds 17 1020 74 10000 4.77 103 00:54 29.06.2022
1292 Clouds 17 1020 71 10000 4.17 94 00:35 29.06.2022
1293 Clouds 17 1020 70 10000 3.49 76 22:53 28.06.2022
1294 Clouds 17 1020 69 10000 2.97 71 22:21 28.06.2022
1295 Clouds 17 1020 69 10000 2.97 71 21:50 28.06.2022
1296 Clouds 17 1020 69 10000 2.97 71 21:30 28.06.2022
1297 Clouds 17 1020 70 10000 2.63 67 20:18 28.06.2022
1298 Clouds 17 1020 70 10000 2.04 69 19:32 28.06.2022
1299 Clouds 17 1020 70 10000 2.03 87 18:42 28.06.2022
1300 Clouds 17 1020 71 10000 1.99 82 17:37 28.06.2022
1301 Clear 17 1021 73 10000 1.01 282 15:56 28.06.2022
1302 Clear 17 1021 75 10000 2.62 244 14:59 28.06.2022
1303 Clear 17 1021 77 10000 4.35 240 14:19 28.06.2022
1304 Clear 16 1021 72 10000 4.92 245 13:47 28.06.2022
1305 Clear 16 1021 75 10000 5.81 237 12:47 28.06.2022
1306 Clear 16 1020 79 10000 6.98 232 10:44 28.06.2022
1307 Clear 16 1020 78 10000 6.56 231 08:56 28.06.2022
1308 Clear 16 1020 78 10000 6.56 231 08:38 28.06.2022
1309 Clouds 16 1019 79 10000 6.91 238 07:20 28.06.2022
1310 Clouds 16 1019 76 10000 5.33 240 04:56 28.06.2022
1311 Clouds 16 1018 88 10000 5.3 254 23:56 27.06.2022
1312 Clouds 16 1018 89 10000 3.68 268 23:28 27.06.2022
1313 Clouds 16 1018 90 7182 5.64 288 22:42 27.06.2022
1314 Clouds 16 1018 88 10000 3.51 316 21:30 27.06.2022
1315 Clouds 16 1017 90 10000 3.83 308 20:38 27.06.2022
1316 Clouds 16 1016 89 10000 4.42 329 18:55 27.06.2022
1317 Rain 15 1016 91 10000 4.14 328 17:45 27.06.2022
1318 Clouds 16 1016 87 10000 3.57 344 15:51 27.06.2022
1319 Rain 16 1016 87 10000 3.25 3 14:26 27.06.2022
1320 Rain 16 1016 87 10000 4.15 18 12:59 27.06.2022
1321 Clouds 16 1016 87 10000 4.15 18 12:36 27.06.2022
1322 Clouds 16 1014 84 10000 7.02 26 09:53 27.06.2022
1323 Clouds 16 1015 80 10000 6.03 20 08:43 27.06.2022
1324 Rain 16 1016 81 10000 5.01 8 07:53 27.06.2022
1325 Rain 16 1016 82 10000 4.73 2 06:37 27.06.2022
1326 Rain 17 1016 80 10000 3.75 14 01:26 27.06.2022
1327 Rain 18 1017 82 10000 4.13 58 23:27 26.06.2022
1328 Rain 18 1017 79 10000 4.28 46 21:51 26.06.2022
1329 Rain 17 1017 78 10000 4.39 33 20:34 26.06.2022
1330 Clouds 17 1017 78 10000 3.37 345 19:19 26.06.2022
1331 Clouds 17 1016 80 10000 4.03 316 18:23 26.06.2022
1332 Clouds 17 1017 82 10000 3.86 282 15:38 26.06.2022
1333 Clouds 17 1017 81 10000 5.13 266 14:34 26.06.2022
1334 Clouds 17 1016 84 10000 8.1 259 13:29 26.06.2022
1335 Clouds 17 1016 84 10000 8.1 259 12:44 26.06.2022
1336 Clouds 17 1014 91 10000 7.59 244 10:53 26.06.2022
1337 Clouds 18 1013 92 10000 5.9 249 10:22 26.06.2022
1338 Clouds 18 1013 91 10000 5.43 239 08:45 26.06.2022
1339 Clouds 18 1012 89 10000 4.76 198 07:18 26.06.2022
1340 Clouds 19 1012 87 10000 4.81 90 00:45 26.06.2022
1341 Clouds 19 1013 83 10000 4.97 73 00:20 26.06.2022
1342 Clouds 19 1013 83 10000 4.97 73 23:33 25.06.2022
1343 Clouds 19 1013 81 10000 4.52 52 22:51 25.06.2022
1344 Clouds 19 1012 82 10000 3.92 35 22:25 25.06.2022
1345 Clouds 19 1012 82 10000 3.94 30 21:22 25.06.2022
1346 Clouds 19 1012 82 10000 3.94 30 20:59 25.06.2022
1347 Clouds 19 1012 83 10000 3.56 16 20:25 25.06.2022
1348 Clouds 18 1012 85 10000 3.16 14 18:42 25.06.2022
1349 Clouds 18 1012 86 10000 3.69 331 17:28 25.06.2022
1350 Clouds 18 1012 86 10000 3.69 331 16:31 25.06.2022
1351 Clouds 18 1012 87 10000 3.86 304 14:50 25.06.2022
1352 Clouds 18 1012 88 10000 4.52 247 12:56 25.06.2022
1353 Clouds 18 1012 88 10000 4.52 247 12:37 25.06.2022
1354 Clear 18 1011 89 10000 4.28 202 10:30 25.06.2022
1355 Clear 17 1011 92 10000 5.73 176 08:56 25.06.2022
1356 Clouds 17 1010 92 10000 6.09 164 08:29 25.06.2022
1357 Clouds 17 1010 86 10000 5.38 163 06:53 25.06.2022
1358 Clouds 18 1009 81 10000 2.18 168 03:26 25.06.2022
1359 Clouds 17 1008 90 10000 0.65 224 00:21 25.06.2022
1360 Clouds 17 1008 92 10000 0.57 297 22:51 24.06.2022
1361 Clouds 17 1007 93 10000 2.04 291 21:31 24.06.2022
1362 Clouds 17 1006 96 10000 1.91 301 20:25 24.06.2022
1363 Clouds 17 1006 96 10000 1.91 301 19:52 24.06.2022
1364 Clouds 17 1007 94 10000 0.99 24 19:19 24.06.2022
1365 Clouds 17 1007 94 10000 0.98 24 18:48 24.06.2022
1366 Clouds 17 1007 94 10000 0.98 24 18:30 24.06.2022
1367 Rain 17 1006 93 10000 4.95 261 16:57 24.06.2022
1368 Clouds 17 1006 92 10000 5.44 255 15:28 24.06.2022
1369 Rain 17 1006 93 10000 6.08 226 14:25 24.06.2022
1370 Clouds 17 1006 93 10000 6.08 226 13:53 24.06.2022
1371 Clouds 19 1005 86 10000 5.29 177 11:42 24.06.2022
1372 Rain 19 1005 84 10000 6.32 148 10:47 24.06.2022
1373 Clouds 19 1005 81 10000 7.51 132 09:42 24.06.2022
1374 Clouds 18 1005 78 10000 8.44 116 09:19 24.06.2022
1375 Clouds 18 1005 78 10000 8.44 116 08:42 24.06.2022
1376 Clear 18 1007 77 10000 8.24 118 06:47 24.06.2022
1377 Clear 18 1007 76 10000 9.02 121 06:29 24.06.2022
1378 Clear 18 1007 76 10000 9.02 121 05:51 24.06.2022
1379 Clear 18 1010 81 10000 9.5 112 00:57 24.06.2022
1380 Clear 19 1011 83 10000 9.43 104 22:44 23.06.2022
1381 Clear 20 1010 75 10000 7.83 87 21:52 23.06.2022
1382 Clear 20 1011 71 10000 6.07 84 20:53 23.06.2022
1383 Clear 20 1011 70 10000 6.3 88 20:31 23.06.2022
1384 Clear 20 1011 75 10000 5.07 80 18:44 23.06.2022
1385 Clear 19 1012 76 10000 4.78 78 17:44 23.06.2022
1386 Clear 19 1012 76 10000 4.77 79 16:34 23.06.2022
1387 Clear 18 1013 81 10000 4.38 85 15:29 23.06.2022
1388 Clear 18 1013 81 10000 4.38 85 14:59 23.06.2022
1389 Clouds 17 1014 84 10000 4.44 98 12:39 23.06.2022
1390 Clouds 16 1015 85 10000 4.12 116 11:19 23.06.2022
1391 Clouds 16 1015 84 10000 3.87 122 09:20 23.06.2022
1392 Clear 15 1014 82 10000 3.9 103 05:51 23.06.2022
1393 Clouds 15 1015 83 10000 3.78 42 01:29 23.06.2022
1394 Clouds 15 1015 83 10000 3.26 37 00:25 23.06.2022
1395 Clouds 15 1015 83 10000 2.83 32 23:23 22.06.2022
1396 Clouds 15 1015 83 10000 3.31 24 21:45 22.06.2022
1397 Clouds 15 1015 83 10000 3.31 24 21:45 22.06.2022
1398 Clouds 15 1015 83 10000 4.9 8 20:57 22.06.2022
1399 Clouds 16 1014 83 10000 5.41 359 20:20 22.06.2022
1400 Clouds 15 1015 81 10000 5.56 358 19:44 22.06.2022
1401 Clear 15 1014 81 10000 4.07 341 17:50 22.06.2022
1402 Clear 15 1014 82 10000 3.61 336 17:20 22.06.2022
1403 Clear 15 1014 83 10000 4.03 336 15:53 22.06.2022
1404 Clouds 15 1015 83 10000 3.48 333 15:24 22.06.2022
1405 Clouds 15 1015 83 10000 3.12 322 13:50 22.06.2022
1406 Clouds 15 1015 83 10000 2.1 322 13:25 22.06.2022
1407 Clouds 15 1015 83 10000 2.1 322 12:44 22.06.2022
1408 Clouds 15 1015 84 10000 3.01 336 11:47 22.06.2022
1409 Clouds 15 1014 86 10000 3.59 331 10:54 22.06.2022
1410 Clouds 15 1014 87 10000 4.35 326 09:44 22.06.2022
1411 Clouds 15 1014 84 10000 4.9 298 07:56 22.06.2022
1412 Clouds 15 1014 78 10000 4.04 275 03:25 22.06.2022
1413 Clouds 15 1014 77 10000 4.33 282 01:22 22.06.2022
1414 Clouds 15 1014 75 10000 4.04 285 23:39 21.06.2022
1415 Clouds 15 1014 74 10000 3.22 285 21:31 21.06.2022
1416 Clouds 15 1014 72 10000 3.85 297 19:47 21.06.2022
1417 Clouds 15 1015 72 10000 4.31 301 18:30 21.06.2022
1418 Clouds 15 1015 75 10000 4.97 285 16:52 21.06.2022
1419 Clouds 14 1016 78 10000 5.26 262 12:40 21.06.2022
1420 Clouds 14 1015 78 10000 4.42 268 11:30 21.06.2022
1421 Clouds 14 1016 80 10000 5.88 271 09:48 21.06.2022
1422 Clouds 14 1015 80 10000 4.52 299 08:22 21.06.2022
1423 Clouds 14 1015 79 10000 6.2 308 05:41 21.06.2022
1424 Clear 14 1015 82 10000 7.3 315 00:43 21.06.2022
1425 Clear 14 1015 83 10000 8.44 321 22:25 20.06.2022
1426 Clear 14 1015 83 10000 8.44 321 21:50 20.06.2022
1427 Clear 14 1015 82 10000 8.66 322 20:47 20.06.2022
1428 Clear 14 1014 83 10000 9.46 320 19:38 20.06.2022
1429 Clear 14 1014 80 10000 9.23 321 18:45 20.06.2022
1430 Clear 14 1014 79 10000 9.29 320 17:52 20.06.2022
1431 Clear 14 1014 79 10000 9.38 317 17:29 20.06.2022
1432 Clear 14 1014 78 10000 9.53 322 15:56 20.06.2022
1433 Clear 14 1013 75 10000 7.88 310 12:54 20.06.2022
1434 Clear 14 1013 74 10000 7.54 303 10:58 20.06.2022
1435 Clear 14 1012 74 10000 7.28 306 09:41 20.06.2022
1436 Clear 14 1012 74 10000 7.28 306 09:41 20.06.2022
1437 Rain 14 1012 75 10000 6.79 308 08:44 20.06.2022
1438 Clouds 13 1012 78 10000 6.85 285 06:19 20.06.2022
1439 Clouds 14 1013 76 10000 5.35 300 02:29 20.06.2022
1440 Clouds 14 1013 75 10000 4.82 285 00:26 20.06.2022
1441 Clouds 14 1013 72 10000 4.46 285 23:18 19.06.2022
1442 Clouds 14 1013 72 10000 4.95 290 21:59 19.06.2022
1443 Clouds 14 1013 72 10000 4.95 290 21:40 19.06.2022
1444 Clouds 14 1013 72 10000 4.87 284 20:44 19.06.2022
1445 Clouds 14 1013 74 10000 4.25 277 19:48 19.06.2022
1446 Clouds 14 1013 76 10000 3.99 279 19:20 19.06.2022
1447 Clouds 14 1013 76 10000 3.99 279 18:30 19.06.2022
1448 Clouds 13 1013 73 10000 4 306 17:22 19.06.2022
1449 Clouds 13 1013 73 10000 4 306 16:36 19.06.2022
1450 Clouds 13 1013 74 10000 3.62 303 15:44 19.06.2022
1451 Clouds 12 1012 78 10000 3.42 328 15:25 19.06.2022
1452 Clouds 12 1013 80 10000 3.55 320 14:20 19.06.2022
1453 Clouds 12 1013 80 10000 3.55 320 13:43 19.06.2022
1454 Clouds 12 1012 83 10000 3.49 346 11:52 19.06.2022
1455 Clouds 12 1012 83 10000 2.89 1 10:51 19.06.2022
1456 Clouds 12 1012 82 10000 4.48 18 08:55 19.06.2022
1457 Clouds 12 1012 83 10000 5.72 26 08:30 19.06.2022
1458 Rain 12 1011 83 10000 6.87 28 06:41 19.06.2022
1459 Clouds 14 1013 67 10000 6.51 358 03:37 19.06.2022
1460 Clouds 14 1015 79 10000 6.36 331 00:28 19.06.2022
1461 Clouds 14 1015 79 10000 6.36 331 23:52 18.06.2022
1462 Clouds 14 1015 79 10000 6.36 331 23:34 18.06.2022
1463 Clouds 14 1015 81 10000 5.79 314 21:54 18.06.2022
1464 Clouds 14 1016 80 10000 5.77 314 20:51 18.06.2022
1465 Clouds 15 1015 80 10000 5.73 310 20:18 18.06.2022
1466 Clouds 15 1016 77 10000 5.85 301 18:55 18.06.2022
1467 Clouds 15 1016 77 10000 5.85 301 18:30 18.06.2022
1468 Clouds 15 1017 76 10000 5.77 296 17:29 18.06.2022
1469 Clouds 15 1016 74 10000 5.48 299 15:46 18.06.2022
1470 Clouds 15 1017 73 10000 5.72 292 14:54 18.06.2022
1471 Clouds 15 1017 73 10000 5.72 292 14:35 18.06.2022
1472 Clouds 15 1017 77 10000 6.44 295 12:30 18.06.2022
1473 Clear 16 1017 79 10000 6.16 298 11:20 18.06.2022
1474 Clear 16 1016 84 10000 6.28 305 09:39 18.06.2022
1475 Clear 16 1016 90 10000 5.95 310 08:46 18.06.2022
1476 Clear 16 1016 91 10000 6.1 306 07:34 18.06.2022
1477 Clear 16 1014 90 10000 5.07 288 05:20 18.06.2022
1478 Clouds 17 1015 83 10000 6.71 220 01:50 18.06.2022
1479 Clouds 18 1016 81 10000 7.35 207 01:21 18.06.2022
1480 Clouds 18 1017 80 10000 7.7 195 00:23 18.06.2022
1481 Clouds 18 1017 80 10000 7.7 195 23:37 17.06.2022
1482 Clouds 19 1018 76 10000 7.77 179 22:29 17.06.2022
1483 Clouds 19 1019 77 10000 6.94 168 20:29 17.06.2022
1484 Clouds 19 1019 78 10000 5.99 174 19:24 17.06.2022
1485 Rain 18 1020 79 10000 5.99 170 17:58 17.06.2022
1486 Rain 18 1020 79 10000 5.22 158 16:50 17.06.2022
1487 Rain 18 1021 80 10000 4.28 160 16:25 17.06.2022
1488 Clouds 18 1021 80 10000 4.28 160 15:40 17.06.2022
1489 Rain 17 1022 82 10000 3.57 196 14:23 17.06.2022
1490 Rain 17 1023 78 10000 3.52 201 13:59 17.06.2022
1491 Rain 17 1023 78 10000 3.52 201 13:39 17.06.2022
1492 Clouds 16 1022 79 10000 5.7 191 12:29 17.06.2022
1493 Rain 16 1022 79 10000 5.7 191 11:55 17.06.2022
1494 Clouds 16 1022 79 10000 5.7 191 11:34 17.06.2022
1495 Rain 16 1023 81 10000 5.07 203 09:46 17.06.2022
1496 Clouds 16 1023 78 10000 3.73 221 08:26 17.06.2022
1497 Clouds 16 1023 77 10000 4.18 223 06:51 17.06.2022
1498 Clouds 16 1023 76 10000 2.55 265 04:19 17.06.2022
1499 Clouds 16 1024 78 10000 2.3 284 01:56 17.06.2022
1500 Clouds 16 1024 81 10000 3.09 286 00:24 17.06.2022
1501 Clouds 16 1024 82 10000 3.74 288 22:42 16.06.2022
1502 Clouds 16 1023 82 10000 4.14 280 21:23 16.06.2022
1503 Clouds 16 1023 82 10000 4.14 280 20:55 16.06.2022
1504 Clouds 16 1023 82 10000 4.14 280 20:35 16.06.2022
1505 Clouds 16 1022 81 10000 3.48 302 19:45 16.06.2022
1506 Clear 16 1023 78 10000 5.13 283 18:26 16.06.2022
1507 Clear 16 1023 78 10000 5.13 283 17:43 16.06.2022
1508 Clear 16 1023 78 10000 5.13 283 17:43 16.06.2022
1509 Clear 16 1023 77 10000 5.31 276 16:35 16.06.2022
1510 Clear 16 1023 74 10000 4.85 282 15:22 16.06.2022
1511 Clear 16 1023 74 10000 4.85 282 14:37 16.06.2022
1512 Clouds 15 1023 69 10000 4.5 311 13:22 16.06.2022
1513 Clouds 15 1023 69 10000 4.5 311 12:36 16.06.2022
1514 Clouds 15 1022 70 10000 3.7 318 11:51 16.06.2022
1515 Clouds 15 1022 70 10000 3.7 318 11:51 16.06.2022
1516 Clouds 15 1022 72 10000 3.91 327 10:55 16.06.2022
1517 Clouds 15 1022 72 10000 4.17 316 10:20 16.06.2022
1518 Clouds 14 1021 72 10000 4.18 330 09:21 16.06.2022
1519 Clouds 14 1021 72 10000 4.18 330 08:30 16.06.2022
1520 Clouds 14 1021 70 10000 3.89 330 07:26 16.06.2022
1521 Clouds 14 1020 70 10000 3.3 352 04:50 16.06.2022
1522 Clouds 14 1020 70 10000 4 13 02:21 16.06.2022
1523 Clouds 14 1020 70 10000 3.52 26 01:35 16.06.2022
1524 Clouds 14 1020 70 10000 3.52 26 01:35 16.06.2022
1525 Clouds 14 1021 69 10000 3.59 357 00:56 16.06.2022
1526 Clouds 14 1020 69 10000 3.76 357 23:43 15.06.2022
1527 Clouds 14 1020 68 10000 3.74 11 22:38 15.06.2022
1528 Clouds 15 1020 67 10000 3.71 358 21:22 15.06.2022
1529 Clouds 15 1020 67 10000 3.71 358 20:44 15.06.2022
1530 Clouds 15 1020 66 10000 3.6 360 20:25 15.06.2022
1531 Clouds 15 1020 68 10000 3.89 4 19:29 15.06.2022
1532 Clouds 15 1020 67 10000 3.35 8 17:56 15.06.2022
1533 Clouds 15 1020 67 10000 3.35 8 17:32 15.06.2022
1534 Clouds 15 1021 67 10000 2.74 6 15:38 15.06.2022
1535 Clouds 15 1021 69 10000 2.47 0 14:23 15.06.2022
1536 Clouds 14 1021 67 10000 1.69 348 12:54 15.06.2022
1537 Clouds 14 1021 68 10000 1.46 2 11:58 15.06.2022
1538 Clear 14 1021 71 10000 2.22 356 10:24 15.06.2022
1539 Clear 14 1021 71 10000 2.22 356 09:45 15.06.2022
1540 Clear 14 1020 73 10000 2.32 349 08:50 15.06.2022
1541 Clouds 14 1020 74 10000 1.54 336 06:36 15.06.2022
1542 Clouds 14 1020 75 10000 2.31 321 04:47 15.06.2022
1543 Clouds 14 1021 75 10000 3.68 293 01:55 15.06.2022
1544 Clouds 14 1021 74 10000 3.52 286 00:51 15.06.2022
1545 Clouds 14 1021 75 10000 3.21 289 23:40 14.06.2022
1546 Clouds 14 1021 76 10000 3.17 293 23:21 14.06.2022
1547 Clouds 15 1021 76 10000 3.15 294 22:28 14.06.2022
1548 Clouds 15 1021 76 10000 3.15 294 21:41 14.06.2022
1549 Clouds 15 1021 76 10000 3.37 289 20:57 14.06.2022
1550 Clouds 15 1021 76 10000 3.37 289 20:32 14.06.2022
1551 Clouds 15 1021 82 10000 4.96 292 19:22 14.06.2022
1552 Clouds 15 1021 83 10000 5.19 279 18:25 14.06.2022
1553 Clouds 15 1021 82 10000 5.04 267 16:49 14.06.2022
1554 Clouds 15 1021 82 10000 5.1 256 15:50 14.06.2022
1555 Clouds 15 1021 82 10000 5.1 256 15:31 14.06.2022
1556 Clouds 15 1022 82 10000 5.63 252 14:46 14.06.2022
1557 Clouds 15 1022 81 10000 5.91 250 13:46 14.06.2022
1558 Clouds 14 1022 77 10000 5.74 265 12:48 14.06.2022
1559 Clouds 14 1022 77 10000 5.84 265 11:52 14.06.2022
1560 Clouds 14 1022 77 10000 5.9 266 10:49 14.06.2022
1561 Clouds 14 1022 77 10000 5.72 270 10:25 14.06.2022
1562 Clouds 14 1022 77 10000 5.72 270 10:25 14.06.2022
1563 Clouds 13 1022 75 10000 5.63 276 08:52 14.06.2022
1564 Clouds 13 1022 74 10000 5.71 288 07:58 14.06.2022
1565 Clouds 13 1021 71 10000 6.87 286 06:19 14.06.2022
1566 Clouds 13 1021 72 10000 7.05 287 03:36 14.06.2022
1567 Clouds 13 1022 73 10000 8.48 289 01:36 14.06.2022
1568 Clouds 13 1022 71 10000 7.93 293 23:51 13.06.2022
1569 Clouds 13 1022 72 10000 8.06 299 22:27 13.06.2022
1570 Clouds 13 1022 72 10000 8.06 299 21:59 13.06.2022
1571 Clouds 13 1021 73 10000 8.49 301 21:24 13.06.2022
1572 Clear 13 1021 75 10000 8.84 301 19:42 13.06.2022
1573 Clear 13 1021 76 10000 8.9 299 18:45 13.06.2022
1574 Clear 13 1021 76 10000 9.05 300 17:52 13.06.2022
1575 Clear 13 1021 76 10000 9.06 303 17:18 13.06.2022
1576 Clear 13 1020 75 10000 9.23 305 16:22 13.06.2022
1577 Clear 13 1020 74 10000 9.57 309 14:48 13.06.2022
1578 Clouds 13 1019 75 10000 8.93 302 14:18 13.06.2022
1579 Clouds 13 1019 76 10000 8.8 292 13:23 13.06.2022
1580 Clouds 13 1018 77 10000 9.46 289 11:50 13.06.2022
1581 Clouds 13 1018 77 10000 9.3 290 10:36 13.06.2022
1582 Clouds 13 1017 76 10000 8.98 291 09:42 13.06.2022
1583 Rain 13 1017 74 10000 7.73 282 08:30 13.06.2022
1584 Clouds 13 1016 74 10000 7.61 267 06:35 13.06.2022
1585 Clouds 14 1016 73 10000 8.08 268 04:35 13.06.2022
1586 Clouds 14 1017 75 10000 7.79 259 01:44 13.06.2022
1587 Clouds 13 1018 76 10000 7.78 261 01:18 13.06.2022
1588 Clouds 13 1018 76 10000 7.21 261 23:41 12.06.2022
1589 Clear 13 1019 79 10000 7.32 277 22:36 12.06.2022
1590 Clear 13 1019 79 10000 7.32 277 21:46 12.06.2022
1591 Clear 13 1019 83 10000 7.59 274 20:49 12.06.2022
1592 Clear 14 1019 84 10000 7.85 274 19:58 12.06.2022
1593 Clear 14 1019 84 10000 7.99 272 18:54 12.06.2022
1594 Clear 14 1019 84 10000 7.83 269 17:24 12.06.2022
1595 Clear 14 1019 85 10000 7.84 267 15:52 12.06.2022
1596 Clear 14 1020 86 10000 7.81 263 14:50 12.06.2022
1597 Clouds 14 1020 86 10000 7.61 261 14:18 12.06.2022
1598 Clouds 14 1020 86 10000 7.61 261 13:45 12.06.2022
1599 Clouds 15 1020 86 10000 6.87 249 12:28 12.06.2022
1600 Clouds 15 1020 86 10000 6.34 248 11:19 12.06.2022
1601 Clouds 15 1020 86 10000 5.99 246 10:20 12.06.2022
1602 Clear 15 1020 87 10000 6.31 241 08:51 12.06.2022
1603 Clouds 14 1019 87 10000 7.49 233 08:29 12.06.2022
1604 Clouds 14 1019 88 10000 8.18 219 06:49 12.06.2022
1605 Clouds 14 1020 85 10000 7.23 203 04:26 12.06.2022
1606 Clouds 15 1020 82 10000 5.77 218 02:27 12.06.2022
1607 Clouds 14 1020 83 10000 6.43 214 01:35 12.06.2022
1608 Clouds 15 1021 82 10000 5.64 225 00:57 12.06.2022
1609 Clear 15 1021 81 10000 5.17 234 00:19 12.06.2022
1610 Clear 14 1021 81 10000 4.88 244 23:21 11.06.2022
1611 Clear 14 1021 81 10000 4.88 244 22:37 11.06.2022
1612 Clear 14 1021 82 10000 4.62 256 21:31 11.06.2022
1613 Clear 15 1021 82 10000 5.58 268 20:27 11.06.2022
1614 Clear 15 1021 83 10000 5.83 261 19:36 11.06.2022
1615 Clear 15 1021 83 10000 6.4 259 18:45 11.06.2022
1616 Clear 15 1021 82 10000 6.47 252 18:27 11.06.2022
1617 Clear 15 1021 82 10000 6.47 252 17:48 11.06.2022
1618 Clear 15 1021 82 10000 6.82 250 17:26 11.06.2022
1619 Clear 15 1021 82 10000 6.81 250 16:44 11.06.2022
1620 Clear 15 1021 82 10000 7.2 249 16:18 11.06.2022
1621 Clear 15 1021 82 10000 7.58 248 14:57 11.06.2022
1622 Clear 15 1021 83 10000 8.32 246 13:52 11.06.2022
1623 Clear 15 1020 87 10000 8.49 248 12:19 11.06.2022
1624 Clear 15 1019 90 10000 9.32 244 10:32 11.06.2022
1625 Clear 15 1019 92 10000 9.81 234 09:41 11.06.2022
1626 Clear 15 1019 92 10000 9.18 225 08:44 11.06.2022
1627 Clouds 15 1018 90 10000 7.77 211 06:34 11.06.2022
1628 Clouds 15 1018 88 10000 6.18 207 05:53 11.06.2022
1629 Clouds 15 1018 89 10000 4.75 199 03:31 11.06.2022
1630 Clouds 15 1019 87 10000 3.85 213 01:51 11.06.2022
1631 Clouds 15 1019 88 10000 4.82 227 01:25 11.06.2022
1632 Clouds 15 1019 86 10000 5.19 221 23:27 10.06.2022
1633 Clouds 15 1019 85 10000 4.64 213 22:21 10.06.2022
1634 Clouds 15 1019 85 10000 4.64 213 21:44 10.06.2022
1635 Clear 15 1019 86 10000 3.74 219 20:39 10.06.2022
1636 Clouds 15 1019 89 10000 4.21 246 20:19 10.06.2022
1637 Clouds 15 1019 91 10000 4.69 246 19:19 10.06.2022
1638 Clouds 15 1019 91 10000 4.69 246 18:44 10.06.2022
1639 Clouds 15 1019 91 10000 5.01 244 17:54 10.06.2022
1640 Clouds 15 1019 90 10000 4.92 230 17:22 10.06.2022
1641 Clouds 15 1019 89 10000 5.19 212 16:26 10.06.2022
1642 Clouds 15 1019 89 10000 5.19 212 15:39 10.06.2022
1643 Clouds 15 1020 87 10000 6.81 209 14:28 10.06.2022
1644 Clouds 15 1020 86 10000 7.25 212 12:58 10.06.2022
1645 Clouds 15 1020 84 10000 7.36 209 11:59 10.06.2022
1646 Clouds 14 1020 85 10000 7.23 209 10:46 10.06.2022
1647 Clouds 14 1020 87 10000 7.59 212 09:56 10.06.2022
1648 Clouds 14 1019 89 10000 7.94 211 08:48 10.06.2022
1649 Clear 13 1019 86 10000 8.05 208 07:41 10.06.2022
1650 Clear 13 1019 86 10000 7.85 206 06:46 10.06.2022
1651 Clear 13 1019 86 10000 7.43 207 06:27 10.06.2022
1652 Clear 14 1019 87 10000 6.29 210 04:47 10.06.2022
1653 Clear 13 1018 87 10000 5.52 249 01:59 10.06.2022
1654 Clear 13 1018 87 10000 5.52 249 01:36 10.06.2022
1655 Clear 13 1018 87 10000 5.52 249 01:36 10.06.2022
1656 Clear 13 1018 89 10000 6.01 259 23:57 09.06.2022
1657 Clear 13 1017 89 10000 6.32 264 22:24 09.06.2022
1658 Clear 13 1017 89 10000 6.32 264 21:38 09.06.2022
1659 Clear 13 1016 89 10000 7.07 269 21:18 09.06.2022
1660 Clouds 14 1016 89 10000 7.84 271 20:27 09.06.2022
1661 Clouds 14 1015 89 10000 7.78 267 19:31 09.06.2022
1662 Clouds 14 1015 90 10000 7.78 268 18:35 09.06.2022
1663 Clouds 14 1014 91 10000 8.61 270 17:25 09.06.2022
1664 Clouds 14 1013 92 10000 8.27 267 16:28 09.06.2022
1665 Clouds 14 1013 93 10000 8.47 266 14:42 09.06.2022
1666 Clouds 14 1012 93 10000 8.09 267 14:23 09.06.2022
1667 Clouds 14 1011 93 10000 7.32 270 13:29 09.06.2022
1668 Clouds 14 1011 93 10000 7.32 270 12:46 09.06.2022
1669 Clouds 14 1009 95 10000 6.48 272 11:19 09.06.2022
1670 Clouds 14 1008 95 10000 7.16 275 09:54 09.06.2022
1671 Clouds 14 1008 95 10000 7.16 275 09:36 09.06.2022
1672 Clouds 14 1007 95 10000 5.72 241 08:27 09.06.2022
1673 Clouds 13 1006 95 10000 5.05 228 07:23 09.06.2022
1674 Rain 14 1005 96 10000 4.74 229 03:28 09.06.2022
1675 Rain 14 1005 96 6807 3.08 181 00:32 09.06.2022
1676 Rain 15 1005 92 10000 1.39 190 22:59 08.06.2022
1677 Rain 15 1005 92 10000 1.39 190 22:30 08.06.2022
1678 Rain 15 1005 92 10000 1.74 253 21:59 08.06.2022
1679 Rain 15 1005 92 10000 1.74 253 21:31 08.06.2022
1680 Rain 16 1004 86 10000 3.19 214 20:24 08.06.2022
1681 Rain 15 1005 90 10000 2.24 163 19:40 08.06.2022
1682 Rain 15 1005 90 10000 1.74 140 18:48 08.06.2022
1683 Rain 15 1005 89 10000 2.67 141 17:38 08.06.2022
1684 Clouds 16 1006 84 10000 3.82 133 15:53 08.06.2022
1685 Clouds 15 1006 85 10000 3.89 150 14:31 08.06.2022
1686 Clouds 14 1007 87 10000 4.11 147 12:55 08.06.2022
1687 Clouds 14 1007 86 10000 4.12 160 11:36 08.06.2022
1688 Clouds 13 1007 85 10000 4.32 175 10:46 08.06.2022
1689 Clear 13 1008 86 10000 4.18 202 09:28 08.06.2022
1690 Clear 13 1008 86 10000 4.18 202 08:52 08.06.2022
1691 Clear 13 1008 87 10000 4.95 225 06:56 08.06.2022
1692 Clear 13 1008 87 10000 5.76 234 04:41 08.06.2022
1693 Clouds 13 1009 89 10000 7.76 251 00:58 08.06.2022
1694 Clouds 13 1009 89 10000 8.35 251 23:32 07.06.2022
1695 Clouds 13 1009 89 10000 8.57 254 22:54 07.06.2022
1696 Clouds 13 1009 89 10000 8.57 254 22:34 07.06.2022
1697 Clouds 13 1009 90 10000 9.23 253 21:39 07.06.2022
1698 Clear 13 1009 89 10000 9.38 252 21:20 07.06.2022
1699 Clear 13 1009 89 10000 9.38 252 20:40 07.06.2022
1700 Clouds 13 1009 90 10000 10.84 257 19:51 07.06.2022
1701 Clouds 13 1008 87 10000 11.55 247 18:25 07.06.2022
1702 Clouds 13 1008 87 10000 11.55 247 17:33 07.06.2022
1703 Clouds 13 1008 84 10000 10.58 250 16:44 07.06.2022
1704 Clouds 13 1008 86 10000 11.44 253 15:58 07.06.2022
1705 Clouds 13 1008 86 10000 11.44 253 15:36 07.06.2022
1706 Clouds 13 1008 88 10000 11.81 253 15:18 07.06.2022
1707 Clouds 13 1008 88 10000 11.81 253 14:42 07.06.2022
1708 Clouds 13 1008 88 10000 11.77 248 13:34 07.06.2022
1709 Clouds 13 1007 88 10000 12.84 241 12:54 07.06.2022
1710 Clouds 13 1007 87 10000 13.73 237 11:55 07.06.2022
1711 Rain 13 1006 85 10000 14.5 232 10:48 07.06.2022
1712 Clouds 13 1006 87 10000 14.92 219 08:58 07.06.2022
1713 Clouds 13 1006 87 10000 15.36 208 07:54 07.06.2022
1714 Clouds 13 1006 87 10000 15.76 207 06:42 07.06.2022
1715 Clouds 13 1006 86 10000 14.79 200 04:47 07.06.2022
1716 Clouds 12 1008 84 10000 13.94 197 01:27 07.06.2022
1717 Clouds 11 1009 84 10000 12.87 197 23:58 06.06.2022
1718 Rain 12 1010 81 10000 13.24 212 22:54 06.06.2022
1719 Rain 12 1010 81 10000 13.24 212 22:30 06.06.2022
1720 Rain 12 1009 84 10000 11.84 232 21:18 06.06.2022
1721 Rain 13 1009 91 6891 8.86 179 19:29 06.06.2022
1722 Rain 13 1009 91 6891 8.86 179 18:53 06.06.2022
1723 Rain 14 1010 88 10000 8.13 202 18:26 06.06.2022
1724 Rain 14 1010 83 9928 10.7 213 17:27 06.06.2022
1725 Rain 15 1010 79 10000 10.72 204 16:18 06.06.2022
1726 Clear 15 1010 84 10000 11.69 209 15:33 06.06.2022
1727 Clear 15 1010 84 10000 11.69 209 14:32 06.06.2022
1728 Clouds 15 1009 87 10000 11.32 207 13:26 06.06.2022
1729 Clouds 14 1009 87 10000 11.33 207 12:36 06.06.2022
1730 Clouds 14 1009 91 10000 10.95 210 11:53 06.06.2022
1731 Clouds 14 1008 91 10000 11.78 210 10:41 06.06.2022
1732 Clouds 14 1007 90 10000 13.87 209 09:39 06.06.2022
1733 Clouds 14 1007 89 10000 14.24 201 08:32 06.06.2022
1734 Clouds 14 1006 95 10000 12.03 192 07:28 06.06.2022
1735 Rain 14 1006 97 10000 9.96 103 05:28 06.06.2022
1736 Clouds 14 1007 96 10000 11.09 93 03:39 06.06.2022
1737 Rain 14 1010 93 10000 10.4 64 01:23 06.06.2022
1738 Rain 14 1010 93 10000 10.41 64 00:39 06.06.2022
1739 Rain 15 1011 89 7500 9.92 70 23:40 05.06.2022
1740 Rain 15 1012 87 10000 8.8 77 22:45 05.06.2022
1741 Rain 16 1013 83 10000 8.55 84 20:57 05.06.2022
1742 Rain 16 1014 79 10000 9.05 71 19:44 05.06.2022
1743 Clouds 17 1014 77 10000 7.93 62 18:30 05.06.2022
1744 Clouds 16 1014 79 10000 7.45 42 17:55 05.06.2022
1745 Clouds 16 1015 79 10000 6.94 37 17:26 05.06.2022
1746 Clouds 16 1015 79 10000 6.94 37 16:52 05.06.2022
1747 Clouds 16 1015 79 10000 6.94 37 16:32 05.06.2022
1748 Clouds 15 1017 77 10000 5.94 60 14:27 05.06.2022
1749 Clouds 15 1018 77 10000 5.79 72 12:55 05.06.2022
1750 Clouds 14 1019 80 10000 5.82 72 11:47 05.06.2022
1751 Clouds 13 1020 80 10000 5.17 84 10:38 05.06.2022
1752 Clouds 13 1020 79 10000 5.61 79 10:20 05.06.2022
1753 Clouds 13 1020 83 10000 4.7 83 08:34 05.06.2022
1754 Clouds 13 1020 80 10000 4.7 85 07:48 05.06.2022
1755 Clear 13 1021 88 10000 4.96 83 05:22 05.06.2022
1756 Clear 13 1022 87 10000 5.14 61 04:19 05.06.2022
1757 Clear 12 1023 84 10000 3.48 46 01:32 05.06.2022
1758 Clear 12 1023 84 10000 3.48 46 01:32 05.06.2022
1759 Clear 12 1023 84 10000 3.49 34 00:39 05.06.2022
1760 Clear 12 1023 84 10000 4.9 14 22:36 04.06.2022
1761 Clear 12 1023 81 10000 5.55 6 20:33 04.06.2022
1762 Clear 12 1023 78 10000 5.8 2 18:51 04.06.2022
1763 Clear 12 1024 78 10000 6.08 359 16:47 04.06.2022
1764 Clear 12 1024 77 10000 5.6 358 16:18 04.06.2022
1765 Clear 12 1024 77 10000 5.13 2 14:54 04.06.2022
1766 Clouds 13 1024 75 10000 5.14 8 13:36 04.06.2022
1767 Clouds 12 1024 76 10000 4.33 13 11:22 04.06.2022
1768 Clouds 12 1024 76 10000 4.35 13 10:49 04.06.2022
1769 Clouds 12 1024 77 10000 5.51 18 09:45 04.06.2022
1770 Clouds 12 1023 78 10000 5.56 17 08:43 04.06.2022
1771 Clouds 12 1023 79 10000 6.15 14 07:42 04.06.2022
1772 Clouds 12 1023 79 10000 5.94 12 05:30 04.06.2022
1773 Clouds 12 1022 82 10000 7.5 19 02:20 04.06.2022
1774 Clouds 12 1022 81 10000 7.78 17 00:19 04.06.2022
1775 Clouds 12 1022 81 10000 7.93 15 22:40 03.06.2022
1776 Clouds 12 1022 81 10000 8.23 11 21:39 03.06.2022
1777 Clouds 12 1021 80 10000 8.01 10 20:38 03.06.2022
1778 Clouds 13 1021 80 10000 6.98 13 18:54 03.06.2022
1779 Clear 13 1021 78 10000 6.18 15 16:52 03.06.2022
1780 Clear 13 1022 78 10000 5.38 11 15:37 03.06.2022
1781 Clear 13 1022 74 10000 3.48 13 13:48 03.06.2022
1782 Clear 13 1022 73 10000 1.88 26 11:50 03.06.2022
1783 Clear 12 1022 73 10000 1.84 37 09:53 03.06.2022
1784 Clear 12 1022 74 10000 2.27 26 09:28 03.06.2022
1785 Clouds 12 1022 73 10000 1.52 334 07:27 03.06.2022
1786 Clouds 12 1022 73 10000 1.52 334 06:44 03.06.2022
1787 Clouds 12 1022 75 10000 1.84 320 06:26 03.06.2022
1788 Clouds 12 1022 78 10000 2.65 290 02:24 03.06.2022
1789 Clouds 12 1022 76 10000 3.6 291 23:34 02.06.2022
1790 Clouds 13 1022 77 10000 4.63 299 21:57 02.06.2022
1791 Clouds 13 1022 77 10000 4.63 299 21:57 02.06.2022
1792 Clouds 13 1021 77 10000 5.74 294 20:26 02.06.2022
1793 Clouds 13 1021 77 10000 5.74 294 19:53 02.06.2022
1794 Clouds 13 1021 77 10000 5.74 294 19:35 02.06.2022
1795 Clear 13 1021 73 10000 6.94 296 17:59 02.06.2022
1796 Clear 13 1021 74 10000 8.13 288 16:28 02.06.2022
1797 Clear 13 1021 74 10000 8.64 287 14:58 02.06.2022
1798 Clouds 13 1021 74 10000 9.17 283 13:30 02.06.2022
1799 Clouds 13 1021 75 10000 9.32 282 12:46 02.06.2022
1800 Clouds 13 1020 77 10000 9.3 285 10:32 02.06.2022
1801 Clouds 12 1019 80 10000 9.45 287 09:29 02.06.2022
1802 Clouds 12 1019 80 10000 9.45 287 08:30 02.06.2022
1803 Clouds 12 1018 79 10000 9.84 290 07:58 02.06.2022
1804 Clouds 12 1017 77 10000 10.67 286 06:20 02.06.2022
1805 Clouds 12 1017 78 10000 10.46 285 03:49 02.06.2022
1806 Clouds 12 1017 73 10000 8.02 287 00:39 02.06.2022
1807 Clouds 12 1016 68 10000 6.89 303 22:57 01.06.2022
1808 Clouds 12 1016 69 10000 6.41 314 21:52 01.06.2022
1809 Clouds 12 1015 69 10000 6.41 321 21:22 01.06.2022
1810 Clouds 12 1015 69 10000 6.41 321 20:38 01.06.2022
1811 Clouds 13 1015 68 10000 6.22 327 19:50 01.06.2022
1812 Clouds 13 1014 69 10000 5.74 341 18:24 01.06.2022
1813 Clouds 13 1014 69 10000 5.29 346 16:56 01.06.2022
1814 Clouds 13 1014 68 10000 4.84 351 15:42 01.06.2022
1815 Clouds 13 1014 68 10000 4.84 351 15:42 01.06.2022
1816 Clouds 13 1013 67 10000 4.36 357 14:46 01.06.2022
1817 Clouds 13 1013 66 10000 4.09 357 13:18 01.06.2022
1818 Clouds 13 1013 64 10000 2.81 6 10:44 01.06.2022
1819 Rain 13 1012 68 10000 2.51 36 09:28 01.06.2022
1820 Clouds 12 1013 72 10000 2.72 42 07:59 01.06.2022
1821 Clouds 12 1012 73 10000 2.86 45 07:20 01.06.2022
1822 Clouds 13 1012 66 10000 2.47 58 03:55 01.06.2022
1823 Clouds 13 1013 64 10000 4.67 57 23:47 31.05.2022
1824 Clouds 13 1013 63 10000 4.46 51 22:41 31.05.2022
1825 Clouds 13 1013 63 10000 4.68 47 22:22 31.05.2022
1826 Clouds 13 1013 63 10000 4.68 47 21:39 31.05.2022
1827 Clouds 13 1013 62 10000 4.29 45 20:44 31.05.2022
1828 Clouds 13 1013 63 10000 4.47 43 19:31 31.05.2022
1829 Clouds 13 1013 61 10000 2.47 39 18:26 31.05.2022
1830 Clouds 13 1013 61 10000 2.47 39 17:37 31.05.2022
1831 Clouds 12 1014 62 10000 1.41 69 15:46 31.05.2022
1832 Clouds 12 1014 63 10000 1.44 96 15:22 31.05.2022
1833 Clouds 12 1014 66 10000 1.96 124 12:56 31.05.2022
1834 Clouds 12 1014 67 10000 2.06 140 12:18 31.05.2022
1835 Clouds 11 1015 68 10000 1.79 159 10:25 31.05.2022
1836 Clouds 11 1015 64 10000 0.68 162 07:46 31.05.2022
1837 Clouds 11 1015 63 10000 0.7 231 06:19 31.05.2022
1838 Clouds 11 1015 62 10000 0.84 232 04:31 31.05.2022
1839 Clouds 11 1015 65 10000 1.41 312 23:45 30.05.2022
1840 Clouds 11 1015 65 10000 1.99 320 23:24 30.05.2022
1841 Clouds 11 1015 65 10000 1.99 320 22:37 30.05.2022
1842 Clouds 11 1015 65 10000 2.44 312 21:40 30.05.2022
1843 Clouds 11 1014 65 10000 2.82 305 20:52 30.05.2022
1844 Clouds 11 1014 65 10000 2.91 305 19:44 30.05.2022
1845 Clouds 11 1014 66 10000 2.85 310 18:18 30.05.2022
1846 Clouds 11 1014 67 10000 3.13 311 17:23 30.05.2022
1847 Clouds 11 1013 67 10000 3.28 310 16:22 30.05.2022
1848 Clouds 11 1013 66 10000 3.83 284 13:38 30.05.2022
1849 Clouds 11 1013 66 10000 3.37 278 11:40 30.05.2022
1850 Clouds 11 1012 67 10000 3.16 298 09:58 30.05.2022
1851 Clouds 11 1012 67 10000 3.58 306 08:52 30.05.2022
1852 Clouds 11 1011 65 10000 4.25 298 06:28 30.05.2022
1853 Clouds 11 1011 66 10000 4.26 301 04:52 30.05.2022
1854 Clouds 10 1012 66 10000 6.58 322 01:23 30.05.2022
1855 Clouds 10 1012 68 10000 7.53 325 22:49 29.05.2022
1856 Clouds 10 1012 68 10000 7.96 329 22:29 29.05.2022
1857 Clouds 10 1012 72 10000 8.88 331 20:38 29.05.2022
1858 Clouds 10 1012 71 10000 9.46 333 19:30 29.05.2022
1859 Clouds 11 1011 70 10000 9.64 334 18:34 29.05.2022
1860 Clouds 11 1011 73 10000 10.34 338 16:40 29.05.2022
1861 Clouds 11 1011 74 10000 10.4 340 15:47 29.05.2022
1862 Clouds 11 1011 75 10000 10.52 342 14:56 29.05.2022
1863 Clouds 11 1011 76 10000 9.86 340 13:46 29.05.2022
1864 Clouds 11 1011 79 10000 9.94 338 11:31 29.05.2022
1865 Clouds 11 1011 80 10000 10.11 335 10:37 29.05.2022
1866 Clouds 10 1011 80 10000 10.42 331 08:39 29.05.2022
1867 Clouds 10 1012 79 10000 11.68 333 05:22 29.05.2022
1868 Clouds 10 1012 79 10000 11.68 333 04:41 29.05.2022
1869 Clouds 11 1012 78 10000 12.46 330 02:50 29.05.2022
1870 Clouds 11 1014 80 10000 12.32 320 23:49 28.05.2022
1871 Clouds 11 1014 79 10000 12.62 318 23:26 28.05.2022
1872 Clouds 11 1014 79 10000 13.11 316 22:25 28.05.2022
1873 Clouds 11 1014 79 10000 13.11 316 21:31 28.05.2022
1874 Clouds 11 1015 81 10000 13.31 306 19:24 28.05.2022
1875 Clouds 11 1015 81 10000 13.31 306 18:46 28.05.2022
1876 Clouds 11 1015 81 10000 13.38 306 17:35 28.05.2022
1877 Clouds 11 1016 80 10000 13.34 307 16:36 28.05.2022
1878 Clouds 11 1016 80 10000 13.34 307 15:39 28.05.2022
1879 Clear 11 1016 77 10000 13.31 307 14:18 28.05.2022
1880 Clear 11 1016 74 10000 13.2 307 12:44 28.05.2022
1881 Clear 11 1016 72 10000 13.52 310 11:57 28.05.2022
1882 Clear 11 1016 72 10000 13.85 313 10:51 28.05.2022
1883 Clear 11 1016 73 10000 14.2 314 09:57 28.05.2022
1884 Clear 11 1016 74 10000 14.23 315 08:45 28.05.2022
1885 Clouds 11 1015 76 10000 14.6 315 07:23 28.05.2022
1886 Clouds 11 1014 77 10000 15.07 311 05:28 28.05.2022
1887 Rain 10 1014 78 10000 15.64 303 02:43 28.05.2022
1888 Clear 11 1014 72 10000 15.09 298 00:32 28.05.2022
1889 Clear 11 1015 72 10000 14.29 295 22:51 27.05.2022
1890 Clear 11 1015 73 10000 14.13 295 21:43 27.05.2022
1891 Clear 11 1015 74 10000 14 294 20:49 27.05.2022
1892 Clouds 11 1015 76 10000 14.15 294 20:24 27.05.2022
1893 Clouds 11 1014 76 10000 13.73 291 19:42 27.05.2022
1894 Rain 11 1015 76 10000 13.76 290 19:21 27.05.2022
1895 Clouds 11 1015 77 10000 13.81 287 17:52 27.05.2022
1896 Clouds 11 1015 77 10000 13.77 286 16:38 27.05.2022
1897 Clouds 11 1015 78 10000 14.22 287 15:22 27.05.2022
1898 Clouds 11 1015 78 10000 14.41 285 13:53 27.05.2022
1899 Clouds 11 1015 75 10000 14.38 283 12:39 27.05.2022
1900 Clouds 11 1015 74 10000 14.2 284 11:33 27.05.2022
1901 Clear 11 1014 74 10000 13.57 283 10:55 27.05.2022
1902 Clear 11 1014 72 10000 13.05 283 10:29 27.05.2022
1903 Clear 11 1014 72 10000 13.05 283 09:34 27.05.2022
1904 Clear 11 1014 71 10000 12.71 287 07:50 27.05.2022
1905 Clear 12 1014 72 10000 11.2 283 05:39 27.05.2022
1906 Clouds 13 1014 81 10000 11.39 288 02:26 27.05.2022
1907 Clouds 13 1013 92 10000 11.11 266 00:29 27.05.2022
1908 Clouds 13 1013 90 10000 11.66 265 22:39 26.05.2022
1909 Rain 13 1014 93 10000 10.67 248 21:39 26.05.2022
1910 Rain 12 1015 88 10000 8.85 249 20:30 26.05.2022
1911 Clouds 12 1015 89 10000 10.04 257 19:19 26.05.2022
1912 Clouds 12 1016 87 10000 9.24 259 17:51 26.05.2022
1913 Clouds 12 1016 84 10000 9.75 263 16:42 26.05.2022
1914 Clouds 12 1016 85 10000 10.2 263 15:45 26.05.2022
1915 Clouds 13 1016 86 10000 9.97 260 14:43 26.05.2022
1916 Clouds 12 1017 79 10000 9.93 267 12:37 26.05.2022
1917 Clouds 13 1016 81 10000 10.05 266 11:24 26.05.2022
1918 Clouds 13 1015 81 10000 10.31 269 09:44 26.05.2022
1919 Clear 13 1014 82 10000 10.6 271 09:26 26.05.2022
1920 Clear 13 1014 82 10000 10.6 271 08:30 26.05.2022
1921 Clouds 13 1011 83 10000 11.14 273 04:41 26.05.2022
1922 Clouds 13 1010 87 10000 12.37 240 00:48 26.05.2022
1923 Rain 13 1010 90 10000 11.56 238 23:40 25.05.2022
1924 Clouds 13 1010 93 10000 11.71 234 22:22 25.05.2022
1925 Clouds 13 1010 93 10000 11.71 234 21:33 25.05.2022
1926 Rain 12 1010 91 10000 11.13 232 20:37 25.05.2022
1927 Clouds 13 1011 78 10000 10.55 241 19:29 25.05.2022
1928 Clouds 13 1011 77 10000 10.19 250 17:43 25.05.2022
1929 Rain 13 1011 77 10000 9.59 252 16:38 25.05.2022
1930 Clouds 13 1011 75 10000 8.54 243 15:54 25.05.2022
1931 Clouds 13 1011 75 10000 8.79 235 14:54 25.05.2022
1932 Rain 13 1011 75 10000 8.79 235 14:33 25.05.2022
1933 Rain 13 1011 76 10000 8.35 230 13:56 25.05.2022
1934 Clouds 13 1011 78 10000 7.85 225 12:45 25.05.2022
1935 Clouds 13 1011 81 10000 8.41 219 10:54 25.05.2022
1936 Clouds 12 1011 82 10000 8.53 222 10:18 25.05.2022
1937 Clouds 12 1011 83 10000 8.53 225 08:41 25.05.2022
1938 Clear 12 1010 83 10000 7.75 218 07:23 25.05.2022
1939 Clear 12 1010 76 10000 6.56 243 04:23 25.05.2022
1940 Clear 12 1009 83 10000 8.11 252 00:28 25.05.2022
1941 Clear 12 1009 83 10000 8.11 252 23:47 24.05.2022
1942 Clear 12 1009 83 10000 8.11 252 23:47 24.05.2022
1943 Clear 12 1008 84 10000 8.9 253 22:39 24.05.2022
1944 Clear 12 1007 86 10000 9.64 250 21:43 24.05.2022
1945 Clear 12 1007 86 10000 10.15 248 21:21 24.05.2022
1946 Clear 12 1007 86 10000 10.15 248 20:30 24.05.2022
1947 Clouds 12 1005 84 10000 10.24 245 18:56 24.05.2022
1948 Clouds 13 1004 84 10000 10.12 248 16:58 24.05.2022
1949 Clouds 13 1003 85 10000 9.8 246 16:28 24.05.2022
1950 Rain 13 1002 83 10000 8.7 237 15:18 24.05.2022
1951 Rain 13 1002 84 10000 8.56 238 14:25 24.05.2022
1952 Rain 13 1002 84 10000 11.13 236 13:27 24.05.2022
1953 Rain 13 1001 86 10000 11.08 223 11:49 24.05.2022
1954 Clouds 13 999 91 10000 7.4 216 09:47 24.05.2022
1955 Clouds 13 999 92 10000 6.54 224 08:51 24.05.2022
1956 Clouds 13 999 93 10000 6.4 226 07:30 24.05.2022
1957 Clouds 13 998 92 10000 8.54 244 05:59 24.05.2022
1958 Clouds 13 996 95 10000 9.73 258 02:53 24.05.2022
1959 Rain 13 995 92 10000 12.98 260 01:44 24.05.2022
1960 Rain 15 994 94 10000 13.14 144 23:44 23.05.2022
1961 Rain 16 995 85 10000 9.5 130 22:22 23.05.2022
1962 Clouds 16 995 85 10000 9.5 130 21:42 23.05.2022
1963 Clouds 16 996 81 10000 9.42 133 20:45 23.05.2022
1964 Clouds 16 997 80 10000 8.36 116 19:44 23.05.2022
1965 Clouds 16 998 78 10000 7.95 112 19:18 23.05.2022
1966 Clouds 16 998 78 10000 7.95 112 18:37 23.05.2022
1967 Clouds 16 999 76 10000 7.73 109 17:56 23.05.2022
1968 Clouds 16 1001 76 10000 7.6 115 15:55 23.05.2022
1969 Clouds 15 1003 79 10000 7.16 123 13:56 23.05.2022
1970 Clouds 15 1005 81 10000 8.3 123 11:41 23.05.2022
1971 Clouds 14 1005 83 10000 8.94 122 10:45 23.05.2022
1972 Clouds 13 1006 84 10000 8.73 123 09:47 23.05.2022
1973 Clouds 13 1007 83 10000 8.12 127 08:46 23.05.2022
1974 Clouds 13 1007 83 10000 8.12 127 08:46 23.05.2022
1975 Clouds 13 1008 84 10000 7.4 128 06:49 23.05.2022
1976 Clouds 13 1008 84 10000 7.4 128 06:31 23.05.2022
1977 Clouds 13 1011 83 10000 6.43 132 03:27 23.05.2022
1978 Clouds 14 1011 79 10000 6.18 131 01:52 23.05.2022
1979 Clouds 13 1012 74 10000 5.85 129 01:26 23.05.2022
1980 Clouds 13 1013 71 10000 4.96 113 22:49 22.05.2022
1981 Clouds 13 1013 72 10000 4.51 115 22:27 22.05.2022
1982 Clouds 13 1013 72 10000 4.51 115 21:51 22.05.2022
1983 Clouds 13 1014 72 10000 4.3 120 20:43 22.05.2022
1984 Clouds 14 1014 70 10000 3.88 120 20:22 22.05.2022
1985 Clouds 13 1014 71 10000 3.36 119 19:34 22.05.2022
1986 Clouds 13 1015 71 10000 2.27 143 18:50 22.05.2022
1987 Clouds 13 1015 72 10000 1.87 146 18:21 22.05.2022
1988 Clouds 13 1016 74 10000 1.02 149 16:57 22.05.2022
1989 Clouds 13 1016 76 10000 1.15 210 15:34 22.05.2022
1990 Clouds 13 1016 78 10000 1.49 242 14:47 22.05.2022
1991 Clouds 12 1017 80 10000 2.65 254 13:21 22.05.2022
1992 Clouds 12 1017 80 10000 2.65 254 12:45 22.05.2022
1993 Clouds 12 1017 84 10000 3.35 255 10:55 22.05.2022
1994 Clouds 12 1017 85 10000 3.84 260 09:38 22.05.2022
1995 Clouds 12 1017 85 10000 3.77 281 07:52 22.05.2022
1996 Clouds 12 1017 83 10000 4.65 281 07:20 22.05.2022
1997 Clouds 12 1017 82 10000 5.48 279 04:49 22.05.2022
1998 Clouds 12 1019 84 10000 6.34 293 01:20 22.05.2022
1999 Clouds 12 1019 84 10000 6.65 293 00:26 22.05.2022
2000 Clouds 12 1019 84 10000 6.65 293 23:47 21.05.2022
2001 Clouds 12 1019 85 10000 8.04 286 22:24 21.05.2022
2002 Clouds 12 1019 85 10000 8.04 286 21:39 21.05.2022
2003 Clouds 12 1018 86 10000 8.46 283 20:48 21.05.2022
2004 Clouds 12 1018 86 10000 8.54 282 20:19 21.05.2022
2005 Clouds 12 1018 88 10000 8.63 281 19:24 21.05.2022
2006 Clouds 12 1018 88 10000 9.03 280 17:38 21.05.2022
2007 Clear 12 1018 88 10000 10.28 278 15:38 21.05.2022
2008 Clear 12 1017 88 10000 10.72 273 14:37 21.05.2022
2009 Clear 12 1017 88 10000 10.47 276 13:39 21.05.2022
2010 Clear 12 1016 88 10000 10.88 274 12:40 21.05.2022
2011 Clear 12 1016 89 10000 10.88 274 11:56 21.05.2022
2012 Clear 12 1014 88 10000 10.52 275 10:22 21.05.2022
2013 Clear 13 1014 87 10000 10.36 276 09:20 21.05.2022
2014 Clear 13 1014 87 10000 10.36 276 08:47 21.05.2022
2015 Clouds 13 1013 88 10000 8.78 239 06:28 21.05.2022
2016 Clouds 12 1013 86 10000 10.37 279 02:26 21.05.2022
2017 Clouds 11 1013 88 10000 7.39 270 23:47 20.05.2022
2018 Rain 11 1012 80 10000 5.76 312 22:42 20.05.2022
2019 Rain 11 1012 80 10000 7.72 318 22:23 20.05.2022
2020 Rain 11 1012 80 10000 7.72 318 21:32 20.05.2022
2021 Rain 12 1012 84 10000 5.47 351 20:53 20.05.2022
2022 Rain 13 1011 82 10000 5.85 336 19:56 20.05.2022
2023 Rain 13 1011 79 10000 2.66 7 18:59 20.05.2022
2024 Rain 13 1012 74 10000 5.13 61 18:28 20.05.2022
2025 Clouds 14 1013 71 10000 4.77 76 16:51 20.05.2022
2026 Clouds 13 1015 69 10000 2.11 114 15:57 20.05.2022
2027 Clouds 13 1015 69 10000 2.11 114 15:39 20.05.2022
2028 Clouds 13 1018 72 10000 0.92 109 14:29 20.05.2022
2029 Clouds 13 1018 71 10000 1.39 127 13:44 20.05.2022
2030 Clouds 12 1020 82 10000 1.72 210 11:22 20.05.2022
2031 Clouds 12 1020 84 10000 1.67 247 09:51 20.05.2022
2032 Clouds 12 1020 86 10000 2.12 296 08:41 20.05.2022
2033 Clouds 12 1020 85 10000 3.91 308 06:46 20.05.2022
2034 Clouds 12 1020 86 10000 5.5 307 06:24 20.05.2022
2035 Clouds 12 1020 91 10000 6.32 302 04:22 20.05.2022
2036 Clouds 13 1017 95 10000 9.21 274 00:24 20.05.2022
2037 Clouds 13 1017 95 10000 8.88 266 22:44 19.05.2022
2038 Clouds 13 1016 97 10000 8.77 265 21:59 19.05.2022
2039 Clouds 13 1016 97 10000 8.77 265 21:40 19.05.2022
2040 Clouds 14 1016 97 10000 9.99 264 21:22 19.05.2022
2041 Clouds 15 1015 94 10000 6.24 243 20:25 19.05.2022
2042 Clouds 15 1016 96 10000 4.4 224 19:34 19.05.2022
2043 Rain 14 1016 96 10000 0.77 326 17:59 19.05.2022
2044 Clouds 14 1016 97 10000 3 280 16:31 19.05.2022
2045 Clouds 14 1016 97 10000 2.68 124 14:52 19.05.2022
2046 Clouds 14 1016 95 10000 3.62 93 14:23 19.05.2022
2047 Rain 15 1016 95 10000 4.75 86 12:35 19.05.2022
2048 Rain 14 1018 96 10000 3.89 311 11:25 19.05.2022
2049 Clouds 14 1017 94 10000 4.6 130 09:19 19.05.2022
2050 Clouds 14 1017 92 10000 4.58 135 07:48 19.05.2022
2051 Clouds 14 1018 91 10000 2.3 106 05:32 19.05.2022
2052 Clouds 13 1019 96 10000 1.16 275 01:59 19.05.2022
2053 Clouds 13 1020 96 10000 1.83 277 23:55 18.05.2022
2054 Clouds 13 1020 96 10000 2.17 295 22:47 18.05.2022
2055 Clouds 13 1020 96 10000 2.31 308 21:47 18.05.2022
2056 Clouds 13 1020 95 10000 3.28 291 21:26 18.05.2022
2057 Clouds 13 1020 95 10000 3.28 291 20:41 18.05.2022
2058 Clouds 14 1020 93 10000 3.96 284 20:18 18.05.2022
2059 Clouds 14 1020 94 10000 3.78 286 18:28 18.05.2022
2060 Clouds 14 1020 94 10000 3.78 286 17:41 18.05.2022
2061 Clouds 14 1020 92 10000 3.34 271 17:23 18.05.2022
2062 Clouds 14 1020 92 10000 3.34 271 16:31 18.05.2022
2063 Clouds 14 1020 91 10000 3.43 275 15:40 18.05.2022
2064 Clouds 15 1021 89 10000 3.06 262 14:35 18.05.2022
2065 Clouds 15 1021 89 10000 3.07 227 13:35 18.05.2022
2066 Clouds 15 1021 89 10000 3.96 180 12:42 18.05.2022
2067 Clouds 15 1021 90 10000 5.17 160 11:34 18.05.2022
2068 Clouds 14 1021 91 10000 6.17 150 10:56 18.05.2022
2069 Clouds 14 1021 93 10000 7.61 135 09:24 18.05.2022
2070 Clouds 14 1020 93 10000 7.81 133 07:32 18.05.2022
2071 Clouds 13 1020 94 10000 7.74 126 05:56 18.05.2022
2072 Clouds 13 1021 93 10000 6.51 116 01:20 18.05.2022
2073 Clouds 13 1021 91 10000 6.71 111 00:22 18.05.2022
2074 Clouds 14 1021 87 10000 6.55 107 21:56 17.05.2022
2075 Clouds 15 1021 85 10000 5.84 106 21:20 17.05.2022
2076 Clouds 14 1021 82 10000 5.54 101 19:59 17.05.2022
2077 Clouds 14 1021 85 10000 3.88 101 19:27 17.05.2022
2078 Clouds 14 1021 89 10000 2.4 107 17:50 17.05.2022
2079 Clouds 14 1021 93 10000 1.46 148 16:59 17.05.2022
2080 Clouds 14 1021 93 10000 1.76 170 16:29 17.05.2022
2081 Clouds 14 1021 94 10000 1.71 147 15:25 17.05.2022
2082 Clouds 14 1021 94 10000 1.72 147 14:30 17.05.2022
2083 Clouds 14 1021 91 10000 3.24 119 13:34 17.05.2022
2084 Clouds 13 1021 93 10000 3.73 110 11:43 17.05.2022
2085 Clouds 13 1020 95 10000 3.37 94 09:27 17.05.2022
2086 Clouds 13 1020 95 10000 3.37 94 08:33 17.05.2022
2087 Clouds 12 1019 97 10000 2.22 76 06:48 17.05.2022
2088 Clouds 13 1018 99 4124 1.76 336 03:41 17.05.2022
2089 Rain 13 1017 99 6287 3.82 139 00:45 17.05.2022
2090 Rain 13 1016 96 10000 9.28 116 22:44 16.05.2022
2091 Rain 14 1016 94 10000 9.01 112 21:45 16.05.2022
2092 Clouds 14 1016 91 10000 7.25 106 20:47 16.05.2022
2093 Rain 15 1015 86 10000 7.47 89 19:46 16.05.2022
2094 Clouds 15 1015 78 10000 7.8 86 18:20 16.05.2022
2095 Clouds 15 1016 78 10000 7.46 86 15:53 16.05.2022
2096 Clouds 14 1017 80 10000 7.22 91 14:26 16.05.2022
2097 Clouds 14 1017 81 10000 7.54 97 13:23 16.05.2022
2098 Clouds 13 1017 83 10000 8.54 97 11:25 16.05.2022
2099 Clouds 12 1017 83 10000 8.92 96 09:37 16.05.2022
2100 Clouds 12 1018 82 10000 8.22 102 06:56 16.05.2022
2101 Clouds 12 1018 82 10000 8.07 99 03:58 16.05.2022
2102 Clouds 12 1020 88 10000 6.61 79 23:38 15.05.2022
2103 Clouds 12 1020 84 10000 7.4 58 22:32 15.05.2022
2104 Clouds 12 1020 81 10000 6.91 47 21:47 15.05.2022
2105 Clouds 12 1021 80 10000 6.37 39 20:57 15.05.2022
2106 Clouds 13 1021 79 10000 5.85 36 19:52 15.05.2022
2107 Clouds 13 1021 77 10000 5.23 37 17:52 15.05.2022
2108 Clouds 13 1021 75 10000 4.47 39 16:31 15.05.2022
2109 Clear 12 1022 80 10000 2.77 65 13:59 15.05.2022
2110 Clear 12 1023 81 10000 1.78 84 12:57 15.05.2022
2111 Clear 12 1023 83 10000 2.17 93 11:40 15.05.2022
2112 Clear 12 1023 84 10000 1.89 88 10:29 15.05.2022
2113 Clear 12 1023 84 10000 2.35 76 08:47 15.05.2022
2114 Clouds 11 1022 83 10000 0.36 252 06:59 15.05.2022
2115 Clouds 11 1022 84 10000 0.31 293 05:57 15.05.2022
2116 Clouds 11 1022 84 10000 1.22 325 00:57 15.05.2022
2117 Clouds 11 1022 84 10000 1.72 333 23:47 14.05.2022
2118 Clouds 12 1022 84 10000 2.07 331 23:29 14.05.2022
2119 Clear 12 1022 85 10000 2.75 328 21:43 14.05.2022
2120 Clear 12 1022 85 10000 3.38 321 21:18 14.05.2022
2121 Clouds 12 1021 86 10000 3.7 302 19:40 14.05.2022
2122 Clouds 12 1021 86 10000 4.09 296 19:20 14.05.2022
2123 Clouds 12 1021 86 10000 4.09 296 18:47 14.05.2022
2124 Clouds 12 1021 87 10000 5.03 293 17:28 14.05.2022
2125 Clouds 12 1021 87 10000 5.29 286 15:34 14.05.2022
2126 Clouds 12 1021 88 10000 5.46 284 14:36 14.05.2022
2127 Clouds 11 1020 89 10000 5.04 291 12:49 14.05.2022
2128 Clouds 11 1020 90 10000 6.18 291 11:37 14.05.2022
2129 Clouds 11 1019 90 10000 6.81 289 10:22 14.05.2022
2130 Clouds 11 1019 90 10000 6.81 289 09:54 14.05.2022
2131 Clouds 11 1018 90 10000 7.26 283 08:56 14.05.2022
2132 Clouds 12 1017 89 10000 8.1 273 06:52 14.05.2022
2133 Clouds 12 1016 86 10000 9.62 255 03:27 14.05.2022
2134 Clouds 12 1016 88 10000 10.95 246 23:48 13.05.2022
2135 Clouds 12 1016 87 10000 10.62 241 23:22 13.05.2022
2136 Clouds 12 1016 87 10000 10.62 241 22:51 13.05.2022
2137 Clouds 12 1016 85 10000 10.33 244 22:19 13.05.2022
2138 Clouds 12 1016 85 10000 10.19 248 20:56 13.05.2022
2139 Clouds 12 1016 85 10000 10.26 251 20:28 13.05.2022
2140 Clouds 11 1016 87 10000 10.38 250 19:40 13.05.2022
2141 Clouds 11 1016 88 10000 10.3 254 18:41 13.05.2022
2142 Clouds 11 1016 89 10000 10.88 258 17:29 13.05.2022
2143 Clouds 11 1016 89 10000 11.24 259 16:23 13.05.2022
2144 Clouds 11 1016 89 10000 11.24 259 15:43 13.05.2022
2145 Clouds 11 1015 87 10000 10.73 253 13:57 13.05.2022
2146 Clouds 11 1015 87 10000 10.94 257 12:46 13.05.2022
2147 Clouds 11 1014 87 10000 10.3 259 11:29 13.05.2022
2148 Clouds 12 1014 81 10000 9.43 254 09:43 13.05.2022
2149 Clouds 12 1014 81 10000 9.43 254 09:43 13.05.2022
2150 Clouds 12 1013 78 10000 8.61 258 08:51 13.05.2022
2151 Clouds 12 1013 76 10000 10.08 253 07:49 13.05.2022
2152 Clouds 12 1013 79 10000 8.89 231 06:44 13.05.2022
2153 Clouds 12 1014 78 10000 7.18 219 04:48 13.05.2022
2154 Clouds 11 1015 81 10000 6.23 239 00:42 13.05.2022
2155 Clouds 11 1016 84 10000 6.92 254 22:47 12.05.2022
2156 Clouds 11 1016 85 10000 7.35 256 22:29 12.05.2022
2157 Clouds 11 1015 85 10000 6.82 260 20:41 12.05.2022
2158 Clouds 11 1015 87 10000 8.55 260 19:24 12.05.2022
2159 Clouds 11 1015 84 10000 8.51 256 18:19 12.05.2022
2160 Clear 11 1016 84 10000 8.4 252 16:34 12.05.2022
2161 Clear 11 1016 83 10000 8.8 246 14:51 12.05.2022
2162 Clear 11 1016 83 10000 8.63 247 13:47 12.05.2022
2163 Clear 11 1015 86 10000 8.38 247 11:31 12.05.2022
2164 Clear 11 1014 85 10000 7.3 256 10:22 12.05.2022
2165 Clear 11 1014 84 10000 7.2 268 08:52 12.05.2022
2166 Clear 11 1014 84 10000 7.2 268 08:52 12.05.2022
2167 Clouds 11 1013 84 10000 7.68 275 07:58 12.05.2022
2168 Clouds 11 1011 88 10000 7.86 267 06:58 12.05.2022
2169 Clouds 11 1009 87 10000 8.64 283 03:46 12.05.2022
2170 Rain 11 1006 96 10000 10.07 246 00:50 12.05.2022
2171 Rain 11 1006 95 10000 8.03 211 22:59 11.05.2022
2172 Rain 11 1006 95 7546 6.01 228 22:18 11.05.2022
2173 Rain 11 1006 92 10000 5.78 237 21:24 11.05.2022
2174 Rain 11 1006 92 10000 5.78 237 21:24 11.05.2022
2175 Rain 11 1006 93 10000 3.39 247 19:57 11.05.2022
2176 Rain 11 1007 88 10000 5.93 273 17:27 11.05.2022
2177 Clouds 12 1008 85 10000 6.23 262 16:19 11.05.2022
2178 Clouds 12 1008 85 10000 6.47 254 14:47 11.05.2022
2179 Clouds 12 1008 85 10000 6.48 250 14:24 11.05.2022
2180 Clouds 12 1009 87 10000 6.18 239 12:39 11.05.2022
2181 Clouds 12 1009 89 10000 6.55 245 11:47 11.05.2022
2182 Rain 12 1009 92 10000 7.9 213 09:29 11.05.2022
2183 Clouds 11 1009 94 10000 7.23 192 06:30 11.05.2022
2184 Clouds 12 1012 91 10000 6.05 212 01:53 11.05.2022
2185 Clouds 12 1013 90 10000 5.84 247 22:58 10.05.2022
2186 Clouds 12 1013 91 10000 6.05 244 22:24 10.05.2022
2187 Clouds 12 1013 91 10000 6.23 246 21:26 10.05.2022
2188 Clouds 12 1013 90 10000 7.11 255 20:26 10.05.2022
2189 Clouds 12 1012 85 10000 8.78 258 18:38 10.05.2022
2190 Rain 12 1012 87 10000 7.24 256 17:38 10.05.2022
2191 Clouds 13 1013 84 10000 9.62 254 16:24 10.05.2022
2192 Rain 14 1014 84 10000 7.35 213 13:19 10.05.2022
2193 Rain 14 1014 83 10000 6.99 199 11:53 10.05.2022
2194 Clouds 14 1014 83 10000 6.99 199 11:30 10.05.2022
2195 Rain 13 1015 83 10000 7.1 198 10:56 10.05.2022
2196 Clouds 13 1015 83 10000 6.79 191 09:36 10.05.2022
2197 Clouds 12 1016 84 10000 7.3 185 07:58 10.05.2022
2198 Clouds 12 1017 84 10000 6.32 199 05:54 10.05.2022
2199 Clouds 12 1019 86 10000 5.33 188 01:54 10.05.2022
2200 Clouds 13 1020 82 10000 4.22 192 23:45 09.05.2022
2201 Clouds 13 1021 82 10000 3.97 191 22:35 09.05.2022
2202 Clouds 13 1022 81 10000 3.92 178 21:38 09.05.2022
2203 Clouds 14 1022 76 10000 4.69 134 20:20 09.05.2022
2204 Clear 13 1023 74 10000 4.58 116 18:25 09.05.2022
2205 Clear 13 1024 74 10000 4.39 110 17:25 09.05.2022
2206 Clear 13 1025 72 10000 4.91 107 16:19 09.05.2022
2207 Clear 13 1025 72 10000 4.91 107 15:47 09.05.2022
2208 Clear 12 1026 75 10000 2.93 98 14:36 09.05.2022
2209 Clouds 12 1027 78 10000 2.5 121 13:57 09.05.2022
2210 Clouds 11 1027 80 10000 3.58 141 13:22 09.05.2022
2211 Clouds 11 1027 79 10000 4.25 148 11:53 09.05.2022
2212 Clear 10 1028 78 10000 4.6 151 10:48 09.05.2022
2213 Clear 10 1028 78 10000 5.07 152 10:26 09.05.2022
2214 Clouds 10 1028 79 10000 4.99 157 07:57 09.05.2022
2215 Clouds 10 1028 80 10000 5.01 148 05:53 09.05.2022
2216 Clouds 10 1029 75 10000 1.6 92 00:59 09.05.2022
2217 Clouds 10 1029 76 10000 1.48 38 23:28 08.05.2022
2218 Clouds 10 1029 76 10000 1.48 38 22:32 08.05.2022
2219 Clouds 10 1028 76 10000 2.8 358 21:24 08.05.2022
2220 Clouds 10 1028 74 10000 4.74 352 20:25 08.05.2022
2221 Clouds 10 1028 74 10000 4.74 352 19:33 08.05.2022
2222 Clouds 10 1028 72 10000 5.19 344 18:40 08.05.2022
2223 Clouds 10 1028 71 10000 5.37 341 17:40 08.05.2022
2224 Clear 10 1028 70 10000 5.87 335 16:22 08.05.2022
2225 Clear 9 1028 69 10000 6.14 335 15:22 08.05.2022
2226 Clouds 9 1029 66 10000 6.84 334 12:49 08.05.2022
2227 Clouds 9 1029 66 10000 6.75 334 11:50 08.05.2022
2228 Clouds 9 1028 66 10000 7.22 337 10:26 08.05.2022
2229 Clouds 9 1028 66 10000 7.22 337 09:53 08.05.2022
2230 Clouds 9 1028 66 10000 7.84 339 07:57 08.05.2022
2231 Clouds 9 1027 66 10000 8.06 340 06:18 08.05.2022
2232 Clouds 9 1027 68 10000 8.02 346 03:22 08.05.2022
2233 Clouds 9 1027 68 10000 8.02 346 03:22 08.05.2022
2234 Clouds 9 1027 71 10000 7.88 344 01:19 08.05.2022
2235 Clouds 9 1027 71 10000 7.95 346 23:57 07.05.2022
2236 Clouds 9 1027 71 10000 7.95 346 23:34 07.05.2022
2237 Clouds 9 1026 71 10000 7.84 347 22:46 07.05.2022
2238 Clouds 9 1026 71 10000 8.05 352 21:56 07.05.2022
2239 Clouds 10 1025 73 10000 8.25 356 21:28 07.05.2022
2240 Clouds 10 1025 75 10000 8.21 358 20:25 07.05.2022
2241 Clouds 10 1025 76 10000 7.7 357 20:25 07.05.2022
2242 Clouds 10 1025 77 10000 7.78 355 18:52 07.05.2022
2243 Clouds 10 1024 84 10000 7.54 354 16:50 07.05.2022
2244 Clouds 11 1024 88 10000 5.84 351 14:54 07.05.2022
2245 Clouds 11 1024 90 10000 4.79 7 11:28 07.05.2022
2246 Clouds 11 1023 93 10000 5.05 351 09:44 07.05.2022
2247 Clouds 11 1022 95 10000 5.19 328 08:33 07.05.2022
2248 Rain 11 1022 88 10000 4.59 278 07:25 07.05.2022
2249 Clouds 11 1022 88 10000 4.59 278 06:42 07.05.2022
2250 Clouds 11 1021 89 10000 3.79 255 04:18 07.05.2022
2251 Clouds 11 1022 90 10000 4.67 264 00:45 07.05.2022
2252 Clouds 11 1022 91 10000 4.67 258 22:40 06.05.2022
2253 Clouds 11 1022 91 10000 4.86 260 21:54 06.05.2022
2254 Clouds 11 1022 89 10000 4.73 255 21:30 06.05.2022
2255 Clouds 12 1022 86 10000 4.9 252 19:48 06.05.2022
2256 Clouds 11 1022 86 10000 5.2 247 19:25 06.05.2022
2257 Clouds 11 1023 85 10000 5.12 247 18:34 06.05.2022
2258 Clouds 11 1023 85 10000 5.12 247 17:36 06.05.2022
2259 Clouds 11 1024 86 10000 5.06 250 15:53 06.05.2022
2260 Clouds 11 1024 86 10000 5.06 250 15:30 06.05.2022
2261 Clouds 11 1024 89 10000 4.73 240 13:50 06.05.2022
2262 Clouds 11 1024 90 10000 5.03 238 12:51 06.05.2022
2263 Clouds 11 1024 90 10000 4.9 236 11:58 06.05.2022
2264 Clouds 11 1024 90 10000 4.67 231 11:24 06.05.2022
2265 Clouds 11 1024 90 10000 4.39 234 09:47 06.05.2022
2266 Clouds 11 1024 89 10000 4.5 236 09:18 06.05.2022
2267 Clouds 11 1024 88 10000 4.04 232 07:54 06.05.2022
2268 Clouds 11 1023 87 10000 3.98 245 06:26 06.05.2022
2269 Clouds 11 1024 87 10000 3.18 241 03:42 06.05.2022
2270 Clouds 11 1024 88 10000 2.66 243 02:38 06.05.2022
2271 Clouds 11 1024 91 10000 2.52 317 23:24 05.05.2022
2272 Clouds 11 1024 90 10000 2.92 316 21:50 05.05.2022
2273 Clouds 11 1023 89 10000 3.05 310 20:37 05.05.2022
2274 Clouds 11 1023 85 10000 3.61 289 19:19 05.05.2022
2275 Clouds 10 1022 80 10000 4.02 275 16:42 05.05.2022
2276 Clouds 10 1023 78 10000 3.83 263 15:31 05.05.2022
2277 Clouds 10 1023 76 10000 3.8 249 13:41 05.05.2022
2278 Clouds 10 1023 75 10000 3.92 246 13:18 05.05.2022
2279 Clouds 10 1022 73 10000 3.75 242 11:42 05.05.2022
2280 Clouds 10 1021 71 10000 2.98 240 09:46 05.05.2022
2281 Clouds 9 1021 70 10000 2.49 244 08:54 05.05.2022
2282 Clouds 9 1020 68 10000 1.79 254 06:33 05.05.2022
2283 Clouds 9 1020 66 10000 1.64 282 02:28 05.05.2022
2284 Clouds 9 1020 65 10000 1.39 290 01:45 05.05.2022
2285 Clouds 9 1020 65 10000 1.43 299 00:57 05.05.2022
2286 Clouds 9 1019 65 10000 1.65 325 23:22 04.05.2022
2287 Clouds 9 1019 65 10000 2.12 324 22:18 04.05.2022
2288 Clouds 9 1019 65 10000 2.12 324 21:45 04.05.2022
2289 Clouds 9 1019 65 10000 2.62 318 20:55 04.05.2022
2290 Clouds 9 1018 65 10000 2.88 310 20:18 04.05.2022
2291 Clouds 8 1018 66 10000 2.81 308 19:35 04.05.2022
2292 Clouds 8 1018 66 10000 2.81 308 18:43 04.05.2022
2293 Clouds 8 1018 66 10000 2.81 308 18:43 04.05.2022
2294 Clouds 8 1018 66 10000 3.13 305 18:19 04.05.2022
2295 Clouds 9 1018 66 10000 3.52 301 17:22 04.05.2022
2296 Clouds 9 1019 65 10000 3.72 296 15:34 04.05.2022
2297 Clouds 8 1019 63 10000 3.43 290 14:45 04.05.2022
2298 Clouds 8 1019 63 10000 2.81 287 14:19 04.05.2022
2299 Clouds 8 1019 69 10000 3.24 295 12:50 04.05.2022
2300 Clouds 8 1019 71 10000 3.63 300 11:59 04.05.2022
2301 Clouds 8 1019 72 10000 3.91 300 10:28 04.05.2022
2302 Clouds 8 1019 73 10000 3.84 301 09:22 04.05.2022
2303 Clouds 8 1018 73 10000 3.79 306 07:59 04.05.2022
2304 Clouds 9 1018 74 10000 3.4 314 05:34 04.05.2022
2305 Clouds 9 1018 73 10000 3.52 316 02:42 04.05.2022
2306 Clear 9 1019 73 10000 4.26 330 23:23 03.05.2022
2307 Clear 9 1019 73 10000 4.77 331 21:55 03.05.2022
2308 Clear 9 1019 73 10000 4.77 331 21:31 03.05.2022
2309 Clear 9 1019 73 10000 5.22 331 20:52 03.05.2022
2310 Clouds 9 1018 76 10000 6.37 327 19:36 03.05.2022
2311 Clouds 9 1018 74 10000 6.36 320 18:47 03.05.2022
2312 Clouds 9 1019 70 10000 7.07 318 17:22 03.05.2022
2313 Clouds 9 1019 69 10000 7.01 317 16:20 03.05.2022
2314 Clouds 9 1019 69 10000 6.79 319 14:34 03.05.2022
2315 Clouds 9 1020 69 10000 6.85 320 12:46 03.05.2022
2316 Clouds 9 1020 69 10000 6.66 323 11:49 03.05.2022
2317 Clouds 9 1019 69 10000 6.46 329 10:50 03.05.2022
2318 Clouds 9 1019 71 10000 6.9 338 08:33 03.05.2022
2319 Clouds 9 1018 76 10000 7.85 336 06:45 03.05.2022
2320 Clouds 9 1018 76 10000 7.85 336 06:45 03.05.2022
2321 Clouds 10 1017 90 10000 6.32 308 03:26 03.05.2022
2322 Clouds 10 1019 79 10000 5.29 287 23:32 02.05.2022
2323 Clouds 10 1019 75 10000 5.03 293 22:32 02.05.2022
2324 Clouds 10 1019 73 10000 4.83 300 21:48 02.05.2022
2325 Clouds 10 1019 73 10000 4.83 300 21:48 02.05.2022
2326 Clouds 10 1019 71 10000 4.32 304 20:48 02.05.2022
2327 Clear 10 1019 68 10000 4.82 314 18:28 02.05.2022
2328 Clear 10 1019 68 10000 4.82 314 17:42 02.05.2022
2329 Clear 10 1020 67 10000 4.41 315 16:47 02.05.2022
2330 Clouds 9 1020 68 10000 4.69 306 15:52 02.05.2022
2331 Clouds 9 1021 67 10000 4.3 306 14:54 02.05.2022
2332 Clear 9 1021 66 10000 3.69 304 13:47 02.05.2022
2333 Clear 9 1021 66 10000 2.63 305 11:51 02.05.2022
2334 Clear 9 1021 67 10000 2.41 323 10:18 02.05.2022
2335 Clouds 9 1021 66 10000 2.25 330 08:44 02.05.2022
2336 Clouds 9 1021 67 10000 1.79 345 07:23 02.05.2022
2337 Clouds 9 1023 67 10000 1.85 2 01:27 02.05.2022
2338 Clouds 9 1023 67 10000 2.23 2 00:23 02.05.2022
2339 Clouds 9 1023 67 10000 2.23 2 23:43 01.05.2022
2340 Clouds 9 1023 67 10000 2.38 0 21:46 01.05.2022
2341 Clouds 9 1023 66 10000 2.46 4 20:50 01.05.2022
2342 Clouds 9 1023 66 10000 2.54 5 19:46 01.05.2022
2343 Clouds 9 1023 69 10000 3.21 2 18:53 01.05.2022
2344 Clouds 9 1023 69 10000 3.07 355 17:57 01.05.2022
2345 Clouds 9 1023 70 10000 2.72 351 16:46 01.05.2022
2346 Clouds 9 1024 70 10000 2.52 347 16:23 01.05.2022
2347 Clouds 9 1024 71 10000 2.52 336 15:22 01.05.2022
2348 Clouds 8 1024 71 10000 2.25 320 13:23 01.05.2022
2349 Clouds 8 1024 72 10000 2.29 317 10:46 01.05.2022
2350 Clouds 8 1024 73 10000 2.63 316 08:51 01.05.2022
2351 Clouds 8 1024 75 10000 3.95 310 06:53 01.05.2022
2352 Clouds 8 1024 77 10000 4.32 305 02:51 01.05.2022
2353 Clouds 8 1025 76 10000 5.01 311 22:58 30.04.2022
2354 Clouds 8 1025 75 10000 5.26 315 21:35 30.04.2022
2355 Clouds 9 1025 74 10000 5.22 321 20:35 30.04.2022
2356 Clear 8 1025 75 10000 5.42 321 19:36 30.04.2022
2357 Clear 9 1025 78 10000 5.16 326 17:40 30.04.2022
2358 Clear 9 1025 78 10000 5.01 327 16:35 30.04.2022
2359 Clear 9 1026 78 10000 4.84 332 15:21 30.04.2022
2360 Clear 9 1026 78 10000 4.84 332 14:33 30.04.2022
2361 Clouds 9 1026 76 10000 4.08 332 12:36 30.04.2022
2362 Clouds 9 1027 76 10000 3.9 339 11:33 30.04.2022
2363 Clouds 8 1027 75 10000 3.87 349 10:40 30.04.2022
2364 Clouds 8 1027 75 10000 4.45 354 08:54 30.04.2022
2365 Clouds 8 1026 75 10000 5.7 357 05:38 30.04.2022
2366 Clouds 9 1028 75 10000 7.97 345 00:35 30.04.2022
2367 Clouds 9 1028 75 10000 8.17 341 23:36 29.04.2022
2368 Clouds 9 1028 74 10000 7.9 339 22:30 29.04.2022
2369 Clouds 9 1028 74 10000 7.31 344 21:27 29.04.2022
2370 Clouds 9 1028 74 10000 7.31 344 20:39 29.04.2022
2371 Clouds 9 1028 75 10000 7.1 347 19:38 29.04.2022
2372 Clouds 9 1029 72 10000 6.68 341 17:50 29.04.2022
2373 Clouds 9 1029 72 10000 5.92 340 16:56 29.04.2022
2374 Clouds 8 1030 73 10000 5.01 342 14:57 29.04.2022
2375 Clouds 8 1030 74 10000 5.08 344 14:20 29.04.2022
2376 Clouds 8 1031 73 10000 4.54 352 12:48 29.04.2022
2377 Clouds 8 1031 74 10000 4.34 3 10:59 29.04.2022
2378 Clouds 8 1030 74 10000 4.75 7 08:33 29.04.2022
2379 Clouds 8 1030 75 10000 4.9 1 07:27 29.04.2022
2380 Clouds 8 1030 75 10000 4.9 1 06:37 29.04.2022
2381 Clouds 8 1030 76 10000 5.5 3 03:34 29.04.2022
2382 Clouds 8 1032 77 10000 6.1 354 00:19 29.04.2022
2383 Clouds 8 1032 78 10000 6.33 355 23:27 28.04.2022
2384 Clouds 8 1032 78 10000 6.33 355 22:41 28.04.2022
2385 Clouds 8 1032 78 10000 6.58 349 21:46 28.04.2022
2386 Clouds 8 1032 78 10000 6.56 350 20:55 28.04.2022
2387 Clouds 8 1031 78 10000 6.7 349 20:24 28.04.2022
2388 Clouds 8 1031 78 10000 6.88 348 19:41 28.04.2022
2389 Clear 8 1031 78 10000 7.02 349 19:21 28.04.2022
2390 Clear 8 1031 78 10000 7.02 349 18:35 28.04.2022
2391 Clear 8 1031 76 10000 6.87 343 16:59 28.04.2022
2392 Clear 8 1031 75 10000 6.63 341 16:22 28.04.2022
2393 Clear 8 1031 75 10000 6.64 341 15:57 28.04.2022
2394 Clouds 8 1031 74 10000 6.24 339 15:27 28.04.2022
2395 Clouds 8 1031 73 10000 5.99 337 13:44 28.04.2022
2396 Clouds 8 1031 71 10000 5.79 340 12:42 28.04.2022
2397 Clouds 8 1031 70 10000 5.7 347 11:56 28.04.2022
2398 Clouds 8 1031 69 10000 5.84 350 10:44 28.04.2022
2399 Clouds 8 1031 69 10000 6.06 353 09:52 28.04.2022
2400 Clouds 8 1030 72 10000 6.52 358 08:31 28.04.2022
2401 Clouds 8 1029 75 10000 6.76 353 06:59 28.04.2022
2402 Clouds 8 1029 76 10000 7.03 351 05:55 28.04.2022
2403 Clouds 8 1029 76 10000 7.03 351 05:37 28.04.2022
2404 Clouds 9 1029 77 10000 6.86 349 04:38 28.04.2022
2405 Clouds 8 1029 74 10000 4.62 335 00:22 28.04.2022
2406 Clouds 9 1028 71 10000 4.51 335 22:39 27.04.2022
2407 Clouds 9 1028 69 10000 4.19 334 21:54 27.04.2022
2408 Clouds 9 1028 68 10000 3.87 334 20:59 27.04.2022
2409 Clouds 9 1028 68 10000 3.87 334 20:37 27.04.2022
2410 Clouds 9 1027 69 10000 4.12 336 19:37 27.04.2022
2411 Clouds 9 1027 68 10000 4.17 331 18:56 27.04.2022
2412 Clouds 9 1027 66 10000 4.05 326 18:22 27.04.2022
2413 Clouds 9 1027 66 10000 3.97 319 16:58 27.04.2022
2414 Clouds 9 1027 69 10000 3.67 296 14:33 27.04.2022
2415 Clouds 9 1026 61 10000 2.44 288 12:23 27.04.2022
2416 Clouds 8 1026 61 10000 2.37 290 11:20 27.04.2022
2417 Clouds 8 1025 63 10000 2.46 302 09:20 27.04.2022
2418 Clear 8 1024 75 10000 2.58 284 07:18 27.04.2022
2419 Clear 8 1023 74 10000 2.89 304 04:30 27.04.2022
2420 Clouds 8 1023 73 10000 3.14 320 01:34 27.04.2022
2421 Clouds 8 1022 72 10000 3.27 329 00:37 27.04.2022
2422 Clouds 9 1022 71 10000 3.43 331 23:39 26.04.2022
2423 Clouds 9 1022 70 10000 3.61 332 23:18 26.04.2022
2424 Clouds 9 1022 70 10000 3.61 332 22:39 26.04.2022
2425 Clouds 9 1021 70 10000 4.07 332 21:35 26.04.2022
2426 Clouds 9 1021 71 10000 4.54 333 20:52 26.04.2022
2427 Clouds 9 1021 71 10000 4.54 333 20:30 26.04.2022
2428 Clouds 9 1020 70 10000 5.67 331 19:32 26.04.2022
2429 Clouds 9 1020 71 10000 5.49 331 18:45 26.04.2022
2430 Clouds 8 1019 72 10000 5 330 17:59 26.04.2022
2431 Clouds 8 1019 73 10000 5.04 330 16:58 26.04.2022
2432 Clear 8 1019 78 10000 5.76 337 14:27 26.04.2022
2433 Clear 8 1019 79 10000 5.58 328 13:33 26.04.2022
2434 Clear 8 1019 81 10000 5.15 344 11:55 26.04.2022
2435 Clear 8 1018 82 10000 5.5 351 10:37 26.04.2022
2436 Clear 8 1017 82 10000 6.19 0 09:25 26.04.2022
2437 Clear 8 1017 79 10000 5.46 7 07:38 26.04.2022
2438 Clear 9 1016 80 10000 6.72 16 04:33 26.04.2022
2439 Clear 9 1016 80 10000 6.06 8 01:30 26.04.2022
2440 Clear 9 1016 78 10000 6.46 7 00:26 26.04.2022
2441 Clear 9 1016 78 10000 6.67 9 22:36 25.04.2022
2442 Clear 9 1016 78 10000 6.99 7 21:42 25.04.2022
2443 Clear 9 1016 78 10000 7.64 3 20:40 25.04.2022
2444 Clouds 9 1015 78 10000 7.72 1 18:58 25.04.2022
2445 Clouds 9 1015 74 10000 7.76 358 17:54 25.04.2022
2446 Clouds 9 1015 69 10000 7.17 359 16:59 25.04.2022
2447 Clear 9 1015 77 10000 6.64 9 15:29 25.04.2022
2448 Clear 9 1015 77 10000 6.64 9 14:42 25.04.2022
2449 Clouds 8 1015 71 10000 5.89 28 13:35 25.04.2022
2450 Clouds 8 1015 70 10000 6.4 41 11:43 25.04.2022
2451 Clouds 7 1014 74 10000 6.5 64 10:26 25.04.2022
2452 Clouds 7 1014 76 10000 7.04 68 08:46 25.04.2022
2453 Clouds 7 1013 76 10000 8.62 69 06:45 25.04.2022
2454 Clouds 8 1012 78 10000 9.54 70 04:27 25.04.2022
2455 Rain 8 1012 79 10000 10.15 61 00:58 25.04.2022
2456 Clouds 8 1012 79 10000 10.1 66 23:51 24.04.2022
2457 Clouds 8 1011 81 10000 10.42 70 22:45 24.04.2022
2458 Clouds 8 1011 83 10000 10.52 68 22:26 24.04.2022
2459 Clouds 8 1011 83 10000 10.52 68 21:41 24.04.2022
2460 Clouds 9 1010 81 10000 10.77 61 21:18 24.04.2022
2461 Clouds 9 1011 82 10000 10.54 56 20:35 24.04.2022
2462 Clouds 9 1010 82 10000 10.82 55 19:48 24.04.2022
2463 Clear 9 1010 81 10000 10.23 55 18:20 24.04.2022
2464 Clear 9 1009 78 10000 10.47 63 17:29 24.04.2022
2465 Clear 9 1009 78 10000 10.47 63 16:59 24.04.2022
2466 Clear 9 1009 78 10000 10.47 63 16:35 24.04.2022
2467 Clear 10 1009 75 10000 8.89 60 15:55 24.04.2022
2468 Clear 10 1009 75 10000 8.89 60 15:31 24.04.2022
2469 Clear 10 1009 75 10000 8.89 60 15:31 24.04.2022
2470 Clear 9 1010 73 10000 7.83 51 13:57 24.04.2022
2471 Clear 9 1010 73 10000 8.48 52 13:25 24.04.2022
2472 Clear 9 1010 73 10000 8.48 52 12:30 24.04.2022
2473 Clear 8 1010 75 10000 9.59 58 11:28 24.04.2022
2474 Clear 8 1010 76 10000 10.17 59 10:25 24.04.2022
2475 Clear 8 1010 78 10000 10.18 61 09:23 24.04.2022
2476 Clear 8 1010 79 10000 9.92 69 06:45 24.04.2022
2477 Clear 8 1010 78 10000 9.44 74 03:55 24.04.2022
2478 Clear 8 1010 79 10000 9.07 73 01:38 24.04.2022
2479 Clear 9 1010 79 10000 9.41 65 00:24 24.04.2022
2480 Clear 9 1010 79 10000 9.41 65 23:44 23.04.2022
2481 Clear 9 1010 77 10000 9.59 65 23:21 23.04.2022
2482 Clear 10 1011 77 10000 9.52 67 21:51 23.04.2022
2483 Clear 10 1011 77 10000 9.52 67 21:33 23.04.2022
2484 Clear 10 1010 76 10000 9.45 70 20:45 23.04.2022
2485 Clear 10 1010 76 10000 9.45 70 20:45 23.04.2022
2486 Clear 10 1010 75 10000 10.27 69 19:46 23.04.2022
2487 Clear 11 1010 74 10000 10.58 63 19:19 23.04.2022
2488 Clear 11 1010 74 10000 10.58 63 18:49 23.04.2022
2489 Clear 11 1010 75 10000 9.8 59 17:51 23.04.2022
2490 Clear 11 1010 76 10000 9.16 57 17:20 23.04.2022
2491 Clear 11 1010 76 10000 9.16 57 16:40 23.04.2022
2492 Clear 10 1011 79 10000 8.5 54 14:57 23.04.2022
2493 Clear 10 1012 81 10000 7.14 66 12:44 23.04.2022
2494 Clear 9 1013 85 10000 8.34 74 10:43 23.04.2022
2495 Clear 8 1013 86 10000 8.71 76 09:30 23.04.2022
2496 Clear 8 1013 86 10000 9.79 78 06:29 23.04.2022
2497 Clear 8 1012 86 10000 9.57 81 03:54 23.04.2022
2498 Clear 9 1013 86 10000 10.05 83 00:57 23.04.2022
2499 Clear 9 1012 85 10000 10.97 77 23:29 22.04.2022
2500 Clear 10 1012 81 10000 11.41 70 22:20 22.04.2022
2501 Clear 10 1012 81 10000 11.41 70 21:42 22.04.2022
2502 Clouds 10 1012 80 10000 11.09 67 20:46 22.04.2022
2503 Clouds 11 1011 79 10000 10.69 66 20:26 22.04.2022
2504 Clouds 11 1011 77 10000 10.62 65 19:18 22.04.2022
2505 Clouds 11 1011 79 10000 9.84 64 18:36 22.04.2022
2506 Clouds 11 1011 79 10000 9.84 64 17:40 22.04.2022
2507 Clouds 11 1011 80 10000 8.88 62 16:46 22.04.2022
2508 Clouds 11 1011 81 10000 7.95 64 15:32 22.04.2022
2509 Clouds 11 1012 81 10000 8.4 70 14:44 22.04.2022
2510 Clear 10 1012 80 10000 8.74 66 13:49 22.04.2022
2511 Clear 10 1013 79 10000 8.71 64 12:57 22.04.2022
2512 Clear 10 1013 78 10000 9.27 66 11:48 22.04.2022
2513 Clear 9 1013 79 10000 9.43 65 11:21 22.04.2022
2514 Clear 9 1013 79 10000 9.43 65 10:48 22.04.2022
2515 Clear 8 1013 80 10000 9.23 64 10:29 22.04.2022
2516 Clear 8 1013 80 10000 9.23 64 09:50 22.04.2022
2517 Clear 8 1013 80 10000 9.23 63 08:50 22.04.2022
2518 Clouds 8 1014 81 10000 9.27 65 06:58 22.04.2022
2519 Clouds 9 1015 80 10000 8.49 70 02:45 22.04.2022
2520 Clouds 9 1016 82 10000 8.83 69 00:51 22.04.2022
2521 Clouds 9 1016 80 10000 9.32 65 22:59 21.04.2022
2522 Clouds 10 1016 79 10000 9.25 69 22:27 21.04.2022
2523 Clouds 10 1015 79 10000 8.44 67 20:36 21.04.2022
2524 Clouds 10 1015 79 10000 8.44 67 20:36 21.04.2022
2525 Clouds 10 1016 79 10000 8.18 64 20:18 21.04.2022
2526 Clouds 10 1015 77 10000 7.69 64 18:35 21.04.2022
2527 Clouds 11 1016 76 10000 7.38 67 17:54 21.04.2022
2528 Clouds 11 1016 75 10000 6.43 62 16:35 21.04.2022
2529 Clouds 10 1016 75 10000 5.58 48 15:21 21.04.2022
2530 Clouds 10 1016 75 10000 5.58 48 14:47 21.04.2022
2531 Clouds 9 1017 78 10000 4.75 45 13:23 21.04.2022
2532 Clouds 9 1017 78 10000 4.75 45 12:53 21.04.2022
2533 Clouds 9 1017 81 10000 4.39 59 10:49 21.04.2022
2534 Clouds 8 1017 80 10000 4.56 70 08:56 21.04.2022
2535 Clouds 8 1017 78 10000 4.06 71 07:24 21.04.2022
2536 Clouds 9 1017 77 10000 3.74 78 05:42 21.04.2022
2537 Clouds 9 1017 79 10000 4.39 90 03:30 21.04.2022
2538 Clouds 9 1018 79 10000 4.91 92 02:47 21.04.2022
2539 Clouds 9 1018 81 10000 4.78 87 00:47 21.04.2022
2540 Clouds 9 1018 81 10000 4.25 87 23:51 20.04.2022
2541 Clouds 10 1018 80 10000 4.76 87 23:22 20.04.2022
2542 Clouds 10 1018 80 10000 4.76 87 22:50 20.04.2022
2543 Clouds 9 1018 82 10000 4.2 65 22:31 20.04.2022
2544 Clouds 10 1018 81 10000 4.73 43 21:29 20.04.2022
2545 Clouds 10 1018 81 10000 4.73 43 20:37 20.04.2022
2546 Clouds 10 1018 76 10000 4.99 41 19:52 20.04.2022
2547 Clouds 10 1018 75 10000 4.82 25 19:21 20.04.2022
2548 Clouds 10 1018 73 10000 4.74 9 18:22 20.04.2022
2549 Clouds 10 1018 72 10000 4.38 1 16:56 20.04.2022
2550 Clouds 10 1018 72 10000 4.38 1 16:37 20.04.2022
2551 Clouds 9 1020 73 10000 3.59 28 14:21 20.04.2022
2552 Clouds 8 1020 73 10000 3.03 63 11:52 20.04.2022
2553 Clouds 8 1021 73 10000 4.1 76 11:24 20.04.2022
2554 Clouds 8 1020 73 10000 4.55 81 10:22 20.04.2022
2555 Clouds 8 1020 74 10000 5.23 83 09:25 20.04.2022
2556 Clouds 8 1020 74 10000 5.23 83 09:25 20.04.2022
2557 Clouds 8 1020 74 10000 4.92 79 08:22 20.04.2022
2558 Clouds 8 1020 74 10000 4.92 79 07:37 20.04.2022
2559 Clear 8 1020 76 10000 6.13 81 03:49 20.04.2022
2560 Clear 8 1020 75 10000 6 83 00:23 20.04.2022
2561 Clear 8 1020 75 10000 6 83 23:59 19.04.2022
2562 Clear 9 1020 71 10000 6.79 80 22:28 19.04.2022
2563 Clear 9 1020 71 10000 6.79 80 21:57 19.04.2022
2564 Clear 9 1020 71 10000 6.79 80 21:33 19.04.2022
2565 Clear 10 1019 75 10000 6.27 74 20:48 19.04.2022
2566 Clouds 10 1018 80 10000 6.06 48 20:26 19.04.2022
2567 Clouds 10 1018 79 10000 5.88 43 19:24 19.04.2022
2568 Clouds 10 1018 79 10000 5.99 27 17:51 19.04.2022
2569 Clouds 10 1018 77 10000 5.4 23 16:43 19.04.2022
2570 Clouds 10 1018 74 10000 4.55 24 16:24 19.04.2022
2571 Clouds 10 1018 72 10000 3.83 32 14:51 19.04.2022
2572 Clouds 10 1018 72 10000 3.83 32 14:30 19.04.2022
2573 Clouds 9 1019 74 10000 3.45 88 12:51 19.04.2022
2574 Clouds 8 1019 76 10000 4.25 101 12:26 19.04.2022
2575 Clear 8 1018 76 10000 4.71 104 11:22 19.04.2022
2576 Clear 8 1018 77 10000 5.35 104 09:25 19.04.2022
2577 Clouds 8 1017 77 10000 5.07 106 06:34 19.04.2022
2578 Clouds 8 1017 77 10000 5.15 120 04:19 19.04.2022
2579 Clouds 8 1018 80 10000 5.78 117 00:56 19.04.2022
2580 Clouds 9 1018 82 10000 6.34 115 23:38 18.04.2022
2581 Clear 10 1018 67 10000 4.6 92 21:48 18.04.2022
2582 Clear 10 1018 63 10000 3.95 101 21:24 18.04.2022
2583 Clear 10 1018 63 10000 3.95 101 20:38 18.04.2022
2584 Clear 11 1018 65 10000 4.13 106 19:59 18.04.2022
2585 Clear 11 1018 66 10000 4.2 107 19:27 18.04.2022
2586 Clear 11 1018 66 10000 4.2 107 18:33 18.04.2022
2587 Clear 10 1018 67 10000 4.04 110 17:39 18.04.2022
2588 Clear 10 1019 69 10000 4.12 113 17:19 18.04.2022
2589 Clear 10 1019 69 10000 4.12 113 16:35 18.04.2022
2590 Clear 10 1019 69 10000 4.12 113 16:35 18.04.2022
2591 Clear 10 1020 73 10000 4.37 125 15:27 18.04.2022
2592 Clear 9 1020 75 10000 5.14 131 13:44 18.04.2022
2593 Clear 9 1021 77 10000 6.14 132 12:40 18.04.2022
2594 Clear 8 1021 79 10000 6.72 134 11:43 18.04.2022
2595 Clear 8 1021 79 10000 6.66 139 10:43 18.04.2022
2596 Clear 8 1021 79 10000 6.43 144 09:31 18.04.2022
2597 Clear 8 1021 79 10000 6.58 139 08:29 18.04.2022
2598 Clear 8 1021 81 10000 6.35 146 06:25 18.04.2022
2599 Clear 8 1024 79 10000 6.56 143 02:22 18.04.2022
2600 Clear 9 1025 75 10000 5.63 118 22:53 17.04.2022
2601 Clear 9 1025 75 10000 5.63 118 22:31 17.04.2022
2602 Clear 10 1025 70 10000 5 111 21:32 17.04.2022
2603 Clear 10 1025 68 10000 5.07 108 20:50 17.04.2022
2604 Clear 10 1025 66 10000 4.27 111 19:55 17.04.2022
2605 Clear 10 1026 64 10000 4.41 109 18:34 17.04.2022
2606 Clear 9 1027 64 10000 4.54 111 16:44 17.04.2022
2607 Clear 9 1028 65 10000 4.38 115 15:33 17.04.2022
2608 Clear 9 1029 67 10000 4.69 120 14:38 17.04.2022
2609 Clear 8 1030 71 10000 4.57 148 13:23 17.04.2022
2610 Clear 8 1030 71 10000 4.57 148 12:31 17.04.2022
2611 Clear 7 1031 71 10000 5.27 152 10:48 17.04.2022
2612 Clear 7 1031 71 10000 5.43 154 10:29 17.04.2022
2613 Clear 7 1031 71 10000 5.43 154 09:51 17.04.2022
2614 Clear 7 1031 72 10000 5.4 155 09:18 17.04.2022
2615 Clouds 7 1031 74 10000 5.15 155 08:29 17.04.2022
2616 Clouds 7 1032 80 10000 5.47 157 05:33 17.04.2022
2617 Clouds 8 1033 79 10000 6.27 133 01:47 17.04.2022
2618 Clouds 8 1034 74 10000 5.34 126 00:37 17.04.2022
2619 Clouds 9 1035 73 10000 5.11 113 23:19 16.04.2022
2620 Clouds 9 1035 70 10000 4.99 101 21:45 16.04.2022
2621 Clear 9 1035 66 10000 4.48 96 20:54 16.04.2022
2622 Clouds 9 1034 62 10000 2.78 103 19:24 16.04.2022
2623 Clouds 9 1034 62 10000 2.78 103 18:43 16.04.2022
2624 Clouds 8 1035 62 10000 3.14 118 16:51 16.04.2022
2625 Clouds 8 1036 63 10000 2.99 116 15:49 16.04.2022
2626 Clouds 8 1036 64 10000 3.48 121 14:58 16.04.2022
2627 Clouds 8 1036 64 10000 3.48 121 14:37 16.04.2022
2628 Clouds 8 1036 64 10000 5.13 124 13:49 16.04.2022
2629 Clouds 7 1036 61 10000 6.55 125 12:43 16.04.2022
2630 Clouds 7 1037 63 10000 6.83 125 11:43 16.04.2022
2631 Clouds 6 1036 65 10000 6.94 128 10:33 16.04.2022
2632 Clouds 6 1036 65 10000 7.22 131 09:37 16.04.2022
2633 Clouds 6 1036 64 10000 7.84 131 08:51 16.04.2022
2634 Clouds 6 1035 65 10000 8.67 123 07:21 16.04.2022
2635 Clouds 7 1034 66 10000 8.98 116 04:58 16.04.2022
2636 Clouds 7 1033 79 10000 7.84 113 01:47 16.04.2022
2637 Clouds 7 1033 88 10000 7.62 111 23:52 15.04.2022
2638 Clouds 8 1032 92 10000 7.41 113 22:48 15.04.2022
2639 Clouds 8 1032 94 10000 6.32 99 22:28 15.04.2022
2640 Clouds 8 1031 93 10000 5.14 77 21:21 15.04.2022
2641 Clouds 8 1031 93 10000 5.14 77 20:38 15.04.2022
2642 Clouds 8 1030 92 10000 4.23 56 19:44 15.04.2022
2643 Clouds 8 1030 90 10000 4.6 43 18:59 15.04.2022
2644 Clouds 8 1030 90 10000 4.6 43 18:41 15.04.2022
2645 Clouds 8 1029 89 10000 4.23 29 18:21 15.04.2022
2646 Clouds 8 1029 89 10000 4.68 20 17:26 15.04.2022
2647 Clouds 8 1029 86 10000 4.53 16 16:25 15.04.2022
2648 Clouds 8 1029 86 10000 4.53 16 15:45 15.04.2022
2649 Clouds 7 1029 86 10000 5.67 16 14:18 15.04.2022
2650 Clouds 7 1028 90 10000 5.89 14 12:52 15.04.2022
2651 Clouds 7 1028 90 10000 6.33 17 12:26 15.04.2022
2652 Clouds 7 1028 90 10000 6.33 17 11:51 15.04.2022
2653 Clouds 7 1027 90 10000 6.39 11 10:46 15.04.2022
2654 Clouds 7 1027 90 10000 6.59 6 10:20 15.04.2022
2655 Clouds 7 1026 91 10000 6.68 1 09:22 15.04.2022
2656 Clouds 7 1026 91 10000 6.68 1 08:40 15.04.2022
2657 Clouds 7 1025 91 10000 7.33 353 06:50 15.04.2022
2658 Clouds 7 1024 91 10000 7.7 347 04:49 15.04.2022
2659 Clouds 7 1023 91 10000 6.85 319 00:51 15.04.2022
2660 Clouds 8 1022 91 10000 7.02 318 23:28 14.04.2022
2661 Clouds 8 1022 91 10000 7.02 318 22:46 14.04.2022
2662 Clouds 8 1022 91 10000 6.41 306 22:27 14.04.2022
2663 Clouds 8 1022 91 10000 6.41 306 21:50 14.04.2022
2664 Clouds 7 1020 95 10000 6.68 295 19:51 14.04.2022
2665 Clouds 8 1020 94 10000 6.83 291 19:22 14.04.2022
2666 Clouds 8 1019 92 10000 6.9 286 17:48 14.04.2022
2667 Clouds 8 1019 91 10000 6.86 283 17:18 14.04.2022
2668 Clouds 8 1019 91 10000 7.08 283 16:21 14.04.2022
2669 Clouds 8 1019 93 10000 6.94 277 13:55 14.04.2022
2670 Clouds 8 1019 92 10000 6.25 257 13:26 14.04.2022
2671 Clouds 8 1019 92 10000 6.25 257 12:33 14.04.2022
2672 Clouds 9 1018 91 10000 6.02 250 11:47 14.04.2022
2673 Clouds 8 1018 91 10000 5.62 250 11:20 14.04.2022
2674 Clouds 8 1018 91 10000 5.62 250 10:33 14.04.2022
2675 Clouds 8 1018 92 10000 5.35 256 09:50 14.04.2022
2676 Clouds 8 1018 92 10000 5.17 257 08:39 14.04.2022
2677 Clouds 8 1017 95 10000 4.9 249 06:24 14.04.2022
2678 Clouds 9 1018 92 10000 5.34 229 01:49 14.04.2022
2679 Clouds 9 1018 92 10000 3.9 257 22:41 13.04.2022
2680 Clouds 9 1018 92 10000 4.05 265 21:44 13.04.2022
2681 Clouds 9 1018 92 10000 4.68 267 20:48 13.04.2022
2682 Clouds 9 1017 92 10000 5 261 20:18 13.04.2022
2683 Clouds 9 1017 92 10000 5.04 256 18:50 13.04.2022
2684 Clouds 9 1016 92 10000 4.74 254 17:54 13.04.2022
2685 Clouds 9 1016 91 10000 4.96 257 17:23 13.04.2022
2686 Clouds 9 1016 90 10000 5.93 255 16:24 13.04.2022
2687 Clouds 9 1016 90 10000 5.93 255 15:31 13.04.2022
2688 Clouds 9 1016 90 10000 5.63 253 14:50 13.04.2022
2689 Clouds 9 1016 90 10000 6.12 248 13:58 13.04.2022
2690 Clouds 9 1015 92 10000 5.88 240 13:00 13.04.2022
2691 Clouds 9 1015 93 10000 5.29 234 12:20 13.04.2022
2692 Clouds 9 1014 93 10000 5.29 240 10:46 13.04.2022
2693 Clouds 9 1013 90 10000 4.73 239 08:57 13.04.2022
2694 Clouds 9 1013 90 10000 4.73 239 08:31 13.04.2022
2695 Clouds 9 1012 92 10000 4.57 211 06:51 13.04.2022
2696 Clouds 9 1011 89 10000 5.7 186 06:25 13.04.2022
2697 Clouds 9 1010 83 10000 7.73 144 03:31 13.04.2022
2698 Clouds 9 1012 77 10000 9.95 124 00:20 13.04.2022
2699 Clouds 9 1012 77 10000 9.95 124 00:20 13.04.2022
2700 Clouds 9 1012 77 10000 10.01 118 23:21 12.04.2022
2701 Clouds 9 1012 77 10000 9.82 116 21:57 12.04.2022
2702 Clouds 10 1012 77 10000 9.33 114 20:51 12.04.2022
2703 Clouds 10 1012 77 10000 9.33 114 20:33 12.04.2022
2704 Clouds 10 1012 76 10000 8.9 112 19:48 12.04.2022
2705 Clouds 10 1012 76 10000 7.82 118 19:29 12.04.2022
2706 Clouds 10 1012 76 10000 7.82 118 19:29 12.04.2022
2707 Clouds 10 1012 74 10000 8.42 117 17:59 12.04.2022
2708 Clouds 10 1012 72 10000 9.33 118 16:58 12.04.2022
2709 Clouds 10 1013 73 10000 10.32 115 16:19 12.04.2022
2710 Clouds 9 1014 73 10000 9.02 113 15:26 12.04.2022
2711 Clouds 9 1014 74 10000 9.59 114 14:21 12.04.2022
2712 Clouds 8 1015 75 10000 10.07 114 13:29 12.04.2022
2713 Clouds 8 1015 75 10000 10.07 114 12:49 12.04.2022
2714 Clouds 8 1015 77 10000 10.27 112 11:46 12.04.2022
2715 Clouds 7 1015 79 10000 9.68 112 10:32 12.04.2022
2716 Clouds 7 1015 81 10000 9.8 111 08:57 12.04.2022
2717 Clouds 7 1015 81 10000 9.66 111 07:51 12.04.2022
2718 Clouds 7 1016 79 10000 8.63 114 05:50 12.04.2022
2719 Clouds 7 1016 80 10000 8.33 112 04:55 12.04.2022
2720 Clouds 6 1018 69 10000 6.34 87 23:53 11.04.2022
2721 Clouds 6 1018 69 10000 6.27 78 22:44 11.04.2022
2722 Clouds 6 1018 69 10000 5.98 73 21:37 11.04.2022
2723 Clouds 6 1018 69 10000 5.5 68 20:56 11.04.2022
2724 Clouds 6 1018 69 10000 4.9 66 20:29 11.04.2022
2725 Clouds 6 1018 70 10000 4.87 61 19:42 11.04.2022
2726 Clouds 6 1018 70 10000 4.23 55 19:18 11.04.2022
2727 Clouds 6 1018 70 10000 4.23 55 18:41 11.04.2022
2728 Clouds 6 1018 71 10000 3.37 55 17:56 11.04.2022
2729 Clouds 6 1019 72 10000 3.03 50 16:54 11.04.2022
2730 Clouds 6 1019 74 10000 2.57 41 15:54 11.04.2022
2731 Clouds 6 1019 76 10000 1.22 347 13:59 11.04.2022
2732 Clouds 6 1019 77 10000 1.24 356 12:47 11.04.2022
2733 Clouds 6 1019 77 10000 1.09 338 12:29 11.04.2022
2734 Clouds 6 1019 77 10000 1.09 338 11:30 11.04.2022
2735 Clouds 6 1019 80 10000 2.16 321 10:21 11.04.2022
2736 Clouds 6 1019 80 10000 2.6 319 08:56 11.04.2022
2737 Clouds 6 1018 81 10000 4.08 297 06:21 11.04.2022
2738 Clouds 6 1019 80 10000 7.76 281 01:23 11.04.2022
2739 Clouds 6 1019 78 10000 8.79 280 22:34 10.04.2022
2740 Clouds 6 1019 78 10000 8.98 281 21:55 10.04.2022
2741 Clouds 6 1018 77 10000 9.2 281 21:26 10.04.2022
2742 Clouds 6 1018 77 10000 9.2 281 20:30 10.04.2022
2743 Clouds 6 1018 78 10000 9.38 284 19:41 10.04.2022
2744 Clouds 6 1018 79 10000 9.45 287 19:18 10.04.2022
2745 Clouds 6 1018 79 10000 9.45 287 18:38 10.04.2022
2746 Clouds 6 1017 80 10000 9.89 291 17:51 10.04.2022
2747 Clouds 6 1017 80 10000 9.89 291 17:31 10.04.2022
2748 Clouds 6 1018 79 10000 9.61 291 15:53 10.04.2022
2749 Clouds 6 1018 76 10000 9.73 296 14:51 10.04.2022
2750 Clouds 6 1017 71 10000 9.78 299 13:49 10.04.2022
2751 Clouds 5 1016 67 10000 11.21 313 12:33 10.04.2022
2752 Clouds 5 1016 67 10000 11.21 313 11:46 10.04.2022
2753 Clouds 5 1016 66 10000 11.6 313 11:28 10.04.2022
2754 Clouds 5 1016 66 10000 11.6 313 10:41 10.04.2022
2755 Clouds 5 1015 67 10000 11.79 313 09:49 10.04.2022
2756 Clouds 5 1015 68 10000 11.9 311 08:55 10.04.2022
2757 Clouds 5 1014 68 10000 12.16 306 08:20 10.04.2022
2758 Clouds 5 1013 68 10000 12.25 306 06:59 10.04.2022
2759 Clouds 5 1012 69 10000 12.77 303 04:42 10.04.2022
2760 Clouds 5 1011 70 10000 12.57 301 02:20 10.04.2022
2761 Clouds 5 1011 71 10000 12 300 23:54 09.04.2022
2762 Clouds 5 1011 73 10000 12.15 300 23:29 09.04.2022
2763 Clouds 5 1011 73 10000 12.15 300 22:39 09.04.2022
2764 Clouds 5 1010 74 10000 12.18 300 21:31 09.04.2022
2765 Clear 5 1009 77 10000 12.3 299 20:35 09.04.2022
2766 Clouds 6 1008 77 10000 12.73 297 19:59 09.04.2022
2767 Clouds 6 1008 77 10000 12.56 297 19:41 09.04.2022
2768 Clouds 6 1007 77 10000 12.29 294 18:26 09.04.2022
2769 Clouds 6 1007 77 10000 12.29 294 17:52 09.04.2022
2770 Clouds 6 1007 78 10000 12.05 289 17:18 09.04.2022
2771 Clouds 6 1007 78 10000 12.05 289 16:42 09.04.2022
2772 Clouds 6 1006 77 10000 12.01 288 15:52 09.04.2022
2773 Clouds 6 1006 76 10000 12.27 289 15:26 09.04.2022
2774 Clouds 6 1006 75 10000 11.94 296 14:26 09.04.2022
2775 Clouds 6 1006 74 10000 11.76 292 13:38 09.04.2022
2776 Clouds 6 1005 73 10000 11.33 299 12:59 09.04.2022
2777 Clouds 6 1004 77 10000 11.75 304 11:52 09.04.2022
2778 Clouds 6 1003 80 10000 12.1 305 10:53 09.04.2022
2779 Clouds 6 1002 81 10000 12.31 296 10:19 09.04.2022
2780 Clouds 6 1001 80 10000 11.87 295 09:24 09.04.2022
2781 Clouds 6 1001 80 10000 11.87 295 08:45 09.04.2022
2782 Clouds 5 999 79 10000 12.67 292 05:35 09.04.2022
2783 Clear 5 996 69 10000 10.06 310 00:36 09.04.2022
2784 Clear 5 996 69 10000 10.06 310 00:36 09.04.2022
2785 Clear 5 995 74 10000 9.97 314 23:24 08.04.2022
2786 Clouds 6 995 76 10000 9.69 310 21:57 08.04.2022
2787 Clouds 5 994 78 10000 9.93 303 20:47 08.04.2022
2788 Clouds 6 993 82 10000 10.31 287 19:57 08.04.2022
2789 Clouds 6 993 81 10000 10.24 283 18:59 08.04.2022
2790 Clouds 6 993 81 10000 10.64 282 18:25 08.04.2022
2791 Clouds 6 993 81 10000 10.64 282 17:38 08.04.2022
2792 Clouds 6 993 81 10000 10.82 279 17:19 08.04.2022
2793 Clouds 6 993 81 10000 10.82 279 16:35 08.04.2022
2794 Clouds 6 993 80 10000 10.98 275 15:39 08.04.2022
2795 Clouds 6 993 79 10000 11.43 273 14:52 08.04.2022
2796 Clouds 6 993 75 10000 11.57 271 14:21 08.04.2022
2797 Clouds 6 993 73 10000 11.18 271 13:41 08.04.2022
2798 Clouds 6 993 73 10000 10.59 271 13:22 08.04.2022
2799 Clouds 6 993 73 10000 10.69 270 11:51 08.04.2022
2800 Clouds 6 993 73 10000 10.4 268 10:32 08.04.2022
2801 Clouds 6 993 69 10000 10.75 273 09:26 08.04.2022
2802 Clouds 6 993 71 10000 11.32 276 08:30 08.04.2022
2803 Clouds 6 992 69 10000 12.01 282 06:47 08.04.2022
2804 Clouds 6 991 69 10000 13.32 294 04:34 08.04.2022
2805 Clouds 5 985 82 10000 13.19 314 00:42 08.04.2022
2806 Clouds 5 983 84 10000 13.77 334 00:19 08.04.2022
2807 Clouds 5 980 91 8128 12.09 321 22:58 07.04.2022
2808 Clouds 5 980 91 8128 12.09 321 22:37 07.04.2022
2809 Clouds 6 978 87 10000 12.61 271 22:19 07.04.2022
2810 Clouds 6 978 87 10000 12.61 271 21:49 07.04.2022
2811 Rain 6 978 87 10000 13.76 270 20:58 07.04.2022
2812 Clouds 6 978 87 10000 13.76 270 20:30 07.04.2022
2813 Clouds 7 974 85 10000 17.09 264 18:29 07.04.2022
2814 Clouds 6 973 87 10000 17.74 258 17:25 07.04.2022
2815 Clouds 6 973 87 10000 17.74 258 16:44 07.04.2022
2816 Clouds 7 973 83 10000 17.41 236 16:21 07.04.2022
2817 Clouds 7 975 82 10000 14.82 237 14:42 07.04.2022
2818 Clouds 7 975 80 10000 13.03 242 13:42 07.04.2022
2819 Clouds 7 976 81 10000 13.86 245 12:46 07.04.2022
2820 Clouds 7 976 84 10000 11.74 244 11:30 07.04.2022
2821 Clouds 7 977 82 10000 12.77 234 09:37 07.04.2022
2822 Rain 7 978 90 10000 12.72 245 08:38 07.04.2022
2823 Clouds 8 980 86 10000 13.9 220 06:42 07.04.2022
2824 Clouds 8 985 89 10000 13 221 02:51 07.04.2022
2825 Clouds 8 986 90 10000 13.31 226 02:20 07.04.2022
2826 Clouds 8 987 91 10000 11.43 235 00:27 07.04.2022
2827 Clouds 8 988 93 10000 13.07 241 22:51 06.04.2022
2828 Clouds 8 988 90 10000 15.1 241 22:27 06.04.2022
2829 Clouds 8 988 90 10000 15.1 241 21:44 06.04.2022
2830 Clouds 8 988 94 5970 12.1 233 20:36 06.04.2022
2831 Clouds 7 988 95 5013 10.91 223 19:53 06.04.2022
2832 Clouds 7 989 95 6537 10.49 238 18:51 06.04.2022
2833 Clouds 7 989 95 6537 10.49 238 18:32 06.04.2022
2834 Clouds 8 990 93 8761 11.81 238 17:35 06.04.2022
2835 Clouds 8 991 91 10000 12.02 238 16:38 06.04.2022
2836 Clouds 8 992 88 10000 13.31 240 15:48 06.04.2022
2837 Clouds 8 992 89 10000 13.58 238 15:21 06.04.2022
2838 Clouds 7 993 92 10000 13.85 232 13:25 06.04.2022
2839 Clouds 7 994 95 10000 13.65 232 12:27 06.04.2022
2840 Clouds 7 994 94 10000 13.54 233 10:52 06.04.2022
2841 Clouds 7 994 94 10000 13.54 233 10:30 06.04.2022
2842 Clouds 7 994 93 10000 13.7 234 09:41 06.04.2022
2843 Clouds 8 995 92 10000 13.83 238 08:34 06.04.2022
2844 Clouds 8 995 92 10000 13.83 238 07:54 06.04.2022
2845 Clouds 7 996 92 10000 11.86 234 04:31 06.04.2022
2846 Rain 5 999 94 10000 3.24 127 23:56 05.04.2022
2847 Rain 4 1000 94 10000 2.18 110 23:22 05.04.2022
2848 Clouds 4 1000 91 10000 0.27 346 21:29 05.04.2022
2849 Clouds 4 1000 91 10000 0.27 346 20:44 05.04.2022
2850 Clouds 4 1000 91 10000 1.8 303 20:19 05.04.2022
2851 Clouds 4 1001 94 10000 3.9 289 18:24 05.04.2022
2852 Clouds 4 1001 95 10000 5.38 287 16:55 05.04.2022
2853 Rain 4 1001 95 10000 5.38 287 16:35 05.04.2022
2854 Rain 5 1002 89 10000 6.63 281 15:43 05.04.2022
2855 Rain 5 1002 89 10000 6.63 281 15:43 05.04.2022
2856 Rain 5 1001 84 10000 6.72 266 15:24 05.04.2022
2857 Clouds 4 1002 91 10000 6.67 278 13:42 05.04.2022
2858 Clouds 6 1002 74 10000 6.41 287 11:51 05.04.2022
2859 Clouds 6 1002 74 10000 6.41 287 11:33 05.04.2022
2860 Clouds 6 1002 73 10000 6.8 292 10:57 05.04.2022
2861 Clouds 6 1002 74 10000 8.67 300 09:29 05.04.2022
2862 Clouds 6 1001 75 10000 9.42 300 08:22 05.04.2022
2863 Clouds 6 1000 82 10000 11.77 301 02:58 05.04.2022
2864 Clouds 6 998 83 10000 11.6 295 23:22 04.04.2022
2865 Clouds 6 998 83 10000 11.6 295 22:32 04.04.2022
2866 Clouds 7 998 83 10000 11.74 294 21:46 04.04.2022
2867 Clouds 7 998 83 10000 11.87 295 21:18 04.04.2022
2868 Clouds 7 998 83 10000 11.87 295 20:47 04.04.2022
2869 Clouds 7 996 83 10000 12.94 301 19:28 04.04.2022
2870 Clouds 7 996 83 10000 12.94 301 18:40 04.04.2022
2871 Clouds 8 995 87 10000 14.78 287 17:19 04.04.2022
2872 Clouds 7 994 92 10000 14.56 278 16:28 04.04.2022
2873 Rain 7 994 92 10000 14.56 278 15:33 04.04.2022
2874 Clouds 7 994 93 10000 14.92 274 14:46 04.04.2022
2875 Clouds 7 994 96 10000 14.99 265 13:59 04.04.2022
2876 Rain 7 995 95 7596 17.28 252 12:58 04.04.2022
2877 Rain 6 997 93 7924 19.84 240 11:29 04.04.2022
2878 Rain 5 999 95 2782 19.5 234 09:53 04.04.2022
2879 Rain 6 1005 81 10000 16.6 236 05:34 04.04.2022
2880 Clouds 6 1011 80 10000 12.74 243 02:59 04.04.2022
2881 Clouds 5 1015 83 10000 10.1 270 23:19 03.04.2022
2882 Clouds 5 1016 84 10000 10.23 275 22:18 03.04.2022
2883 Clouds 5 1016 84 10000 10.23 275 21:31 03.04.2022
2884 Clouds 5 1016 81 10000 9.89 275 20:32 03.04.2022
2885 Clouds 5 1017 77 10000 9.33 283 18:47 03.04.2022
2886 Clouds 5 1017 76 10000 8.9 285 17:57 03.04.2022
2887 Clouds 5 1017 76 10000 8.9 285 17:37 03.04.2022
2888 Clouds 5 1017 74 10000 9.04 290 16:50 03.04.2022
2889 Clouds 5 1018 73 10000 9.03 293 15:57 03.04.2022
2890 Clouds 5 1019 72 10000 8.82 300 14:27 03.04.2022
2891 Clouds 5 1019 71 10000 8.96 299 13:34 03.04.2022
2892 Clouds 5 1019 72 10000 8.98 307 11:59 03.04.2022
2893 Clouds 5 1019 71 10000 9.21 316 10:22 03.04.2022
2894 Clouds 5 1019 70 10000 9.27 324 09:19 03.04.2022
2895 Clouds 5 1019 71 10000 8.28 319 06:41 03.04.2022
2896 Clouds 4 1020 62 10000 6.38 322 03:37 03.04.2022
2897 Clouds 4 1022 59 10000 5.83 344 00:29 03.04.2022
2898 Clouds 4 1022 59 10000 6.4 352 22:54 02.04.2022
2899 Clouds 4 1022 59 10000 7.08 356 21:57 02.04.2022
2900 Clouds 4 1021 57 10000 7.66 358 21:28 02.04.2022
2901 Clouds 4 1021 57 10000 7.66 358 20:41 02.04.2022
2902 Clouds 4 1020 54 10000 7.95 2 18:57 02.04.2022
2903 Clouds 4 1020 51 10000 7.78 4 18:20 02.04.2022
2904 Clouds 4 1020 51 10000 7.78 4 18:20 02.04.2022
2905 Clouds 4 1020 51 10000 7.78 4 17:46 02.04.2022
2906 Clouds 4 1020 53 10000 7.34 8 15:59 02.04.2022
2907 Clouds 4 1020 57 10000 7.2 11 15:21 02.04.2022
2908 Clouds 4 1020 57 10000 7.2 11 14:43 02.04.2022
2909 Clouds 3 1020 60 10000 6.95 14 13:34 02.04.2022
2910 Clouds 3 1020 62 10000 7.08 22 12:37 02.04.2022
2911 Clouds 3 1020 67 10000 7.89 32 10:56 02.04.2022
2912 Clouds 3 1019 68 10000 8.76 35 08:49 02.04.2022
2913 Clouds 3 1018 66 10000 9.32 31 06:49 02.04.2022
2914 Clouds 3 1017 63 10000 8.62 35 03:45 02.04.2022
2915 Clouds 4 1017 54 10000 8.79 53 23:56 01.04.2022
2916 Clouds 4 1017 52 10000 8.88 52 23:18 01.04.2022
2917 Clouds 4 1017 49 10000 8.78 51 21:33 01.04.2022
2918 Clouds 5 1016 48 10000 8.65 50 20:51 01.04.2022
2919 Clouds 5 1016 48 10000 9.04 50 20:25 01.04.2022
2920 Clouds 5 1016 48 10000 8.63 48 19:32 01.04.2022
2921 Clouds 5 1015 48 10000 9.39 46 18:45 01.04.2022
2922 Clouds 5 1015 48 10000 9.88 46 17:46 01.04.2022
2923 Clouds 5 1015 48 10000 10.24 46 16:52 01.04.2022
2924 Clouds 4 1014 50 10000 10.47 46 15:39 01.04.2022
2925 Clouds 4 1014 54 10000 11.08 51 14:21 01.04.2022
2926 Clouds 4 1015 53 10000 10.76 50 13:34 01.04.2022
2927 Clouds 4 1015 55 10000 11.11 53 12:32 01.04.2022
2928 Clouds 4 1014 58 10000 11.32 55 11:41 01.04.2022
2929 Clouds 3 1013 62 10000 11.89 56 10:19 01.04.2022
2930 Clouds 3 1013 63 10000 11.97 56 08:58 01.04.2022
2931 Clouds 4 1012 62 10000 11.67 54 06:54 01.04.2022
2932 Clouds 4 1011 61 10000 12.7 53 04:51 01.04.2022
2933 Clouds 4 1011 61 10000 12.7 53 04:33 01.04.2022
2934 Clouds 4 1010 59 10000 13.17 56 01:57 01.04.2022
2935 Clouds 4 1010 59 10000 13.46 60 23:58 31.03.2022
2936 Clouds 4 1010 58 10000 13.95 65 21:53 31.03.2022
2937 Clouds 4 1010 58 10000 13.95 65 21:32 31.03.2022
2938 Clouds 4 1009 57 10000 14.25 69 20:29 31.03.2022
2939 Clouds 4 1009 58 10000 14.25 68 19:50 31.03.2022
2940 Rain 4 1008 59 10000 14.73 69 18:46 31.03.2022
2941 Rain 4 1007 62 6969 15.19 72 17:50 31.03.2022
2942 Rain 3 1007 67 5836 15.45 73 16:38 31.03.2022
2943 Rain 3 1007 72 4174 15.56 74 15:46 31.03.2022
2944 Rain 2 1007 76 3451 15.72 73 15:20 31.03.2022
2945 Rain 2 1007 76 3452 15.72 73 14:37 31.03.2022
2946 Snow 1 1007 86 2601 15.91 74 12:30 31.03.2022
2947 Snow 1 1006 88 3106 16.27 75 11:26 31.03.2022
2948 Snow 2 1006 90 4364 16.67 76 09:47 31.03.2022
2949 Snow 2 1005 97 208 16 76 08:23 31.03.2022
2950 Clouds 2 1004 97 113 15.05 79 05:42 31.03.2022
2951 Clouds 3 1005 96 1569 10.42 84 00:32 31.03.2022
2952 Clouds 4 1005 83 10000 7.12 86 22:45 30.03.2022
2953 Clouds 4 1005 72 10000 4.74 70 21:39 30.03.2022
2954 Clouds 5 1005 64 10000 4.16 34 20:55 30.03.2022
2955 Clouds 5 1005 63 10000 4.42 16 20:20 30.03.2022
2956 Clouds 5 1005 62 10000 5.25 11 19:35 30.03.2022
2957 Clouds 5 1005 60 10000 4.81 356 18:29 30.03.2022
2958 Clouds 5 1005 60 10000 4.81 356 17:48 30.03.2022
2959 Clouds 5 1005 60 10000 4.18 354 16:57 30.03.2022
2960 Clouds 5 1006 59 10000 3.37 354 16:38 30.03.2022
2961 Clouds 5 1006 59 10000 2.73 359 15:24 30.03.2022
2962 Clouds 5 1007 51 10000 3.72 354 13:44 30.03.2022
2963 Clouds 5 1007 52 10000 3.9 353 12:58 30.03.2022
2964 Clouds 5 1007 53 10000 4.2 1 11:34 30.03.2022
2965 Clouds 5 1007 53 10000 4.2 1 11:34 30.03.2022
2966 Clouds 5 1007 54 10000 4.63 0 10:31 30.03.2022
2967 Clouds 5 1007 59 10000 5.89 2 09:25 30.03.2022
2968 Clouds 5 1007 63 10000 5.96 8 07:33 30.03.2022
2969 Clouds 5 1008 69 10000 5.82 6 05:41 30.03.2022
2970 Clouds 5 1008 72 10000 5.09 350 03:59 30.03.2022
2971 Clouds 6 1009 75 10000 4.54 330 00:42 30.03.2022
2972 Clouds 6 1010 75 10000 5.12 332 22:34 29.03.2022
2973 Clouds 6 1010 75 10000 5.12 333 21:45 29.03.2022
2974 Clouds 6 1010 76 10000 5.72 332 20:54 29.03.2022
2975 Clouds 6 1010 74 10000 6.33 330 20:19 29.03.2022
2976 Clouds 6 1010 74 10000 6.49 328 18:56 29.03.2022
2977 Clouds 6 1010 74 10000 6.49 328 18:31 29.03.2022
2978 Clouds 6 1010 74 10000 6.55 324 17:36 29.03.2022
2979 Clouds 6 1011 74 10000 6.55 321 16:58 29.03.2022
2980 Clouds 6 1011 74 10000 6.4 318 15:58 29.03.2022
2981 Clouds 6 1012 74 10000 6.41 318 14:53 29.03.2022
2982 Clouds 6 1012 74 10000 5.99 311 14:18 29.03.2022
2983 Clouds 6 1013 73 10000 5.79 314 12:53 29.03.2022
2984 Clouds 6 1013 74 10000 5.77 320 11:43 29.03.2022
2985 Clouds 6 1014 75 10000 6.14 326 10:51 29.03.2022
2986 Clouds 6 1014 75 10000 6.27 328 09:49 29.03.2022
2987 Clouds 6 1014 75 10000 6.42 330 07:35 29.03.2022
2988 Clouds 6 1015 82 10000 6.64 332 04:41 29.03.2022
2989 Clouds 7 1017 93 10000 6.05 324 00:35 29.03.2022
2990 Clouds 7 1018 93 10000 6.27 311 23:23 28.03.2022
2991 Clouds 7 1018 93 10000 6.27 311 22:52 28.03.2022
2992 Clouds 7 1018 92 10000 6.67 306 22:26 28.03.2022
2993 Clouds 7 1018 92 10000 6.81 298 20:58 28.03.2022
2994 Clouds 7 1018 92 10000 7.01 290 20:21 28.03.2022
2995 Clouds 7 1018 92 10000 7.01 290 19:44 28.03.2022
2996 Clouds 7 1019 90 10000 6.97 288 19:25 28.03.2022
2997 Clouds 7 1019 90 10000 6.97 288 18:37 28.03.2022
2998 Clouds 7 1019 87 10000 6.6 291 17:39 28.03.2022
2999 Clouds 7 1021 83 10000 7.81 305 16:20 28.03.2022
3000 Clouds 7 1022 91 10000 5.95 284 14:29 28.03.2022
3001 Clouds 7 1022 90 10000 5.88 293 13:58 28.03.2022
3002 Clouds 7 1023 87 10000 5.88 302 12:20 28.03.2022
3003 Clouds 7 1024 88 10000 5.5 303 11:23 28.03.2022
3004 Clouds 7 1024 90 10000 5.38 303 09:43 28.03.2022
3005 Clouds 7 1025 92 10000 4.82 306 09:19 28.03.2022
3006 Clear 7 1025 91 10000 4.41 292 08:22 28.03.2022
3007 Clear 7 1025 90 10000 4.83 291 07:28 28.03.2022
3008 Clear 7 1027 89 10000 3.78 299 03:43 28.03.2022
3009 Clear 7 1030 89 10000 4.23 324 23:29 27.03.2022
3010 Clear 7 1030 90 10000 4.54 328 22:24 27.03.2022
3011 Clear 7 1030 90 10000 4.54 328 21:41 27.03.2022
3012 Clear 7 1030 91 10000 4.86 329 20:54 27.03.2022
3013 Clear 7 1030 91 10000 4.86 329 20:54 27.03.2022
3014 Clear 7 1030 91 10000 4.86 329 20:54 27.03.2022
3015 Clear 7 1030 90 10000 5.12 324 19:47 27.03.2022
3016 Clear 8 1030 90 10000 4.98 322 19:20 27.03.2022
3017 Clear 8 1030 90 10000 4.71 323 18:27 27.03.2022
3018 Clear 8 1030 90 10000 4.71 323 18:27 27.03.2022
3019 Clear 8 1030 90 10000 4.71 323 17:38 27.03.2022
3020 Clear 8 1031 90 10000 4.49 334 16:21 27.03.2022
3021 Clear 7 1032 90 10000 4.53 335 15:18 27.03.2022
3022 Clear 7 1032 89 10000 4.3 334 13:55 27.03.2022
3023 Clear 7 1033 83 10000 4.05 342 12:24 27.03.2022
3024 Clear 7 1033 81 10000 4.47 351 10:53 27.03.2022
3025 Clear 7 1032 84 10000 4.35 0 08:43 27.03.2022
3026 Clear 7 1032 88 10000 5.14 358 05:54 27.03.2022
3027 Clear 6 1033 86 10000 6.22 358 00:48 27.03.2022
3028 Clear 6 1033 86 10000 6.86 355 23:40 26.03.2022
3029 Clear 6 1033 86 10000 7.38 350 22:36 26.03.2022
3030 Clear 7 1033 86 10000 7.63 345 21:33 26.03.2022
3031 Clear 7 1033 86 10000 7.61 344 20:52 26.03.2022
3032 Clouds 7 1032 87 10000 7.48 339 19:21 26.03.2022
3033 Clouds 7 1031 90 10000 6.9 332 17:53 26.03.2022
3034 Clouds 7 1031 90 10000 6.9 332 17:32 26.03.2022
3035 Clouds 7 1031 93 10000 6.66 316 16:27 26.03.2022
3036 Clouds 7 1031 94 10000 6.4 308 14:57 26.03.2022
3037 Clouds 8 1031 95 10000 6.16 306 13:52 26.03.2022
3038 Clouds 8 1031 94 10000 6.24 310 12:47 26.03.2022
3039 Clouds 8 1031 93 10000 6.42 306 11:33 26.03.2022
3040 Clouds 8 1031 90 10000 7.48 305 10:18 26.03.2022
3041 Clouds 8 1031 88 10000 7.23 303 08:33 26.03.2022
3042 Clouds 8 1030 86 10000 6.25 298 05:54 26.03.2022
3043 Clouds 8 1030 85 10000 5.5 303 04:21 26.03.2022
3044 Clouds 8 1031 83 10000 4.7 305 23:51 25.03.2022
3045 Clouds 8 1031 83 10000 4.63 307 21:35 25.03.2022
3046 Clouds 8 1031 83 10000 4.63 307 21:35 25.03.2022
3047 Clear 8 1031 83 10000 4.55 305 20:46 25.03.2022
3048 Clear 8 1031 82 10000 4.42 310 19:28 25.03.2022
3049 Clear 8 1031 82 10000 4.42 310 18:47 25.03.2022
3050 Clear 8 1030 80 10000 4.51 305 17:37 25.03.2022
3051 Clear 8 1030 80 10000 4.04 302 16:50 25.03.2022
3052 Clear 8 1031 80 10000 4.16 315 15:57 25.03.2022
3053 Clear 8 1032 79 10000 3.59 316 14:22 25.03.2022
3054 Clear 8 1032 73 10000 3.08 327 12:33 25.03.2022
3055 Clear 8 1031 72 10000 2.9 342 09:55 25.03.2022
3056 Clear 8 1031 73 10000 2.32 350 09:26 25.03.2022
3057 Clear 8 1031 73 10000 3.12 1 07:51 25.03.2022
3058 Clouds 7 1030 76 10000 3.08 0 07:26 25.03.2022
3059 Clouds 7 1030 79 10000 2.92 4 05:23 25.03.2022
3060 Clear 7 1030 80 10000 3.59 2 00:42 25.03.2022
3061 Clear 7 1030 81 10000 3.28 345 22:30 24.03.2022
3062 Clear 7 1030 81 10000 3.28 345 21:35 24.03.2022
3063 Clear 8 1030 80 10000 3.75 337 19:51 24.03.2022
3064 Clear 8 1029 80 10000 3.73 342 18:58 24.03.2022
3065 Clear 8 1029 79 10000 4.23 334 17:45 24.03.2022
3066 Clear 8 1029 76 10000 3.78 328 16:54 24.03.2022
3067 Clear 8 1029 74 10000 2.43 316 15:21 24.03.2022
3068 Clear 8 1029 74 10000 2.43 316 14:42 24.03.2022
3069 Clear 8 1030 76 10000 1.42 308 13:59 24.03.2022
3070 Clear 8 1030 78 10000 1.81 327 12:42 24.03.2022
3071 Clear 8 1030 79 10000 1.67 328 11:33 24.03.2022
3072 Clear 7 1030 80 10000 1.44 338 09:51 24.03.2022
3073 Clear 7 1030 80 10000 1.42 343 08:40 24.03.2022
3074 Clear 7 1030 82 10000 2.61 328 06:44 24.03.2022
3075 Clear 8 1030 75 10000 1.3 301 02:18 24.03.2022
3076 Clear 7 1031 78 10000 0.85 57 22:37 23.03.2022
3077 Clear 8 1031 74 10000 2.61 6 21:25 23.03.2022
3078 Clear 8 1031 74 10000 2.61 6 21:25 23.03.2022
3079 Clear 8 1031 74 10000 2.61 6 21:25 23.03.2022
3080 Clear 8 1031 74 10000 2.61 6 20:49 23.03.2022
3081 Clear 8 1031 71 10000 2.55 347 19:45 23.03.2022
3082 Clear 9 1031 68 10000 1.23 25 18:30 23.03.2022
3083 Clear 9 1031 69 10000 0.95 40 17:36 23.03.2022
3084 Clear 9 1031 72 10000 0.93 101 16:20 23.03.2022
3085 Clear 8 1031 73 10000 1.44 120 14:50 23.03.2022
3086 Clear 8 1032 74 10000 1.95 128 14:21 23.03.2022
3087 Clear 7 1032 79 10000 2.5 126 12:24 23.03.2022
3088 Clear 7 1032 80 10000 3.33 125 09:38 23.03.2022
3089 Clear 7 1032 82 10000 3.25 110 06:41 23.03.2022
3090 Clear 8 1032 83 10000 2.78 91 04:31 23.03.2022
3091 Clouds 7 1032 83 10000 2.84 65 00:29 23.03.2022
3092 Clouds 7 1033 82 10000 3.54 53 22:33 22.03.2022
3093 Clouds 8 1033 78 10000 3.95 40 21:29 22.03.2022
3094 Clouds 8 1033 78 10000 3.95 40 20:40 22.03.2022
3095 Clouds 8 1032 74 10000 4.13 30 19:41 22.03.2022
3096 Clear 9 1032 69 10000 2.84 58 19:18 22.03.2022
3097 Clear 9 1032 70 10000 2.5 75 18:22 22.03.2022
3098 Clear 9 1032 71 10000 2.65 89 17:29 22.03.2022
3099 Clear 9 1032 71 10000 2.72 93 15:59 22.03.2022
3100 Clear 8 1033 73 10000 2.41 96 15:22 22.03.2022
3101 Clear 8 1033 73 10000 2.41 96 14:46 22.03.2022
3102 Clear 8 1033 75 10000 2.4 113 14:27 22.03.2022
3103 Clouds 8 1033 76 10000 2.95 129 13:27 22.03.2022
3104 Clouds 7 1033 82 10000 2.33 141 11:52 22.03.2022
3105 Clouds 7 1033 82 10000 2.79 143 10:35 22.03.2022
3106 Clouds 7 1033 82 10000 3.1 141 08:24 22.03.2022
3107 Clouds 7 1032 83 10000 2.93 137 05:25 22.03.2022
3108 Clouds 7 1032 83 10000 2.59 147 03:47 22.03.2022
3109 Clouds 7 1033 82 10000 4.23 133 00:22 22.03.2022
3110 Clear 8 1033 71 10000 3.6 94 22:29 21.03.2022
3111 Clear 8 1033 67 10000 3.36 83 20:57 21.03.2022
3112 Clear 8 1033 67 10000 3.36 83 20:38 21.03.2022
3113 Clear 8 1033 66 10000 3.2 68 19:58 21.03.2022
3114 Clear 8 1032 66 10000 2.79 52 19:33 21.03.2022
3115 Clear 8 1032 69 10000 2.45 62 18:22 21.03.2022
3116 Clear 8 1032 70 10000 2.29 65 17:19 21.03.2022
3117 Clear 8 1032 70 10000 2.29 65 16:44 21.03.2022
3118 Clear 8 1032 71 10000 2.27 79 15:55 21.03.2022
3119 Clear 7 1032 72 10000 2.14 105 15:19 21.03.2022
3120 Clear 7 1033 73 10000 2.51 137 14:25 21.03.2022
3121 Clear 7 1033 77 10000 3.78 140 12:40 21.03.2022
3122 Clear 6 1033 78 10000 4.26 145 11:52 21.03.2022
3123 Clouds 6 1033 79 10000 4.45 152 10:40 21.03.2022
3124 Clouds 6 1032 80 10000 5.51 151 08:55 21.03.2022
3125 Clouds 6 1032 81 10000 6.1 150 06:54 21.03.2022
3126 Clouds 6 1031 84 10000 6.46 159 02:53 21.03.2022
3127 Clouds 7 1031 67 10000 9.51 145 00:19 21.03.2022
3128 Clouds 8 1031 65 10000 10.45 145 22:54 20.03.2022
3129 Clouds 8 1031 62 10000 12.27 132 21:56 20.03.2022
3130 Clouds 8 1030 61 10000 13.28 122 21:29 20.03.2022
3131 Clouds 8 1030 61 10000 13.28 122 20:43 20.03.2022
3132 Clouds 8 1030 60 10000 13.04 122 19:59 20.03.2022
3133 Clouds 8 1030 60 10000 13.04 122 19:34 20.03.2022
3134 Clear 9 1030 60 10000 12.98 123 18:34 20.03.2022
3135 Clear 9 1030 61 10000 12.82 118 17:35 20.03.2022
3136 Clear 9 1031 62 10000 12.65 114 16:57 20.03.2022
3137 Clear 9 1031 61 10000 12.84 111 15:43 20.03.2022
3138 Clear 8 1032 62 10000 12.74 108 14:35 20.03.2022
3139 Clear 7 1033 64 10000 12.56 101 12:42 20.03.2022
3140 Clear 6 1034 64 10000 12.35 101 11:32 20.03.2022
3141 Clear 5 1036 64 10000 12.66 102 09:39 20.03.2022
3142 Clear 5 1037 67 10000 12.57 96 07:49 20.03.2022
3143 Clear 5 1038 74 10000 11.61 92 05:48 20.03.2022
3144 Clear 5 1040 84 10000 10.41 90 02:53 20.03.2022
3145 Clear 5 1041 82 10000 10.74 88 00:48 20.03.2022
3146 Clear 5 1042 82 10000 11 86 23:21 19.03.2022
3147 Clear 5 1043 82 10000 11.22 83 21:41 19.03.2022
3148 Clear 5 1043 82 10000 11.01 78 21:18 19.03.2022
3149 Clear 6 1043 75 10000 11.36 75 19:21 19.03.2022
3150 Clear 7 1043 71 10000 11.32 75 18:25 19.03.2022
3151 Clear 7 1043 71 10000 11.32 75 17:41 19.03.2022
3152 Clear 7 1043 71 10000 11.32 75 17:41 19.03.2022
3153 Clear 7 1044 68 10000 9.79 66 16:29 19.03.2022
3154 Clear 7 1044 71 10000 8.12 61 15:21 19.03.2022
3155 Clear 7 1045 74 10000 6.96 59 13:39 19.03.2022
3156 Clear 7 1046 76 10000 6.29 57 12:42 19.03.2022
3157 Clear 6 1046 77 10000 6.35 65 12:19 19.03.2022
3158 Clear 6 1046 77 10000 6.35 65 11:42 19.03.2022
3159 Clear 5 1048 75 10000 6.86 77 08:34 19.03.2022
3160 Clear 6 1047 81 10000 5.54 75 04:24 19.03.2022
3161 Clear 6 1047 82 10000 5.64 79 02:31 19.03.2022
3162 Clear 7 1048 76 10000 5.59 66 23:46 18.03.2022
3163 Clear 7 1048 76 10000 5.83 56 22:38 18.03.2022
3164 Clear 7 1048 75 10000 6.04 43 21:56 18.03.2022
3165 Clear 7 1047 72 10000 6.43 21 20:25 18.03.2022
3166 Clouds 7 1046 75 10000 6.01 21 19:23 18.03.2022
3167 Clouds 7 1046 75 10000 6.01 21 18:34 18.03.2022
3168 Clouds 7 1046 82 10000 5.51 24 16:52 18.03.2022
3169 Clouds 7 1045 82 10000 4.99 18 16:18 18.03.2022
3170 Clouds 7 1045 81 10000 4.63 4 14:25 18.03.2022
3171 Clear 7 1045 82 10000 4.26 8 13:18 18.03.2022
3172 Clear 7 1044 87 10000 4.94 349 11:29 18.03.2022
3173 Clear 7 1043 90 10000 4.74 341 09:52 18.03.2022
3174 Clear 7 1042 90 10000 3.94 323 08:45 18.03.2022
3175 Clouds 7 1040 91 10000 4.6 285 06:45 18.03.2022
3176 Clouds 7 1040 89 10000 4.83 266 06:45 18.03.2022
3177 Clouds 7 1038 87 10000 5.96 241 04:38 18.03.2022
3178 Clear 7 1037 82 10000 6.06 239 00:55 18.03.2022
3179 Clear 7 1036 82 10000 5.63 235 23:52 17.03.2022
3180 Clear 7 1036 82 10000 5.63 235 23:52 17.03.2022
3181 Clear 7 1036 82 10000 5.63 235 23:52 17.03.2022
3182 Clear 7 1036 82 10000 5.63 235 23:52 17.03.2022
3183 Clear 7 1036 82 10000 5.22 246 22:44 17.03.2022
3184 Clear 6 1035 83 10000 5.46 258 22:18 17.03.2022
3185 Clear 6 1035 84 10000 5.87 262 21:27 17.03.2022
3186 Clear 6 1035 84 10000 5.87 262 20:52 17.03.2022
3187 Clear 6 1034 84 10000 6.51 268 20:19 17.03.2022
3188 Clear 6 1034 84 10000 6.51 268 19:37 17.03.2022
3189 Clear 7 1032 84 10000 7.53 265 18:51 17.03.2022
3190 Clouds 7 1030 84 10000 8.54 267 17:28 17.03.2022
3191 Clouds 7 1029 84 10000 9.44 269 16:19 17.03.2022
3192 Clouds 7 1029 84 10000 9.44 269 16:19 17.03.2022
3193 Clouds 7 1029 84 10000 9.44 269 15:42 17.03.2022
3194 Clouds 7 1028 86 10000 9.51 270 14:58 17.03.2022
3195 Clouds 7 1027 83 10000 10.35 276 13:35 17.03.2022
3196 Clouds 7 1026 81 10000 11.63 275 12:44 17.03.2022
3197 Clouds 7 1024 83 10000 12.11 274 11:32 17.03.2022
3198 Clouds 7 1023 88 10000 11.7 264 10:41 17.03.2022
3199 Clouds 7 1020 94 9124 9.74 217 08:46 17.03.2022
3200 Clouds 7 1019 84 10000 11.82 177 08:19 17.03.2022
3201 Clouds 7 1019 81 10000 13.27 147 05:49 17.03.2022
3202 Clouds 7 1019 82 10000 13.62 140 04:30 17.03.2022
3203 Clouds 7 1023 81 10000 12.18 127 00:25 17.03.2022
3204 Clouds 7 1024 81 10000 11.33 126 22:52 16.03.2022
3205 Clouds 7 1024 81 10000 11.33 126 22:34 16.03.2022
3206 Clear 7 1024 81 10000 10.62 125 21:55 16.03.2022
3207 Clear 8 1024 80 10000 10.84 121 20:40 16.03.2022
3208 Clouds 8 1024 79 10000 9.95 116 19:23 16.03.2022
3209 Clouds 8 1024 77 10000 9.63 117 18:42 16.03.2022
3210 Clouds 8 1024 78 10000 9.26 112 17:46 16.03.2022
3211 Clouds 8 1025 78 10000 7.85 117 17:28 16.03.2022
3212 Clouds 8 1026 79 10000 7.31 120 16:21 16.03.2022
3213 Clouds 8 1026 82 10000 6.62 120 14:50 16.03.2022
3214 Clouds 7 1027 85 10000 6.59 119 13:36 16.03.2022
3215 Clouds 7 1027 85 10000 6.83 123 12:43 16.03.2022
3216 Clouds 6 1027 88 10000 6.76 130 11:23 16.03.2022
3217 Clouds 6 1027 88 10000 6.76 130 10:30 16.03.2022
3218 Clouds 6 1027 88 10000 6.84 131 09:56 16.03.2022
3219 Clouds 7 1027 89 10000 5.45 153 07:43 16.03.2022
3220 Clouds 7 1026 89 10000 3.96 157 02:45 16.03.2022
3221 Clouds 7 1025 83 10000 4.04 146 22:55 15.03.2022
3222 Clouds 7 1025 83 10000 4.04 146 22:35 15.03.2022
3223 Clouds 7 1025 85 10000 2.49 181 20:55 15.03.2022
3224 Clouds 7 1024 86 10000 2.31 184 19:39 15.03.2022
3225 Clouds 7 1024 89 10000 3.81 224 17:46 15.03.2022
3226 Clouds 7 1024 87 10000 2.78 206 16:38 15.03.2022
3227 Clouds 7 1024 86 10000 2.44 199 15:38 15.03.2022
3228 Clouds 7 1024 85 10000 3.03 190 14:54 15.03.2022
3229 Clouds 7 1025 84 10000 3.71 188 13:56 15.03.2022
3230 Clouds 7 1025 85 10000 3.8 186 13:22 15.03.2022
3231 Clouds 6 1026 84 10000 4.07 186 11:33 15.03.2022
3232 Clouds 6 1027 86 10000 3.87 198 10:27 15.03.2022
3233 Clouds 6 1027 87 10000 3.6 213 09:24 15.03.2022
3234 Clouds 6 1027 88 10000 3.84 219 08:24 15.03.2022
3235 Clouds 6 1027 88 10000 3.84 219 07:36 15.03.2022
3236 Clouds 7 1027 88 10000 4.48 227 05:56 15.03.2022
3237 Clouds 7 1027 87 10000 5.63 263 00:58 15.03.2022
3238 Clouds 7 1027 89 10000 5.94 264 23:30 14.03.2022
3239 Clouds 7 1027 89 10000 5.94 264 22:50 14.03.2022
3240 Clouds 7 1027 90 10000 6.08 259 21:53 14.03.2022
3241 Clouds 7 1026 91 10000 5.61 260 20:55 14.03.2022
3242 Clouds 7 1026 91 10000 5.32 266 20:24 14.03.2022
3243 Clouds 7 1026 91 10000 5.32 266 19:32 14.03.2022
3244 Rain 7 1024 92 10000 6.06 252 17:58 14.03.2022
3245 Rain 7 1024 92 10000 6.06 252 17:40 14.03.2022
3246 Rain 7 1024 94 10000 5.81 241 16:33 14.03.2022
3247 Rain 7 1023 97 8319 5.78 254 14:52 14.03.2022
3248 Clouds 7 1023 98 10000 5.88 248 13:57 14.03.2022
3249 Clouds 7 1022 97 10000 6.68 228 11:26 14.03.2022
3250 Rain 7 1022 96 10000 6.95 222 09:57 14.03.2022
3251 Rain 7 1022 96 10000 6.95 222 09:35 14.03.2022
3252 Rain 7 1021 95 10000 6.39 208 08:58 14.03.2022
3253 Rain 7 1021 90 10000 6.02 186 08:28 14.03.2022
3254 Clouds 6 1021 86 10000 5.88 162 06:47 14.03.2022
3255 Clouds 7 1019 76 10000 7.1 142 03:27 14.03.2022
3256 Clouds 7 1018 75 10000 8 145 01:39 14.03.2022
3257 Clouds 6 1018 71 10000 8.89 136 00:29 14.03.2022
3258 Clouds 7 1018 69 10000 9.09 128 21:51 13.03.2022
3259 Clouds 7 1017 68 10000 9.15 128 21:22 13.03.2022
3260 Clouds 7 1017 68 10000 9.15 128 20:46 13.03.2022
3261 Clouds 8 1017 69 10000 8.62 123 20:22 13.03.2022
3262 Clouds 8 1017 69 10000 8.62 123 19:42 13.03.2022
3263 Clouds 8 1017 68 10000 7.8 123 19:22 13.03.2022
3264 Clouds 8 1017 68 10000 7.8 123 18:45 13.03.2022
3265 Clouds 8 1017 68 10000 7.42 124 18:26 13.03.2022
3266 Clouds 8 1017 68 10000 7.42 124 17:38 13.03.2022
3267 Clouds 8 1016 68 10000 7.04 124 16:45 13.03.2022
3268 Clouds 8 1016 68 10000 7.01 125 16:23 13.03.2022
3269 Clouds 8 1016 68 10000 7.01 125 15:42 13.03.2022
3270 Clouds 7 1016 69 10000 7.35 119 14:41 13.03.2022
3271 Clouds 6 1017 70 10000 7.74 119 13:29 13.03.2022
3272 Clouds 6 1017 69 10000 7.91 124 12:23 13.03.2022
3273 Clouds 6 1017 69 10000 7.91 124 11:44 13.03.2022
3274 Clouds 5 1017 67 10000 8.15 129 10:50 13.03.2022
3275 Clouds 5 1017 66 10000 7.98 137 10:29 13.03.2022
3276 Clouds 5 1017 66 10000 7.98 137 09:42 13.03.2022
3277 Clouds 5 1017 68 10000 8.25 140 08:50 13.03.2022
3278 Clouds 5 1017 68 10000 8.25 140 08:30 13.03.2022
3279 Clouds 5 1016 71 10000 9.12 135 07:19 13.03.2022
3280 Clouds 5 1017 73 10000 8.96 131 04:58 13.03.2022
3281 Clouds 6 1018 72 10000 8.46 131 01:48 13.03.2022
3282 Clouds 7 1019 72 10000 7.75 130 23:28 12.03.2022
3283 Clouds 7 1019 75 10000 7.55 125 21:39 12.03.2022
3284 Clouds 8 1019 75 10000 7.25 131 20:19 12.03.2022
3285 Clouds 8 1019 75 10000 7.25 131 19:46 12.03.2022
3286 Clouds 8 1019 77 10000 7.45 131 18:41 12.03.2022
3287 Clouds 8 1019 79 10000 6.88 131 17:53 12.03.2022
3288 Clouds 7 1019 79 10000 6.43 134 16:28 12.03.2022
3289 Clouds 7 1019 79 10000 6.43 134 16:28 12.03.2022
3290 Clouds 7 1019 79 10000 6.43 134 15:50 12.03.2022
3291 Clouds 7 1019 78 10000 6.46 139 15:21 12.03.2022
3292 Clouds 7 1019 75 10000 7.26 148 13:53 12.03.2022
3293 Clouds 7 1019 75 10000 7.26 148 13:53 12.03.2022
3294 Clouds 6 1019 72 10000 9.04 151 12:28 12.03.2022
3295 Clouds 6 1019 72 10000 9.04 151 11:53 12.03.2022
3296 Clouds 6 1019 72 10000 9.04 151 11:33 12.03.2022
3297 Clouds 5 1018 64 10000 10.92 152 10:26 12.03.2022
3298 Clouds 5 1018 64 10000 10.92 152 09:43 12.03.2022
3299 Clouds 4 1017 59 10000 12.47 149 07:58 12.03.2022
3300 Clouds 4 1018 59 10000 13.05 146 06:40 12.03.2022
3301 Clear 5 1018 63 10000 13.82 138 00:55 12.03.2022
3302 Clear 5 1018 62 10000 13.99 138 23:43 11.03.2022
3303 Clear 5 1018 62 10000 13.99 138 23:43 11.03.2022
3304 Clear 5 1018 61 10000 14.24 138 22:32 11.03.2022
3305 Clouds 6 1018 60 10000 14.29 136 21:24 11.03.2022
3306 Clouds 6 1018 60 10000 14.29 136 20:46 11.03.2022
3307 Clouds 7 1018 59 10000 14.4 137 20:26 11.03.2022
3308 Clouds 7 1018 59 10000 14.4 137 19:33 11.03.2022
3309 Clouds 7 1018 58 10000 14.02 136 18:33 11.03.2022
3310 Clouds 7 1018 56 10000 13.62 135 17:26 11.03.2022
3311 Clouds 7 1019 55 10000 13.25 133 16:25 11.03.2022
3312 Clouds 7 1019 55 10000 13.25 133 15:36 11.03.2022
3313 Clear 6 1019 57 10000 13.11 135 13:45 11.03.2022
3314 Clear 6 1020 59 10000 13.1 134 12:41 11.03.2022
3315 Clear 5 1020 63 10000 13.17 132 12:19 11.03.2022
3316 Clear 5 1021 64 10000 13.68 134 10:53 11.03.2022
3317 Clear 4 1021 65 10000 14.25 134 09:36 11.03.2022
3318 Clear 4 1022 69 10000 13.83 132 08:28 11.03.2022
3319 Clear 4 1022 69 10000 13.83 132 07:48 11.03.2022
3320 Clouds 4 1022 68 10000 13.38 133 06:44 11.03.2022
3321 Clouds 4 1022 73 10000 12.43 130 04:40 11.03.2022
3322 Clouds 5 1023 76 10000 11.46 129 01:48 11.03.2022
3323 Clouds 6 1025 81 10000 10.78 133 22:33 10.03.2022
3324 Clouds 7 1025 78 10000 10.61 132 21:54 10.03.2022
3325 Clouds 7 1024 74 10000 10.36 132 21:25 10.03.2022
3326 Clouds 7 1024 74 10000 10.36 132 20:37 10.03.2022
3327 Clouds 8 1024 72 10000 8.9 129 19:22 10.03.2022
3328 Clouds 8 1024 73 10000 7.93 129 17:55 10.03.2022
3329 Clouds 8 1024 72 10000 7.8 127 16:53 10.03.2022
3330 Clouds 8 1025 72 10000 7.47 128 15:34 10.03.2022
3331 Clouds 7 1025 74 10000 7.09 133 13:51 10.03.2022
3332 Clouds 7 1026 74 10000 7.39 137 12:43 10.03.2022
3333 Clouds 8 1026 76 10000 7.54 141 11:33 10.03.2022
3334 Clouds 5 1026 76 10000 8.16 145 10:19 10.03.2022
3335 Clouds 2 1026 76 10000 8.45 144 08:40 10.03.2022
3336 Clear 1 1026 79 10000 7.14 142 05:48 10.03.2022
3337 Clear 6 1025 78 10000 7.45 142 03:22 10.03.2022
3338 Clouds 6 1026 76 10000 6.55 144 00:23 10.03.2022
3339 Clouds 6 1025 76 10000 6.82 142 22:43 09.03.2022
3340 Clouds 6 1025 76 10000 6.53 140 21:48 09.03.2022
3341 Clouds 6 1025 73 10000 6.47 140 20:53 09.03.2022
3342 Clouds 9 1024 71 10000 5.68 141 19:23 09.03.2022
3343 Clouds 7 1024 68 10000 5.09 140 17:29 09.03.2022
3344 Clouds 12 1024 68 10000 5.09 140 16:48 09.03.2022
3345 Clouds 12 1024 68 10000 5.41 137 15:41 09.03.2022
3346 Clouds 6 1024 69 10000 6.09 141 14:27 09.03.2022
3347 Clouds 11 1024 69 10000 6.09 141 13:50 09.03.2022
3348 Clear 5 1025 69 10000 6.7 150 12:25 09.03.2022
3349 Clear 9 1025 69 10000 6.7 150 11:48 09.03.2022
3350 Clear 7 1025 67 10000 6.75 152 10:55 09.03.2022
3351 Clear 4 1024 67 10000 6.53 159 09:40 09.03.2022
3352 Clear 1 1024 68 10000 6.82 161 08:45 09.03.2022
3353 Clear 5 1023 70 10000 6.73 162 06:25 09.03.2022
3354 Clear 2 1024 76 10000 7.13 156 00:59 09.03.2022
3355 Clear 2 1024 75 10000 7.3 154 00:22 09.03.2022
3356 Clear 3 1024 75 10000 7.49 151 22:46 08.03.2022
3357 Clear 4 1024 76 10000 7.44 144 21:51 08.03.2022
3358 Clear 4 1024 75 10000 6.89 140 21:21 08.03.2022
3359 Clear 5 1024 74 10000 6.44 135 20:21 08.03.2022
3360 Clear 6 1023 73 10000 6.35 129 19:21 08.03.2022
3361 Clear 8 1024 72 10000 5.76 125 18:22 08.03.2022
3362 Clear 9 1024 72 10000 5.6 113 16:42 08.03.2022
3363 Clear 9 1024 74 10000 4.53 126 14:55 08.03.2022
3364 Clear 8 1025 74 10000 5.1 132 13:45 08.03.2022
3365 Clouds 7 1025 73 10000 4.75 148 12:20 08.03.2022
3366 Clouds 6 1025 73 10000 4.75 148 11:42 08.03.2022
3367 Clouds 3 1025 73 10000 5.12 172 10:28 08.03.2022
3368 Clouds 1 1025 73 10000 5.24 172 08:57 08.03.2022
3369 Clouds 0 1025 72 10000 4.91 161 06:30 08.03.2022
3370 Clouds 1 1026 74 10000 4.07 152 02:37 08.03.2022
3371 Clouds 2 1027 68 10000 1.84 122 22:48 07.03.2022
3372 Clouds 2 1027 70 10000 1.3 124 21:45 07.03.2022
3373 Clouds 2 1027 72 10000 1.04 92 21:22 07.03.2022
3374 Clouds 2 1027 72 10000 1.04 92 20:33 07.03.2022
3375 Clear 2 1027 74 10000 0.67 97 19:50 07.03.2022
3376 Clear 2 1027 75 10000 0.66 123 19:20 07.03.2022
3377 Clear 4 1027 67 10000 1.14 90 18:29 07.03.2022
3378 Clear 6 1027 67 10000 1.14 90 17:31 07.03.2022
3379 Clear 6 1027 66 10000 1.12 55 16:54 07.03.2022
3380 Clear 7 1028 67 10000 0.13 45 14:51 07.03.2022
3381 Clear 6 1028 62 10000 1.55 181 12:34 07.03.2022
3382 Clear 7 1028 63 10000 1.82 169 11:36 07.03.2022
3383 Clear 6 1028 64 10000 1.82 146 10:34 07.03.2022
3384 Clear 3 1028 67 10000 2.15 99 08:35 07.03.2022
3385 Clear 3 1028 69 10000 2.61 91 02:56 07.03.2022
3386 Clear 2 1028 77 10000 3.57 62 00:21 07.03.2022
3387 Clear 3 1028 79 10000 3.26 46 23:26 06.03.2022
3388 Clear 3 1028 79 10000 3.26 46 22:30 06.03.2022
3389 Clear 4 1028 79 10000 3.45 35 21:44 06.03.2022
3390 Clear 4 1028 79 10000 3.33 28 20:29 06.03.2022
3391 Clear 4 1028 79 10000 3.33 28 20:29 06.03.2022
3392 Clear 4 1028 79 10000 3.33 28 19:43 06.03.2022
3393 Clouds 4 1027 73 10000 1.28 26 18:51 06.03.2022
3394 Clouds 5 1027 71 10000 1.05 13 17:49 06.03.2022
3395 Clouds 5 1026 70 10000 0.73 2 17:20 06.03.2022
3396 Clouds 5 1026 70 10000 0.73 2 16:40 06.03.2022
3397 Clouds 5 1027 68 10000 0.99 341 15:31 06.03.2022
3398 Clouds 4 1027 68 10000 1.61 333 14:48 06.03.2022
3399 Clouds 4 1027 67 10000 1.74 313 14:26 06.03.2022
3400 Clouds 3 1027 66 10000 1.94 330 12:40 06.03.2022
3401 Clouds 4 1028 66 10000 2.2 349 11:46 06.03.2022
3402 Clouds 3 1028 65 10000 2.36 8 10:43 06.03.2022
3403 Clouds 3 1028 67 10000 3.84 35 09:25 06.03.2022
3404 Clouds 2 1027 68 10000 4.56 38 08:28 06.03.2022
3405 Clouds 2 1027 68 10000 4.56 38 07:33 06.03.2022
3406 Clouds 2 1027 69 10000 4.91 47 03:18 06.03.2022
3407 Clouds 0 1027 69 10000 4.89 38 00:42 06.03.2022
3408 Clouds 0 1027 71 10000 4.83 51 00:23 06.03.2022
3409 Clouds 1 1027 74 10000 5.3 68 23:19 05.03.2022
3410 Clouds -2 1027 74 10000 5.3 68 22:38 05.03.2022
3411 Clouds 1 1026 75 10000 5.89 80 21:31 05.03.2022
3412 Clouds 2 1026 76 10000 6.32 78 20:39 05.03.2022
3413 Clear 2 1025 67 10000 5.92 38 19:23 05.03.2022
3414 Clear 3 1025 67 10000 5.92 38 18:50 05.03.2022
3415 Clear 4 1025 66 10000 5.32 37 17:39 05.03.2022
3416 Clear 4 1025 64 10000 4.58 58 16:20 05.03.2022
3417 Clear 5 1025 64 10000 4.58 58 15:30 05.03.2022
3418 Clear 5 1025 64 10000 4.4 71 14:37 05.03.2022
3419 Clear 4 1025 67 10000 4.68 85 13:46 05.03.2022
3420 Clear 4 1025 71 10000 4.88 105 12:55 05.03.2022
3421 Clear 3 1025 74 10000 5.17 115 11:39 05.03.2022
3422 Clear 3 1025 76 10000 5.33 123 11:18 05.03.2022
3423 Clear 1 1025 77 10000 5.43 127 09:40 05.03.2022
3424 Clear -1 1025 77 10000 5.68 127 08:46 05.03.2022
3425 Clear -1 1024 77 10000 6.15 125 07:23 05.03.2022
3426 Clear -1 1024 76 10000 5.97 128 05:41 05.03.2022
3427 Clear 1 1024 76 10000 6.98 131 01:25 05.03.2022
3428 Clear 1 1025 76 10000 7.71 123 23:35 04.03.2022
3429 Clear 1 1025 75 10000 7.85 121 22:41 04.03.2022
3430 Clear 1 1025 73 10000 8.09 118 21:47 04.03.2022
3431 Clear 2 1024 70 10000 8.22 117 20:49 04.03.2022
3432 Clear 2 1024 70 10000 7.99 118 20:21 04.03.2022
3433 Clear 3 1024 70 10000 7.99 118 19:35 04.03.2022
3434 Clear 4 1024 75 10000 6.35 110 18:37 04.03.2022
3435 Clear 5 1023 73 10000 4.59 110 17:30 04.03.2022
3436 Clear 5 1023 73 10000 4.59 110 16:43 04.03.2022
3437 Clear 5 1024 72 10000 5.56 117 15:28 04.03.2022
3438 Clear 4 1024 74 10000 5.73 124 14:19 04.03.2022
3439 Clear 1 1025 77 10000 5.99 128 12:54 04.03.2022
3440 Clear -1 1025 77 10000 6.52 124 11:40 04.03.2022
3441 Clear 2 1025 78 10000 6.06 124 10:42 04.03.2022
3442 Clear 1 1025 78 10000 5.42 119 09:28 04.03.2022
3443 Clear -1 1024 78 10000 5.35 118 08:31 04.03.2022
3444 Clear -1 1024 78 10000 5.05 120 07:23 04.03.2022
3445 Clear 1 1024 75 10000 5.49 125 03:43 04.03.2022
3446 Clear 2 1024 77 10000 6.49 109 00:22 04.03.2022
3447 Clear 2 1024 75 10000 7.21 100 22:21 03.03.2022
3448 Clear 2 1024 75 10000 7.21 100 21:40 03.03.2022
3449 Clear 2 1023 75 10000 7.45 95 21:18 03.03.2022
3450 Clear 2 1023 76 10000 7.27 89 19:48 03.03.2022
3451 Clear 3 1022 74 10000 7.13 81 18:53 03.03.2022
3452 Clear 3 1022 73 10000 6.52 79 18:22 03.03.2022
3453 Clear 6 1022 72 10000 5.3 71 17:28 03.03.2022
3454 Clear 4 1022 73 10000 4.48 65 16:22 03.03.2022
3455 Clear 5 1022 75 10000 4.32 79 15:20 03.03.2022
3456 Clear 7 1022 75 10000 4.32 79 14:42 03.03.2022
3457 Clear 5 1023 78 10000 5.07 99 13:19 03.03.2022
3458 Clear 4 1023 78 10000 5.66 107 11:51 03.03.2022
3459 Clear 3 1023 78 10000 6.37 106 10:42 03.03.2022
3460 Clear 1 1023 77 10000 5.65 102 08:57 03.03.2022
3461 Clear 0 1022 77 10000 4.83 109 07:45 03.03.2022
3462 Clouds 1 1023 77 10000 7.02 92 06:35 03.03.2022
3463 Clouds 2 1024 75 10000 4.79 95 02:23 03.03.2022
3464 Clouds 2 1024 75 10000 6.08 96 23:31 02.03.2022
3465 Clouds 1 1024 75 10000 6.08 96 22:52 02.03.2022
3466 Clouds 3 1024 76 10000 6.21 91 21:32 02.03.2022
3467 Clouds 3 1024 78 10000 6.05 88 20:53 02.03.2022
3468 Clouds 3 1024 78 10000 6.08 86 20:24 02.03.2022
3469 Clouds 3 1024 78 10000 6.08 86 19:36 02.03.2022
3470 Clear 4 1024 76 10000 5.01 75 18:48 02.03.2022
3471 Clear 4 1024 75 10000 4.68 61 18:18 02.03.2022
3472 Clear 4 1024 75 10000 4.68 61 17:34 02.03.2022
3473 Clear 5 1024 77 10000 4.49 54 16:51 02.03.2022
3474 Clear 5 1025 81 10000 4.42 57 14:49 02.03.2022
3475 Clear 5 1027 84 10000 4.95 68 13:29 02.03.2022
3476 Clouds 5 1027 85 10000 5.26 64 12:44 02.03.2022
3477 Clouds 5 1027 86 10000 5.75 65 11:59 02.03.2022
3478 Clouds 5 1027 86 10000 5.46 71 11:25 02.03.2022
3479 Clouds 4 1027 86 10000 5.86 73 10:25 02.03.2022
3480 Clouds 3 1027 86 10000 5.86 73 09:31 02.03.2022
3481 Clouds 3 1027 86 10000 5.93 76 07:59 02.03.2022
3482 Clouds 2 1028 85 10000 6.32 68 07:23 02.03.2022
3483 Clouds 3 1028 86 10000 5.57 59 03:56 02.03.2022
3484 Clouds 4 1029 83 10000 4.27 60 00:40 02.03.2022
3485 Clouds 4 1029 83 10000 3.64 83 22:53 01.03.2022
3486 Clouds 4 1029 85 10000 3.85 87 22:35 01.03.2022
3487 Clouds 4 1029 85 10000 4.01 85 21:26 01.03.2022
3488 Clouds 4 1029 85 10000 4.01 85 20:37 01.03.2022
3489 Clouds 4 1029 85 10000 3.93 86 20:19 01.03.2022
3490 Clouds 5 1029 85 10000 3.2 84 18:52 01.03.2022
3491 Rain 5 1029 84 10000 3.09 79 18:21 01.03.2022
3492 Rain 5 1029 84 10000 3.09 79 17:39 01.03.2022
3493 Rain 6 1028 83 10000 2.87 63 16:36 01.03.2022
3494 Rain 5 1028 82 10000 1.7 72 15:47 01.03.2022
3495 Rain 6 1029 81 10000 0.18 208 14:53 01.03.2022
3496 Rain 6 1029 81 10000 0.18 208 14:31 01.03.2022
3497 Clouds 7 1029 77 10000 3.01 229 13:26 01.03.2022
3498 Rain 5 1029 74 10000 3.7 215 12:36 01.03.2022
3499 Clouds 4 1028 73 10000 5.34 197 10:57 01.03.2022
3500 Clouds 2 1028 73 10000 5.8 191 09:43 01.03.2022
3501 Clouds 1 1028 72 10000 6.34 184 08:20 01.03.2022
3502 Clouds 0 1028 70 10000 6.75 188 06:47 01.03.2022
3503 Clouds 1 1029 69 10000 9.18 177 03:26 01.03.2022
3504 Clouds 2 1029 70 10000 10.12 172 00:48 01.03.2022
3505 Clouds 3 1029 70 10000 10.48 169 23:39 28.02.2022
3506 Clouds 3 1030 71 10000 10.43 166 22:43 28.02.2022
3507 Clouds 4 1030 72 10000 10.41 164 21:47 28.02.2022
3508 Clouds 4 1030 72 10000 10.3 161 20:54 28.02.2022
3509 Clouds 5 1030 71 10000 9.92 160 19:51 28.02.2022
3510 Clouds 6 1030 71 10000 10.03 159 18:56 28.02.2022
3511 Clouds 8 1029 71 10000 8.8 157 17:43 28.02.2022
3512 Clear 8 1030 70 10000 8.26 157 17:23 28.02.2022
3513 Clear 9 1030 69 10000 8.38 157 16:25 28.02.2022
3514 Clear 8 1030 70 10000 8.69 153 14:33 28.02.2022
3515 Clear 7 1031 71 10000 8.37 152 13:56 28.02.2022
3516 Clear 7 1032 68 10000 7.23 164 13:24 28.02.2022
3517 Clear 6 1032 68 10000 7.45 172 12:29 28.02.2022
3518 Clear 5 1032 69 10000 7.89 175 11:20 28.02.2022
3519 Clear 3 1032 70 10000 8.3 176 10:23 28.02.2022
3520 Clear 2 1032 70 10000 8.3 176 09:51 28.02.2022
3521 Clear 2 1032 71 10000 8.44 175 09:24 28.02.2022
3522 Clear 0 1031 72 10000 8.72 170 08:22 28.02.2022
3523 Clear 0 1031 71 10000 8.47 171 06:31 28.02.2022
3524 Clear 1 1032 72 10000 8.7 173 04:31 28.02.2022
3525 Clear 2 1033 72 10000 9.5 166 01:42 28.02.2022
3526 Clear 3 1033 76 10000 9.47 154 22:57 27.02.2022
3527 Clear 3 1033 76 10000 9.47 154 22:32 27.02.2022
3528 Clear 4 1033 76 10000 9.27 150 21:42 27.02.2022
3529 Clear 4 1033 76 10000 8.86 144 20:51 27.02.2022
3530 Clear 4 1033 75 10000 7.97 141 20:25 27.02.2022
3531 Clear 5 1033 75 10000 7.97 141 19:50 27.02.2022
3532 Clear 5 1033 73 10000 7.53 144 19:26 27.02.2022
3533 Clear 6 1033 73 10000 7 145 18:39 27.02.2022
3534 Clear 7 1033 72 10000 7.27 146 17:53 27.02.2022
3535 Clear 7 1033 71 10000 7.16 145 16:36 27.02.2022
3536 Clear 7 1034 70 10000 7.29 145 15:42 27.02.2022
3537 Clear 6 1035 72 10000 8.44 149 12:53 27.02.2022
3538 Clear 6 1035 75 10000 7.95 152 12:29 27.02.2022
3539 Clear 3 1035 77 10000 7.98 154 10:47 27.02.2022
3540 Clear 3 1035 78 10000 8 152 09:58 27.02.2022
3541 Clear 2 1035 77 10000 7.84 153 09:27 27.02.2022
3542 Clear 1 1035 77 10000 7.84 153 08:54 27.02.2022
3543 Clear 1 1035 77 10000 7.8 148 06:43 27.02.2022
3544 Clear 1 1034 76 10000 7.26 149 05:35 27.02.2022
3545 Clouds 3 1035 78 10000 6.5 142 00:37 27.02.2022
3546 Clouds 3 1035 77 10000 5.15 137 22:51 26.02.2022
3547 Clouds 4 1035 76 10000 4.98 131 21:38 26.02.2022
3548 Clouds 2 1035 77 10000 3.87 138 20:48 26.02.2022
3549 Clouds 2 1035 78 10000 2.93 140 19:59 26.02.2022
3550 Clouds 3 1035 78 10000 2.93 140 19:37 26.02.2022
3551 Clear 4 1034 78 10000 2.27 146 18:49 26.02.2022
3552 Clear 6 1034 79 10000 1.83 155 17:42 26.02.2022
3553 Clear 6 1034 79 10000 1.69 170 16:48 26.02.2022
3554 Clear 6 1034 77 10000 1.8 188 15:49 26.02.2022
3555 Clear 6 1034 77 10000 2.02 197 15:22 26.02.2022
3556 Clear 7 1034 77 10000 2.02 197 14:53 26.02.2022
3557 Clear 7 1034 77 10000 2.02 197 14:33 26.02.2022
3558 Clear 7 1034 81 10000 1.36 211 13:19 26.02.2022
3559 Clear 6 1034 79 10000 0.89 242 12:20 26.02.2022
3560 Clear 6 1034 82 10000 1.23 287 11:28 26.02.2022
3561 Clear 7 1034 82 10000 1.23 287 10:39 26.02.2022
3562 Clear 4 1033 84 10000 1.96 313 08:48 26.02.2022
3563 Clear 5 1032 83 10000 4.39 325 06:51 26.02.2022
3564 Clear 6 1027 84 10000 10.35 318 00:50 26.02.2022
3565 Clear 6 1026 82 10000 12.04 314 22:49 25.02.2022
3566 Clear 6 1024 81 10000 12.2 311 21:43 25.02.2022
3567 Clear 6 1023 81 10000 12.03 310 21:23 25.02.2022
3568 Clear 6 1023 81 10000 12.03 310 20:32 25.02.2022
3569 Clouds 6 1021 77 10000 12.78 312 18:59 25.02.2022
3570 Clouds 6 1018 77 10000 13.42 313 17:29 25.02.2022
3571 Clouds 7 1018 77 10000 13.42 313 16:32 25.02.2022
3572 Clouds 6 1016 77 10000 14.1 314 15:47 25.02.2022
3573 Clouds 6 1015 78 10000 14.18 314 15:21 25.02.2022
3574 Clouds 6 1015 78 10000 14.18 314 14:42 25.02.2022
3575 Clouds 6 1015 78 10000 14.18 314 14:42 25.02.2022
3576 Clouds 6 1013 80 10000 15.3 309 13:51 25.02.2022
3577 Clouds 6 1012 84 10000 14.46 296 13:18 25.02.2022
3578 Clouds 5 1011 77 10000 13.61 283 11:28 25.02.2022
3579 Clouds 5 1011 77 10000 13.62 283 10:43 25.02.2022
3580 Clouds 5 1010 79 10000 13.86 279 10:22 25.02.2022
3581 Rain 4 1010 79 10000 13.86 279 09:30 25.02.2022
3582 Clouds 4 1009 90 10000 15.1 257 07:42 25.02.2022
3583 Clouds 4 1008 83 10000 15.05 257 05:51 25.02.2022
3584 Clouds 5 1008 83 10000 14.74 257 04:41 25.02.2022
3585 Clouds 4 1006 76 10000 12.68 266 00:22 25.02.2022
3586 Clouds 5 1005 75 10000 12.58 272 21:59 24.02.2022
3587 Clouds 3 1005 75 10000 12.58 272 21:40 24.02.2022
3588 Clouds 3 1004 75 10000 12.14 276 21:20 24.02.2022
3589 Clouds 3 1003 77 10000 13.14 274 19:53 24.02.2022
3590 Rain 3 1002 97 154 10.86 278 18:52 24.02.2022
3591 Clouds 3 1000 87 10000 12.99 293 18:19 24.02.2022
3592 Clouds 2 1000 87 10000 12.99 293 17:42 24.02.2022
3593 Rain 4 999 97 469 11.26 325 16:50 24.02.2022
3594 Clouds 4 997 96 1225 9.91 292 16:25 24.02.2022
3595 Rain 7 997 96 1225 9.91 292 15:30 24.02.2022
3596 Rain 8 997 82 8014 14.82 213 14:37 24.02.2022
3597 Clouds 8 999 79 10000 13.5 199 13:42 24.02.2022
3598 Clouds 8 1001 81 10000 12.58 201 13:24 24.02.2022
3599 Clouds 6 1003 82 10000 12.44 205 10:48 24.02.2022
3600 Clouds 6 1005 82 10000 12.75 206 09:41 24.02.2022
3601 Clouds 6 1006 82 10000 12.32 209 08:42 24.02.2022
3602 Clouds 6 1007 81 10000 12.66 216 06:27 24.02.2022
3603 Clouds 6 1007 81 10000 12.66 216 05:36 24.02.2022
3604 Clouds 7 1012 78 10000 13.36 210 00:30 24.02.2022
3605 Clouds 7 1011 77 10000 13.99 213 00:30 24.02.2022
3606 Clouds 7 1014 80 10000 12.19 212 21:56 23.02.2022
3607 Clouds 7 1015 79 10000 12.01 212 20:33 23.02.2022
3608 Clear 7 1016 78 10000 12.05 221 19:56 23.02.2022
3609 Clouds 7 1016 76 10000 12.68 228 18:59 23.02.2022
3610 Clouds 9 1017 78 10000 12.47 227 17:47 23.02.2022
3611 Clouds 9 1018 78 10000 12.63 232 15:47 23.02.2022
3612 Clouds 9 1019 82 10000 12.42 235 13:36 23.02.2022
3613 Clear 8 1020 87 10000 11.18 242 12:29 23.02.2022
3614 Clear 6 1020 88 10000 10.8 248 10:55 23.02.2022
3615 Clear 6 1020 89 10000 10.5 255 09:38 23.02.2022
3616 Clear 6 1020 88 10000 10.61 260 08:36 23.02.2022
3617 Clear 6 1020 86 10000 10.81 267 07:47 23.02.2022
3618 Clear 6 1015 81 10000 13.4 292 02:23 23.02.2022
3619 Clouds 6 1013 79 10000 13.52 291 23:50 22.02.2022
3620 Clouds 6 1013 79 10000 13.52 291 23:31 22.02.2022
3621 Clouds 6 1010 78 10000 13.02 290 22:28 22.02.2022
3622 Clouds 7 1010 78 10000 13.02 290 21:44 22.02.2022
3623 Clouds 7 1009 79 10000 13.25 295 21:20 22.02.2022
3624 Clouds 7 1009 79 10000 13.25 295 20:32 22.02.2022
3625 Clouds 7 1008 80 10000 14.35 300 19:56 22.02.2022
3626 Clouds 7 1008 80 10000 14.35 300 19:33 22.02.2022
3627 Clouds 8 1006 86 10000 14.62 313 18:35 22.02.2022
3628 Rain 7 1004 94 10000 14.52 269 17:34 22.02.2022
3629 Rain 7 1004 96 7165 12.83 232 16:56 22.02.2022
3630 Clouds 7 1005 95 10000 13.33 216 16:21 22.02.2022
3631 Clouds 6 1005 95 10000 13.33 216 15:30 22.02.2022
3632 Clouds 6 1008 89 10000 11.64 207 14:28 22.02.2022
3633 Clouds 6 1012 84 10000 8.37 232 11:39 22.02.2022
3634 Clouds 6 1012 84 10000 8.37 232 11:39 22.02.2022
3635 Clouds 6 1012 77 10000 6.67 268 09:45 22.02.2022
3636 Clouds 6 1012 79 10000 9.33 300 07:38 22.02.2022
3637 Clouds 6 1012 79 10000 11.1 304 07:19 22.02.2022
3638 Clouds 6 1012 79 10000 11.1 304 07:19 22.02.2022
3639 Clear 6 1009 76 10000 14.02 306 02:51 22.02.2022
3640 Clouds 6 1006 77 10000 15.17 316 23:42 21.02.2022
3641 Clouds 7 1005 76 10000 15.89 321 22:37 21.02.2022
3642 Clouds 6 1000 84 10000 14.5 327 21:23 21.02.2022
3643 Clouds 6 996 84 10000 14.07 305 18:58 21.02.2022
3644 Clouds 6 996 84 10000 14.07 305 18:39 21.02.2022
3645 Clouds 6 994 81 10000 11.22 302 16:37 21.02.2022
3646 Clouds 2 989 96 155 6.25 224 14:24 21.02.2022
3647 Clouds 2 989 96 155 6.25 224 13:40 21.02.2022
3648 Clouds 2 987 98 60 11.45 212 12:57 21.02.2022
3649 Clouds 2 987 98 59 12.85 216 12:21 21.02.2022
3650 Clouds 5 988 89 10000 15.2 246 10:32 21.02.2022
3651 Clouds 4 987 82 10000 17.24 269 07:52 21.02.2022
3652 Rain 6 981 86 10000 21.54 275 00:36 21.02.2022
3653 Clouds 9 979 86 10000 22.3 243 22:37 20.02.2022
3654 Rain 9 980 93 6380 19.34 220 21:51 20.02.2022
3655 Rain 9 983 95 6411 17.06 220 21:25 20.02.2022
3656 Rain 9 983 95 6411 17.06 220 20:50 20.02.2022
3657 Rain 9 985 96 5581 15.59 216 19:59 20.02.2022
3658 Rain 9 988 95 5532 15.49 223 18:57 20.02.2022
3659 Rain 9 989 95 6801 15.84 227 18:37 20.02.2022
3660 Clouds 9 991 93 10000 16.1 236 17:56 20.02.2022
3661 Clouds 9 992 92 10000 15.71 240 17:24 20.02.2022
3662 Clouds 8 994 92 10000 16.44 245 15:29 20.02.2022
3663 Clouds 8 994 93 10000 16.84 244 14:20 20.02.2022
3664 Clouds 7 996 93 10000 16.6 246 12:49 20.02.2022
3665 Clouds 4 996 93 10000 16.27 239 11:56 20.02.2022
3666 Clouds 3 1000 98 69 13.7 181 10:21 20.02.2022
3667 Clouds 3 1000 98 69 13.7 181 09:51 20.02.2022
3668 Clouds 3 1004 76 10000 8.99 232 06:44 20.02.2022
3669 Clouds 3 1003 97 148 0.83 8 00:33 20.02.2022
3670 Clouds 3 1003 99 72 1.84 309 23:39 19.02.2022
3671 Clouds 3 1004 97 103 4.9 235 22:25 19.02.2022
3672 Rain 4 1004 97 103 4.9 235 21:52 19.02.2022
3673 Rain 4 1004 91 9489 9.68 234 20:48 19.02.2022
3674 Clouds 5 1005 80 10000 12.46 240 19:36 19.02.2022
3675 Clouds 5 1004 81 10000 11.97 237 18:41 19.02.2022
3676 Clouds 5 1004 80 10000 12.69 245 17:59 19.02.2022
3677 Clouds 6 1005 80 10000 14.31 247 17:32 19.02.2022
3678 Clouds 6 1005 80 10000 14.88 249 15:59 19.02.2022
3679 Clouds 6 1005 81 10000 14.69 253 14:56 19.02.2022
3680 Clear 6 1005 82 10000 15.33 254 13:58 19.02.2022
3681 Clouds 6 1005 80 10000 14.93 260 11:58 19.02.2022
3682 Clouds 5 1004 82 10000 14.67 267 11:29 19.02.2022
3683 Clouds 4 1002 83 10000 14.05 270 09:27 19.02.2022
3684 Clouds 4 998 80 10000 15.86 280 06:51 19.02.2022
3685 Clouds 5 982 91 9123 21.8 278 00:55 19.02.2022
3686 Clouds 6 980 89 9419 26.12 247 22:41 18.02.2022
3687 Clouds 6 979 76 10000 23.58 254 21:28 18.02.2022
3688 Clouds 6 979 76 10000 23.58 254 20:31 18.02.2022
3689 Clouds 7 977 80 10000 24.19 253 19:51 18.02.2022
3690 Clouds 8 975 85 10000 25.48 238 18:39 18.02.2022
3691 Clouds 8 977 79 10000 22.61 218 18:19 18.02.2022
3692 Clouds 9 979 72 10000 19.27 217 17:20 18.02.2022
3693 Rain 8 982 91 8387 16.33 213 14:39 18.02.2022
3694 Rain 7 985 93 10000 15.07 200 13:47 18.02.2022
3695 Rain 6 988 94 7828 15.21 176 12:51 18.02.2022
3696 Rain 6 991 95 5684 15.14 160 11:58 18.02.2022
3697 Rain 4 994 96 5790 12.88 157 10:58 18.02.2022
3698 Rain 4 999 90 10000 9.67 189 09:29 18.02.2022
3699 Clouds 4 1003 88 10000 7.89 211 06:50 18.02.2022
3700 Clouds 4 1004 85 10000 7.13 231 05:37 18.02.2022
3701 Clouds 7 1004 69 10000 15.63 283 22:46 17.02.2022
3702 Clouds 7 1003 71 10000 16.02 283 21:42 17.02.2022
3703 Clouds 7 1002 72 10000 16.75 282 20:52 17.02.2022
3704 Clouds 7 1002 72 10000 16.75 282 20:33 17.02.2022
3705 Clear 7 1002 72 10000 17.59 283 19:43 17.02.2022
3706 Clouds 7 1000 70 10000 18.49 284 18:37 17.02.2022
3707 Clouds 7 999 73 10000 19 282 17:47 17.02.2022
3708 Clouds 7 997 76 10000 19.52 279 16:20 17.02.2022
3709 Clouds 8 996 77 10000 18.92 280 14:57 17.02.2022
3710 Clouds 8 995 78 10000 17.98 280 14:19 17.02.2022
3711 Clouds 7 994 79 10000 17.5 285 11:59 17.02.2022
3712 Clouds 7 992 85 10000 17.5 288 11:21 17.02.2022
3713 Clouds 7 989 87 10000 18.67 287 08:38 17.02.2022
3714 Clouds 9 980 72 10000 20.75 269 00:29 17.02.2022
3715 Clouds 10 979 74 10000 21.04 265 22:41 16.02.2022
3716 Rain 10 979 94 10000 21.53 242 20:46 16.02.2022
3717 Rain 9 980 94 10000 19.13 235 19:43 16.02.2022
3718 Rain 10 983 92 7815 18.45 231 18:36 16.02.2022
3719 -273 0 0 0 0 0 17:37 16.02.2022
3720 -273 0 0 0 0 0 17:35 16.02.2022
3721 Clouds 10 986 90 10000 16.72 241 15:30 16.02.2022
3722 Clouds 10 987 89 10000 17.65 247 14:57 16.02.2022
3723 Clouds 9 987 90 10000 16.27 248 12:34 16.02.2022
3724 Clouds 9 987 93 10000 16.54 242 11:53 16.02.2022
3725 Clouds 8 986 96 10000 15.84 233 10:52 16.02.2022
3726 Clouds 8 988 94 10000 15.2 213 10:29 16.02.2022
3727 Rain 6 993 95 10000 7.84 186 06:57 16.02.2022
3728 Rain 6 996 91 10000 7.93 206 04:42 16.02.2022
3729 Clouds 6 999 85 10000 9.77 253 23:35 15.02.2022
3730 Clouds 6 999 89 10000 8.91 242 22:18 15.02.2022
3731 Clouds 6 999 89 10000 8.91 242 21:45 15.02.2022
3732 Clouds 6 999 92 10000 13.77 229 21:26 15.02.2022
3733 Clouds 6 999 92 10000 13.77 229 20:53 15.02.2022
3734 Rain 6 999 93 7989 16.33 216 19:48 15.02.2022
3735 Rain 6 1000 90 7814 15.93 205 18:52 15.02.2022
3736 Rain 6 1001 84 9545 14.91 207 18:19 15.02.2022
3737 Clouds 7 1001 84 9545 14.91 207 17:48 15.02.2022
3738 Clouds 7 1003 77 10000 12.84 210 16:30 15.02.2022
3739 Clouds 8 1004 83 10000 12.19 222 14:47 15.02.2022
3740 Clouds 8 1005 89 10000 11.35 225 13:26 15.02.2022
3741 Clouds 6 1005 91 10000 10.87 221 11:54 15.02.2022
3742 Clouds 6 1005 91 10000 9.7 219 10:58 15.02.2022
3743 Clouds 5 1005 86 10000 7.67 246 09:28 15.02.2022
3744 Clouds 6 1004 84 10000 8.35 268 06:49 15.02.2022
3745 Clouds 6 1000 91 10000 13.44 265 02:36 15.02.2022
3746 Clouds 7 999 81 10000 14.62 213 22:25 14.02.2022
3747 Clouds 7 999 83 10000 13.4 209 21:27 14.02.2022
3748 Clouds 7 999 83 10000 12.65 215 20:24 14.02.2022
3749 Clouds 7 999 83 10000 12.65 215 19:30 14.02.2022
3750 Clouds 8 999 84 10000 12.09 221 18:30 14.02.2022
3751 Clouds 8 998 86 10000 11.8 223 17:58 14.02.2022
3752 Clouds 8 998 87 10000 12.18 225 17:24 14.02.2022
3753 Clouds 9 997 86 10000 11.19 222 15:59 14.02.2022
3754 Clouds 9 997 89 10000 10.47 219 13:44 14.02.2022
3755 Clouds 9 996 89 10000 10.83 224 13:24 14.02.2022
3756 Clouds 8 996 87 10000 12 229 12:33 14.02.2022
3757 Clouds 10 996 88 10000 14.65 223 11:54 14.02.2022
3758 Clouds 9 994 82 10000 15.55 197 10:37 14.02.2022
3759 Clouds 8 994 80 10000 14.18 188 08:45 14.02.2022
3760 Clouds 8 995 78 10000 13.79 189 07:31 14.02.2022
3761 Clouds 8 998 79 10000 13.09 194 01:18 14.02.2022
3762 Clouds 7 1000 76 10000 13.95 191 22:42 13.02.2022
3763 Clouds 7 1001 76 10000 13.82 188 22:24 13.02.2022
3764 Clouds 7 1001 76 10000 13.82 188 21:32 13.02.2022
3765 Clouds 6 1001 76 10000 13.32 183 20:35 13.02.2022
3766 Clouds 6 1002 73 10000 12.76 178 19:45 13.02.2022
3767 Clouds 6 1003 70 10000 12.58 183 18:49 13.02.2022
3768 Clouds 6 1004 69 10000 12.36 188 18:28 13.02.2022
3769 Clouds 6 1006 71 10000 11.45 194 15:54 13.02.2022
3770 Clouds 6 1007 73 10000 11.2 200 15:24 13.02.2022
3771 Clouds 6 1007 73 10000 11.2 200 14:31 13.02.2022
3772 Clouds 4 1009 73 10000 11.58 204 12:51 13.02.2022
3773 Clouds 3 1009 71 10000 12.24 205 11:44 13.02.2022
3774 Clouds 2 1010 72 10000 12.33 212 10:34 13.02.2022
3775 Clouds 2 1010 72 10000 12.73 211 09:46 13.02.2022
3776 Clouds 1 1011 73 10000 12.5 208 07:51 13.02.2022
3777 Clouds 3 1015 73 10000 13.65 204 00:36 13.02.2022
3778 Clouds 3 1016 72 10000 14.01 205 23:53 12.02.2022
3779 Clouds 3 1017 71 10000 13.9 201 22:33 12.02.2022
3780 Clouds 3 1017 71 10000 13.65 199 21:31 12.02.2022
3781 Clouds 3 1018 71 10000 13.48 199 20:47 12.02.2022
3782 Clouds 3 1019 70 10000 13.41 196 19:47 12.02.2022
3783 Clouds 4 1019 71 10000 13.11 197 18:53 12.02.2022
3784 Clouds 4 1020 70 10000 13.13 196 18:35 12.02.2022
3785 Clouds 4 1020 71 10000 12.56 195 17:37 12.02.2022
3786 Clouds 5 1021 70 10000 12.13 197 16:43 12.02.2022
3787 Clouds 5 1022 69 10000 11.78 201 15:51 12.02.2022
3788 Clouds 5 1023 70 10000 11.59 202 14:55 12.02.2022
3789 Clouds 5 1023 70 10000 11.59 202 14:55 12.02.2022
3790 Clouds 5 1024 71 10000 11.54 205 14:24 12.02.2022
3791 Clouds 3 1026 75 10000 12.16 210 11:18 12.02.2022
3792 Clouds 2 1027 78 10000 11.86 210 10:28 12.02.2022
3793 Clouds 1 1027 78 10000 11.86 210 09:33 12.02.2022
3794 Clouds 0 1027 78 10000 11.35 210 08:45 12.02.2022
3795 Clouds 0 1029 75 10000 9.94 215 05:41 12.02.2022
3796 Clouds 1 1029 73 10000 9.52 217 04:38 12.02.2022
3797 Clear 3 1031 62 10000 6.91 232 02:19 12.02.2022
3798 Clouds 3 1032 57 10000 4.87 261 23:20 11.02.2022
3799 Clouds 4 1032 57 10000 4.52 286 22:20 11.02.2022
3800 Clear 4 1031 58 10000 5.05 303 21:18 11.02.2022
3801 Clear 4 1031 59 10000 5.06 323 20:21 11.02.2022
3802 Clouds 4 1030 60 10000 6.04 334 19:27 11.02.2022
3803 Clouds 4 1030 65 10000 7.25 325 18:29 11.02.2022
3804 Clouds 4 1029 64 10000 7.69 329 17:26 11.02.2022
3805 Clouds 5 1029 64 10000 7.69 329 16:37 11.02.2022
3806 Clouds 4 1027 65 10000 9.15 335 15:18 11.02.2022
3807 Clouds 6 1027 65 10000 9.15 335 14:37 11.02.2022
3808 Clouds 6 1027 67 10000 9.61 341 14:19 11.02.2022
3809 Clouds 5 1027 67 10000 9.61 341 13:40 11.02.2022
3810 Clouds 4 1026 69 10000 9.72 342 12:45 11.02.2022
3811 Clouds 4 1023 74 10000 12.53 3 10:49 11.02.2022
3812 Rain 5 1021 88 10000 15.07 4 09:31 11.02.2022
3813 Clouds 6 1018 88 10000 6.58 354 08:31 11.02.2022
3814 Clouds 6 1016 90 10000 4.35 20 07:40 11.02.2022
3815 Clouds 3 1014 94 6029 7.31 190 05:34 11.02.2022
3816 Clear 3 1015 81 10000 8.87 237 02:21 11.02.2022
3817 Clouds 4 1016 81 10000 9.03 246 23:45 10.02.2022
3818 Clouds 5 1017 78 10000 9.24 258 22:25 10.02.2022
3819 Clouds 5 1017 78 10000 9.24 258 21:40 10.02.2022
3820 Clouds 5 1017 77 10000 9.47 262 20:48 10.02.2022
3821 Clouds 5 1017 78 10000 9.43 266 19:49 10.02.2022
3822 Clouds 5 1016 78 10000 9.64 268 19:21 10.02.2022
3823 Clouds 5 1016 80 10000 9.26 262 18:22 10.02.2022
3824 Clouds 6 1016 80 10000 8.81 267 17:21 10.02.2022
3825 Clouds 6 1016 80 10000 8.81 267 16:39 10.02.2022
3826 Clouds 7 1016 80 10000 8.92 271 15:39 10.02.2022
3827 Clouds 7 1016 82 10000 8.64 272 15:20 10.02.2022
3828 Clouds 7 1016 82 10000 8.64 272 14:34 10.02.2022
3829 Clouds 7 1016 83 10000 8.68 274 13:40 10.02.2022
3830 Clouds 7 1016 84 10000 8.6 268 13:19 10.02.2022
3831 Clouds 6 1016 85 10000 7.58 266 11:52 10.02.2022
3832 Clouds 6 1016 85 10000 7.58 266 11:30 10.02.2022
3833 Clouds 6 1016 84 10000 7.09 265 10:23 10.02.2022
3834 Clouds 6 1016 84 10000 7.09 265 09:44 10.02.2022
3835 Rain 6 1016 83 10000 7.2 269 08:40 10.02.2022
3836 Rain 6 1016 84 10000 7.39 263 06:33 10.02.2022
3837 Clouds 6 1018 90 10000 5.73 228 02:43 10.02.2022
3838 Clouds 6 1019 86 10000 5.95 242 00:53 10.02.2022
3839 Clouds 6 1019 88 10000 5.74 241 00:30 10.02.2022
3840 Clouds 5 1020 90 10000 6.02 246 23:58 09.02.2022
3841 Clouds 6 1020 91 10000 6.21 246 22:54 09.02.2022
3842 Clouds 6 1020 91 10000 6.21 246 22:30 09.02.2022
3843 Clouds 6 1020 91 10000 6.22 247 21:47 09.02.2022
3844 Clouds 6 1020 91 10000 6.24 250 21:27 09.02.2022
3845 Clouds 6 1020 91 10000 6.24 250 20:43 09.02.2022
3846 Clouds 6 1020 90 10000 6.38 254 20:22 09.02.2022
3847 Clouds 7 1020 90 10000 6.38 254 19:41 09.02.2022
3848 Clouds 7 1020 89 10000 6.63 263 18:38 09.02.2022
3849 Clouds 7 1020 89 10000 6.63 263 18:38 09.02.2022
3850 Clouds 8 1020 92 10000 8.38 267 16:56 09.02.2022
3851 Clouds 8 1019 90 10000 9.58 266 16:20 09.02.2022
3852 Clouds 8 1019 91 10000 9.94 266 15:23 09.02.2022
3853 Clouds 8 1019 92 10000 12.38 253 12:53 09.02.2022
3854 Clouds 8 1018 91 10000 13.43 245 11:29 09.02.2022
3855 Clouds 7 1018 91 10000 13.43 245 10:34 09.02.2022
3856 Clouds 8 1018 89 10000 13.97 244 09:50 09.02.2022
3857 Clouds 8 1018 88 10000 14.24 240 09:22 09.02.2022
3858 Clouds 8 1018 88 10000 14.24 240 08:45 09.02.2022
3859 Clouds 8 1018 91 10000 13.49 235 05:57 09.02.2022
3860 Clouds 8 1018 93 10000 13.1 232 04:30 09.02.2022
3861 Clouds 8 1019 94 10000 12.26 232 03:48 09.02.2022
3862 Clouds 8 1020 95 10000 10.45 238 23:45 08.02.2022
3863 Clouds 8 1020 96 10000 9.65 240 23:19 08.02.2022
3864 Clouds 8 1020 96 10000 9.65 240 23:19 08.02.2022
3865 Clouds 8 1020 96 10000 9.65 240 22:38 08.02.2022
3866 Clouds 8 1021 95 10000 9.93 248 22:19 08.02.2022
3867 Clouds 7 1021 95 10000 9.98 251 21:22 08.02.2022
3868 Clouds 7 1021 95 10000 9.98 251 20:58 08.02.2022
3869 Clouds 7 1021 95 10000 9.98 251 20:37 08.02.2022
3870 Clouds 6 1021 95 10000 9.87 251 19:27 08.02.2022
3871 Clouds 7 1020 96 10000 9.44 249 18:19 08.02.2022
3872 Clouds 7 1020 95 10000 10.05 255 16:56 08.02.2022
3873 Clouds 8 1020 95 10000 9.95 258 15:46 08.02.2022
3874 Clouds 8 1019 94 10000 10.79 261 14:58 08.02.2022
3875 Clouds 8 1019 94 10000 11.27 264 13:48 08.02.2022
3876 Clouds 8 1019 93 10000 12.4 265 12:24 08.02.2022
3877 Clouds 8 1018 92 10000 13.46 263 10:49 08.02.2022
3878 Clouds 7 1018 91 10000 14.02 260 09:48 08.02.2022
3879 Clouds 7 1017 91 10000 14.28 258 08:39 08.02.2022
3880 Clouds 7 1017 92 10000 13.46 255 06:38 08.02.2022
3881 Clouds 7 1017 94 10000 13.23 246 04:40 08.02.2022
3882 Clouds 7 1018 95 10000 13.1 236 04:22 08.02.2022
3883 Clouds 6 1018 95 10000 13.1 236 03:36 08.02.2022
3884 Clouds 6 1018 94 10000 13.16 236 03:18 08.02.2022
3885 Clouds 6 1018 94 10000 13.16 236 02:59 08.02.2022
3886 Clouds 5 1018 94 10000 13.16 236 02:36 08.02.2022
3887 Clouds 5 1019 93 10000 13.16 234 02:18 08.02.2022
3888 Clouds 5 1019 93 10000 13.16 234 01:44 08.02.2022
3889 Clouds 5 1019 91 10000 12.4 229 01:25 08.02.2022
3890 Clouds 5 1019 91 10000 12.4 229 00:55 08.02.2022
3891 Clouds 5 1019 88 10000 12.09 230 00:21 08.02.2022
3892 Clouds 4 1019 88 10000 12.09 230 23:44 07.02.2022
3893 Clouds 4 1019 88 10000 12.09 230 23:44 07.02.2022
3894 Clouds 4 1020 84 10000 11.27 235 23:18 07.02.2022
3895 Clouds 4 1020 84 10000 11.27 235 22:59 07.02.2022
3896 Clouds 4 1021 82 10000 10.24 240 22:19 07.02.2022
3897 Clouds 4 1021 82 10000 10.24 240 21:51 07.02.2022
3898 Clouds 4 1021 83 10000 9.05 247 21:27 07.02.2022
3899 Clouds 5 1021 83 10000 9.05 247 20:45 07.02.2022
3900 Clouds 5 1021 83 10000 8.56 261 20:27 07.02.2022
3901 Clouds 6 1021 83 10000 8.56 261 19:47 07.02.2022
3902 Clouds 6 1021 83 10000 9.13 275 18:37 07.02.2022
3903 Clouds 6 1020 81 10000 11.59 292 17:33 07.02.2022
3904 Clouds 6 1020 81 10000 11.59 292 16:52 07.02.2022
3905 Clouds 7 1020 78 10000 12.77 294 15:48 07.02.2022
3906 Clouds 6 1018 72 10000 13.37 302 14:19 07.02.2022
3907 Clouds 7 1017 72 10000 13.13 305 13:27 07.02.2022
3908 Clouds 6 1017 72 10000 13.13 305 12:35 07.02.2022
3909 Clouds 3 1016 73 10000 13.65 307 11:50 07.02.2022
3910 Clear 3 1015 73 10000 14.08 308 11:24 07.02.2022
3911 Clear 6 1015 73 10000 14.08 308 10:42 07.02.2022
3912 Clear 6 1014 72 10000 14.77 312 10:24 07.02.2022
3913 Clear 6 1014 72 10000 14.77 312 09:52 07.02.2022
3914 Clear 6 1013 73 10000 14.2 314 09:18 07.02.2022
3915 Clear 6 1011 73 10000 15.06 317 07:53 07.02.2022
3916 Clear 6 1009 72 10000 15.62 322 06:34 07.02.2022
3917 Clear 3 1005 79 10000 15.42 322 05:18 07.02.2022
3918 Clear 3 1001 79 10000 14.35 319 02:38 07.02.2022
3919 Clouds 5 996 75 10000 13.88 303 00:24 07.02.2022
3920 Clouds 4 996 75 10000 13.88 303 23:33 06.02.2022
3921 Rain 4 995 73 10000 13.85 302 22:45 06.02.2022
3922 Rain 5 993 75 10000 14.4 303 21:47 06.02.2022
3923 Clouds 5 992 78 10000 13.97 301 21:21 06.02.2022
3924 Clouds 5 992 78 10000 13.97 301 21:21 06.02.2022
3925 Rain 6 992 78 10000 13.97 301 20:48 06.02.2022
3926 Rain 6 991 80 10000 12.68 292 20:24 06.02.2022
3927 Rain 6 991 80 10000 12.68 292 19:30 06.02.2022
3928 Clouds 5 991 82 10000 11.95 283 18:34 06.02.2022
3929 Clouds 6 991 81 10000 12.99 282 17:39 06.02.2022
3930 Clouds 6 990 80 10000 12.36 279 16:52 06.02.2022
3931 Clouds 6 990 80 10000 12.36 279 16:30 06.02.2022
3932 Clouds 6 991 79 10000 11.82 281 15:47 06.02.2022
3933 Clouds 5 990 84 10000 10.77 285 15:25 06.02.2022
3934 Clouds 6 990 89 10000 7.17 278 14:25 06.02.2022
3935 Clouds 6 991 89 10000 8.97 280 13:24 06.02.2022
3936 Clouds 6 991 89 10000 9.73 279 12:34 06.02.2022
3937 Rain 6 994 88 10000 9.61 243 10:43 06.02.2022
3938 Rain 6 994 88 10000 10.69 251 09:48 06.02.2022
3939 Clouds 7 995 87 10000 12.55 255 08:41 06.02.2022
3940 Clouds 7 996 90 10000 10.1 257 07:36 06.02.2022
3941 Rain 7 997 91 10000 12.69 271 05:29 06.02.2022
3942 Rain 7 999 92 10000 17.12 244 02:26 06.02.2022
3943 Rain 6 1000 90 10000 18.35 242 00:51 06.02.2022
3944 Rain 6 1002 91 10000 16.9 242 00:24 06.02.2022
3945 Rain 6 1003 91 10000 17.98 241 21:59 05.02.2022
3946 Rain 5 1004 93 9756 17.36 236 20:48 05.02.2022
3947 Rain 5 1006 93 8038 16.32 237 20:23 05.02.2022
3948 Clouds 5 1006 93 8038 16.32 237 19:44 05.02.2022
3949 Clouds 6 1007 92 10000 16.22 234 18:48 05.02.2022
3950 Clouds 6 1008 92 10000 16.17 238 17:37 05.02.2022
3951 Clouds 6 1008 84 10000 15.92 235 16:33 05.02.2022
3952 Clouds 6 1009 84 10000 15.15 236 15:31 05.02.2022
3953 Clouds 6 1010 84 10000 14.84 242 14:40 05.02.2022
3954 Clouds 6 1012 82 10000 12.41 251 12:46 05.02.2022
3955 Clouds 5 1012 81 10000 12.3 257 11:47 05.02.2022
3956 Clouds 5 1012 79 10000 12.31 262 10:46 05.02.2022
3957 Clouds 4 1012 79 10000 12.08 265 09:51 05.02.2022
3958 Clouds 4 1012 79 10000 12.16 270 09:23 05.02.2022
3959 Clouds 5 1011 78 10000 12.12 273 07:36 05.02.2022
3960 Clouds 5 1011 78 10000 12.61 278 06:56 05.02.2022
3961 Clouds 5 1007 75 10000 14.56 284 03:22 05.02.2022
3962 Clouds 5 1006 80 10000 13.2 272 01:19 05.02.2022
3963 Clouds 4 1006 78 10000 12.79 274 00:42 05.02.2022
3964 Clouds 5 1006 78 10000 11.9 275 23:38 04.02.2022
3965 Clouds 5 1005 79 10000 11.23 273 23:20 04.02.2022
3966 Clouds 5 1004 78 10000 11.31 279 21:36 04.02.2022
3967 Clouds 5 1004 76 10000 11.42 287 21:18 04.02.2022
3968 Clouds 5 1004 76 10000 11.42 287 20:46 04.02.2022
3969 Clouds 4 1002 77 10000 11.11 291 19:30 04.02.2022
3970 Rain 3 1001 91 9088 10.73 308 17:27 04.02.2022
3971 Rain 4 1000 97 132 9.95 313 15:38 04.02.2022
3972 Rain 8 999 97 125 10.57 313 14:51 04.02.2022
3973 Rain 8 999 94 10000 11.65 227 12:43 04.02.2022
3974 Clouds 8 1000 92 10000 13.05 222 11:46 04.02.2022
3975 Clouds 8 1001 91 10000 13.52 220 11:18 04.02.2022
3976 Clouds 7 1001 91 10000 13.52 220 10:30 04.02.2022
3977 Clouds 7 1002 89 10000 13.45 218 08:33 04.02.2022
3978 Clouds 6 1005 93 10000 11.88 216 05:19 04.02.2022
3979 Clouds 6 1006 90 10000 11.09 218 02:39 04.02.2022
3980 Clouds 7 1007 93 10000 9.41 229 00:26 04.02.2022
3981 Clouds 6 1008 94 10000 9.23 233 22:55 03.02.2022
3982 Clouds 6 1008 95 10000 8.63 232 22:26 03.02.2022
3983 Clouds 6 1008 95 10000 8.63 232 21:47 03.02.2022
3984 Clouds 6 1008 95 10000 8.23 244 20:26 03.02.2022
3985 Clouds 6 1008 95 10000 8.23 244 19:59 03.02.2022
3986 Clouds 7 1008 95 10000 8.55 246 19:26 03.02.2022
3987 Clouds 6 1008 95 10000 8.88 242 18:26 03.02.2022
3988 Clouds 7 1008 95 10000 8.7 235 17:27 03.02.2022
3989 Clouds 7 1008 96 10000 9.37 235 15:52 03.02.2022
3990 Clouds 7 1009 94 10000 10.46 231 14:26 03.02.2022
3991 Clouds 7 1010 96 10000 9.76 226 12:37 03.02.2022
3992 Clouds 7 1011 95 10000 9.33 233 09:29 03.02.2022
3993 Rain 7 1012 95 10000 9.78 237 08:19 03.02.2022
3994 Rain 6 1015 95 10000 5.84 220 03:28 03.02.2022
3995 Rain 6 1017 88 10000 7.24 235 00:30 03.02.2022
3996 Clouds 4 1017 87 10000 7.68 250 22:47 02.02.2022
3997 Clouds 4 1017 87 10000 7.48 252 21:53 02.02.2022
3998 Clouds 4 1017 88 10000 7.01 256 21:29 02.02.2022
3999 Clouds 4 1017 88 10000 7.01 256 20:33 02.02.2022
4000 Clouds 4 1018 88 10000 7.41 259 19:51 02.02.2022
4001 Clouds 4 1018 85 10000 5.77 269 19:20 02.02.2022
4002 Clouds 6 1017 88 10000 6.73 279 18:26 02.02.2022
4003 Clouds 6 1017 86 10000 7.61 289 17:37 02.02.2022
4004 Clouds 6 1017 86 10000 7.61 289 17:18 02.02.2022
4005 Clouds 7 1016 84 10000 8.5 293 16:20 02.02.2022
4006 Clouds 6 1015 74 10000 12.28 310 12:50 02.02.2022
4007 Clouds 6 1014 74 10000 12.64 310 11:51 02.02.2022
4008 Clouds 6 1014 74 10000 12.64 310 11:31 02.02.2022
4009 Clouds 6 1011 76 10000 13.9 318 09:22 02.02.2022
4010 Clouds 6 1008 79 10000 16.15 312 06:18 02.02.2022
4011 Clouds 7 1004 75 10000 17.06 305 22:44 01.02.2022
4012 Clouds 6 1004 75 10000 17.69 307 21:30 01.02.2022
4013 Rain 7 1003 77 10000 17.13 307 19:56 01.02.2022
4014 Clouds 8 1002 87 10000 15.13 308 17:38 01.02.2022
4015 Clouds 7 1001 88 10000 15.64 311 16:33 01.02.2022
4016 Clouds 7 1002 93 10000 14.14 280 13:28 01.02.2022
4017 Clouds 6 1003 95 10000 13.37 270 12:28 01.02.2022
4018 Clouds 4 1004 95 10000 15.79 250 10:44 01.02.2022
4019 Clouds 4 1014 69 10000 10.2 308 02:30 01.02.2022
4020 Clouds 4 1014 68 10000 10.23 325 23:40 31.01.2022
4021 Clouds 4 1014 78 10000 11.02 344 22:43 31.01.2022
4022 Rain 4 1014 93 10000 12.1 332 21:38 31.01.2022
4023 Clouds 4 1013 89 10000 5.13 311 20:44 31.01.2022
4024 Clouds 4 1013 85 10000 4.91 327 20:24 31.01.2022
4025 Clouds 3 1012 77 10000 5.48 347 18:54 31.01.2022
4026 Clouds 3 1011 76 10000 8.54 7 18:20 31.01.2022
4027 Clouds 3 1009 81 10000 9.33 21 17:25 31.01.2022
4028 Clouds 3 1008 83 10000 10.23 20 16:25 31.01.2022
4029 Clouds 4 1005 93 10000 9.43 41 14:54 31.01.2022
4030 Clouds 4 1003 95 3861 6.46 52 13:43 31.01.2022
4031 Clouds 4 1003 95 3861 6.46 52 13:43 31.01.2022
4032 Clouds 6 1002 91 9253 2.52 12 12:38 31.01.2022
4033 Clouds 6 1001 89 10000 2.96 297 11:34 31.01.2022
4034 Clouds 6 1001 87 10000 3.37 292 10:49 31.01.2022
4035 Clouds 5 1000 86 10000 3.89 292 09:38 31.01.2022
4036 Clouds 4 999 87 10000 5.44 287 08:57 31.01.2022
4037 Clouds 4 999 87 10000 5.44 287 08:38 31.01.2022
4038 Clouds 4 999 88 10000 7.3 279 08:19 31.01.2022
4039 Clouds 2 1000 98 79 9.57 186 06:18 31.01.2022
4040 Rain 3 1012 82 10000 10.09 209 00:44 31.01.2022
4041 Clouds 4 1018 74 10000 6.99 261 22:34 30.01.2022
4042 Clouds 5 1018 74 10000 6.99 261 21:56 30.01.2022
4043 Clouds 5 1018 74 10000 6.99 261 21:37 30.01.2022
4044 Clouds 5 1019 76 10000 6.9 271 21:18 30.01.2022
4045 Clouds 6 1019 76 10000 6.9 271 20:43 30.01.2022
4046 Clouds 6 1020 74 10000 7.68 287 20:25 30.01.2022
4047 Clouds 5 1021 72 10000 9.1 298 19:23 30.01.2022
4048 Clouds 5 1021 72 10000 9.1 298 18:35 30.01.2022
4049 Clouds 5 1022 72 10000 10.52 304 17:40 30.01.2022
4050 Clouds 5 1022 73 10000 11.55 305 17:19 30.01.2022
4051 Clouds 6 1022 73 10000 11.55 305 16:36 30.01.2022
4052 Clouds 6 1023 73 10000 12.19 306 16:18 30.01.2022
4053 Clouds 6 1023 73 10000 12.19 306 15:45 30.01.2022
4054 Clouds 6 1024 73 10000 12.41 308 15:25 30.01.2022
4055 Clouds 7 1024 73 10000 12.41 308 14:44 30.01.2022
4056 Clear 7 1024 73 10000 13.18 315 12:46 30.01.2022
4057 Clear 6 1023 74 10000 14.87 319 11:53 30.01.2022
4058 Clear 6 1021 73 10000 18.49 315 10:27 30.01.2022
4059 Clear 6 1021 73 10000 18.49 315 09:48 30.01.2022
4060 Clear 6 1021 73 10000 19.14 313 08:48 30.01.2022
4061 Clouds 7 1017 74 10000 20.53 309 05:30 30.01.2022
4062 Clouds 7 1015 75 10000 20.98 305 01:55 30.01.2022
4063 Clouds 6 1014 75 10000 20.84 299 00:19 30.01.2022
4064 Clouds 7 1013 74 10000 20.47 296 22:58 29.01.2022
4065 Clouds 7 1013 74 10000 20.43 295 21:46 29.01.2022
4066 Clear 7 1012 74 10000 20.46 293 21:22 29.01.2022
4067 Clear 7 1011 72 10000 20.87 295 20:22 29.01.2022
4068 Clear 7 1011 72 10000 20.87 295 19:33 29.01.2022
4069 Clouds 8 1011 74 10000 20.75 293 18:51 29.01.2022
4070 Clouds 8 1009 75 10000 22.21 296 18:18 29.01.2022
4071 Clouds 9 1008 77 10000 21.63 287 17:27 29.01.2022
4072 Clouds 9 1007 72 10000 22.44 279 15:50 29.01.2022
4073 Clouds 8 1010 87 10000 19.38 264 13:59 29.01.2022
4074 Clouds 8 1010 87 10000 19.38 264 13:41 29.01.2022
4075 Clouds 8 1011 88 10000 17.75 256 13:22 29.01.2022
4076 Clouds 8 1012 89 10000 15.83 246 11:40 29.01.2022
4077 Clouds 7 1013 90 10000 15.52 252 10:46 29.01.2022
4078 Clouds 7 1014 94 10000 14.76 252 08:42 29.01.2022
4079 Clouds 7 1016 95 10000 14.46 252 06:37 29.01.2022
4080 Rain 6 1021 92 10000 13.07 235 00:34 29.01.2022
4081 Rain 6 1023 92 10000 12.58 231 23:44 28.01.2022
4082 Clouds 6 1024 91 10000 12.1 228 22:48 28.01.2022
4083 Clouds 6 1025 89 10000 11.3 223 22:20 28.01.2022
4084 Clouds 4 1026 87 10000 10.13 218 20:42 28.01.2022
4085 Clouds 4 1027 87 10000 9.32 224 20:23 28.01.2022
4086 Clouds 5 1028 86 10000 8.27 232 19:28 28.01.2022
4087 Clouds 5 1028 86 10000 8.27 232 18:38 28.01.2022
4088 Clouds 6 1029 80 10000 6.63 259 16:45 28.01.2022
4089 Clouds 6 1030 76 10000 7.47 289 14:59 28.01.2022
4090 Clouds 6 1030 75 10000 7.81 300 13:34 28.01.2022
4091 Clouds 6 1030 75 10000 8.64 319 12:26 28.01.2022
4092 Clear 6 1029 75 10000 9.68 327 10:41 28.01.2022
4093 Clear 6 1029 74 10000 11.12 329 09:48 28.01.2022
4094 Clear 6 1027 73 10000 13.65 330 07:43 28.01.2022
4095 Clouds 6 1025 73 10000 14.55 325 06:39 28.01.2022
4096 Clouds 6 1023 74 10000 15.39 321 03:53 28.01.2022
4097 Clear 6 1022 76 10000 15.71 319 02:30 28.01.2022
4098 Clear 6 1021 76 10000 15.85 317 01:57 28.01.2022
4099 Clear 6 1021 76 10000 15.85 317 01:30 28.01.2022
4100 Clear 6 1018 77 10000 16.81 311 22:40 27.01.2022
4101 Clear 6 1017 76 10000 17.4 308 21:41 27.01.2022
4102 Clear 6 1017 78 10000 17.3 306 21:21 27.01.2022
4103 Clear 6 1016 77 10000 16.89 304 20:23 27.01.2022
4104 Clouds 6 1015 78 10000 16.9 299 18:23 27.01.2022
4105 Clouds 4 1014 78 10000 16.74 297 17:18 27.01.2022
4106 Clouds 7 1013 77 10000 14.75 291 14:24 27.01.2022
4107 Clouds 7 1014 77 10000 14.3 288 12:53 27.01.2022
4108 Clouds 7 1014 77 10000 13.14 288 12:20 27.01.2022
4109 Clouds 6 1013 84 10000 13.65 284 09:51 27.01.2022
4110 Clouds 6 1013 91 10000 14.51 274 08:41 27.01.2022
4111 Clouds 6 1013 93 10000 15.26 265 07:58 27.01.2022
4112 Rain 6 1015 90 10000 16.55 251 03:37 27.01.2022
4113 Clouds 6 1019 86 10000 16.23 251 00:25 27.01.2022
4114 Clouds 5 1020 88 10000 16.04 252 22:31 26.01.2022
4115 Clouds 5 1021 91 10000 14.52 250 21:44 26.01.2022
4116 Clouds 5 1022 92 10000 13.16 251 20:57 26.01.2022
4117 Clouds 5 1022 92 10000 13.16 251 20:33 26.01.2022
4118 Clouds 4 1022 89 10000 11.91 253 19:52 26.01.2022
4119 Clouds 4 1023 89 10000 10.79 254 18:52 26.01.2022
4120 Clouds 4 1024 91 10000 10.55 254 18:24 26.01.2022
4121 Clouds 4 1024 91 10000 10.55 254 17:39 26.01.2022
4122 Clouds 4 1024 91 10000 10.13 258 17:19 26.01.2022
4123 Clouds 4 1025 92 10000 10.39 263 16:26 26.01.2022
4124 Clouds 4 1025 93 10000 10.33 261 15:23 26.01.2022
4125 Clouds 3 1026 91 10000 9.84 254 12:52 26.01.2022
4126 Clouds 3 1027 86 10000 8.72 262 10:57 26.01.2022
4127 Clouds 3 1027 85 10000 9.18 267 09:59 26.01.2022
4128 Clouds 3 1027 85 10000 9.18 267 09:40 26.01.2022
4129 Clouds 5 1027 84 10000 9.28 260 07:28 26.01.2022
4130 Clouds 3 1030 85 10000 7.9 264 00:44 26.01.2022
4131 Clouds 4 1030 87 10000 7.93 267 23:44 25.01.2022
4132 Clouds 4 1030 89 10000 7.42 265 22:50 25.01.2022
4133 Clouds 4 1030 89 10000 6.95 265 22:21 25.01.2022
4134 Clouds 4 1031 89 10000 6.62 267 21:35 25.01.2022
4135 Clouds 4 1031 89 10000 6.62 267 20:46 25.01.2022
4136 Clouds 4 1031 90 10000 6.18 269 19:59 25.01.2022
4137 Clouds 4 1031 90 10000 6.18 269 19:40 25.01.2022
4138 Clouds 4 1031 88 10000 6.02 278 18:20 25.01.2022
4139 Clouds 4 1031 88 10000 6.02 278 17:40 25.01.2022
4140 Clouds 5 1031 88 10000 6.09 279 16:35 25.01.2022
4141 Clouds 5 1031 88 10000 5.93 275 15:43 25.01.2022
4142 Clouds 5 1031 90 10000 5.48 270 15:25 25.01.2022
4143 Clouds 5 1031 90 10000 5.48 270 14:56 25.01.2022
4144 Clouds 5 1032 87 10000 5 282 12:32 25.01.2022
4145 Clouds 4 1032 87 10000 5.07 302 09:58 25.01.2022
4146 Clouds 5 1032 87 10000 5.23 300 08:32 25.01.2022
4147 Clouds 4 1031 86 10000 4.89 282 07:28 25.01.2022
4148 Clouds 4 1032 85 10000 6.03 302 05:55 25.01.2022
4149 Clouds 4 1032 83 10000 5.57 270 01:34 25.01.2022
4150 Clouds 4 1033 81 10000 4.68 278 23:36 24.01.2022
4151 Clouds 4 1033 80 10000 5.02 282 23:18 24.01.2022
4152 Clouds 4 1033 80 10000 5.02 282 22:58 24.01.2022
4153 Clouds 4 1033 80 10000 5.02 282 22:40 24.01.2022
4154 Clouds 4 1033 81 10000 5.52 281 21:43 24.01.2022
4155 Clouds 4 1033 83 10000 5.51 276 21:25 24.01.2022
4156 Clouds 4 1033 82 10000 5.34 280 20:28 24.01.2022
4157 Clouds 4 1033 82 10000 5.34 280 19:39 24.01.2022
4158 Clouds 4 1033 82 10000 5.53 283 18:55 24.01.2022
4159 Clouds 4 1033 78 10000 6.21 279 17:44 24.01.2022
4160 Clouds 4 1033 78 10000 6.48 274 17:23 24.01.2022
4161 Clouds 5 1033 78 10000 6.48 274 16:32 24.01.2022
4162 Clouds 5 1032 83 10000 6.28 263 15:52 24.01.2022
4163 Clouds 5 1032 86 10000 6.62 241 14:27 24.01.2022
4164 Clouds 5 1033 84 10000 6.19 245 12:36 24.01.2022
4165 Clouds 4 1033 82 10000 5.99 244 11:45 24.01.2022
4166 Clouds 4 1033 75 10000 6.33 252 10:24 24.01.2022
4167 Clouds 4 1033 75 10000 6.33 252 09:46 24.01.2022
4168 Clouds 4 1033 84 10000 6.05 236 08:19 24.01.2022
4169 Clouds 5 1033 80 10000 6.36 241 02:33 24.01.2022
4170 Clear 6 1033 87 10000 6.22 228 01:27 24.01.2022
4171 Clear 6 1033 87 10000 6.22 228 01:27 24.01.2022
4172 Clear 5 1034 85 10000 6.17 241 00:34 24.01.2022
4173 Clear 5 1034 87 10000 6.23 235 23:47 23.01.2022
4174 Clear 6 1034 87 10000 6 238 22:21 23.01.2022
4175 Clear 5 1034 87 10000 6 238 21:42 23.01.2022
4176 Clear 5 1034 87 10000 6.07 239 21:24 23.01.2022
4177 Clear 6 1034 88 10000 5.96 240 20:28 23.01.2022
4178 Clouds 6 1034 88 10000 5.8 245 19:19 23.01.2022
4179 Clouds 6 1033 86 10000 5.58 248 18:41 23.01.2022
4180 Clouds 7 1033 84 10000 5.44 257 17:27 23.01.2022
4181 Clouds 7 1033 86 10000 5.23 262 16:27 23.01.2022
4182 Clouds 7 1034 88 10000 5.51 268 14:54 23.01.2022
4183 Clouds 7 1034 89 10000 5.82 271 14:19 23.01.2022
4184 Clouds 7 1034 89 10000 6.03 274 12:49 23.01.2022
4185 Clouds 7 1034 92 10000 5.98 273 12:21 23.01.2022
4186 Clouds 6 1034 92 10000 5.98 273 11:51 23.01.2022
4187 Clouds 6 1034 92 10000 5.62 272 11:18 23.01.2022
4188 Clouds 7 1034 91 10000 5.47 274 10:26 23.01.2022
4189 Clouds 6 1033 91 10000 5.09 273 09:37 23.01.2022
4190 Clouds 6 1033 91 10000 5.09 273 08:51 23.01.2022
4191 Clouds 6 1032 91 10000 5.51 291 05:37 23.01.2022
4192 Clouds 6 1032 90 10000 6.6 300 01:46 23.01.2022
4193 Clouds 6 1032 89 10000 6.44 299 01:23 23.01.2022
4194 Clouds 6 1031 89 10000 6.34 292 00:23 23.01.2022
4195 Clouds 5 1031 89 10000 6.34 292 23:34 22.01.2022
4196 Clouds 5 1031 87 10000 6.3 287 22:34 22.01.2022
4197 Clouds 5 1031 85 10000 6.55 304 21:19 22.01.2022
4198 Clouds 5 1031 82 10000 6.44 307 19:51 22.01.2022
4199 Clouds 6 1031 84 10000 6.29 296 18:49 22.01.2022
4200 Clouds 6 1030 87 10000 6.77 292 17:59 22.01.2022
4201 Clouds 6 1030 87 10000 6.77 292 17:35 22.01.2022
4202 Clouds 6 1030 87 10000 7.74 297 16:55 22.01.2022
4203 Clouds 6 1030 87 10000 7.81 296 15:49 22.01.2022
4204 Clouds 6 1030 87 10000 7.84 297 14:57 22.01.2022
4205 Clouds 6 1030 88 10000 7.58 297 13:39 22.01.2022
4206 Clouds 6 1030 89 10000 7.26 300 12:50 22.01.2022
4207 Clouds 6 1030 88 10000 7.13 305 12:28 22.01.2022
4208 Clouds 6 1030 88 10000 7.43 312 10:56 22.01.2022
4209 Clouds 6 1030 87 10000 8.38 318 10:29 22.01.2022
4210 Clouds 6 1030 87 10000 8.38 318 09:58 22.01.2022
4211 Clouds 6 1029 87 10000 8.59 319 08:51 22.01.2022
4212 Clouds 6 1029 90 10000 8.95 319 07:34 22.01.2022
4213 Clouds 6 1028 91 10000 9.14 323 04:52 22.01.2022
4214 Clouds 6 1027 93 10000 10.43 322 01:34 22.01.2022
4215 Clouds 6 1026 95 10000 9.91 322 23:38 21.01.2022
4216 Clouds 6 1026 95 10000 9.91 322 23:38 21.01.2022
4217 Clouds 6 1026 93 10000 10.93 318 22:28 21.01.2022
4218 Clouds 6 1026 94 10000 11.9 311 20:22 21.01.2022
4219 Clouds 6 1025 95 10000 11.71 307 18:39 21.01.2022
4220 Clouds 6 1025 95 10000 11.92 308 17:31 21.01.2022
4221 Clouds 6 1026 95 10000 9.73 296 15:42 21.01.2022
4222 Clouds 6 1028 89 10000 9.85 302 13:37 21.01.2022
4223 Clouds 6 1028 85 10000 8.37 297 12:38 21.01.2022
4224 Clouds 5 1029 80 10000 8.54 316 11:28 21.01.2022
4225 Clouds 5 1028 79 10000 9.4 329 10:19 21.01.2022
4226 Clouds 5 1028 79 10000 10.62 334 08:24 21.01.2022
4227 Clouds 4 1028 77 10000 10.91 336 06:57 21.01.2022
4228 Clouds 4 1027 65 10000 12.92 342 23:40 20.01.2022
4229 Clouds 3 1027 64 10000 13 345 22:41 20.01.2022
4230 Clouds 3 1026 63 10000 13.28 348 21:43 20.01.2022
4231 Clouds 4 1026 61 10000 14.14 349 20:53 20.01.2022
4232 Clouds 4 1025 61 7192 15.19 348 19:20 20.01.2022
4233 Clouds 3 1025 61 7195 15.19 348 18:50 20.01.2022
4234 Clouds 4 1023 67 9328 16.1 345 17:30 20.01.2022
4235 Clouds 4 1022 66 10000 16.78 343 15:44 20.01.2022
4236 Rain 4 1022 69 10000 17.09 340 15:22 20.01.2022
4237 Clouds 3 1022 70 10000 16.95 336 13:42 20.01.2022
4238 Clouds 4 1022 68 10000 17.55 334 12:35 20.01.2022
4239 Clouds 4 1021 67 10000 17.47 332 11:57 20.01.2022
4240 Clouds 4 1021 64 7975 17.15 333 10:40 20.01.2022
4241 Clouds 3 1020 63 10000 17.02 334 09:42 20.01.2022
4242 Clouds 3 1020 65 10000 17.25 330 08:34 20.01.2022
4243 Clouds 3 1018 67 3975 17.67 325 05:34 20.01.2022
4244 Clouds 4 1016 68 10000 13.85 313 23:42 19.01.2022
4245 Clouds 6 1016 67 10000 13.88 317 22:37 19.01.2022
4246 Clouds 5 1015 76 10000 15.31 321 21:24 19.01.2022
4247 Clouds 5 1015 76 10000 15.31 321 20:51 19.01.2022
4248 Clouds 6 1014 76 10000 15.52 316 19:58 19.01.2022
4249 Clouds 6 1013 81 10000 14.75 323 18:48 19.01.2022
4250 Clouds 5 1011 87 10000 12.97 305 17:50 19.01.2022
4251 Clouds 5 1010 89 10000 15.15 287 16:59 19.01.2022
4252 Clouds 4 1013 92 10000 14.06 243 14:42 19.01.2022
4253 Clouds 5 1016 89 10000 13.42 237 12:53 19.01.2022
4254 Clouds 4 1017 88 10000 12.64 231 11:43 19.01.2022
4255 Clouds 4 1019 86 10000 12.52 235 10:38 19.01.2022
4256 Clouds 4 1020 88 10000 12.39 233 09:34 19.01.2022
4257 Clouds 3 1023 90 10000 11.1 235 07:18 19.01.2022
4258 Clouds 3 1026 89 10000 9.7 234 05:19 19.01.2022
4259 Clouds 4 1031 89 10000 9.52 238 23:41 18.01.2022
4260 Clouds 4 1032 89 10000 8.94 236 23:18 18.01.2022
4261 Clouds 5 1033 88 10000 8.03 241 21:20 18.01.2022
4262 Clouds 5 1033 87 10000 8.1 249 19:55 18.01.2022
4263 Clouds 5 1033 87 10000 8.23 249 19:37 18.01.2022
4264 Clouds 6 1033 87 10000 7.98 252 19:18 18.01.2022
4265 Clouds 6 1033 88 10000 8.01 252 17:59 18.01.2022
4266 Clouds 7 1034 87 10000 7.92 251 17:27 18.01.2022
4267 Clouds 6 1034 87 10000 7.07 246 15:50 18.01.2022
4268 Clouds 6 1035 87 10000 6.78 249 15:23 18.01.2022
4269 Clouds 7 1036 88 10000 6.5 251 13:32 18.01.2022
4270 Clouds 6 1036 88 10000 5.42 282 10:49 18.01.2022
4271 Clouds 6 1035 89 10000 5.83 288 09:39 18.01.2022
4272 Clouds 6 1035 91 10000 6.8 310 08:19 18.01.2022
4273 Clouds 6 1035 91 10000 6.8 310 07:31 18.01.2022
4274 Clouds 7 1033 91 10000 7.95 311 00:22 18.01.2022
4275 Clouds 6 1033 91 10000 7.6 310 22:31 17.01.2022
4276 Clouds 7 1033 90 10000 7.27 313 21:36 17.01.2022
4277 Clouds 6 1032 87 10000 7.41 320 20:33 17.01.2022
4278 Clouds 6 1031 83 10000 9.67 332 18:42 17.01.2022
4279 Clouds 6 1030 82 10000 10.64 334 18:23 17.01.2022
4280 Clouds 5 1030 81 10000 11.33 335 16:53 17.01.2022
4281 Clouds 7 1029 80 10000 11.79 333 15:31 17.01.2022
4282 Clouds 7 1028 80 10000 12.26 332 14:58 17.01.2022
4283 Clouds 7 1028 79 10000 12.99 330 13:42 17.01.2022
4284 Clouds 7 1027 81 10000 14.33 328 12:58 17.01.2022
4285 Clouds 8 1026 83 10000 14.67 323 11:51 17.01.2022
4286 Clouds 7 1025 87 10000 12.97 318 10:43 17.01.2022
4287 Clouds 7 1024 87 10000 13.91 313 09:35 17.01.2022
4288 Clouds 7 1023 86 10000 16.17 298 08:18 17.01.2022
4289 Clouds 7 1023 85 10000 16.67 297 07:19 17.01.2022
4290 Clouds 6 1022 76 10000 14.49 290 00:58 17.01.2022
4291 Clouds 6 1023 77 10000 12.85 295 23:27 16.01.2022
4292 Clouds 6 1022 82 10000 11.75 315 20:41 16.01.2022
4293 Clouds 6 1021 87 10000 11.21 311 19:55 16.01.2022
4294 Clouds 6 1020 88 10000 10.68 297 18:45 16.01.2022
4295 Clouds 6 1019 92 10000 10.36 285 17:46 16.01.2022
4296 Clouds 6 1019 87 10000 10.28 280 16:50 16.01.2022
4297 Clouds 6 1018 81 10000 10.48 274 15:34 16.01.2022
4298 Clouds 6 1017 79 10000 10.85 277 14:29 16.01.2022
4299 Clouds 6 1017 86 10000 10.59 274 12:57 16.01.2022
4300 Clouds 5 1017 85 10000 9.25 276 11:49 16.01.2022
4301 Clouds 5 1017 85 10000 9.08 274 10:58 16.01.2022
4302 Clouds 4 1017 86 10000 9.09 268 10:26 16.01.2022
4303 Clouds 3 1017 86 10000 9.09 268 09:57 16.01.2022
4304 Clouds 3 1017 87 10000 9.13 263 09:23 16.01.2022
4305 Clouds 2 1017 87 10000 9.13 263 08:52 16.01.2022
4306 Clouds 1 1017 90 10000 9.32 238 05:35 16.01.2022
4307 Clouds 3 1022 88 10000 7.54 204 23:51 15.01.2022
4308 Clouds 4 1022 88 10000 7.32 200 22:37 15.01.2022
4309 Clouds 4 1023 89 10000 6.16 191 21:21 15.01.2022
4310 Clouds 4 1023 89 10000 6.16 191 20:43 15.01.2022
4311 Clouds 4 1024 89 10000 5.65 188 19:52 15.01.2022
4312 Clouds 4 1025 87 10000 4.67 187 19:19 15.01.2022
4313 Clouds 4 1025 86 10000 4.23 194 17:35 15.01.2022
4314 Clouds 5 1026 86 10000 3.99 200 16:38 15.01.2022
4315 Clouds 5 1027 86 10000 4.27 214 13:57 15.01.2022
4316 Clouds 4 1028 85 10000 4.15 220 12:23 15.01.2022
4317 Clouds 4 1029 84 10000 3.99 220 11:18 15.01.2022
4318 Clouds 2 1029 82 10000 2.42 217 08:36 15.01.2022
4319 Clouds 4 1031 82 10000 2.71 315 00:49 15.01.2022
4320 Clear 5 1032 83 10000 3.73 326 21:57 14.01.2022
4321 Clear 5 1032 83 10000 4.44 333 20:42 14.01.2022
4322 Clear 5 1032 85 10000 5.12 337 20:23 14.01.2022
4323 Clear 6 1032 85 10000 5.12 337 19:40 14.01.2022
4324 Clouds 6 1032 89 10000 6.13 323 18:27 14.01.2022
4325 Clouds 6 1032 88 10000 6.23 319 16:50 14.01.2022
4326 Clouds 6 1032 88 10000 6.42 318 15:48 14.01.2022
4327 Clouds 6 1032 87 10000 6.34 313 14:46 14.01.2022
4328 Clouds 7 1032 93 10000 5.67 311 13:37 14.01.2022
4329 Clouds 6 1032 95 10000 6.08 307 12:31 14.01.2022
4330 Clouds 6 1032 93 10000 8.04 295 11:27 14.01.2022
4331 Clouds 6 1031 93 10000 8.74 290 09:50 14.01.2022
4332 Clear 6 1030 93 10000 9.38 286 08:51 14.01.2022
4333 Clouds 6 1030 93 10000 10.31 283 06:57 14.01.2022
4334 Clear 6 1031 91 10000 10.12 276 01:37 14.01.2022
4335 Clouds 6 1032 92 10000 9.88 277 23:32 13.01.2022
4336 Clouds 6 1033 92 10000 9.57 273 21:40 13.01.2022
4337 Clouds 6 1033 91 10000 9.37 269 21:22 13.01.2022
4338 Clouds 6 1033 90 10000 8.99 272 19:41 13.01.2022
4339 Clouds 6 1033 87 10000 8.9 280 19:22 13.01.2022
4340 Clouds 6 1033 91 10000 8.85 275 19:22 13.01.2022
4341 Clouds 6 1033 91 10000 8.73 275 17:54 13.01.2022
4342 Clear 6 1034 90 10000 9.23 277 16:21 13.01.2022
4343 Clear 6 1034 90 10000 9.23 277 15:37 13.01.2022
4344 Clear 6 1034 90 10000 9.48 277 14:49 13.01.2022
4345 Clouds 5 1034 89 10000 9.76 275 12:46 13.01.2022
4346 Clouds 5 1035 89 10000 9.16 272 10:25 13.01.2022
4347 Clouds 4 1035 89 10000 9.1 272 09:20 13.01.2022
4348 Clouds 5 1034 90 10000 9.18 274 08:27 13.01.2022
4349 Clouds 4 1035 91 10000 9.58 275 07:24 13.01.2022
4350 Clouds 4 1034 90 10000 9.43 278 06:38 13.01.2022
4351 Clouds 6 1035 89 10000 9.77 270 05:20 13.01.2022
4352 Clear 4 1035 90 10000 9.37 269 02:33 13.01.2022
4353 Clear 4 1035 91 10000 9.24 268 00:56 13.01.2022
4354 Clouds 4 1036 91 10000 8.79 267 23:50 12.01.2022
4355 Clouds 4 1036 91 10000 8.52 265 23:29 12.01.2022
4356 Clouds 4 1036 91 10000 8.09 266 21:58 12.01.2022
4357 Clouds 5 1036 90 10000 7.94 265 21:23 12.01.2022
4358 Clouds 5 1036 90 10000 7.94 265 20:57 12.01.2022
4359 Clouds 4 1035 90 10000 7.81 263 19:57 12.01.2022
4360 Clouds 4 1035 91 10000 8.09 271 18:48 12.01.2022
4361 Clouds 4 1035 91 10000 8.04 269 17:51 12.01.2022
4362 Clouds 5 1035 90 10000 7.82 263 16:39 12.01.2022
4363 Clouds 6 1036 88 10000 6.99 266 14:49 12.01.2022
4364 Clouds 4 1036 86 10000 6.79 263 13:34 12.01.2022
4365 Clouds 4 1036 87 10000 6.94 265 12:35 12.01.2022
4366 Clouds 3 1035 85 10000 5.32 282 08:50 12.01.2022
4367 Clouds 4 1035 86 10000 4.72 294 07:55 12.01.2022
4368 Clouds 4 1035 86 10000 4.72 294 07:32 12.01.2022
4369 Clouds 3 1032 93 10000 4.7 327 01:33 12.01.2022
4370 Clouds 3 1032 94 10000 8.33 232 23:25 11.01.2022
4371 Clouds 2 1032 93 10000 8.3 230 22:24 11.01.2022
4372 Clouds 2 1032 92 10000 8.29 231 21:28 11.01.2022
4373 Rain 3 1032 92 10000 8.29 231 20:35 11.01.2022
4374 Rain 3 1032 80 10000 8.08 226 18:52 11.01.2022
4375 Clouds 3 1032 77 10000 8.3 223 17:46 11.01.2022
4376 Clouds 2 1031 75 10000 8.38 222 16:39 11.01.2022
4377 Clouds 2 1031 73 10000 8.54 219 16:18 11.01.2022
4378 Clouds 2 1031 72 10000 8.75 215 14:48 11.01.2022
4379 Clouds 2 1031 72 10000 8.75 215 14:30 11.01.2022
4380 Clouds 2 1031 72 10000 8.84 213 13:46 11.01.2022
4381 Clouds 2 1031 74 10000 9 212 13:25 11.01.2022
4382 Clouds 1 1031 76 10000 9.45 208 12:24 11.01.2022
4383 Clouds 0 1031 78 10000 9.32 198 10:26 11.01.2022
4384 Clouds -1 1031 79 10000 8.43 203 07:50 11.01.2022
4385 Clouds 1 1030 86 10000 6.49 204 03:47 11.01.2022
4386 Clouds 5 1029 83 10000 4.72 195 00:25 11.01.2022
4387 Clouds 4 1029 83 10000 4.72 195 23:38 10.01.2022
4388 Clouds 3 1029 86 10000 3.3 192 22:20 10.01.2022
4389 Clouds 2 1029 86 10000 3.3 192 21:57 10.01.2022
4390 Clouds 2 1029 86 10000 3.3 192 21:33 10.01.2022
4391 Clouds 2 1028 87 10000 3.15 183 20:58 10.01.2022
4392 Clouds 2 1028 87 10000 3.15 183 20:36 10.01.2022
4393 Clouds 2 1028 86 10000 3.12 171 20:18 10.01.2022
4394 Clouds 2 1028 86 10000 3.12 171 19:37 10.01.2022
4395 Clouds 2 1027 87 10000 3.79 141 19:18 10.01.2022
4396 Clouds 3 1027 87 10000 3.79 141 18:46 10.01.2022
4397 Clouds 4 1026 88 10000 3.21 120 16:48 10.01.2022
4398 Clouds 4 1024 90 10000 3.39 120 16:26 10.01.2022
4399 Clouds 6 1024 90 10000 3.44 123 14:43 10.01.2022
4400 Clouds 4 1022 90 10000 3.21 109 13:22 10.01.2022
4401 Clouds 3 1021 92 10000 3.67 109 11:56 10.01.2022
4402 Clouds 3 1020 93 10000 4.4 104 10:48 10.01.2022
4403 Clouds 3 1019 95 10000 4.98 102 09:33 10.01.2022
4404 Clouds 3 1013 84 10000 4.46 330 05:51 10.01.2022
4405 Clouds 7 1009 82 10000 6 312 02:30 10.01.2022
4406 Clouds 7 1007 81 10000 6.17 310 01:20 10.01.2022
4407 Clouds 3 1006 81 10000 6.31 302 00:19 10.01.2022
4408 Clouds 4 1005 81 10000 6.37 301 22:47 09.01.2022
4409 Clouds 4 1004 81 10000 6.61 302 22:18 09.01.2022
4410 Clouds 4 1004 81 10000 6.61 302 21:41 09.01.2022
4411 Clouds 4 1003 81 10000 6.94 301 21:22 09.01.2022
4412 Clouds 5 1003 81 10000 6.94 301 20:46 09.01.2022
4413 Clouds 5 1001 81 10000 7.1 299 20:28 09.01.2022
4414 Clouds 5 1001 81 10000 7.1 299 19:39 09.01.2022
4415 Clouds 5 1000 82 10000 7.62 298 19:20 09.01.2022
4416 Clouds 5 1000 82 10000 8.29 294 18:38 09.01.2022
4417 Clouds 5 999 82 10000 8.58 291 18:18 09.01.2022
4418 Clouds 6 999 82 10000 8.58 291 17:30 09.01.2022
4419 Clouds 6 997 82 10000 8.78 289 16:50 09.01.2022
4420 Clouds 6 996 82 10000 9.05 288 15:51 09.01.2022
4421 Clouds 6 996 82 10000 9.05 288 15:32 09.01.2022
4422 Clouds 6 995 82 10000 9.39 287 14:39 09.01.2022
4423 Clouds 6 994 82 10000 9.92 290 13:49 09.01.2022
4424 Clouds 6 993 83 10000 10.6 290 12:26 09.01.2022
4425 Clouds 6 993 83 10000 10.6 290 11:46 09.01.2022
4426 Rain 6 991 85 10000 9.87 296 09:55 09.01.2022
4427 Rain 6 990 88 10000 9.16 293 09:29 09.01.2022
4428 Rain 6 988 90 8329 10.43 301 08:25 09.01.2022
4429 Rain 3 988 97 99 12.93 173 01:43 09.01.2022
4430 Rain 3 988 97 87 13.01 171 01:19 09.01.2022
4431 Rain 3 989 97 62 13.72 163 23:38 08.01.2022
4432 Rain 3 990 98 56 14.08 163 22:58 08.01.2022
4433 Rain 2 991 97 60 14.74 165 21:33 08.01.2022
4434 Snow 2 992 98 50 14.5 165 20:44 08.01.2022
4435 Snow 2 994 98 52 14.74 165 20:23 08.01.2022
4436 Snow 2 994 98 52 14.74 165 19:55 08.01.2022
4437 Rain 2 997 89 10000 13.13 174 17:51 08.01.2022
4438 Rain 2 999 82 10000 12.46 185 17:21 08.01.2022
4439 Clouds 3 1000 82 10000 11.69 192 15:47 08.01.2022
4440 Clouds 3 1001 81 10000 10.79 199 14:40 08.01.2022
4441 Clouds 3 1003 78 10000 10.51 218 12:36 08.01.2022
4442 Clouds 2 1005 74 10000 8.99 245 10:59 08.01.2022
4443 Snow 2 1005 73 10000 8.95 256 10:25 08.01.2022
4444 Clouds 1 1005 73 10000 8.95 256 09:44 08.01.2022
4445 Clouds 2 1005 74 10000 8.84 271 07:18 08.01.2022
4446 Snow 1 1005 72 10000 8.4 262 02:39 08.01.2022
4447 Snow 1 1005 73 10000 9.3 245 00:41 08.01.2022
4448 Snow 2 1005 72 10000 8.96 246 22:40 07.01.2022
4449 Clouds 3 1005 72 10000 9.5 239 20:56 07.01.2022
4450 Rain 3 1005 73 10000 10.03 238 19:56 07.01.2022
4451 Rain 3 1005 73 10000 10.03 238 19:56 07.01.2022
4452 Rain 3 1005 74 10000 10.12 238 18:58 07.01.2022
4453 Rain 3 1005 74 10000 10.12 238 18:38 07.01.2022
4454 Rain 3 1005 74 10000 10.69 236 17:25 07.01.2022
4455 Clouds 4 1005 76 10000 11.29 234 16:23 07.01.2022
4456 Clouds 4 1005 78 10000 11.46 234 13:53 07.01.2022
4457 Clouds 4 1005 79 10000 12.15 232 13:21 07.01.2022
4458 Clouds 4 1005 82 10000 11.99 227 12:49 07.01.2022
4459 Clouds 3 1005 91 10000 13.38 224 09:37 07.01.2022
4460 Clouds 3 1009 90 9513 13.94 211 02:55 07.01.2022
4461 Clouds 3 1010 82 10000 13.28 207 01:54 07.01.2022
4462 Rain 3 1011 80 10000 13.02 207 01:27 07.01.2022
4463 Clouds 3 1010 81 10000 13.11 206 00:58 07.01.2022
4464 Clouds 3 1012 80 10000 11.9 209 22:54 06.01.2022
4465 Clouds 3 1013 81 10000 11.3 218 21:28 06.01.2022
4466 Clouds 3 1013 80 10000 10.43 216 20:21 06.01.2022
4467 Clouds 3 1013 80 10000 10.43 216 19:44 06.01.2022
4468 Clouds 2 1014 75 10000 8.58 228 18:29 06.01.2022
4469 Clouds 3 1014 75 10000 8.58 228 17:40 06.01.2022
4470 Clouds 4 1014 72 10000 7.82 235 16:44 06.01.2022
4471 Clouds 6 1015 70 10000 7.2 246 15:47 06.01.2022
4472 Clouds 6 1015 68 10000 5.73 250 15:26 06.01.2022
4473 Clouds 5 1015 68 10000 5.73 250 14:45 06.01.2022
4474 Clouds 5 1015 65 10000 4.55 258 14:18 06.01.2022
4475 Clouds 4 1015 58 10000 3.7 280 12:50 06.01.2022
4476 Clouds 4 1015 54 10000 5.27 330 11:43 06.01.2022
4477 Clouds 4 1015 54 10000 6.91 336 11:22 06.01.2022
4478 Clouds 4 1014 54 10000 9.27 334 08:52 06.01.2022
4479 Clouds 4 1009 51 10000 7.84 8 01:24 06.01.2022
4480 Clouds 4 1007 61 10000 7.53 9 23:38 05.01.2022
4481 Clear 4 1005 71 10000 11.36 334 22:59 05.01.2022
4482 Clear 4 1005 71 10000 11.37 334 22:33 05.01.2022
4483 Rain 6 1004 75 10000 13.62 322 21:49 05.01.2022
4484 Clouds 6 1004 78 10000 13.89 318 21:20 05.01.2022
4485 Clouds 6 1003 79 10000 13.76 320 20:19 05.01.2022
4486 Rain 6 1001 79 10000 14.31 320 18:50 05.01.2022
4487 Rain 6 1000 81 10000 14.62 321 17:44 05.01.2022
4488 Clear 6 999 79 10000 14.94 322 16:51 05.01.2022
4489 Clear 6 996 77 10000 14.93 319 15:26 05.01.2022
4490 Clear 7 995 77 10000 14.33 312 14:24 05.01.2022
4491 Clouds 6 994 75 10000 14.28 308 13:25 05.01.2022
4492 Rain 4 993 87 10000 11.12 291 11:36 05.01.2022
4493 Clouds 3 992 77 10000 12.49 265 08:20 05.01.2022
4494 Clouds 6 992 76 10000 13.21 278 06:25 05.01.2022
4495 Clouds 3 993 69 10000 13.52 262 00:59 05.01.2022
4496 Clouds 6 993 67 10000 12.22 270 23:28 04.01.2022
4497 Clouds 2 993 67 10000 12.22 270 22:58 04.01.2022
4498 Clouds 6 993 67 10000 12.12 276 21:31 04.01.2022
4499 Clouds 6 993 67 10000 12.12 276 21:31 04.01.2022
4500 Clouds 6 993 69 10000 10.93 277 19:22 04.01.2022
4501 Clouds 4 993 68 10000 10.51 280 17:54 04.01.2022
4502 Clouds 5 993 69 10000 9.81 279 16:53 04.01.2022
4503 Clouds 6 993 69 10000 9.64 282 16:25 04.01.2022
4504 Clouds 5 993 66 10000 8.93 283 14:54 04.01.2022
4505 Clouds 5 993 66 10000 8.93 283 14:36 04.01.2022
4506 Clouds 4 993 65 10000 8.4 285 13:40 04.01.2022
4507 Clouds 7 993 96 2721 7.87 332 10:52 04.01.2022
4508 Clouds 7 993 96 3958 7.18 336 09:47 04.01.2022
4509 Rain 7 993 95 10000 3.97 320 08:34 04.01.2022
4510 Clouds 7 995 91 10000 5 271 03:39 04.01.2022
4511 Clouds 8 997 86 10000 12.14 246 00:42 04.01.2022
4512 Clouds 8 997 88 10000 12.67 240 23:41 03.01.2022
4513 Clouds 8 998 88 10000 13.16 241 22:21 03.01.2022
4514 Clouds 8 998 88 10000 13.16 241 21:35 03.01.2022
4515 Clouds 8 999 81 10000 13.56 247 20:28 03.01.2022
4516 Clouds 8 1000 82 10000 13.43 247 18:54 03.01.2022
4517 Clouds 8 1000 84 10000 13.56 250 18:28 03.01.2022
4518 Clouds 9 1001 85 10000 13.98 251 17:18 03.01.2022
4519 Clouds 9 1001 85 10000 14.26 251 15:50 03.01.2022
4520 Clouds 8 1001 85 10000 14.24 251 14:31 03.01.2022
4521 Clouds 9 1003 80 10000 14.73 250 12:51 03.01.2022
4522 Clouds 9 1003 80 10000 15.13 248 11:50 03.01.2022
4523 Clouds 9 1003 81 10000 15 248 10:37 03.01.2022
4524 Clouds 8 1003 81 10000 14.52 251 08:54 03.01.2022
4525 Clouds 9 1003 82 10000 14.67 252 07:51 03.01.2022
4526 Rain 8 1003 87 10000 11.06 243 01:55 03.01.2022
4527 Clouds 8 1003 91 10000 10.79 227 23:22 02.01.2022
4528 Clouds 8 1003 91 10000 10.79 227 22:56 02.01.2022
4529 Clouds 8 1004 94 10000 8.58 222 21:52 02.01.2022
4530 Clouds 8 1005 94 10000 10.04 232 20:45 02.01.2022
4531 Clouds 8 1005 92 10000 10.85 239 20:25 02.01.2022
4532 Clouds 9 1005 92 10000 10.85 239 19:31 02.01.2022
4533 Clouds 9 1005 90 10000 11.08 243 18:51 02.01.2022
4534 Clouds 9 1005 90 10000 12.14 255 17:56 02.01.2022
4535 Clouds 9 1005 90 10000 12.14 255 17:38 02.01.2022
4536 Clouds 9 1005 89 10000 13.88 267 17:19 02.01.2022
4537 Clouds 9 1004 91 10000 15.94 262 16:27 02.01.2022
4538 Clouds 11 1003 90 10000 15.89 244 14:41 02.01.2022
4539 Rain 11 1004 96 9475 12.67 221 13:25 02.01.2022
4540 Clouds 9 1005 96 10000 11.27 212 12:31 02.01.2022
4541 Clouds 11 1005 96 10000 11.3 212 11:41 02.01.2022
4542 Clouds 11 1006 96 10000 10.25 215 10:53 02.01.2022
4543 Rain 11 1007 97 10000 8.82 217 09:55 02.01.2022
4544 Rain 10 1009 98 7308 9.43 223 07:34 02.01.2022
4545 Clouds 11 1013 94 10000 9.03 225 02:51 02.01.2022
4546 Rain 11 1015 92 10000 9.62 224 23:42 01.01.2022
4547 Rain 9 1015 93 10000 8.96 217 23:23 01.01.2022
4548 Clouds 9 1016 93 10000 9.36 221 22:25 01.01.2022
4549 Clouds 12 1016 93 10000 9.36 221 21:44 01.01.2022
4550 Clouds 12 1016 92 10000 8.86 214 20:56 01.01.2022
4551 Clouds 12 1017 92 10000 9.54 215 20:19 01.01.2022
4552 Clouds 10 1017 92 10000 9.54 215 19:32 01.01.2022
4553 Clouds 9 1017 94 10000 9.61 197 18:29 01.01.2022
4554 Clouds 12 1018 95 10000 8.67 194 16:55 01.01.2022
4555 Clouds 9 1018 95 10000 8.67 194 16:34 01.01.2022
4556 Clouds 12 1018 96 10000 8.17 196 15:33 01.01.2022
4557 Clouds 9 1019 98 10000 7.1 208 14:22 01.01.2022
4558 Clouds 11 1020 99 5586 8.16 224 13:28 01.01.2022
4559 Clouds 11 1020 99 7273 8.51 222 11:59 01.01.2022
4560 Clouds 10 1019 98 8844 7.55 225 11:24 01.01.2022
4561 Clouds 10 1019 98 8844 7.55 225 10:52 01.01.2022
4562 Clouds 10 1020 98 10000 8.16 229 09:47 01.01.2022
4563 Clouds 10 1019 98 10000 8.86 235 08:27 01.01.2022
4564 Clouds 10 1019 98 10000 8.86 235 07:56 01.01.2022
4565 Clouds 10 1019 98 10000 8.86 235 07:37 01.01.2022
4566 Clouds 10 1019 98 10000 8.86 235 07:37 01.01.2022
4567 Clouds 10 1019 98 10000 8.77 239 06:43 01.01.2022
4568 Clouds 10 1018 97 10000 8.75 244 04:39 01.01.2022
4569 Clouds 10 1018 97 10000 8.95 246 03:50 01.01.2022
4570 Clouds 10 1016 95 10000 10.12 255 23:53 31.12.2021
4571 Clouds 10 1015 95 10000 10.22 261 21:57 31.12.2021
4572 Clouds 10 1015 95 10000 10.22 261 21:39 31.12.2021
4573 Clouds 11 1014 96 10000 10.31 258 19:43 31.12.2021
4574 Clouds 11 1013 96 10000 10.76 261 18:50 31.12.2021
4575 Clouds 11 1012 96 10000 12.15 259 17:49 31.12.2021
4576 Clouds 9 1011 97 10000 12.03 257 17:24 31.12.2021
4577 Clouds 10 1011 97 10000 12.03 257 16:52 31.12.2021
4578 Clouds 10 1011 96 10000 13.76 259 16:18 31.12.2021
4579 Clouds 11 1011 96 10000 13.76 259 15:45 31.12.2021
4580 Clouds 9 1010 97 10000 14.36 252 15:26 31.12.2021
4581 Clouds 11 1010 97 10000 14.36 252 14:38 31.12.2021
4582 Clouds 11 1010 97 10000 14.09 248 13:51 31.12.2021
4583 Clouds 11 1010 96 10000 15.06 246 12:50 31.12.2021
4584 Clouds 11 1010 95 5931 15.91 242 12:20 31.12.2021
4585 Clouds 12 1010 95 5931 15.91 242 11:41 31.12.2021
4586 Clouds 12 1010 93 10000 15.51 240 10:55 31.12.2021
4587 Rain 9 1009 92 10000 14.7 240 10:28 31.12.2021
4588 Clouds 12 1009 92 10000 14.7 240 09:34 31.12.2021
4589 Clouds 12 1009 92 10000 14.47 241 08:52 31.12.2021
4590 Clouds 12 1009 94 10000 14.62 239 07:55 31.12.2021
4591 Clouds 12 1010 93 10000 13.84 239 04:54 31.12.2021
4592 Clouds 11 1010 97 5481 12.27 238 23:18 30.12.2021
4593 Clouds 9 1010 97 5481 12.27 238 22:31 30.12.2021
4594 Clouds 11 1010 98 1865 10.73 236 21:39 30.12.2021
4595 Clouds 11 1010 98 2831 10.68 240 21:19 30.12.2021
4596 Clouds 11 1010 98 2831 10.68 240 20:39 30.12.2021
4597 Clouds 11 1010 98 10000 10.92 242 19:55 30.12.2021
4598 Clouds 9 1010 98 10000 10.92 242 19:31 30.12.2021
4599 Clouds 9 1010 97 10000 10.76 250 18:26 30.12.2021
4600 Clouds 11 1009 96 10000 11.53 254 16:53 30.12.2021
4601 Clouds 11 1008 96 10000 12.84 256 15:54 30.12.2021
4602 Clouds 9 1007 95 10000 13.48 252 15:21 30.12.2021
4603 Clouds 11 1007 95 10000 13.48 252 14:36 30.12.2021
4604 Clouds 9 1006 96 10000 13.66 249 13:25 30.12.2021
4605 Clouds 9 1006 96 10000 13.66 249 13:25 30.12.2021
4606 Clouds 10 1006 98 1638 11.58 238 11:58 30.12.2021
4607 Clouds 9 1006 99 729 10.38 219 10:40 30.12.2021
4608 Clouds 8 1006 99 2744 10.02 215 09:49 30.12.2021
4609 Clouds 6 1006 94 10000 9.79 226 06:59 30.12.2021
4610 Clouds 8 1007 94 10000 9.71 244 05:27 30.12.2021
4611 Clouds 7 1006 92 10000 9.86 249 03:41 30.12.2021
4612 Clouds 7 1005 91 10000 9.88 251 02:32 30.12.2021
4613 Clouds 7 1003 94 10000 8.58 254 23:39 29.12.2021
4614 Clouds 7 1002 96 10000 9.07 214 22:55 29.12.2021
4615 Clouds 6 1002 96 10000 9.95 176 22:18 29.12.2021
4616 Clouds 6 1002 96 10000 8.99 162 20:59 29.12.2021
4617 Clouds 7 1002 96 10000 8.99 162 20:30 29.12.2021
4618 Clouds 7 1002 96 10000 8.99 162 20:30 29.12.2021
4619 Clouds 7 1002 96 10000 8.99 162 20:30 29.12.2021
4620 Clouds 6 1002 95 10000 9.07 167 19:38 29.12.2021
4621 Rain 6 1003 92 10000 7.36 178 18:44 29.12.2021
4622 Rain 6 1003 93 10000 7.12 169 17:52 29.12.2021
4623 Clouds 7 1004 94 10000 6.52 185 17:27 29.12.2021
4624 Clouds 7 1005 93 10000 6.17 199 16:22 29.12.2021
4625 Clouds 5 1004 89 10000 5.23 200 15:26 29.12.2021
4626 Clouds 4 1005 85 10000 5.78 222 13:42 29.12.2021
4627 Clouds 6 1005 88 10000 4.27 229 12:36 29.12.2021
4628 Clouds 3 1004 88 10000 1.55 254 11:26 29.12.2021
4629 Clouds 2 1004 89 10000 1.61 293 09:46 29.12.2021
4630 Clouds 2 1002 89 10000 0.59 98 07:51 29.12.2021
4631 Clouds 2 1001 90 10000 2.54 26 06:38 29.12.2021
4632 Clouds 2 1001 91 10000 2.95 15 05:58 29.12.2021
4633 Clouds 2 1001 91 10000 2.95 15 05:36 29.12.2021
4634 Clouds 2 997 93 10000 3.64 55 02:22 29.12.2021
4635 Clouds 2 995 94 10000 2.39 70 00:19 29.12.2021
4636 Clouds 2 995 94 10000 2.39 70 23:34 28.12.2021
4637 Clouds 2 994 94 10000 1.71 113 22:42 28.12.2021
4638 Clouds 2 993 95 10000 3.68 128 22:23 28.12.2021
4639 Clouds 3 993 95 10000 3.68 128 21:36 28.12.2021
4640 Clouds 6 991 96 10000 7.59 121 20:36 28.12.2021
4641 Clouds 6 991 96 10000 9 116 19:24 28.12.2021
4642 Rain 3 991 96 10000 8.5 120 18:37 28.12.2021
4643 Rain 3 990 96 10000 9.41 118 17:59 28.12.2021
4644 Rain 3 990 96 10000 9.99 120 16:34 28.12.2021
4645 Rain 4 990 95 9823 10.21 124 15:49 28.12.2021
4646 Rain 6 990 93 10000 9.82 128 15:20 28.12.2021
4647 Clouds 4 990 93 10000 9.82 128 14:47 28.12.2021
4648 Clouds 6 990 92 10000 9.63 134 14:21 28.12.2021
4649 Clouds 4 990 92 10000 9.63 134 13:42 28.12.2021
4650 Clouds 4 990 92 10000 9.63 134 13:42 28.12.2021
4651 Clouds 4 991 92 10000 9.58 141 13:24 28.12.2021
4652 Clouds 4 992 92 10000 9.64 141 12:49 28.12.2021
4653 Clouds 3 992 93 10000 9.48 145 11:36 28.12.2021
4654 Clouds 6 994 95 10000 9.53 162 08:30 28.12.2021
4655 Clouds 3 994 95 10000 8.98 166 06:41 28.12.2021
4656 Clouds 1 999 91 10000 9.95 149 23:44 27.12.2021
4657 Clouds 5 999 91 10000 10.03 143 23:23 27.12.2021
4658 Clouds 1 999 90 10000 10.41 138 21:42 27.12.2021
4659 Clouds 0 1000 90 10000 10.1 138 21:20 27.12.2021
4660 Clouds 0 1000 90 10000 9.61 139 20:23 27.12.2021
4661 Clouds 0 1000 90 10000 9.61 139 19:41 27.12.2021
4662 Clouds -1 1000 90 10000 10.01 141 18:34 27.12.2021
4663 Clouds -1 1000 90 10000 9.62 134 17:48 27.12.2021
4664 Clouds -1 1001 90 10000 9.57 139 16:40 27.12.2021
4665 Clouds -1 1001 90 10000 9.56 139 15:52 27.12.2021
4666 Clouds -1 1001 90 10000 9.49 137 14:33 27.12.2021
4667 Clouds -2 1001 90 10000 9.47 140 13:40 27.12.2021
4668 Clouds -2 1002 90 10000 9.97 143 12:40 27.12.2021
4669 Clouds 3 1003 88 10000 10.03 138 10:32 27.12.2021
4670 Clouds -4 1003 87 10000 10.12 137 09:47 27.12.2021
4671 Clouds -4 1003 86 10000 10.18 137 08:39 27.12.2021
4672 Clouds 2 1003 86 10000 10.28 136 07:32 27.12.2021
4673 Clouds 1 1006 72 10000 11.95 127 02:21 27.12.2021
4674 Clear -6 1007 66 10000 12.22 126 23:58 26.12.2021
4675 Clear -6 1007 66 10000 12.22 126 23:40 26.12.2021
4676 Clear -6 1008 64 10000 12.25 125 22:36 26.12.2021
4677 Clear -5 1009 58 10000 12.44 122 20:59 26.12.2021
4678 Clear -5 1009 55 10000 12.3 124 19:49 26.12.2021
4679 Clear 2 1010 53 10000 11.79 125 18:25 26.12.2021
4680 Clear 2 1010 53 10000 11.79 125 17:30 26.12.2021
4681 Clear 2 1011 48 10000 10.54 117 14:32 26.12.2021
4682 Clear -3 1011 47 10000 10.09 118 13:43 26.12.2021
4683 Clear 2 1012 47 10000 9.56 119 13:20 26.12.2021
4684 Clear -4 1012 46 10000 9.46 120 12:33 26.12.2021
4685 Clear -7 1012 50 10000 8.93 121 10:44 26.12.2021
4686 Clear 2 1012 59 10000 7.77 124 09:29 26.12.2021
4687 Clear -8 1012 59 10000 7.77 124 08:44 26.12.2021
4688 Clear -8 1012 61 10000 7.23 123 07:59 26.12.2021
4689 Clouds -8 1013 64 10000 3.91 142 01:36 26.12.2021
4690 Clouds 2 1014 63 10000 3.61 153 00:20 26.12.2021
4691 Clear 2 1014 61 10000 3.05 163 23:28 25.12.2021
4692 Clear 2 1014 60 10000 2.58 169 22:29 25.12.2021
4693 Clear 2 1014 58 10000 2 174 21:25 25.12.2021
4694 Clear -6 1014 56 10000 1.59 176 19:46 25.12.2021
4695 Clear -6 1014 54 10000 1.1 177 19:18 25.12.2021
4696 Clear 2 1014 53 10000 1.58 145 18:26 25.12.2021
4697 Clear -4 1014 52 10000 1.92 149 16:49 25.12.2021
4698 Clear 1 1014 51 10000 2.04 145 15:30 25.12.2021
4699 Clear -1 1014 48 10000 2.09 128 13:47 25.12.2021
4700 Clear -3 1014 44 10000 3.69 107 12:19 25.12.2021
4701 Clear -5 1014 45 10000 4.25 98 10:36 25.12.2021
4702 Clear -7 1014 47 10000 4.7 91 09:48 25.12.2021
4703 Clear 0 1013 51 10000 5.35 79 07:27 25.12.2021
4704 Clear -6 1011 58 10000 6.83 79 01:36 25.12.2021
4705 Clouds -5 1011 58 10000 7.23 81 00:19 25.12.2021
4706 Clouds -3 1010 56 10000 8.1 75 21:57 24.12.2021
4707 Clouds 0 1008 60 10000 9.69 49 19:27 24.12.2021
4708 Clouds -1 1008 60 10000 9.69 49 18:56 24.12.2021
4709 Clouds 1 1007 65 10000 10.86 42 16:44 24.12.2021
4710 Clouds 1 1006 69 10000 10.81 40 15:50 24.12.2021
4711 Clouds 1 1006 69 10000 10.81 40 15:50 24.12.2021
4712 Clouds 3 1004 76 10000 10.9 36 15:25 24.12.2021
4713 Clouds 3 1004 76 10000 10.9 36 14:35 24.12.2021
4714 Clouds 3 1003 84 10000 10.92 30 13:57 24.12.2021
4715 Clouds 3 1003 84 10000 10.92 30 13:32 24.12.2021
4716 Clouds 3 1001 88 10000 9.2 7 12:45 24.12.2021
4717 Rain 2 1000 85 10000 7.07 330 11:45 24.12.2021
4718 Rain 5 1000 88 10000 5.93 302 11:24 24.12.2021
4719 Rain 2 1000 88 10000 5.93 302 10:35 24.12.2021
4720 Rain 2 999 96 1506 3.2 336 09:22 24.12.2021
4721 Clouds 2 999 96 1161 5.27 2 08:19 24.12.2021
4722 Clouds 2 999 96 1161 5.27 2 07:42 24.12.2021
4723 Rain 4 998 95 10000 6.58 343 00:47 24.12.2021
4724 Rain 4 998 95 9009 7.08 300 23:50 23.12.2021
4725 Rain 3 998 95 10000 7.97 287 22:54 23.12.2021
4726 Rain 8 998 95 10000 9.14 279 22:26 23.12.2021
4727 Clouds 2 998 95 10000 9.14 279 21:50 23.12.2021
4728 Snow 1 998 94 10000 9.67 274 20:53 23.12.2021
4729 Rain 8 999 94 10000 10.6 261 19:31 23.12.2021
4730 Clouds 7 1000 94 10000 11.63 247 18:28 23.12.2021
4731 Clouds 0 1000 94 10000 11.63 247 17:47 23.12.2021
4732 Snow 0 1001 94 10000 12.27 238 16:40 23.12.2021
4733 Snow 0 1002 93 10000 11.6 231 16:20 23.12.2021
4734 Snow 0 1002 93 10000 11.6 231 15:31 23.12.2021
4735 Snow 0 1003 93 10000 10.26 225 14:42 23.12.2021
4736 Snow 0 1003 93 10000 10.26 225 14:42 23.12.2021
4737 Snow 0 1005 92 10000 9.41 222 14:19 23.12.2021
4738 Snow 0 1005 92 10000 8.57 218 12:48 23.12.2021
4739 Clouds 3 1007 73 10000 8.86 215 10:41 23.12.2021
4740 Clouds -2 1008 60 10000 8.69 205 09:34 23.12.2021
4741 Clouds -2 1010 61 10000 8.88 198 08:59 23.12.2021
4742 Snow -3 1011 75 10000 7.49 194 06:48 23.12.2021
4743 Snow -3 1014 61 10000 6.93 192 03:41 23.12.2021
4744 Clouds -4 1018 61 10000 7.99 195 22:57 22.12.2021
4745 Clouds 4 1018 61 10000 7.99 195 22:32 22.12.2021
4746 Clouds -4 1019 62 10000 7.82 194 21:53 22.12.2021
4747 Clouds 4 1020 63 10000 7.7 195 21:28 22.12.2021
4748 Clouds -4 1020 63 10000 7.7 195 20:44 22.12.2021
4749 Clouds 4 1020 65 10000 6.9 193 20:25 22.12.2021
4750 Clouds -4 1021 66 10000 6.67 198 19:19 22.12.2021
4751 Clouds -3 1021 66 10000 6.03 207 17:42 22.12.2021
4752 Clouds -2 1022 67 10000 6.04 212 16:38 22.12.2021
4753 Clouds -1 1022 67 10000 6.14 218 15:39 22.12.2021
4754 Clouds -2 1023 69 10000 6.57 226 13:32 22.12.2021
4755 Clouds -2 1023 70 10000 6.97 227 12:39 22.12.2021
4756 Clouds -4 1024 74 10000 7.56 237 09:54 22.12.2021
4757 Clouds -4 1024 74 10000 7.56 237 09:35 22.12.2021
4758 Clouds 6 1024 74 10000 8.04 239 07:25 22.12.2021
4759 Clouds -4 1024 74 10000 7.75 242 05:43 22.12.2021
4760 Clouds 6 1025 74 10000 8.18 243 05:24 22.12.2021
4761 Clouds -3 1025 74 10000 8.18 243 04:49 22.12.2021
4762 Clouds 5 1025 75 10000 8.32 242 04:26 22.12.2021
4763 Clouds -3 1025 75 10000 8.32 242 03:32 22.12.2021
4764 Clouds -2 1025 79 10000 8.36 238 00:47 22.12.2021
4765 Clouds -2 1025 72 10000 8.48 229 22:52 21.12.2021
4766 Clouds 5 1025 70 10000 7.83 228 22:28 21.12.2021
4767 Clouds -1 1025 70 10000 7.83 228 21:44 21.12.2021
4768 Clouds 6 1025 67 10000 7.19 228 21:22 21.12.2021
4769 Clouds 6 1025 65 10000 6.5 231 20:21 21.12.2021
4770 Clouds -1 1025 65 10000 6.5 231 19:42 21.12.2021
4771 Clear 0 1025 62 10000 5.66 239 18:46 21.12.2021
4772 Clear 6 1025 61 10000 5.29 244 18:21 21.12.2021
4773 Clear 0 1025 61 10000 5.29 244 17:41 21.12.2021
4774 Clear 6 1025 59 10000 5.04 254 16:26 21.12.2021
4775 Clear 6 1025 59 10000 4.45 259 15:24 21.12.2021
4776 Clear 2 1025 63 10000 4.14 254 13:50 21.12.2021
4777 Clouds 6 1025 67 10000 4.01 239 13:30 21.12.2021
4778 Clouds 1 1026 64 10000 3.72 242 11:57 21.12.2021
4779 Clouds -1 1026 63 10000 2.4 203 10:25 21.12.2021
4780 Clouds 6 1026 62 10000 1.83 185 09:27 21.12.2021
4781 Clouds -1 1026 62 10000 1.04 174 07:59 21.12.2021
4782 Clouds 6 1026 61 10000 0.2 162 07:29 21.12.2021
4783 Clouds -2 1027 62 10000 1.15 136 06:50 21.12.2021
4784 Clouds 0 1027 61 10000 1.93 75 03:18 21.12.2021
4785 Clouds -1 1029 59 10000 2.38 50 23:59 20.12.2021
4786 Clouds 6 1029 59 10000 2.38 50 23:32 20.12.2021
4787 Clouds 0 1029 59 10000 2.67 48 22:33 20.12.2021
4788 Clouds 4 1029 59 10000 3.05 47 21:48 20.12.2021
4789 Clouds 4 1029 59 10000 3.52 44 21:24 20.12.2021
4790 Clouds 0 1029 59 10000 3.52 44 20:48 20.12.2021
4791 Clouds 0 1029 59 10000 4.03 39 19:54 20.12.2021
4792 Clouds 6 1029 59 10000 4.03 39 19:31 20.12.2021
4793 Clouds 6 1028 58 10000 3.93 42 18:54 20.12.2021
4794 Clear 2 1028 57 10000 4.18 35 17:55 20.12.2021
4795 Clear 2 1028 57 10000 4.18 35 17:37 20.12.2021
4796 Clear 2 1028 58 10000 4.62 32 16:42 20.12.2021
4797 Clear 3 1028 59 10000 4.81 28 15:51 20.12.2021
4798 Clear 5 1028 60 10000 4.87 26 14:56 20.12.2021
4799 Clear 4 1028 59 10000 5.31 21 13:18 20.12.2021
4800 Clear 8 1029 55 10000 6.26 22 11:23 20.12.2021
4801 Clear 0 1028 54 10000 6.37 15 09:51 20.12.2021
4802 Clear 7 1028 54 10000 6.37 15 09:31 20.12.2021
4803 Clear 0 1028 54 10000 5.9 8 08:42 20.12.2021
4804 Clear 1 1027 54 10000 5.48 5 07:55 20.12.2021
4805 Clear 7 1027 54 10000 5.48 5 07:30 20.12.2021
4806 Clear 1 1027 52 10000 5.11 4 04:36 20.12.2021
4807 Clear 1 1027 48 10000 5.07 33 00:18 20.12.2021
4808 Clouds 1 1027 52 10000 5.6 27 22:53 19.12.2021
4809 Clouds 3 1026 60 10000 4.99 24 21:55 19.12.2021
4810 Clouds 7 1026 60 10000 4.99 24 21:30 19.12.2021
4811 Clouds 4 1026 68 10000 5.87 31 20:34 19.12.2021
4812 Clouds 5 1026 71 10000 8.34 16 19:52 19.12.2021
4813 Clouds 7 1025 67 10000 11.63 355 19:27 19.12.2021
4814 Clouds 7 1025 67 10000 11.63 355 18:30 19.12.2021
4815 Clouds 6 1025 71 10000 13.81 351 17:53 19.12.2021
4816 Clouds 8 1025 76 10000 13.99 346 17:20 19.12.2021
4817 Clear 8 1025 81 10000 13.93 341 16:26 19.12.2021
4818 Clear 8 1025 80 10000 14.04 341 15:43 19.12.2021
4819 Clear 8 1025 81 10000 14.28 336 15:21 19.12.2021
4820 Clear 8 1025 81 10000 14.28 336 14:42 19.12.2021
4821 Clouds 9 1025 76 10000 14.2 316 13:24 19.12.2021
4822 Clouds 8 1025 76 10000 14.2 316 12:46 19.12.2021
4823 Clouds 9 1026 75 10000 14.07 322 12:23 19.12.2021
4824 Clouds 9 1026 78 10000 12.93 320 11:26 19.12.2021
4825 Clouds 9 1027 81 10000 11.68 320 10:28 19.12.2021
4826 Clouds 8 1027 81 10000 11.68 320 09:48 19.12.2021
4827 Clouds 8 1028 77 10000 12.62 327 08:43 19.12.2021
4828 Clouds 7 1029 82 10000 12.73 325 04:45 19.12.2021
4829 Clouds 7 1030 86 10000 12.73 310 01:34 19.12.2021
4830 Clouds 7 1031 86 10000 11.96 310 00:53 19.12.2021
4831 Clouds 7 1032 86 10000 11.25 311 22:42 18.12.2021
4832 Clouds 8 1033 86 10000 11.07 312 22:20 18.12.2021
4833 Clouds 8 1033 86 10000 11.07 312 22:20 18.12.2021
4834 Clouds 7 1033 86 10000 11.07 312 21:41 18.12.2021
4835 Clouds 8 1033 86 10000 10.7 315 21:22 18.12.2021
4836 Clouds 9 1033 87 10000 10.11 316 20:20 18.12.2021
4837 Clear 9 1034 91 10000 9.52 317 19:25 18.12.2021
4838 Clear 9 1034 90 10000 8.97 311 18:22 18.12.2021
4839 Clear 8 1034 90 10000 8.97 311 17:48 18.12.2021
4840 Clear 9 1034 90 10000 8.45 309 16:26 18.12.2021
4841 Clear 8 1034 90 10000 8.45 309 15:48 18.12.2021
4842 Clear 8 1035 89 10000 8.29 309 14:51 18.12.2021
4843 Clouds 9 1036 89 10000 8.18 309 13:29 18.12.2021
4844 Clouds 9 1036 89 10000 8.18 309 13:29 18.12.2021
4845 Clouds 8 1036 91 10000 8.02 300 11:47 18.12.2021
4846 Clouds 7 1037 92 10000 8.07 308 09:52 18.12.2021
4847 Clouds 7 1037 94 10000 7.59 306 08:48 18.12.2021
4848 Clouds 9 1037 89 10000 7.8 318 08:27 18.12.2021
4849 Clouds 9 1038 85 10000 8.06 330 06:27 18.12.2021
4850 Clouds 7 1038 92 10000 5.52 320 00:34 18.12.2021
4851 Clouds 6 1039 92 10000 5.59 325 23:46 17.12.2021
4852 Clouds 7 1039 94 10000 5.8 326 22:18 17.12.2021
4853 Clouds 7 1039 94 10000 5.9 325 21:23 17.12.2021
4854 Clouds 7 1039 94 10000 5.9 325 20:42 17.12.2021
4855 Clouds 7 1039 94 10000 5.65 326 19:45 17.12.2021
4856 Clouds 7 1039 93 10000 5.54 329 18:39 17.12.2021
4857 Clouds 7 1039 94 10000 5.82 333 17:46 17.12.2021
4858 Clouds 7 1039 94 10000 6.15 328 16:50 17.12.2021
4859 Clouds 7 1039 94 10000 5.92 320 16:26 17.12.2021
4860 Clouds 8 1038 94 10000 5.78 312 15:25 17.12.2021
4861 Clouds 8 1038 94 10000 5.78 312 14:41 17.12.2021
4862 Clouds 8 1039 95 10000 4.97 320 13:30 17.12.2021
4863 Clouds 9 1038 94 10000 5.71 319 12:21 17.12.2021
4864 Clouds 7 1038 91 10000 6.06 319 10:39 17.12.2021
4865 Clouds 7 1038 85 10000 6.44 327 09:44 17.12.2021
4866 Clouds 7 1038 86 10000 6.57 326 08:31 17.12.2021
4867 Clouds 7 1038 94 10000 5.09 314 07:20 17.12.2021
4868 Clear 7 1037 91 10000 4.97 302 04:40 17.12.2021
4869 Clouds 7 1038 89 10000 4.02 272 23:58 16.12.2021
4870 Clouds 7 1037 85 10000 3.1 286 22:24 16.12.2021
4871 Clouds 8 1037 85 10000 3.1 286 21:51 16.12.2021
4872 Clouds 8 1037 85 10000 3.09 289 21:30 16.12.2021
4873 Clouds 8 1037 85 10000 3.1 289 20:31 16.12.2021
4874 Clouds 8 1037 85 10000 2.89 316 19:51 16.12.2021
4875 Clouds 8 1037 80 10000 3.47 313 18:41 16.12.2021
4876 Clouds 8 1037 81 10000 3.84 319 17:57 16.12.2021
4877 Clouds 8 1037 81 10000 4.06 325 17:32 16.12.2021
4878 Clouds 8 1036 81 10000 3.7 310 16:23 16.12.2021
4879 Clouds 9 1036 82 10000 3.6 314 15:20 16.12.2021
4880 Clear 9 1036 83 10000 3.48 312 13:43 16.12.2021
4881 Clouds 9 1035 86 10000 3.9 306 11:48 16.12.2021
4882 Clouds 9 1035 88 10000 3.46 308 11:18 16.12.2021
4883 Clouds 8 1035 88 10000 3.46 308 10:32 16.12.2021
4884 Clouds 8 1033 92 10000 3.43 313 08:56 16.12.2021
4885 Clouds 8 1032 94 10000 5.3 320 06:23 16.12.2021
4886 Clouds 7 1030 95 10000 5.98 286 02:59 16.12.2021
4887 Clouds 8 1029 94 10000 7.39 278 23:35 15.12.2021
4888 Clear 7 1029 93 10000 7.77 272 22:49 15.12.2021
4889 Clear 7 1028 92 10000 8.44 268 21:58 15.12.2021
4890 Clear 7 1028 92 10000 8.44 268 21:31 15.12.2021
4891 Clear 7 1028 92 10000 8.86 264 20:32 15.12.2021
4892 Clear 7 1027 91 10000 9.16 259 19:53 15.12.2021
4893 Clouds 8 1027 92 10000 9.13 256 18:40 15.12.2021
4894 Clouds 8 1027 93 10000 8.89 255 17:57 15.12.2021
4895 Clouds 8 1027 93 10000 8.89 255 17:39 15.12.2021
4896 Clouds 9 1027 93 10000 9.14 258 16:57 15.12.2021
4897 Clear 11 1026 93 10000 9.52 255 15:47 15.12.2021
4898 Clear 11 1026 93 10000 9.69 253 15:29 15.12.2021
4899 Clear 9 1026 92 10000 9.71 254 14:44 15.12.2021
4900 Clouds 10 1025 89 10000 9.98 244 13:27 15.12.2021
4901 Clouds 10 1026 84 10000 10.16 238 10:58 15.12.2021
4902 Clouds 9 1025 87 10000 10.03 238 09:31 15.12.2021
4903 Clouds 10 1025 92 10000 9.96 239 07:52 15.12.2021
4904 Clouds 9 1024 88 10000 9.2 242 03:58 15.12.2021
4905 Clouds 8 1025 86 10000 10.14 248 23:46 14.12.2021
4906 Clouds 8 1025 90 10000 9.89 245 22:52 14.12.2021
4907 Clouds 8 1025 90 10000 9.89 245 22:34 14.12.2021
4908 Clouds 9 1024 94 10000 8.25 237 21:25 14.12.2021
4909 Clouds 8 1024 93 10000 7.3 238 20:18 14.12.2021
4910 Clouds 9 1024 94 10000 6.59 231 19:21 14.12.2021
4911 Clouds 9 1024 94 10000 6.59 231 19:21 14.12.2021
4912 Clouds 8 1024 94 10000 6 214 18:38 14.12.2021
4913 Clouds 8 1024 90 10000 5.03 222 17:50 14.12.2021
4914 Clouds 8 1024 88 10000 4.67 230 16:43 14.12.2021
4915 Clouds 8 1024 87 10000 4.03 234 15:54 14.12.2021
4916 Clouds 8 1024 87 10000 2.56 261 13:35 14.12.2021
4917 Clouds 7 1024 87 10000 1.92 252 12:47 14.12.2021
4918 Clouds 9 1024 89 10000 1.9 320 11:25 14.12.2021
4919 Clouds 9 1023 89 10000 3.26 341 10:28 14.12.2021
4920 Clouds 7 1023 89 10000 3.26 341 09:53 14.12.2021
4921 Clouds 7 1023 90 10000 4.03 326 08:40 14.12.2021
4922 Clouds 7 1022 92 10000 3.84 322 08:20 14.12.2021
4923 Clouds 7 1021 95 10000 10.3 240 06:27 14.12.2021
4924 Clouds 8 1023 91 10000 10.05 228 23:39 13.12.2021
4925 Clouds 8 1023 92 10000 9.86 226 21:57 13.12.2021
4926 Clouds 9 1023 92 10000 9.4 224 21:34 13.12.2021
4927 Clouds 8 1023 92 10000 9.4 224 20:50 13.12.2021
4928 Clouds 9 1023 91 10000 9.12 223 19:59 13.12.2021
4929 Clouds 9 1024 91 10000 8.87 227 19:27 13.12.2021
4930 Clouds 9 1024 90 10000 8.95 229 17:27 13.12.2021
4931 Clouds 9 1024 90 10000 9.15 229 16:24 13.12.2021
4932 Clouds 9 1024 90 10000 9.15 229 15:43 13.12.2021
4933 Clouds 9 1023 91 10000 9.57 231 13:57 13.12.2021
4934 Clouds 9 1023 91 10000 9.57 231 13:31 13.12.2021
4935 Clouds 9 1023 91 10000 10 231 12:39 13.12.2021
4936 Clouds 9 1023 92 10000 9.64 223 11:43 13.12.2021
4937 Clouds 9 1023 93 10000 9.27 221 11:24 13.12.2021
4938 Clouds 9 1023 94 10000 8.72 219 10:21 13.12.2021
4939 Clouds 9 1022 93 10000 8.27 222 08:43 13.12.2021
4940 Clouds 10 1021 95 10000 7.82 229 05:38 13.12.2021
4941 Clouds 9 1021 96 10000 7.93 233 03:57 13.12.2021
4942 Clouds 8 1021 98 10000 6.16 230 23:43 12.12.2021
4943 Clouds 8 1020 95 10000 5.68 237 21:56 12.12.2021
4944 Clouds 8 1020 94 10000 5.75 243 20:48 12.12.2021
4945 Clouds 8 1020 92 10000 5.61 251 19:34 12.12.2021
4946 Clouds 8 1018 93 10000 5.5 262 17:54 12.12.2021
4947 Clouds 7 1018 92 10000 6.19 271 16:29 12.12.2021
4948 Clouds 7 1018 92 10000 6.19 271 15:53 12.12.2021
4949 Clouds 9 1017 96 10000 6.72 256 15:28 12.12.2021
4950 Clouds 7 1017 96 10000 6.71 256 14:38 12.12.2021
4951 Clouds 5 1016 97 10000 7.94 243 13:47 12.12.2021
4952 Clouds 5 1016 97 10000 9.91 240 12:47 12.12.2021
4953 Clouds 4 1016 97 10000 11.3 234 11:45 12.12.2021
4954 Clouds 4 1016 96 10000 12.09 231 11:25 12.12.2021
4955 Clouds 5 1016 96 10000 12.09 231 10:43 12.12.2021
4956 Clouds 5 1015 96 10000 12.49 223 09:48 12.12.2021
4957 Clouds 4 1015 96 10000 12.55 217 08:42 12.12.2021
4958 Clouds 4 1016 92 10000 12.65 188 06:38 12.12.2021
4959 Snow 2 1017 89 10000 10.12 187 05:28 12.12.2021
4960 Rain 3 1017 90 10000 9.2 207 04:18 12.12.2021
4961 Rain 1 1017 83 10000 9.27 225 00:45 12.12.2021
4962 Clouds 1 1017 80 10000 7.73 247 22:42 11.12.2021
4963 Clouds 2 1017 80 10000 6.42 255 22:20 11.12.2021
4964 Clouds 8 1016 79 10000 4.25 252 21:25 11.12.2021
4965 Clouds 4 1016 77 10000 2.6 268 19:50 11.12.2021
4966 Clouds 8 1015 76 10000 1.7 311 19:21 11.12.2021
4967 Clouds 4 1015 78 10000 0.65 211 18:39 11.12.2021
4968 Clouds 4 1015 79 10000 1.07 5 17:48 11.12.2021
4969 Clouds 4 1013 80 10000 4.08 349 15:58 11.12.2021
4970 Clouds 4 1013 80 10000 4.08 349 15:39 11.12.2021
4971 Rain 4 1012 80 10000 5.47 328 14:33 11.12.2021
4972 Clouds 7 1011 78 10000 8.12 255 12:29 11.12.2021
4973 Rain 3 1011 75 10000 6.82 266 10:49 11.12.2021
4974 Rain 2 1010 75 10000 5.08 271 09:40 11.12.2021
4975 Clouds 1 1006 70 10000 1.35 261 03:57 11.12.2021
4976 Clouds 2 1004 71 10000 1.24 137 00:47 11.12.2021
4977 Clouds 2 1003 71 10000 1.99 128 23:44 10.12.2021
4978 Clouds 2 1002 72 10000 2.58 112 22:39 10.12.2021
4979 Clouds 2 1002 72 10000 2.92 102 21:40 10.12.2021
4980 Clouds 5 1000 74 10000 3.98 100 20:26 10.12.2021
4981 Clouds 2 999 75 10000 4.84 101 19:18 10.12.2021
4982 Clouds 2 998 80 10000 5.78 106 17:46 10.12.2021
4983 Clouds 3 998 81 10000 6.47 108 16:37 10.12.2021
4984 Clouds 3 997 80 10000 6.76 111 15:45 10.12.2021
4985 Clouds 5 996 77 10000 6.55 114 15:26 10.12.2021
4986 Clouds 3 996 77 10000 6.55 114 14:35 10.12.2021
4987 Clouds 4 996 75 10000 6.03 124 13:49 10.12.2021
4988 Clouds 3 996 77 10000 6.4 139 12:56 10.12.2021
4989 Clouds 3 996 77 10000 6.4 139 12:56 10.12.2021
4990 Clouds 3 996 81 10000 7.23 143 11:43 10.12.2021
4991 Clouds 3 996 80 10000 7.89 145 10:57 10.12.2021
4992 Clouds 2 996 82 10000 8.43 139 09:49 10.12.2021
4993 Clouds 2 996 85 10000 8.33 144 07:49 10.12.2021
4994 Clouds 3 996 90 10000 8.6 171 04:57 10.12.2021
4995 Clouds 3 997 94 10000 9.27 169 02:42 10.12.2021
4996 Clouds 3 999 92 10000 9.63 172 23:43 09.12.2021
4997 Clouds 3 1000 89 10000 9.81 180 22:43 09.12.2021
4998 Clouds 5 1000 86 10000 9.75 183 22:23 09.12.2021
4999 Clouds 3 1000 86 10000 9.75 183 21:40 09.12.2021
5000 Clouds 3 1001 86 10000 9.66 184 20:36 09.12.2021
5001 Clouds 2 1001 87 10000 9.47 180 19:45 09.12.2021
5002 Clouds 2 1001 87 10000 9.47 180 19:45 09.12.2021
5003 Clouds 5 1002 86 10000 8.66 179 19:20 09.12.2021
5004 Clouds 2 1002 85 10000 7.79 180 18:22 09.12.2021
5005 Clouds 2 1002 85 10000 7.79 180 17:48 09.12.2021
5006 Clouds 2 1002 84 10000 8 180 17:24 09.12.2021
5007 Clouds 2 1002 84 10000 8 180 16:41 09.12.2021
5008 Clouds 1 1002 83 10000 7.87 174 15:19 09.12.2021
5009 Clouds 1 1002 83 10000 7.87 174 14:43 09.12.2021
5010 Clouds 1 1002 84 10000 7.72 155 12:49 09.12.2021
5011 Clouds 5 1003 85 10000 7 164 12:24 09.12.2021
5012 Clouds 1 1003 86 10000 7.39 166 10:40 09.12.2021
5013 Clouds 1 1002 84 10000 7.29 164 07:53 09.12.2021
5014 Clouds 1 1002 84 10000 7.77 160 03:59 09.12.2021
5015 Clouds 1 1002 84 10000 8.17 158 01:43 09.12.2021
5016 Clouds 2 1002 83 10000 7.68 160 23:38 08.12.2021
5017 Clouds 1 1001 81 10000 6.82 169 22:59 08.12.2021
5018 Clouds 6 1001 80 10000 7.62 173 22:37 08.12.2021
5019 Clouds 2 1001 80 10000 7.62 173 21:39 08.12.2021
5020 Clouds 2 1001 80 10000 7.62 173 21:39 08.12.2021
5021 Clouds 2 1001 79 10000 7.62 181 20:58 08.12.2021
5022 Clouds 2 1000 79 10000 8.43 180 19:57 08.12.2021
5023 Clouds 2 1000 78 10000 8.68 179 19:29 08.12.2021
5024 Clouds 2 999 79 10000 9.64 177 18:28 08.12.2021
5025 Clouds 7 999 77 10000 10.17 175 17:24 08.12.2021
5026 Clouds 4 998 78 10000 10.68 175 15:45 08.12.2021
5027 Clouds 4 998 79 10000 10.87 176 15:23 08.12.2021
5028 Clouds 5 997 82 10000 10.63 176 13:40 08.12.2021
5029 Clouds 3 996 83 10000 11.96 185 10:45 08.12.2021
5030 Clouds 2 995 87 10000 12.91 181 10:23 08.12.2021
5031 Clouds 2 995 92 10000 13.15 170 08:54 08.12.2021
5032 Clouds 1 995 97 51 15.17 154 06:52 08.12.2021
5033 Clouds 1 998 81 10000 16.19 141 01:21 08.12.2021
5034 Rain 5 1000 80 10000 15.4 142 23:29 07.12.2021
5035 Clouds 2 1002 83 10000 13.28 155 21:26 07.12.2021
5036 Clouds 5 1002 83 10000 13.28 155 20:30 07.12.2021
5037 Clouds 3 1003 84 10000 12.73 163 19:48 07.12.2021
5038 Clouds 3 1003 80 10000 11.18 170 18:37 07.12.2021
5039 Clouds 3 1004 80 10000 8.63 184 17:27 07.12.2021
5040 Clouds 3 1004 80 10000 8.63 184 16:57 07.12.2021
5041 Clouds 3 1005 79 10000 8.12 193 16:28 07.12.2021
5042 Clouds 2 1005 81 10000 8.46 199 14:50 07.12.2021
5043 Clouds 2 1005 87 10000 8.7 189 13:46 07.12.2021
5044 Clouds 2 1006 94 10000 8.98 170 12:41 07.12.2021
5045 Clouds 1 1007 95 2398 9.23 172 11:25 07.12.2021
5046 Rain 1 1007 94 7364 8.79 167 09:44 07.12.2021
5047 Clouds 2 1006 94 2829 8.49 171 07:55 07.12.2021
5048 Clouds 1 1005 92 2930 8.37 160 05:55 07.12.2021
5049 Clouds 1 1005 92 2930 8.37 160 05:30 07.12.2021
5050 Clouds 0 1005 81 10000 13.24 153 23:45 06.12.2021
5051 Clouds 0 1006 82 10000 13.32 152 22:44 06.12.2021
5052 Clouds 0 1007 82 10000 13.16 153 22:18 06.12.2021
5053 Clouds 0 1007 82 10000 13.16 153 21:42 06.12.2021
5054 Clouds 2 1008 82 10000 13.02 157 20:33 06.12.2021
5055 Clouds 2 1009 82 10000 11.81 161 19:27 06.12.2021
5056 Clouds 2 1009 82 10000 11.81 161 18:57 06.12.2021
5057 Clouds 2 1010 82 10000 11.35 160 17:56 06.12.2021
5058 Clouds 2 1010 82 10000 11.35 160 17:36 06.12.2021
5059 Clouds 3 1011 84 10000 10.45 163 16:21 06.12.2021
5060 Clouds 3 1012 86 10000 9.6 167 14:54 06.12.2021
5061 Clouds 2 1012 85 10000 9 170 13:45 06.12.2021
5062 Clouds 2 1013 83 10000 9.04 169 12:39 06.12.2021
5063 Clouds 2 1014 78 10000 9.99 144 10:32 06.12.2021
5064 Clouds 3 1014 79 10000 9.16 133 08:35 06.12.2021
5065 Clouds 2 1015 87 10000 8.13 108 04:56 06.12.2021
5066 Clouds 1 1013 92 5664 9.72 82 22:52 05.12.2021
5067 Clouds 1 1013 93 4948 9.67 81 21:43 05.12.2021
5068 Rain 1 1012 95 568 10.48 85 21:19 05.12.2021
5069 Snow 0 1011 95 274 10.22 83 20:19 05.12.2021
5070 Clouds 0 1011 95 274 10.22 83 19:33 05.12.2021
5071 Clouds 0 1011 97 115 9.13 85 18:43 05.12.2021
5072 Snow 0 1010 97 115 11.03 91 18:19 05.12.2021
5073 Snow 0 1010 97 115 11.03 91 17:48 05.12.2021
5074 Snow 0 1009 97 180 12.02 93 16:45 05.12.2021
5075 Snow 0 1008 97 71 12.17 91 16:26 05.12.2021
5076 Clouds 0 1008 97 71 12.17 91 15:34 05.12.2021
5077 Snow 0 1006 97 63 11.85 91 14:37 05.12.2021
5078 Rain 1 1006 98 52 11.56 87 14:19 05.12.2021
5079 Clouds 2 1005 98 51 11.4 85 13:22 05.12.2021
5080 Clouds 2 1005 98 49 10.71 87 12:40 05.12.2021
5081 Clouds 2 1004 97 53 10.73 90 12:18 05.12.2021
5082 Clouds 2 1003 97 65 11.06 92 11:20 05.12.2021
5083 Clouds 2 1002 97 99 11.08 94 09:59 05.12.2021
5084 Snow 1 1000 95 3608 10.42 91 07:55 05.12.2021
5085 Rain 3 997 98 52 8.74 100 03:27 05.12.2021
5086 Rain 2 996 97 66 7.15 121 23:45 04.12.2021
5087 Rain 3 995 96 136 8.4 143 21:55 04.12.2021
5088 Rain 3 995 96 338 8.81 145 20:57 04.12.2021
5089 Clouds 4 995 91 10000 9.17 137 19:55 04.12.2021
5090 Clouds 4 994 88 10000 8.41 139 19:32 04.12.2021
5091 Clouds 4 994 88 10000 8.5 136 18:21 04.12.2021
5092 Clouds 4 994 88 10000 8.5 136 17:39 04.12.2021
5093 Clouds 4 995 87 10000 8.29 143 16:51 04.12.2021
5094 Clouds 4 995 87 10000 8.29 143 16:31 04.12.2021
5095 Clouds 4 994 87 10000 8.17 145 15:40 04.12.2021
5096 Clouds 4 996 86 10000 7.34 176 11:51 04.12.2021
5097 Clouds 4 996 86 10000 7.34 176 11:32 04.12.2021
5098 Clouds 4 997 88 10000 7.67 181 10:53 04.12.2021
5099 Clouds 4 997 88 10000 6.03 193 08:48 04.12.2021
5100 Clouds 4 996 87 10000 6.55 217 06:28 04.12.2021
5101 Clouds 5 996 84 10000 6.25 220 04:42 04.12.2021
5102 Clouds 5 997 79 10000 6.52 245 00:35 04.12.2021
5103 Clouds 5 998 78 10000 7.73 263 23:27 03.12.2021
5104 Clouds 5 998 78 10000 7.73 263 22:47 03.12.2021
5105 Clouds 5 997 80 10000 8.77 267 21:26 03.12.2021
5106 Clouds 4 997 80 10000 8.77 267 20:55 03.12.2021
5107 Clouds 4 997 82 10000 9.95 269 20:26 03.12.2021
5108 Clouds 4 996 82 10000 10.38 272 18:44 03.12.2021
5109 Clouds 4 996 88 10000 12.3 252 17:59 03.12.2021
5110 Clouds 3 997 93 2767 15.22 233 16:33 03.12.2021
5111 Clouds 4 1001 94 1613 15.34 225 13:27 03.12.2021
5112 Rain 4 1001 78 10000 14.63 237 12:20 03.12.2021
5113 Rain 3 1002 78 6473 13.53 236 10:56 03.12.2021
5114 Clouds 3 1003 63 10000 10.96 251 08:29 03.12.2021
5115 Rain 1 1003 63 10000 10.96 251 07:43 03.12.2021
5116 Rain 1 1003 63 10000 10.96 251 07:43 03.12.2021
5117 Rain 1 1003 63 10000 10.96 251 07:43 03.12.2021
5118 Clouds 1 1003 59 10000 10.88 263 05:42 03.12.2021
5119 Clouds 5 1004 52 10000 10.2 306 00:48 03.12.2021
5120 Rain 6 1004 52 10000 10.67 306 23:47 02.12.2021
5121 Clouds 5 1004 52 10000 10.24 307 22:38 02.12.2021
5122 Clouds 4 1004 53 10000 9.28 309 21:41 02.12.2021
5123 Rain 3 1004 55 10000 8.65 314 20:44 02.12.2021
5124 Rain 3 1004 51 10000 7.06 314 20:22 02.12.2021
5125 Clouds 0 1003 46 10000 7.45 319 18:47 02.12.2021
5126 Clouds 4 1002 45 10000 7.07 338 16:43 02.12.2021
5127 Clouds 4 1002 45 10000 7.75 347 15:41 02.12.2021
5128 Clouds 3 1001 46 10000 8.24 346 14:52 02.12.2021
5129 Clouds 4 1001 48 10000 7.81 350 13:39 02.12.2021
5130 Clouds 3 1000 48 10000 6.88 357 12:36 02.12.2021
5131 Clouds 4 999 53 10000 8.64 8 10:42 02.12.2021
5132 Rain 3 997 55 10000 9.67 10 09:26 02.12.2021
5133 Clouds 4 995 51 10000 10.35 354 07:20 02.12.2021
5134 Clouds 6 991 73 1805 16.09 333 01:28 02.12.2021
5135 Rain 5 991 73 1805 16.09 333 00:35 02.12.2021
5136 Clouds 6 989 75 2827 18.1 330 22:32 01.12.2021
5137 Clouds 6 987 77 3296 18.99 330 21:44 01.12.2021
5138 Rain 6 983 92 4657 22.45 326 20:24 01.12.2021
5139 Rain 6 983 92 4657 22.45 326 19:46 01.12.2021
5140 Rain 7 979 96 789 23.64 316 18:55 01.12.2021
5141 Clouds 7 974 92 7156 15.89 306 17:32 01.12.2021
5142 Clouds 7 973 91 10000 16.26 267 16:36 01.12.2021
5143 Clouds 7 973 88 10000 17.96 254 14:39 01.12.2021
5144 Clouds 9 973 86 10000 17.22 251 13:37 01.12.2021
5145 Clouds 9 979 86 10000 16.04 208 11:26 01.12.2021
5146 Clouds 9 979 86 10000 16.04 208 10:40 01.12.2021
5147 Clouds 9 982 90 10000 16.38 222 08:53 01.12.2021
5148 Clouds 9 982 93 7587 15.46 216 08:26 01.12.2021
5149 Clouds 9 982 93 7587 15.46 216 07:32 01.12.2021
5150 Clouds 8 990 96 9513 13.39 195 04:18 01.12.2021
5151 Rain 7 990 96 9513 13.39 195 03:32 01.12.2021
5152 Rain 6 997 80 10000 9.46 183 00:45 01.12.2021
5153 Rain 6 999 70 10000 6.79 192 23:35 30.11.2021
5154 Clouds 6 1000 63 10000 5.02 230 22:39 30.11.2021
5155 Clouds 8 1002 59 10000 6.41 293 20:53 30.11.2021
5156 Clouds 8 1002 59 10000 6.41 293 20:34 30.11.2021
5157 Clouds 8 1002 60 10000 8.32 307 19:51 30.11.2021
5158 Clouds 8 1002 61 10000 9.87 317 19:27 30.11.2021
5159 Clouds 8 1001 62 10000 12.26 315 18:24 30.11.2021
5160 Clouds 8 1000 64 10000 14.36 316 16:25 30.11.2021
5161 Clouds 8 1000 66 10000 15.43 316 14:35 30.11.2021
5162 Clouds 8 999 64 10000 15.85 316 13:52 30.11.2021
5163 Clouds 8 999 67 10000 16.6 318 13:24 30.11.2021
5164 Clouds 8 999 67 10000 16.6 318 13:24 30.11.2021
5165 Clouds 8 999 64 10000 16.78 318 12:44 30.11.2021
5166 Clouds 8 998 65 10000 16.64 314 11:27 30.11.2021
5167 Clouds 8 998 65 10000 16.64 314 10:47 30.11.2021
5168 Clouds 8 998 67 10000 16.85 312 10:29 30.11.2021
5169 Clouds 8 997 67 10000 16.07 311 08:51 30.11.2021
5170 Rain 8 997 68 10000 15.92 313 08:20 30.11.2021
5171 Clouds 8 997 68 10000 15.92 313 07:39 30.11.2021
5172 Rain 4 1000 94 8605 15.51 250 01:58 30.11.2021
5173 Rain 4 1000 94 8605 15.51 250 01:38 30.11.2021
5174 Rain 4 1003 61 10000 11.43 256 23:57 29.11.2021
5175 Clouds 4 1004 67 10000 8.46 251 23:21 29.11.2021
5176 Rain 4 1004 67 10000 8.46 251 22:47 29.11.2021
5177 Clouds 4 1006 90 9593 7.17 231 22:29 29.11.2021
5178 Rain 3 1007 80 10000 6.23 245 21:22 29.11.2021
5179 Clouds 3 1007 80 10000 6.23 245 20:56 29.11.2021
5180 Clouds 3 1007 63 10000 3.73 263 20:23 29.11.2021
5181 Clouds 4 1007 63 10000 3.73 263 19:54 29.11.2021
5182 Clouds 4 1007 63 10000 3.73 263 19:33 29.11.2021
5183 Clouds 4 1007 61 10000 2.42 296 18:48 29.11.2021
5184 Clouds 5 1008 62 10000 4.24 342 17:22 29.11.2021
5185 Clouds 5 1008 62 10000 4.24 342 16:59 29.11.2021
5186 Clouds 5 1008 64 10000 5.4 355 16:29 29.11.2021
5187 Clouds 5 1008 66 10000 5.83 2 15:32 29.11.2021
5188 Clouds 5 1008 66 10000 5.83 2 14:42 29.11.2021
5189 Clouds 5 1007 68 10000 6.18 15 13:32 29.11.2021
5190 Clouds 5 1006 74 10000 7.84 44 12:28 29.11.2021
5191 Clouds 5 1006 74 10000 7.84 44 11:35 29.11.2021
5192 Clouds 6 1006 77 10000 8.78 46 10:32 29.11.2021
5193 Rain 1 1004 75 10000 8.84 39 09:25 29.11.2021
5194 Clouds 6 1001 69 10000 7.95 28 06:20 29.11.2021
5195 Clouds 1 999 62 10000 5.13 54 01:40 29.11.2021
5196 Clouds 6 999 61 10000 3.99 43 00:39 29.11.2021
5197 Clouds 6 998 64 10000 3.92 38 23:43 28.11.2021
5198 Clouds 1 998 67 10000 3.17 26 22:47 28.11.2021
5199 Clouds 1 998 70 10000 2.69 19 21:42 28.11.2021
5200 Rain 1 997 71 10000 3.68 30 21:19 28.11.2021
5201 Rain 1 997 71 10000 4.99 39 20:23 28.11.2021
5202 Clouds 0 996 72 10000 5.25 36 18:46 28.11.2021
5203 Clouds 6 996 69 10000 5.05 40 18:27 28.11.2021
5204 Clouds 1 996 69 10000 5.05 40 17:54 28.11.2021
5205 Clouds 6 996 69 10000 5.05 40 17:31 28.11.2021
5206 Clouds 2 995 68 10000 4.46 1 16:37 28.11.2021
5207 Clouds 3 995 70 10000 5.85 343 16:18 28.11.2021
5208 Clouds 6 995 70 10000 5.85 343 15:31 28.11.2021
5209 Clouds 4 995 70 10000 5.48 344 14:44 28.11.2021
5210 Rain 5 995 66 10000 7.57 344 12:58 28.11.2021
5211 Clouds 5 995 66 10000 7.57 344 12:37 28.11.2021
5212 Clouds 3 996 67 10000 6.18 355 10:54 28.11.2021
5213 Clouds 7 995 68 10000 6 5 10:20 28.11.2021
5214 Clouds 3 995 68 10000 6 5 09:37 28.11.2021
5215 Clouds 3 995 70 10000 7.72 6 07:32 28.11.2021
5216 Clouds 2 994 86 4633 6.91 45 23:56 27.11.2021
5217 Clouds 2 993 96 104 6.42 61 20:51 27.11.2021
5218 Rain 2 992 97 94 6.69 68 19:18 27.11.2021
5219 Rain 2 992 97 94 6.69 68 19:18 27.11.2021
5220 Clouds 5 992 95 579 7.23 102 17:27 27.11.2021
5221 Clouds 3 991 94 2727 7.54 102 15:57 27.11.2021
5222 Clouds 3 990 96 731 7.77 102 13:48 27.11.2021
5223 Clouds 3 990 97 81 8.22 106 12:55 27.11.2021
5224 Clouds 3 989 97 62 9.5 106 10:52 27.11.2021
5225 Clouds 3 989 97 61 9.91 105 09:53 27.11.2021
5226 Rain 2 988 97 65 10.18 108 08:43 27.11.2021
5227 Rain 3 986 95 1245 10.64 117 06:34 27.11.2021
5228 Clouds 3 985 96 187 11.84 133 01:58 27.11.2021
5229 Rain 3 985 97 313 12.49 144 23:38 26.11.2021
5230 Clouds 5 985 97 75 13.06 156 22:25 26.11.2021
5231 Rain 4 985 97 75 13.06 156 21:38 26.11.2021
5232 Rain 4 985 97 61 13.38 163 21:18 26.11.2021
5233 Rain 5 985 97 66 13.9 170 20:29 26.11.2021
5234 Rain 4 985 97 66 13.9 170 19:49 26.11.2021
5235 Rain 4 985 97 127 14.66 173 18:43 26.11.2021
5236 Clouds 6 986 78 10000 15.77 178 17:24 26.11.2021
5237 Clouds 6 986 82 10000 14.51 176 16:29 26.11.2021
5238 Clouds 5 988 80 10000 13.32 188 13:37 26.11.2021
5239 Clouds 5 990 76 10000 12.95 196 12:55 26.11.2021
5240 Clouds 4 992 78 10000 12.26 204 10:42 26.11.2021
5241 Clouds 4 993 79 7798 11.18 212 09:41 26.11.2021
5242 Clouds 4 994 81 5311 10.59 220 08:49 26.11.2021
5243 Clouds 4 995 74 9763 9.15 231 08:19 26.11.2021
5244 Rain 4 997 69 2874 7.16 255 06:29 26.11.2021
5245 Rain 4 998 62 6185 7.03 264 04:52 26.11.2021
5246 Clouds 4 999 58 10000 6.78 277 03:32 26.11.2021
5247 Clouds 7 1003 62 10000 9.35 302 23:30 25.11.2021
5248 Clouds 7 1005 60 10000 9.83 313 22:19 25.11.2021
5249 Clouds 6 1005 60 10000 10.34 318 20:41 25.11.2021
5250 Rain 8 1005 58 10000 11.29 328 19:21 25.11.2021
5251 Clouds 8 1005 62 10000 12.4 327 18:19 25.11.2021
5252 Rain 8 1005 62 10000 12.9 317 17:27 25.11.2021
5253 Clouds 8 1005 62 10000 12.9 317 16:44 25.11.2021
5254 Clouds 8 1005 61 10000 12.35 308 15:58 25.11.2021
5255 Clouds 9 1005 58 10000 12.42 302 14:30 25.11.2021
5256 Clouds 9 1006 60 10000 10.97 302 12:55 25.11.2021
5257 Clouds 8 1006 64 10000 11.61 300 11:56 25.11.2021
5258 Rain 7 1007 59 10000 11.04 295 10:34 25.11.2021
5259 Clouds 5 1007 78 10000 7.63 278 06:36 25.11.2021
5260 Clouds 6 1010 86 10000 9.16 228 02:58 25.11.2021
5261 Clouds 7 1012 84 10000 9.58 224 00:37 25.11.2021
5262 Clouds 7 1014 80 10000 9.76 223 22:29 24.11.2021
5263 Clouds 7 1014 80 10000 9.76 223 21:48 24.11.2021
5264 Clouds 7 1014 81 10000 9.37 221 21:21 24.11.2021
5265 Clouds 7 1015 81 10000 9.18 221 20:27 24.11.2021
5266 Clouds 7 1015 81 10000 9.18 221 19:36 24.11.2021
5267 Clouds 7 1016 80 10000 9.27 228 18:19 24.11.2021
5268 Clouds 8 1017 81 10000 9.79 233 16:21 24.11.2021
5269 Clouds 8 1018 82 10000 10.14 234 14:58 24.11.2021
5270 Clouds 8 1018 80 10000 9.29 241 14:21 24.11.2021
5271 Clouds 8 1018 80 10000 9.29 241 13:34 24.11.2021
5272 Clouds 8 1021 78 10000 8.06 245 11:26 24.11.2021
5273 Clouds 8 1021 78 10000 8.06 245 10:58 24.11.2021
5274 Clouds 8 1021 78 10000 8.06 245 10:36 24.11.2021
5275 Clouds 7 1021 76 10000 7.6 247 09:33 24.11.2021
5276 Clouds 7 1022 74 10000 7.09 260 07:41 24.11.2021
5277 Clouds 8 1023 74 10000 7.29 282 05:38 24.11.2021
5278 Clouds 9 1023 73 10000 6.65 291 03:44 24.11.2021
5279 Clouds 9 1026 71 10000 7.21 310 23:33 23.11.2021
5280 Clouds 9 1026 71 10000 7.21 310 22:39 23.11.2021
5281 Clouds 9 1026 70 10000 7.7 316 21:45 23.11.2021
5282 Clouds 9 1026 67 10000 7.98 317 20:23 23.11.2021
5283 Clouds 10 1026 67 10000 7.98 317 19:34 23.11.2021
5284 Clouds 9 1026 69 10000 7.83 314 18:34 23.11.2021
5285 Clouds 9 1026 68 10000 8.19 319 17:41 23.11.2021
5286 Clouds 10 1026 67 10000 8.5 323 16:37 23.11.2021
5287 Clouds 12 1026 70 10000 7.98 320 15:27 23.11.2021
5288 Clouds 12 1026 70 10000 7.98 320 14:56 23.11.2021
5289 Clouds 11 1026 70 10000 8.71 323 13:29 23.11.2021
5290 Clouds 10 1026 69 10000 8.65 322 10:28 23.11.2021
5291 Clouds 9 1026 69 10000 8.65 322 09:48 23.11.2021
5292 Clouds 9 1026 71 10000 8.97 323 08:43 23.11.2021
5293 Clouds 10 1025 71 10000 10.54 322 05:25 23.11.2021
5294 Clouds 10 1025 71 10000 10.61 323 03:37 23.11.2021
5295 Clouds 9 1025 80 10000 8.68 321 23:43 22.11.2021
5296 Clouds 9 1025 81 10000 9.01 321 23:20 22.11.2021
5297 Clouds 9 1025 81 10000 9.01 321 22:31 22.11.2021
5298 Clouds 9 1025 81 10000 9.44 317 21:45 22.11.2021
5299 Clouds 9 1025 82 10000 9.24 304 21:21 22.11.2021
5300 Clouds 9 1025 82 10000 9.24 304 20:43 22.11.2021
5301 Clouds 9 1026 76 10000 9.24 312 19:24 22.11.2021
5302 Clouds 9 1026 78 10000 9.41 306 18:50 22.11.2021
5303 Clouds 9 1026 76 10000 9.24 312 18:31 22.11.2021
5304 Clouds 9 1026 67 10000 9.63 314 16:50 22.11.2021
5305 Clouds 12 1026 65 10000 9.51 316 15:39 22.11.2021
5306 Clouds 8 1026 60 10000 9.19 334 12:56 22.11.2021
5307 Clouds 7 1026 59 10000 8.13 340 11:39 22.11.2021
5308 Clouds 3 1025 58 10000 7 345 10:36 22.11.2021
5309 Clouds -1 1025 64 10000 4.88 353 08:46 22.11.2021
5310 Clear 1 1024 63 10000 5.13 355 08:25 22.11.2021
5311 Clear 7 1022 65 10000 7.59 24 02:31 22.11.2021
5312 Clouds 7 1019 66 10000 9.34 33 23:23 21.11.2021
5313 Clouds 7 1019 66 10000 9.34 33 22:46 21.11.2021
5314 Clouds 7 1018 68 10000 10.52 34 21:40 21.11.2021
5315 Clouds 8 1017 70 10000 10.94 34 20:41 21.11.2021
5316 Clouds 6 1015 71 10000 11.69 35 19:45 21.11.2021
5317 Clouds 6 1012 74 10000 10.79 29 17:59 21.11.2021
5318 Clouds 6 1012 74 10000 10.79 29 17:37 21.11.2021
5319 Clouds 10 1009 64 10000 9.33 338 15:25 21.11.2021
5320 Clouds 9 1009 64 10000 9.33 338 14:44 21.11.2021
5321 Clouds 9 1009 61 10000 9.45 326 13:40 21.11.2021
5322 Clouds 10 1009 61 10000 10.18 332 12:32 21.11.2021
5323 Clouds 9 1009 68 10000 8.98 331 11:42 21.11.2021
5324 Clouds 11 1008 64 10000 10.15 307 10:20 21.11.2021
5325 Clouds 11 1008 64 10000 10.15 307 10:20 21.11.2021
5326 Clouds 8 1008 64 10000 10.15 307 09:59 21.11.2021
5327 Clouds 7 1007 67 10000 11.35 300 08:35 21.11.2021
5328 Clear 7 1006 66 10000 11.81 297 07:57 21.11.2021
5329 Clear 7 1006 66 10000 11.81 297 07:39 21.11.2021
5330 Clouds 9 1007 63 10000 11.92 296 05:47 21.11.2021
5331 Clouds 9 1007 64 10000 11.45 302 04:35 21.11.2021
5332 Clouds 9 1008 75 10000 10.41 305 03:18 21.11.2021
5333 Clouds 9 1008 75 10000 10.41 305 02:42 21.11.2021
5334 Rain 9 1008 90 10000 12.37 267 00:53 21.11.2021
5335 Clouds 11 1010 87 10000 11.62 257 23:22 20.11.2021
5336 Clouds 9 1010 88 10000 11.53 261 21:39 20.11.2021
5337 Clouds 9 1011 85 10000 11.03 265 20:39 20.11.2021
5338 Clouds 10 1013 83 10000 11.4 267 18:46 20.11.2021
5339 Clouds 10 1013 83 10000 11.4 267 18:46 20.11.2021
5340 Clouds 11 1013 84 10000 11.28 265 18:25 20.11.2021
5341 Clouds 10 1014 85 10000 11.33 264 17:22 20.11.2021
5342 Clouds 10 1014 85 10000 11.33 264 17:22 20.11.2021
5343 Clouds 9 1014 85 10000 11.33 264 16:41 20.11.2021
5344 Clouds 10 1016 87 10000 11.87 260 14:40 20.11.2021
5345 Clouds 10 1017 88 10000 11.84 254 14:21 20.11.2021
5346 Clouds 11 1018 88 10000 11.43 248 11:56 20.11.2021
5347 Clouds 12 1020 89 10000 10.74 258 10:29 20.11.2021
5348 Clouds 11 1021 89 10000 10.42 259 08:57 20.11.2021
5349 Clear 12 1021 88 10000 10.64 262 07:20 20.11.2021
5350 Clear 12 1022 89 10000 10.2 263 05:25 20.11.2021
5351 Clear 11 1022 89 10000 10.2 263 04:50 20.11.2021
5352 Clear 11 1023 90 10000 8.98 273 01:41 20.11.2021
5353 Clouds 11 1023 90 10000 9.24 275 00:38 20.11.2021
5354 Clouds 11 1023 90 10000 9.68 274 22:55 19.11.2021
5355 Clouds 12 1023 90 10000 9.83 272 21:58 19.11.2021
5356 Clouds 11 1023 90 10000 9.68 276 20:57 19.11.2021
5357 Clouds 11 1023 90 10000 9.68 276 20:36 19.11.2021
5358 Clouds 12 1023 89 10000 10.08 281 19:50 19.11.2021
5359 Clouds 11 1023 89 10000 10.76 280 18:53 19.11.2021
5360 Clouds 12 1023 91 10000 11.14 278 18:22 19.11.2021
5361 Clouds 12 1023 91 10000 11.28 278 17:26 19.11.2021
5362 Clouds 12 1022 90 10000 11.48 278 15:32 19.11.2021
5363 Clouds 12 1023 80 10000 12.3 279 13:25 19.11.2021
5364 Clouds 12 1023 83 10000 12.23 280 10:27 19.11.2021
5365 Clouds 12 1023 83 10000 12.23 280 10:27 19.11.2021
5366 Clouds 11 1023 83 10000 12.23 280 09:37 19.11.2021
5367 Clouds 12 1022 91 10000 11.55 271 08:20 19.11.2021
5368 Clouds 12 1021 92 10000 12.18 264 04:51 19.11.2021
5369 Clouds 12 1021 92 10000 12.31 266 02:27 19.11.2021
5370 Clouds 11 1021 90 10000 12.63 267 23:51 18.11.2021
5371 Clouds 11 1021 91 10000 11.7 270 21:56 18.11.2021
5372 Clouds 11 1020 91 10000 12.27 273 20:49 18.11.2021
5373 Clouds 13 1020 92 10000 12.24 271 20:31 18.11.2021
5374 Clouds 11 1020 92 10000 12.24 271 19:52 18.11.2021
5375 Clouds 11 1020 92 10000 12.24 271 19:33 18.11.2021
5376 Clouds 10 1020 93 10000 12.31 269 18:33 18.11.2021
5377 Clouds 10 1020 93 10000 12.62 268 17:51 18.11.2021
5378 Clouds 10 1020 93 10000 13.53 266 16:44 18.11.2021
5379 Clouds 10 1019 93 10000 13.72 261 15:49 18.11.2021
5380 Clouds 9 1019 92 10000 14.15 257 13:40 18.11.2021
5381 Clouds 9 1020 91 10000 14.73 251 12:34 18.11.2021
5382 Rain 9 1020 89 10000 14.32 243 11:43 18.11.2021
5383 Rain 9 1021 88 10000 12.76 241 11:24 18.11.2021
5384 Clouds 9 1021 87 10000 11.28 247 09:59 18.11.2021
5385 Clouds 8 1021 83 10000 10.76 261 07:35 18.11.2021
5386 Clouds 8 1020 79 10000 10.54 274 05:59 18.11.2021
5387 Clouds 8 1020 79 10000 10.54 274 05:39 18.11.2021
5388 Clouds 11 1020 73 10000 10.82 281 01:24 18.11.2021
5389 Clouds 11 1019 68 10000 10.92 285 23:25 17.11.2021
5390 Clouds 7 1019 68 10000 10.92 285 22:34 17.11.2021
5391 Clouds 7 1019 67 10000 10.72 289 21:54 17.11.2021
5392 Clouds 7 1019 67 10000 10.72 289 21:34 17.11.2021
5393 Rain 11 1018 64 10000 11.09 292 19:27 17.11.2021
5394 Clear 11 1017 63 10000 10.83 292 17:31 17.11.2021
5395 Clear 11 1016 68 10000 11.6 290 15:23 17.11.2021
5396 Clouds 8 1015 71 10000 11.27 289 12:51 17.11.2021
5397 Clouds 8 1015 72 10000 10.85 290 12:25 17.11.2021
5398 Clouds 6 1014 76 10000 10.41 288 10:51 17.11.2021
5399 Clouds 6 1013 93 10000 12.4 225 09:29 17.11.2021
5400 Clouds 5 1014 92 10000 11.93 220 07:46 17.11.2021
5401 Clouds 4 1014 89 10000 10.86 219 06:42 17.11.2021
5402 Clouds 4 1016 78 10000 7.21 233 02:43 17.11.2021
5403 Clouds 8 1018 77 10000 6.42 231 23:27 16.11.2021
5404 Clouds 8 1018 77 10000 5.91 227 22:20 16.11.2021
5405 Clouds 4 1019 79 10000 5.51 226 20:19 16.11.2021
5406 Clouds 4 1019 78 10000 5.32 222 19:23 16.11.2021
5407 Clouds 4 1019 78 10000 5.32 222 18:38 16.11.2021
5408 Clouds 4 1020 79 10000 5.06 219 17:44 16.11.2021
5409 Clouds 4 1020 80 10000 4.48 216 16:59 16.11.2021
5410 Clouds 4 1020 79 10000 3.91 202 16:19 16.11.2021
5411 Clouds 4 1020 79 10000 3.91 202 15:42 16.11.2021
5412 Clouds 4 1021 76 10000 3.7 168 13:42 16.11.2021
5413 Clouds 7 1024 73 10000 3.7 128 10:22 16.11.2021
5414 Clouds 4 1024 73 10000 3.7 128 09:39 16.11.2021
5415 Clouds 4 1024 73 10000 3.93 121 07:41 16.11.2021
5416 Clouds 4 1024 73 10000 3.69 122 06:43 16.11.2021
5417 Clouds 8 1027 76 10000 6.4 107 23:26 15.11.2021
5418 Clouds 6 1027 76 10000 6.4 107 22:41 15.11.2021
5419 Clouds 6 1027 76 10000 5.58 107 21:57 15.11.2021
5420 Clouds 8 1027 76 10000 5.58 107 21:31 15.11.2021
5421 Clouds 6 1028 75 10000 5.06 112 20:43 15.11.2021
5422 Clouds 8 1028 78 10000 5.8 109 19:26 15.11.2021
5423 Clouds 6 1027 79 10000 6.12 109 17:33 15.11.2021
5424 Clouds 6 1027 80 10000 5.69 108 15:52 15.11.2021
5425 Clouds 8 1028 80 10000 5.38 112 15:33 15.11.2021
5426 Clouds 8 1028 81 10000 5.42 108 14:27 15.11.2021
5427 Clouds 6 1028 81 10000 5.67 113 12:38 15.11.2021
5428 Clouds 6 1029 81 10000 5.73 118 10:33 15.11.2021
5429 Clouds 8 1029 81 10000 6.19 119 09:22 15.11.2021
5430 Clouds 8 1029 82 10000 7.04 120 07:23 15.11.2021
5431 Clouds 7 1029 79 10000 6.37 114 00:56 15.11.2021
5432 Clouds 7 1029 76 10000 7.1 110 22:44 14.11.2021
5433 Clouds 8 1029 76 10000 7.11 111 21:45 14.11.2021
5434 Clouds 11 1028 74 10000 7.56 95 19:22 14.11.2021
5435 Clouds 8 1028 74 10000 7.56 95 18:55 14.11.2021
5436 Clouds 8 1028 74 10000 7.56 95 18:36 14.11.2021
5437 Clouds 8 1027 75 10000 7.96 92 18:18 14.11.2021
5438 Clouds 8 1027 75 10000 7.96 92 17:58 14.11.2021
5439 Clouds 8 1027 75 10000 7.96 92 17:40 14.11.2021
5440 Clouds 11 1027 76 10000 7.88 89 17:22 14.11.2021
5441 Clouds 8 1027 77 10000 7.63 89 16:58 14.11.2021
5442 Clouds 8 1027 77 10000 7.63 89 16:40 14.11.2021
5443 Clouds 9 1027 79 10000 7.22 80 16:18 14.11.2021
5444 Clouds 9 1026 80 10000 6.7 81 15:20 14.11.2021
5445 Clouds 9 1026 80 10000 6.7 81 14:45 14.11.2021
5446 Clouds 11 1026 81 10000 6.96 80 14:22 14.11.2021
5447 Clouds 9 1026 81 10000 6.96 80 13:52 14.11.2021
5448 Clouds 11 1026 81 10000 6.98 79 13:27 14.11.2021
5449 Clouds 9 1025 81 10000 6.84 79 12:23 14.11.2021
5450 Clouds 8 1025 79 10000 6.99 81 11:25 14.11.2021
5451 Clouds 8 1025 79 10000 6.99 81 10:38 14.11.2021
5452 Clouds 10 1024 80 10000 7.41 81 09:27 14.11.2021
5453 Clouds 7 1024 80 10000 7.41 81 08:51 14.11.2021
5454 Clouds 7 1021 87 10000 8.03 74 04:47 14.11.2021
5455 Clouds 7 1018 87 10000 5.15 67 23:20 13.11.2021
5456 Clouds 7 1017 87 10000 4.76 70 22:20 13.11.2021
5457 Clouds 7 1017 87 10000 4.76 70 21:35 13.11.2021
5458 Clouds 8 1016 88 10000 4.63 78 20:46 13.11.2021
5459 Clouds 10 1016 89 10000 4.88 83 19:32 13.11.2021
5460 Clouds 8 1015 89 10000 4.91 94 18:32 13.11.2021
5461 Clouds 8 1014 89 10000 4.33 108 17:41 13.11.2021
5462 Clouds 11 1013 89 10000 3.53 147 16:29 13.11.2021
5463 Clouds 8 1012 90 10000 3.59 154 14:45 13.11.2021
5464 Clouds 8 1011 90 10000 3.63 157 13:56 13.11.2021
5465 Clouds 8 1011 89 10000 2.72 171 12:43 13.11.2021
5466 Clouds 7 1011 90 10000 3.21 177 11:57 13.11.2021
5467 Clouds 10 1010 91 10000 3.82 197 11:24 13.11.2021
5468 Clouds 7 1010 91 10000 3.82 197 10:39 13.11.2021
5469 Clouds 7 1010 91 10000 5.06 202 09:49 13.11.2021
5470 Clouds 10 1010 91 10000 5.06 202 09:31 13.11.2021
5471 Clouds 7 1009 92 10000 6.51 196 08:49 13.11.2021
5472 Clouds 6 1008 92 10000 7.16 192 07:54 13.11.2021
5473 Clouds 6 1007 91 10000 9.03 184 04:43 13.11.2021
5474 Rain 9 1007 89 10000 8.65 187 04:20 13.11.2021
5475 Clouds 6 1008 81 10000 9.22 187 00:19 13.11.2021
5476 Clouds 7 1009 73 10000 9.37 188 22:42 12.11.2021
5477 Clouds 7 1010 66 10000 10.01 183 20:54 12.11.2021
5478 Clouds 7 1010 65 10000 10.71 178 19:40 12.11.2021
5479 Clouds 10 1011 65 10000 10.56 176 19:22 12.11.2021
5480 Clouds 10 1011 62 10000 10.77 178 18:20 12.11.2021
5481 Clouds 8 1012 71 10000 10.4 174 16:19 12.11.2021
5482 Clouds 9 1013 79 10000 9.83 164 14:53 12.11.2021
5483 Clouds 9 1016 81 10000 7.53 185 11:31 12.11.2021
5484 Clouds 9 1017 81 10000 8.37 190 10:48 12.11.2021
5485 Clear 8 1018 82 10000 8.83 194 09:29 12.11.2021
5486 Clear 8 1018 82 10000 8.83 194 08:38 12.11.2021
5487 Clouds 11 1021 92 10000 5.8 201 02:22 12.11.2021
5488 Clouds 9 1022 84 10000 3.86 218 23:33 11.11.2021
5489 Clouds 12 1022 81 10000 2.92 233 22:30 11.11.2021
5490 Clouds 12 1022 79 10000 3.77 274 21:27 11.11.2021
5491 Clouds 10 1022 79 10000 3.77 274 20:38 11.11.2021
5492 Clouds 10 1022 82 10000 5.2 281 18:56 11.11.2021
5493 Clouds 10 1021 82 10000 5.69 283 17:43 11.11.2021
5494 Clouds 10 1021 81 10000 6.18 278 16:40 11.11.2021
5495 Clouds 10 1021 83 10000 6.54 271 14:46 11.11.2021
5496 Clouds 12 1021 85 10000 6.3 274 14:28 11.11.2021
5497 Clouds 10 1021 85 10000 6.3 274 13:37 11.11.2021
5498 Clouds 10 1021 86 10000 5.71 271 12:48 11.11.2021
5499 Clouds 9 1022 86 10000 5.51 277 10:36 11.11.2021
5500 Clouds 9 1021 86 10000 5.28 283 09:33 11.11.2021
5501 Clouds 9 1021 92 10000 5.45 294 07:38 11.11.2021
5502 Clouds 9 1021 94 10000 4.02 252 03:58 11.11.2021
5503 Clouds 8 1022 90 10000 0.92 255 23:00 10.11.2021
5504 Clouds 12 1022 90 10000 1.41 306 22:22 10.11.2021
5505 Clouds 12 1022 91 10000 2.04 295 21:21 10.11.2021
5506 Clouds 8 1022 91 10000 2.04 295 20:46 10.11.2021
5507 Clouds 8 1022 92 10000 2.37 265 19:47 10.11.2021
5508 Clouds 8 1022 92 10000 2.38 265 19:47 10.11.2021
5509 Clouds 8 1022 92 10000 3.25 242 18:33 10.11.2021
5510 Clouds 8 1022 93 10000 4.15 256 16:34 10.11.2021
5511 Clouds 12 1021 92 10000 8.1 240 15:28 10.11.2021
5512 Clouds 10 1022 91 10000 8.19 238 13:43 10.11.2021
5513 Clouds 10 1022 90 10000 8.43 239 12:50 10.11.2021
5514 Clouds 9 1022 89 10000 9.23 231 10:48 10.11.2021
5515 Clouds 8 1022 88 10000 9.39 226 08:45 10.11.2021
5516 Clouds 8 1022 86 10000 9.08 227 07:48 10.11.2021
5517 Clouds 12 1022 84 10000 8.76 224 06:26 10.11.2021
5518 Clouds 8 1022 84 10000 8.76 224 05:51 10.11.2021
5519 Clouds 8 1023 84 10000 10.07 220 23:55 09.11.2021
5520 Clouds 10 1024 85 10000 10.59 217 21:50 09.11.2021
5521 Clouds 10 1024 85 10000 10.59 217 21:50 09.11.2021
5522 Clouds 11 1024 84 10000 10.37 217 20:32 09.11.2021
5523 Clouds 11 1023 84 10000 10.33 214 20:32 09.11.2021
5524 Clouds 10 1023 84 10000 10.42 215 19:25 09.11.2021
5525 Clouds 10 1023 84 10000 10.5 216 17:57 09.11.2021
5526 Clouds 10 1023 85 10000 10.95 218 16:24 09.11.2021
5527 Clouds 11 1023 84 10000 11.12 220 14:44 09.11.2021
5528 Clouds 10 1023 79 10000 11.87 215 12:53 09.11.2021
5529 Clouds 9 1023 79 10000 11.9 214 11:58 09.11.2021
5530 Clouds 9 1023 79 10000 11.88 213 10:45 09.11.2021
5531 Clouds 8 1023 80 10000 11.72 211 09:35 09.11.2021
5532 Clouds 7 1023 79 10000 10.96 211 08:27 09.11.2021
5533 Clouds 8 1022 78 10000 9.56 219 05:57 09.11.2021
5534 Clouds 12 1022 70 10000 5.94 230 02:25 09.11.2021
5535 Clouds 8 1022 70 10000 5.94 230 01:47 09.11.2021
5536 Clouds 9 1022 66 10000 4.73 258 00:18 09.11.2021
5537 Clouds 9 1022 68 10000 5.45 270 22:59 08.11.2021
5538 Clouds 12 1022 73 10000 5.47 280 22:32 08.11.2021
5539 Clouds 12 1022 77 10000 6.16 287 21:20 08.11.2021
5540 Clouds 9 1021 76 10000 6.28 286 19:56 08.11.2021
5541 Clouds 9 1020 76 10000 5.85 284 18:57 08.11.2021
5542 Clouds 12 1020 75 10000 6.56 303 17:23 08.11.2021
5543 Clouds 12 1019 76 10000 7.35 307 15:31 08.11.2021
5544 Clouds 11 1018 78 10000 8.42 308 14:53 08.11.2021
5545 Clouds 10 1018 79 10000 9.07 306 13:56 08.11.2021
5546 Clouds 9 1018 80 10000 9.73 301 12:44 08.11.2021
5547 Clouds 12 1017 80 10000 10.33 287 11:27 08.11.2021
5548 Clouds 8 1016 79 10000 10.49 290 10:00 08.11.2021
5549 Clouds 7 1016 80 10000 10.05 288 08:56 08.11.2021
5550 Clouds 7 1015 82 10000 10.39 263 07:38 08.11.2021
5551 Clouds 9 1015 79 10000 9.98 257 06:50 08.11.2021
5552 Clouds 9 1014 72 10000 11.3 293 03:34 08.11.2021
5553 Clouds 10 1012 72 10000 12.3 301 23:51 07.11.2021
5554 Clouds 12 1011 75 10000 13.64 306 22:30 07.11.2021
5555 Clouds 12 1010 78 10000 14.55 308 21:22 07.11.2021
5556 Clouds 10 1009 80 10000 15.24 307 19:55 07.11.2021
5557 Clouds 11 1007 81 10000 16.34 297 18:26 07.11.2021
5558 Clouds 9 1007 81 10000 16.34 297 17:38 07.11.2021
5559 Clouds 9 1007 76 10000 15.33 292 15:55 07.11.2021
5560 Rain 10 1007 75 10000 15.8 293 14:42 07.11.2021
5561 Rain 10 1007 72 10000 15.37 289 13:55 07.11.2021
5562 Rain 10 1007 71 10000 15.54 288 11:54 07.11.2021
5563 Clouds 11 1007 66 10000 15.4 286 10:22 07.11.2021
5564 Clouds 9 1007 66 10000 15.44 289 08:48 07.11.2021
5565 Rain 10 1007 79 10000 14.31 280 02:49 07.11.2021
5566 Rain 9 1009 91 10000 14.98 244 23:42 06.11.2021
5567 Rain 10 1010 90 10000 15.86 240 22:52 06.11.2021
5568 Rain 10 1012 85 10000 15.52 234 21:36 06.11.2021
5569 Rain 10 1012 85 10000 15.52 234 20:52 06.11.2021
5570 Clouds 10 1013 86 10000 15.9 238 19:39 06.11.2021
5571 Clouds 12 1016 84 10000 14.58 238 17:25 06.11.2021
5572 Clouds 10 1016 84 10000 13.94 239 15:39 06.11.2021
5573 Clouds 10 1018 83 10000 13.13 243 13:39 06.11.2021
5574 Clouds 10 1019 83 10000 12.88 245 12:38 06.11.2021
5575 Clouds 9 1021 81 10000 11.07 242 09:49 06.11.2021
5576 Clouds 13 1021 77 10000 10.39 253 08:24 06.11.2021
5577 Clouds 9 1021 76 10000 10.45 283 03:20 06.11.2021
5578 Clouds 9 1021 78 10000 11.44 274 23:40 05.11.2021
5579 Clouds 10 1021 77 10000 11.17 279 22:52 05.11.2021
5580 Clouds 9 1021 77 10000 11.35 283 21:55 05.11.2021
5581 Clouds 9 1020 79 10000 11.77 286 20:21 05.11.2021
5582 Clouds 9 1020 77 10000 11.57 290 19:50 05.11.2021
5583 Rain 9 1019 78 10000 11.71 287 18:42 05.11.2021
5584 Clouds 10 1019 79 10000 11.83 279 17:42 05.11.2021
5585 Clouds 11 1019 77 10000 11.89 283 16:35 05.11.2021
5586 Clouds 10 1018 73 10000 10.43 287 13:59 05.11.2021
5587 Clouds 11 1018 68 10000 11.12 302 11:45 05.11.2021
5588 Clouds 9 1016 71 10000 8.78 308 09:22 05.11.2021
5589 Clouds 9 1015 66 10000 8.96 312 07:46 05.11.2021
5590 Clouds 9 1014 70 10000 8.65 318 05:36 05.11.2021
5591 Clouds 12 1011 72 10000 7.57 343 02:28 05.11.2021
5592 Clouds 8 1011 72 10000 7.57 343 01:59 05.11.2021
5593 Clouds 8 1010 69 10000 7.85 344 23:45 04.11.2021
5594 Clouds 11 1009 71 10000 8.75 356 22:21 04.11.2021
5595 Clouds 9 1009 71 10000 8.75 356 21:54 04.11.2021
5596 Clouds 11 1009 73 10000 9.1 358 21:22 04.11.2021
5597 Clouds 11 1008 73 10000 9.46 1 20:25 04.11.2021
5598 Clouds 9 1008 73 10000 9.46 1 19:49 04.11.2021
5599 Clouds 11 1007 74 10000 9.65 1 19:22 04.11.2021
5600 Clouds 11 1007 75 10000 8.66 1 18:22 04.11.2021
5601 Clouds 11 1006 75 10000 7.82 12 17:26 04.11.2021
5602 Clouds 9 1006 75 10000 8.16 21 15:36 04.11.2021
5603 Clouds 9 1005 77 10000 7.84 28 13:45 04.11.2021
5604 Clouds 8 1006 75 10000 5.52 58 10:22 04.11.2021
5605 Clouds 7 1005 75 10000 6.07 73 08:31 04.11.2021
5606 Clouds 7 1004 75 10000 6.59 71 07:36 04.11.2021
5607 Clouds 7 1004 72 10000 5.08 73 06:38 04.11.2021
5608 Clouds 6 1003 74 10000 3.95 162 22:59 03.11.2021
5609 Clouds 6 1003 75 10000 4.38 165 22:19 03.11.2021
5610 Clouds 6 1003 75 10000 4.38 165 21:35 03.11.2021
5611 Clouds 6 1003 75 10000 5.43 173 20:39 03.11.2021
5612 Clouds 6 1003 75 10000 5.43 173 20:39 03.11.2021
5613 Clouds 10 1003 76 10000 5.92 173 20:21 03.11.2021
5614 Clouds 10 1002 76 10000 5.97 169 19:28 03.11.2021
5615 Clouds 11 1002 76 10000 6.12 168 18:26 03.11.2021
5616 Clouds 7 1002 76 10000 6.12 168 17:41 03.11.2021
5617 Clouds 8 1001 75 10000 5.36 174 16:42 03.11.2021
5618 Clouds 9 1001 76 10000 4.47 185 15:47 03.11.2021
5619 Clouds 9 1001 76 10000 4.67 196 15:29 03.11.2021
5620 Clouds 8 1001 79 10000 5.56 195 13:18 03.11.2021
5621 Clouds 8 1001 74 10000 6.08 220 11:34 03.11.2021
5622 Clouds 8 1001 78 10000 5.7 214 10:49 03.11.2021
5623 Clouds 10 1001 82 10000 7.6 203 09:40 03.11.2021
5624 Clouds 7 1000 82 10000 7.85 203 08:41 03.11.2021
5625 Clouds 6 1000 81 10000 7.2 199 07:40 03.11.2021
5626 Clouds 6 1000 80 10000 7.15 188 06:30 03.11.2021
5627 Clouds 10 999 79 10000 5.21 194 04:22 03.11.2021
5628 Clouds 6 1000 78 10000 6.16 186 00:55 03.11.2021
5629 Clouds 7 1000 72 10000 5.18 189 22:52 02.11.2021
5630 Clouds 7 1000 71 10000 5.08 198 21:47 02.11.2021
5631 Clouds 8 1000 70 10000 5.27 207 20:35 02.11.2021
5632 Clouds 8 999 70 10000 5.4 210 19:56 02.11.2021
5633 Clouds 11 999 72 10000 5.29 212 19:26 02.11.2021
5634 Clouds 6 999 72 10000 6.23 205 18:34 02.11.2021
5635 Clouds 7 999 72 10000 5.72 207 17:44 02.11.2021
5636 Clouds 10 999 75 10000 5.97 221 16:34 02.11.2021
5637 Clouds 10 999 75 10000 5.97 221 15:49 02.11.2021
5638 Clouds 11 998 78 10000 6.3 222 14:56 02.11.2021
5639 Clouds 10 999 83 10000 5.64 206 13:29 02.11.2021
5640 Clouds 11 999 83 10000 5.64 206 12:46 02.11.2021
5641 Clouds 11 999 83 10000 5.64 206 12:46 02.11.2021
5642 Clouds 11 999 83 10000 5.64 206 12:46 02.11.2021
5643 Clouds 10 999 83 10000 5.63 204 11:38 02.11.2021
5644 Clouds 8 999 83 10000 5.67 207 10:55 02.11.2021
5645 Clouds 10 999 83 10000 5.67 207 10:32 02.11.2021
5646 Clouds 7 999 83 10000 6.34 210 09:44 02.11.2021
5647 Clouds 5 998 84 10000 6.7 211 07:46 02.11.2021
5648 Clouds 6 997 84 10000 7.51 210 04:58 02.11.2021
5649 Clouds 10 997 85 10000 7.98 210 03:22 02.11.2021
5650 Clear 9 998 83 10000 9.79 199 23:42 01.11.2021
5651 Clear 8 998 80 10000 10.79 205 21:46 01.11.2021
5652 Clear 9 998 77 10000 11.47 207 20:44 01.11.2021
5653 Clear 9 998 73 10000 11.02 205 20:18 01.11.2021
5654 Clear 9 998 73 10000 11.02 205 19:41 01.11.2021
5655 Clouds 12 997 71 10000 11.74 202 18:25 01.11.2021
5656 Clouds 10 997 71 10000 11.74 202 17:43 01.11.2021
5657 Clouds 11 996 73 10000 12.62 212 16:52 01.11.2021
5658 Clouds 12 996 74 10000 13 214 16:20 01.11.2021
5659 Clouds 12 996 73 10000 13.33 214 15:29 01.11.2021
5660 Clouds 12 996 73 10000 13.33 214 14:45 01.11.2021
5661 Clouds 11 996 75 10000 13.35 212 14:25 01.11.2021
5662 Clouds 12 996 75 10000 13.35 212 13:50 01.11.2021
5663 Clouds 11 996 79 10000 13.84 210 12:36 01.11.2021
5664 Clouds 11 996 81 10000 13.84 212 11:30 01.11.2021
5665 Clouds 10 996 81 10000 13.99 212 10:19 01.11.2021
5666 Clouds 10 995 84 10000 13.34 208 08:18 01.11.2021
5667 Clouds 10 995 84 10000 13.34 208 07:46 01.11.2021
5668 Clouds 11 995 85 10000 12.65 212 03:51 01.11.2021
5669 Clouds 12 994 86 10000 12.19 218 01:44 01.11.2021
5670 Rain 15 993 80 10000 7.93 241 22:48 31.10.2021
5671 Rain 15 992 91 9278 14 158 20:50 31.10.2021
5672 Rain 14 995 86 10000 13.5 150 19:22 31.10.2021
5673 Clouds 13 994 86 10000 13.76 150 18:41 31.10.2021
5674 Clouds 13 996 85 10000 12.7 143 17:54 31.10.2021
5675 Clouds 14 999 85 10000 11.25 148 16:25 31.10.2021
5676 Clouds 14 1000 85 10000 11.41 150 14:39 31.10.2021
5677 Clouds 13 1003 86 10000 9.55 155 12:54 31.10.2021
5678 Clouds 12 1004 86 10000 8.96 174 11:42 31.10.2021
5679 Clouds 12 1005 86 10000 8.68 179 10:47 31.10.2021
5680 Clouds 12 1005 86 10000 8.35 194 09:23 31.10.2021
5681 Clouds 10 1005 86 10000 8.35 194 08:41 31.10.2021
5682 Clouds 12 1003 88 10000 7.76 227 02:19 31.10.2021
5683 Clouds 11 1002 90 10000 10.04 219 23:41 30.10.2021
5684 Clouds 12 1001 92 9577 10.47 199 21:36 30.10.2021
5685 Rain 13 1000 88 10000 10.56 198 21:18 30.10.2021
5686 Clouds 13 1000 84 10000 11.94 186 19:23 30.10.2021
5687 Rain 11 1000 85 10000 12.97 171 17:42 30.10.2021
5688 Clouds 13 1001 83 10000 14.51 171 15:30 30.10.2021
5689 Clouds 10 1002 86 10000 12.44 174 13:56 30.10.2021
5690 Rain 12 1003 81 10000 12.64 164 13:22 30.10.2021
5691 Rain 10 1003 81 10000 12.64 164 12:57 30.10.2021
5692 Rain 10 1003 80 10000 10.34 144 11:49 30.10.2021
5693 Clouds 10 1004 84 10000 9.53 148 10:32 30.10.2021
5694 Clouds 9 1005 88 10000 7.23 160 08:54 30.10.2021
5695 Clouds 9 1005 87 10000 7.93 184 07:42 30.10.2021
5696 Clouds 11 1006 89 10000 8.87 198 05:44 30.10.2021
5697 Clouds 12 1005 85 10000 9.85 203 01:57 30.10.2021
5698 Rain 12 1005 75 10000 10.97 186 22:54 29.10.2021
5699 Rain 12 1005 75 10000 10.97 186 22:32 29.10.2021
5700 Clouds 13 1004 75 10000 11.75 172 20:47 29.10.2021
5701 Clouds 14 1004 74 10000 11.92 173 20:26 29.10.2021
5702 Clouds 15 1004 73 10000 11.71 177 18:38 29.10.2021
5703 Clouds 15 1004 72 10000 11.45 173 17:24 29.10.2021
5704 Clouds 15 1005 73 10000 10.7 172 15:22 29.10.2021
5705 Clear 13 1007 76 10000 10.17 180 12:29 29.10.2021
5706 Clear 10 1007 75 10000 10.48 183 10:46 29.10.2021
5707 Clouds 8 1007 75 10000 10.59 182 08:47 29.10.2021
5708 Clear 11 1010 78 10000 9.55 194 00:46 29.10.2021
5709 Clear 11 1011 78 10000 9.54 190 23:46 28.10.2021
5710 Clear 13 1011 78 10000 9.26 181 22:20 28.10.2021
5711 Clear 13 1011 78 10000 9.39 178 20:57 28.10.2021
5712 Clear 13 1012 78 10000 9.54 179 19:52 28.10.2021
5713 Clear 14 1012 78 10000 9.17 172 18:30 28.10.2021
5714 Clear 14 1013 79 10000 8.76 173 17:20 28.10.2021
5715 Clear 14 1013 80 10000 8.19 174 16:24 28.10.2021
5716 Clear 15 1014 81 10000 8.26 178 14:40 28.10.2021
5717 Clouds 13 1015 83 10000 8.16 186 13:30 28.10.2021
5718 Clouds 14 1016 82 10000 9.12 193 12:47 28.10.2021
5719 Clouds 12 1016 84 10000 10.61 200 11:26 28.10.2021
5720 Clouds 10 1016 85 10000 10.91 201 09:55 28.10.2021
5721 Clouds 10 1016 85 10000 10.91 201 09:35 28.10.2021
5722 Clouds 10 1016 85 10000 11 203 08:36 28.10.2021
5723 Clouds 10 1016 85 10000 10.8 203 07:40 28.10.2021
5724 Clouds 13 1017 88 10000 10.31 214 00:41 28.10.2021
5725 Clouds 13 1018 86 10000 10.88 217 22:47 27.10.2021
5726 Clouds 14 1018 86 10000 11.35 221 21:52 27.10.2021
5727 Clouds 14 1017 86 10000 11.35 226 21:18 27.10.2021
5728 Clouds 14 1017 86 10000 11.35 226 20:40 27.10.2021
5729 Clouds 14 1017 87 10000 11.32 230 19:45 27.10.2021
5730 Clouds 14 1017 89 10000 11.89 230 18:55 27.10.2021
5731 Clouds 14 1017 90 10000 12.42 233 16:55 27.10.2021
5732 Clouds 14 1017 91 10000 12.07 232 16:24 27.10.2021
5733 Clouds 14 1017 91 10000 12 230 15:24 27.10.2021
5734 Clouds 14 1017 89 10000 12.08 232 14:19 27.10.2021
5735 Clouds 14 1016 90 10000 12.2 237 11:18 27.10.2021
5736 Clouds 13 1016 90 10000 12.2 237 10:36 27.10.2021
5737 Clouds 13 1016 87 10000 14.65 238 09:21 27.10.2021
5738 Clouds 13 1015 89 10000 13.82 235 07:39 27.10.2021
5739 Clouds 13 1015 89 10000 13.44 237 05:38 27.10.2021
5740 Clouds 14 1015 93 10000 12.39 225 01:24 27.10.2021
5741 Clouds 12 1015 93 10000 12.39 225 00:54 27.10.2021
5742 Clouds 12 1016 91 10000 12.32 228 23:54 26.10.2021
5743 Clouds 11 1015 90 10000 12.59 228 22:44 26.10.2021
5744 Clouds 12 1015 87 10000 12.05 224 22:21 26.10.2021
5745 Clouds 12 1015 87 10000 12.04 224 21:41 26.10.2021
5746 Clouds 11 1015 86 10000 10.74 232 19:54 26.10.2021
5747 Clouds 11 1015 87 10000 9.92 227 19:18 26.10.2021
5748 Clouds 13 1015 86 10000 9.75 231 17:58 26.10.2021
5749 Clouds 13 1016 82 10000 9.53 239 15:51 26.10.2021
5750 Clouds 13 1016 79 10000 9.87 239 13:21 26.10.2021
5751 Clouds 11 1015 76 10000 9.09 242 10:54 26.10.2021
5752 Clouds 10 1015 73 10000 8.19 255 08:42 26.10.2021
5753 Rain 13 1014 77 10000 6.7 266 07:22 26.10.2021
5754 Clouds 11 1014 88 10000 9.81 215 00:19 26.10.2021
5755 Clouds 11 1014 88 10000 9.81 215 23:37 25.10.2021
5756 Clouds 11 1014 86 10000 9.42 211 22:33 25.10.2021
5757 Clouds 10 1014 84 10000 9.09 207 21:43 25.10.2021
5758 Clouds 11 1014 86 10000 9.62 207 20:38 25.10.2021
5759 Clouds 11 1014 88 10000 9.58 210 19:43 25.10.2021
5760 Clouds 12 1014 89 10000 9.07 212 19:23 25.10.2021
5761 Clouds 10 1014 89 10000 9.07 212 18:38 25.10.2021
5762 Clouds 10 1014 90 10000 8.87 216 17:34 25.10.2021
5763 Rain 11 1015 91 10000 9.09 216 15:18 25.10.2021
5764 Clouds 11 1015 87 10000 9.44 214 12:33 25.10.2021
5765 Clouds 7 1015 83 10000 9.77 210 10:54 25.10.2021
5766 Clouds 5 1015 85 10000 9.05 207 08:59 25.10.2021
5767 Clear 11 1015 83 10000 8.39 210 07:20 25.10.2021
5768 Clear 11 1016 80 10000 8.44 217 05:21 25.10.2021
5769 Clouds 7 1017 70 10000 8.63 209 00:52 25.10.2021
5770 Clouds 7 1017 70 10000 8.63 209 00:33 25.10.2021
5771 Clouds 6 1018 69 10000 8.65 208 23:41 24.10.2021
5772 Clouds 7 1019 69 10000 8.81 207 22:39 24.10.2021
5773 Clouds 12 1019 69 10000 9.41 202 22:20 24.10.2021
5774 Clouds 12 1019 69 10000 9.41 202 21:33 24.10.2021
5775 Clouds 8 1019 69 10000 9.54 193 20:39 24.10.2021
5776 Clouds 8 1020 68 10000 9.82 184 19:47 24.10.2021
5777 Clouds 12 1020 66 10000 9.05 182 18:29 24.10.2021
5778 Clouds 10 1020 66 10000 9.05 182 17:45 24.10.2021
5779 Clouds 11 1022 67 10000 8.7 180 15:56 24.10.2021
5780 Clouds 11 1022 68 10000 8.41 182 15:19 24.10.2021
5781 Clouds 11 1024 72 10000 8.83 192 13:19 24.10.2021
5782 Clouds 10 1024 73 10000 9.38 191 11:56 24.10.2021
5783 Clouds 10 1024 74 10000 9.75 191 11:26 24.10.2021
5784 Clouds 10 1024 74 10000 9.75 191 10:30 24.10.2021
5785 Clouds 6 1024 74 10000 10.42 196 08:00 24.10.2021
5786 Clouds 12 1026 78 10000 9.6 209 01:26 24.10.2021
5787 Clouds 7 1026 77 10000 8.74 211 23:51 23.10.2021
5788 Clouds 7 1026 76 10000 8.21 209 22:40 23.10.2021
5789 Clouds 7 1026 72 10000 6.26 210 20:39 23.10.2021
5790 Clouds 8 1025 64 10000 5.47 245 19:00 23.10.2021
5791 Clouds 12 1025 64 10000 5.47 245 18:31 23.10.2021
5792 Clouds 11 1025 61 10000 5.42 259 17:44 23.10.2021
5793 Clouds 11 1025 59 10000 6.36 264 16:45 23.10.2021
5794 Clouds 11 1025 64 10000 6.13 275 14:45 23.10.2021
5795 Clouds 9 1023 63 10000 9.07 308 09:45 23.10.2021
5796 Clouds 12 1017 56 10000 12.95 310 00:28 23.10.2021
5797 Clouds 12 1016 55 10000 13.49 315 23:28 22.10.2021
5798 Clouds 9 1014 55 10000 14.82 316 20:56 22.10.2021
5799 Clouds 8 1012 55 10000 15.51 315 18:57 22.10.2021
5800 Clouds 8 1011 54 10000 15.56 315 17:44 22.10.2021
5801 Clouds 10 1008 53 10000 15.63 310 16:18 22.10.2021
5802 Rain 9 1006 63 10000 15.16 316 14:31 22.10.2021
5803 Rain 10 1005 73 10000 17.03 322 12:41 22.10.2021
5804 Rain 10 1005 73 10000 17.03 322 12:41 22.10.2021
5805 Rain 9 1002 73 10000 17.21 302 10:52 22.10.2021
5806 Rain 8 1001 77 10000 18.6 283 09:56 22.10.2021
5807 Rain 8 1001 77 10000 18.6 283 09:56 22.10.2021
5808 Rain 8 1001 77 10000 18.6 283 09:32 22.10.2021
5809 Clouds 12 1002 72 10000 18.07 273 07:28 22.10.2021
5810 Clouds 7 1002 71 10000 17.86 274 06:19 22.10.2021
5811 Clouds 8 1005 68 10000 15.69 288 00:37 22.10.2021
5812 Clouds 9 1005 66 10000 14.83 287 23:48 21.10.2021
5813 Clouds 8 1004 55 10000 15.04 300 22:22 21.10.2021
5814 Clouds 11 1003 59 10000 16.04 304 21:23 21.10.2021
5815 Rain 9 1002 61 10000 16.9 308 20:21 21.10.2021
5816 Clouds 8 1002 63 10000 16.65 310 19:31 21.10.2021
5817 Clouds 9 1000 63 10000 17.21 308 18:59 21.10.2021
5818 Clouds 10 999 63 10000 16.81 303 18:27 21.10.2021
5819 Clouds 10 999 63 10000 16.81 303 17:47 21.10.2021
5820 Clouds 10 999 63 10000 16.81 303 17:47 21.10.2021
5821 Rain 9 998 63 10000 16.28 300 16:40 21.10.2021
5822 Rain 10 995 63 10000 15.38 307 15:22 21.10.2021
5823 Rain 11 995 63 10000 15.38 307 14:50 21.10.2021
5824 Clouds 11 993 64 10000 15.61 299 13:39 21.10.2021
5825 Rain 10 991 61 10000 15.79 300 11:47 21.10.2021
5826 Rain 10 984 77 10000 13.51 314 09:26 21.10.2021
5827 Rain 11 981 86 4294 15.53 324 07:33 21.10.2021
5828 Rain 12 983 87 10000 2.16 184 05:33 21.10.2021
5829 Clouds 14 992 84 10000 14.35 231 00:22 21.10.2021
5830 Clouds 15 993 83 10000 15.23 230 22:23 20.10.2021
5831 Clouds 14 993 83 10000 15.23 230 21:47 20.10.2021
5832 Clouds 15 994 82 10000 14.57 229 20:58 20.10.2021
5833 Rain 15 994 82 10000 14.58 229 20:37 20.10.2021
5834 Rain 16 994 82 10000 15.4 231 19:59 20.10.2021
5835 Clouds 16 994 80 10000 15.39 236 19:18 20.10.2021
5836 Rain 16 994 80 10000 15.38 237 18:29 20.10.2021
5837 Rain 16 994 80 10000 15.38 237 18:29 20.10.2021
5838 Clouds 15 996 92 10000 14.73 227 15:57 20.10.2021
5839 Clouds 17 998 90 10000 10.46 235 13:46 20.10.2021
5840 Clouds 15 999 82 10000 16.23 220 09:52 20.10.2021
5841 Clouds 15 1003 85 10000 13.53 217 05:29 20.10.2021
5842 -273 0 0 0 0 0 01:26 20.10.2021
5843 Clouds 16 1006 87 10000 13.65 223 00:32 20.10.2021
5844 Clouds 16 1008 86 10000 14.58 232 22:28 19.10.2021
5845 Clouds 16 1008 86 10000 14.58 232 21:33 19.10.2021
5846 Clouds 16 1009 85 10000 13.16 231 20:26 19.10.2021
5847 Clouds 16 1009 85 10000 13.16 231 19:51 19.10.2021
5848 Clouds 16 1009 95 10000 12.37 223 19:29 19.10.2021
5849 Clouds 15 1009 95 10000 12.37 223 18:31 19.10.2021
5850 Clouds 16 1010 98 10000 10.49 198 17:20 19.10.2021
5851 Rain 16 1012 96 10000 9.55 202 15:26 19.10.2021
5852 Clouds 15 1012 96 10000 9.55 202 14:33 19.10.2021
5853 Clouds 14 1013 95 10000 9.98 201 13:50 19.10.2021
5854 Clouds 14 1014 92 10000 9.78 205 12:20 19.10.2021
5855 Clouds 13 1014 91 10000 9.57 205 11:23 19.10.2021
5856 Clouds 13 1014 91 10000 9.22 205 09:43 19.10.2021
5857 Clouds 13 1015 89 10000 9.06 205 08:56 19.10.2021
5858 Clouds 12 1018 76 10000 8.78 211 00:39 19.10.2021
5859 Clouds 12 1018 74 10000 9 201 23:57 18.10.2021
5860 Clouds 12 1018 74 10000 9 201 23:36 18.10.2021
5861 Clouds 12 1018 73 10000 8.68 198 22:55 18.10.2021
5862 Clouds 12 1018 73 10000 9.16 200 22:18 18.10.2021
5863 Clouds 12 1018 73 10000 9.41 194 20:48 18.10.2021
5864 Clouds 12 1019 73 10000 9.01 192 20:24 18.10.2021
5865 Clouds 12 1019 73 10000 9.01 192 19:32 18.10.2021
5866 Clouds 12 1019 73 10000 8.23 190 18:59 18.10.2021
5867 Clouds 15 1020 72 10000 7.45 197 16:38 18.10.2021
5868 Clouds 14 1020 73 10000 7.38 211 14:44 18.10.2021
5869 Clouds 13 1021 76 10000 8.39 227 11:59 18.10.2021
5870 Clouds 11 1021 81 10000 9.02 234 10:22 18.10.2021
5871 Clouds 11 1020 84 10000 9.41 237 08:21 18.10.2021
5872 Clouds 12 1019 83 10000 11.88 243 01:23 18.10.2021
5873 Clouds 12 1018 83 10000 11.96 241 22:56 17.10.2021
5874 Clouds 12 1018 83 10000 12.13 238 21:45 17.10.2021
5875 Clouds 12 1017 83 10000 12 235 20:57 17.10.2021
5876 Clouds 12 1018 85 10000 9.76 247 20:26 17.10.2021
5877 Clouds 12 1018 85 10000 9.76 247 19:38 17.10.2021
5878 Clouds 12 1017 86 10000 9.6 255 18:35 17.10.2021
5879 Rain 12 1017 87 10000 8.12 252 16:57 17.10.2021
5880 Clouds 12 1017 88 10000 7.95 245 14:42 17.10.2021
5881 Clouds 12 1017 85 10000 6.68 252 14:23 17.10.2021
5882 Rain 11 1017 85 10000 6.68 252 13:33 17.10.2021
5883 Rain 12 1017 85 10000 8 249 11:54 17.10.2021
5884 Rain 11 1017 83 10000 7.29 252 10:20 17.10.2021
5885 Rain 11 1016 82 10000 6.79 265 09:22 17.10.2021
5886 Clouds 11 1017 73 10000 6.1 274 06:55 17.10.2021
5887 Clouds 11 1016 72 10000 9.25 241 00:49 17.10.2021
5888 Clouds 11 1017 79 10000 11.08 227 23:43 16.10.2021
5889 Clouds 11 1017 73 10000 8.31 237 21:29 16.10.2021
5890 Clouds 11 1017 73 10000 8.31 237 20:30 16.10.2021
5891 Clouds 11 1018 66 10000 7.52 247 19:43 16.10.2021
5892 Clouds 11 1018 65 10000 7.87 251 19:21 16.10.2021
5893 Clouds 12 1018 65 10000 7.87 251 18:51 16.10.2021
5894 Rain 12 1018 65 10000 8.47 259 18:29 16.10.2021
5895 Clouds 12 1018 65 10000 8.47 259 17:53 16.10.2021
5896 Clouds 12 1018 65 10000 8.84 260 17:22 16.10.2021
5897 Clouds 12 1019 67 10000 9.13 255 14:48 16.10.2021
5898 Clouds 12 1020 62 10000 8.1 270 11:31 16.10.2021
5899 Clouds 12 1020 66 10000 7.51 283 10:25 16.10.2021
5900 Clouds 12 1019 64 10000 7.91 298 06:51 16.10.2021
5901 Clouds 12 1019 66 10000 8.98 311 01:25 16.10.2021
5902 Clouds 11 1019 62 10000 9.67 310 23:50 15.10.2021
5903 Clouds 11 1019 62 10000 9.95 315 22:38 15.10.2021
5904 Clouds 11 1018 63 10000 9.9 320 22:18 15.10.2021
5905 Clouds 12 1018 63 10000 9.98 322 21:26 15.10.2021
5906 Clouds 12 1018 62 10000 10.54 319 20:46 15.10.2021
5907 Clouds 12 1017 63 10000 10.28 322 19:26 15.10.2021
5908 Rain 13 1017 63 10000 10.28 322 18:40 15.10.2021
5909 Clouds 14 1015 63 10000 11.52 320 16:28 15.10.2021
5910 Clouds 14 1015 63 10000 11.52 320 15:36 15.10.2021
5911 Clouds 14 1013 66 10000 12.06 324 12:42 15.10.2021
5912 Clouds 13 1012 63 10000 12.62 323 11:36 15.10.2021
5913 Clouds 11 1011 61 10000 13.35 322 10:46 15.10.2021
5914 Clouds 11 1011 62 10000 13.19 325 09:46 15.10.2021
5915 Rain 14 1007 88 7475 12.61 311 05:32 15.10.2021
5916 Rain 13 1009 83 10000 14.27 246 01:45 15.10.2021
5917 Clouds 13 1012 83 10000 13.16 249 00:22 15.10.2021
5918 Clouds 13 1012 84 10000 12.86 248 22:52 14.10.2021
5919 Clouds 13 1013 83 10000 12.66 250 21:44 14.10.2021
5920 Clouds 13 1014 82 10000 12.78 255 20:49 14.10.2021
5921 Clouds 13 1015 77 10000 12.75 258 20:19 14.10.2021
5922 Clouds 13 1015 77 10000 12.75 258 19:35 14.10.2021
5923 Clouds 14 1016 76 10000 11.79 259 17:31 14.10.2021
5924 Clouds 15 1016 76 10000 11.54 262 16:50 14.10.2021
5925 Clouds 15 1017 78 10000 11.65 266 16:20 14.10.2021
5926 Clouds 15 1017 78 10000 11.62 268 14:43 14.10.2021
5927 Clouds 15 1018 78 10000 11.4 267 14:21 14.10.2021
5928 Clouds 13 1018 76 10000 10.67 271 11:44 14.10.2021
5929 Clouds 13 1019 76 10000 9.01 273 09:55 14.10.2021
5930 Clouds 13 1019 76 10000 9.01 273 09:55 14.10.2021
5931 Clouds 14 1019 84 10000 7 284 07:32 14.10.2021
5932 Clouds 13 1020 87 10000 8.5 315 01:29 14.10.2021
5933 Clouds 12 1020 88 10000 8.97 319 00:28 14.10.2021
5934 Clouds 11 1020 90 10000 8 270 22:29 13.10.2021
5935 Clouds 11 1020 90 10000 8 270 21:33 13.10.2021
5936 Clouds 11 1021 86 10000 8.47 258 20:22 13.10.2021
5937 Clouds 13 1021 81 10000 7.79 271 18:57 13.10.2021
5938 Clouds 13 1021 81 10000 7.79 271 18:35 13.10.2021
5939 Rain 14 1022 63 10000 8.56 310 15:32 13.10.2021
5940 Rain 14 1022 63 10000 8.56 310 14:46 13.10.2021
5941 Clouds 14 1022 62 10000 8.41 308 14:22 13.10.2021
5942 Clouds 14 1022 61 10000 7.55 310 12:22 13.10.2021
5943 Clouds 12 1022 61 10000 7.55 310 11:35 13.10.2021
5944 Clouds 12 1021 64 10000 9.1 335 08:48 13.10.2021
5945 Clouds 12 1021 64 10000 8.72 328 07:36 13.10.2021
5946 Clouds 12 1020 54 10000 6.38 347 02:29 13.10.2021
5947 Clouds 12 1020 54 10000 6.38 347 01:47 13.10.2021
5948 Clouds 12 1020 54 10000 6.45 354 23:31 12.10.2021
5949 Clouds 12 1020 54 10000 6.45 354 23:31 12.10.2021
5950 Clouds 12 1019 55 10000 6.8 359 22:47 12.10.2021
5951 Clouds 12 1019 57 10000 7.6 359 22:23 12.10.2021
5952 Clouds 11 1018 59 10000 8.91 357 20:46 12.10.2021
5953 Clouds 11 1017 61 10000 9.24 356 20:18 12.10.2021
5954 Clouds 11 1017 62 10000 8.87 355 18:57 12.10.2021
5955 Clouds 11 1017 65 10000 8.6 352 18:18 12.10.2021
5956 Clouds 13 1016 66 10000 9.06 349 16:44 12.10.2021
5957 Rain 13 1016 67 10000 9.68 337 16:18 12.10.2021
5958 Rain 13 1017 68 10000 10.32 328 14:46 12.10.2021
5959 Clouds 13 1017 67 10000 10.44 327 13:44 12.10.2021
5960 Clouds 13 1017 63 10000 10.23 332 12:40 12.10.2021
5961 Clouds 12 1017 62 10000 10.46 336 10:20 12.10.2021
5962 Clouds 12 1017 63 10000 10.67 335 08:44 12.10.2021
5963 Rain 11 1016 62 10000 11.23 333 07:54 12.10.2021
5964 Clouds 12 1016 58 10000 11.2 332 06:40 12.10.2021
5965 Clouds 13 1017 63 10000 11.21 327 04:33 12.10.2021
5966 Rain 13 1019 71 10000 12.02 305 01:28 12.10.2021
5967 Clouds 13 1020 70 10000 13.09 303 23:41 11.10.2021
5968 Clouds 12 1020 68 10000 11.46 299 22:59 11.10.2021
5969 Clouds 12 1021 62 10000 11.71 311 22:29 11.10.2021
5970 Clouds 13 1021 63 10000 13.25 314 21:18 11.10.2021
5971 Clouds 13 1021 67 10000 12.22 305 19:46 11.10.2021
5972 Clouds 14 1021 61 10000 10.81 312 18:44 11.10.2021
5973 Clouds 14 1021 61 10000 11.83 319 17:59 11.10.2021
5974 Clouds 15 1022 68 10000 12.36 316 16:39 11.10.2021
5975 Clouds 15 1022 69 10000 11.93 315 15:52 11.10.2021
5976 Clouds 15 1022 69 10000 11.93 315 15:32 11.10.2021
5977 Clouds 14 1022 71 10000 11.12 315 14:46 11.10.2021
5978 Clouds 14 1022 71 10000 10.81 311 13:38 11.10.2021
5979 Clouds 14 1022 68 10000 10.85 308 12:20 11.10.2021
5980 Clouds 13 1022 68 10000 10.77 307 10:48 11.10.2021
5981 Clouds 13 1022 68 10000 10.22 306 09:44 11.10.2021
5982 Clouds 14 1022 66 10000 9.6 315 07:30 11.10.2021
5983 Clouds 14 1023 69 10000 7.97 316 01:42 11.10.2021
5984 Clouds 14 1023 70 10000 8.58 319 00:52 11.10.2021
5985 Clouds 14 1023 72 10000 9.03 329 00:28 11.10.2021
5986 Rain 12 1023 80 10000 5.82 302 21:57 10.10.2021
5987 Clouds 12 1023 80 10000 5.82 302 21:35 10.10.2021
5988 Clouds 13 1023 73 10000 4.74 272 20:48 10.10.2021
5989 Clouds 13 1023 70 10000 4.3 271 20:22 10.10.2021
5990 Clouds 13 1023 70 10000 4.3 271 19:59 10.10.2021
5991 Clouds 13 1023 70 10000 4.3 271 19:38 10.10.2021
5992 Clouds 15 1023 70 10000 4.11 266 18:37 10.10.2021
5993 Clouds 15 1024 72 10000 4.05 246 17:19 10.10.2021
5994 Clear 16 1025 69 10000 3.81 235 15:47 10.10.2021
5995 Clear 14 1025 67 10000 3.7 219 14:42 10.10.2021
5996 Clouds 15 1026 63 10000 4.48 212 13:34 10.10.2021
5997 Clouds 10 1026 63 10000 4.49 212 12:40 10.10.2021
5998 Clouds 8 1026 65 10000 5.57 174 10:44 10.10.2021
5999 Clouds 7 1027 64 10000 4.55 199 09:31 10.10.2021
6000 Clouds 6 1027 65 10000 5.39 189 08:54 10.10.2021
6001 Clouds 7 1027 63 10000 6.01 183 07:53 10.10.2021
6002 Clouds 9 1029 58 10000 7.13 158 03:28 10.10.2021
6003 Clouds 9 1030 56 10000 6.64 159 01:28 10.10.2021
6004 Clouds 9 1030 56 10000 6.64 159 00:33 10.10.2021
6005 Clouds 9 1030 59 10000 7.37 154 23:20 09.10.2021
6006 Clouds 12 1030 58 10000 7.87 146 21:48 09.10.2021
6007 Clouds 12 1030 57 10000 7.85 140 21:29 09.10.2021
6008 Clouds 13 1030 54 10000 6.56 137 19:45 09.10.2021
6009 Clouds 13 1030 54 10000 6.2 137 19:20 09.10.2021
6010 Clouds 15 1030 54 10000 6.2 137 18:33 09.10.2021
6011 Clouds 15 1030 54 10000 6.2 137 18:33 09.10.2021
6012 Clouds 16 1030 55 10000 6.59 139 17:21 09.10.2021
6013 Clouds 16 1031 56 10000 6.94 137 16:19 09.10.2021
6014 Clouds 14 1032 59 10000 7.15 128 13:46 09.10.2021
6015 Clouds 13 1032 60 10000 7.21 127 12:54 09.10.2021
6016 Clouds 12 1032 62 10000 7.43 127 11:56 09.10.2021
6017 Clouds 11 1032 64 10000 7.64 126 10:42 09.10.2021
6018 Clouds 9 1032 67 10000 7.36 123 09:53 09.10.2021
6019 Clouds 10 1032 68 10000 6.76 120 08:32 09.10.2021
6020 Clear 11 1032 72 10000 6.2 116 07:49 09.10.2021
6021 Clear 11 1032 77 10000 5.44 116 05:39 09.10.2021
6022 Clear 12 1032 84 10000 5.32 118 04:18 09.10.2021
6023 Clear 12 1032 84 10000 5.62 116 02:43 09.10.2021
6024 Clear 11 1033 83 10000 6.35 105 23:55 08.10.2021
6025 Clear 11 1033 83 10000 6.35 105 23:31 08.10.2021
6026 Clear 12 1033 78 10000 5.91 96 22:25 08.10.2021
6027 Clear 12 1033 78 10000 5.91 96 21:35 08.10.2021
6028 Clear 14 1032 71 10000 3.98 64 19:44 08.10.2021
6029 Clear 17 1032 70 10000 3.07 80 17:36 08.10.2021
6030 Clear 17 1032 72 10000 3.2 94 16:53 08.10.2021
6031 Clear 17 1032 73 10000 3.15 104 16:24 08.10.2021
6032 Clear 17 1033 78 10000 3.69 128 14:18 08.10.2021
6033 Clear 16 1033 78 10000 3.69 128 13:36 08.10.2021
6034 Clouds 14 1033 80 10000 3.86 136 11:41 08.10.2021
6035 Clouds 12 1033 80 10000 3.58 142 10:42 08.10.2021
6036 Clouds 9 1033 80 10000 3.44 149 09:46 08.10.2021
6037 Clouds 9 1031 70 10000 2.83 174 00:35 08.10.2021
6038 Clouds 10 1030 71 10000 4.23 176 23:22 07.10.2021
6039 Clouds 12 1030 71 10000 4.32 176 21:47 07.10.2021
6040 Clouds 12 1030 71 10000 4.67 173 21:28 07.10.2021
6041 Clouds 13 1030 72 10000 4.28 172 20:28 07.10.2021
6042 Clouds 13 1030 72 10000 4.28 172 19:31 07.10.2021
6043 Clouds 14 1028 75 10000 3.56 173 18:27 07.10.2021
6044 Clouds 14 1028 77 10000 3.56 172 17:27 07.10.2021
6045 Clouds 15 1028 78 10000 3.33 170 15:58 07.10.2021
6046 Clouds 13 1028 79 10000 3.54 174 14:48 07.10.2021
6047 Clouds 12 1028 79 10000 3.65 177 13:43 07.10.2021
6048 Clouds 12 1028 80 10000 4.14 181 12:49 07.10.2021
6049 Clouds 11 1027 80 10000 4.58 169 10:57 07.10.2021
6050 Clouds 11 1026 81 10000 4.62 159 10:22 07.10.2021
6051 Clouds 9 1026 81 10000 4.62 159 09:42 07.10.2021
6052 Clouds 8 1026 81 10000 4.43 151 08:53 07.10.2021
6053 Clouds 7 1025 82 10000 4.3 153 07:58 07.10.2021
6054 Clouds 7 1025 82 10000 4.3 153 07:38 07.10.2021
6055 Clouds 7 1025 81 10000 3.48 158 06:36 07.10.2021
6056 Clouds 10 1020 79 10000 3.69 133 00:29 07.10.2021
6057 Clouds 11 1020 79 10000 3.52 142 22:59 06.10.2021
6058 Clouds 9 1019 79 10000 4.13 146 22:24 06.10.2021
6059 Clouds 10 1018 79 10000 4.25 156 21:24 06.10.2021
6060 Clouds 12 1017 74 10000 5.11 154 20:28 06.10.2021
6061 Clouds 13 1016 75 10000 5.84 156 18:59 06.10.2021
6062 Clouds 13 1014 77 10000 7.71 155 17:26 06.10.2021
6063 Clouds 12 1013 81 10000 7.48 162 15:37 06.10.2021
6064 Clouds 12 1013 81 10000 7.49 162 14:41 06.10.2021
6065 Clouds 12 1011 79 10000 8.08 180 13:24 06.10.2021
6066 Clouds 13 1011 79 10000 8.08 180 12:46 06.10.2021
6067 Clouds 13 1010 78 10000 9.16 180 12:24 06.10.2021
6068 Clouds 14 1009 80 10000 10.16 183 11:23 06.10.2021
6069 Clouds 11 1008 81 10000 11.22 184 09:40 06.10.2021
6070 Clouds 11 1007 81 10000 10.9 190 08:58 06.10.2021
6071 Clouds 11 1007 81 10000 10.9 190 08:30 06.10.2021
6072 Clouds 11 1006 82 10000 10.57 203 05:38 06.10.2021
6073 Clouds 12 1004 86 10000 10.49 200 01:56 06.10.2021
6074 Clouds 13 1003 81 10000 8.66 210 00:22 06.10.2021
6075 Clouds 13 1003 81 10000 8.66 210 23:51 05.10.2021
6076 Clouds 13 1003 88 10000 9.39 194 23:29 05.10.2021
6077 Rain 13 1003 88 10000 9.39 194 22:30 05.10.2021
6078 Rain 14 1003 86 10000 10.54 158 21:56 05.10.2021
6079 Rain 14 1003 86 10000 10.54 158 21:56 05.10.2021
6080 Rain 14 1003 86 10000 10.77 146 21:19 05.10.2021
6081 Clouds 14 1003 84 10000 10.19 133 20:26 05.10.2021
6082 Clouds 14 1003 84 10000 10.19 133 19:50 05.10.2021
6083 Clouds 14 1003 83 10000 9.72 130 19:23 05.10.2021
6084 Clouds 16 1004 81 10000 9.1 135 18:20 05.10.2021
6085 Clouds 15 1006 79 10000 8.33 143 15:28 05.10.2021
6086 Clouds 15 1007 82 10000 7.77 143 13:49 05.10.2021
6087 Clouds 15 1007 82 10000 8.76 144 13:22 05.10.2021
6088 Clouds 13 1007 82 10000 8.76 144 12:33 05.10.2021
6089 Clouds 11 1008 82 10000 9.06 143 11:41 05.10.2021
6090 Clouds 11 1009 82 10000 8.82 144 10:34 05.10.2021
6091 Clouds 10 1010 81 10000 9.06 154 07:38 05.10.2021
6092 Clear 12 1013 79 10000 9.33 178 01:28 05.10.2021
6093 Clear 13 1014 79 10000 9.19 193 22:53 04.10.2021
6094 Clear 13 1014 80 10000 9.21 188 21:23 04.10.2021
6095 Clouds 18 1014 77 10000 8.72 197 18:48 04.10.2021
6096 Clouds 15 1014 76 10000 8.84 200 17:26 04.10.2021
6097 Clouds 17 1014 77 10000 8.8 199 15:33 04.10.2021
6098 Clouds 16 1014 82 10000 8.79 203 14:46 04.10.2021
6099 Clouds 15 1014 84 10000 8.89 198 13:59 04.10.2021
6100 Clouds 16 1014 84 10000 8.89 198 13:31 04.10.2021
6101 Clouds 13 1014 84 10000 9.6 206 12:50 04.10.2021
6102 Clouds 12 1014 85 10000 9.61 205 11:33 04.10.2021
6103 Clouds 12 1014 87 10000 9.47 207 10:45 04.10.2021
6104 Clouds 12 1013 87 10000 9.17 207 09:44 04.10.2021
6105 Clouds 11 1012 85 10000 9.67 215 07:53 04.10.2021
6106 Clouds 11 1012 87 10000 10.37 214 06:50 04.10.2021
6107 Clouds 12 1007 87 10000 10.98 211 22:51 03.10.2021
6108 Clouds 12 1006 86 10000 9.73 216 21:56 03.10.2021
6109 Clouds 12 1006 86 10000 9.73 216 21:31 03.10.2021
6110 Clouds 12 1005 84 10000 9.15 235 20:45 03.10.2021
6111 Clouds 12 1003 86 10000 7.81 251 19:49 03.10.2021
6112 Clouds 13 1000 91 10000 7.32 275 18:29 03.10.2021
6113 Clouds 14 1000 91 10000 7.32 275 17:37 03.10.2021
6114 Rain 13 998 96 10000 4.94 282 15:30 03.10.2021
6115 Rain 13 998 95 10000 5.8 291 14:31 03.10.2021
6116 Rain 13 997 93 9537 6.82 225 13:36 03.10.2021
6117 Rain 14 996 90 10000 11.28 193 12:47 03.10.2021
6118 Rain 14 996 91 10000 10.54 187 11:37 03.10.2021
6119 Rain 13 996 95 10000 6.56 212 10:21 03.10.2021
6120 Rain 16 995 91 10000 13.47 180 06:42 03.10.2021
6121 Rain 14 999 90 9897 11.53 138 22:59 02.10.2021
6122 Rain 14 1001 86 10000 10.72 147 22:18 02.10.2021
6123 Rain 14 1002 86 10000 11.15 145 20:34 02.10.2021
6124 Clouds 15 1004 82 10000 9.36 143 18:57 02.10.2021
6125 Clouds 15 1005 83 10000 8.9 145 18:27 02.10.2021
6126 Clouds 15 1005 83 10000 8.9 145 17:38 02.10.2021
6127 Clouds 16 1006 82 10000 6.9 155 16:39 02.10.2021
6128 Clouds 16 1008 82 10000 5.12 172 14:35 02.10.2021
6129 Clouds 16 1020 78 10000 11.07 240 15:38 30.09.2021
6130 Clouds 12 1020 80 10000 12.28 249 14:29 30.09.2021
6131 Clouds 12 1020 82 10000 12.95 258 11:59 30.09.2021
6132 Clouds 12 1019 84 10000 13.18 260 11:23 30.09.2021
6133 Clouds 13 1018 83 10000 12.91 264 10:26 30.09.2021
6134 Clouds 13 1018 80 10000 13.16 268 08:32 30.09.2021
6135 Clouds 14 1017 79 10000 15.66 265 07:48 30.09.2021
6136 Clouds 14 1015 78 10000 17.38 271 05:25 30.09.2021
6137 Clouds 13 1014 81 10000 16.78 270 02:33 30.09.2021
6138 Rain 13 1012 85 10000 16.53 274 00:35 30.09.2021
6139 Rain 12 1011 87 9025 15.8 270 22:48 29.09.2021
6140 Rain 12 1011 89 7065 15.37 273 21:52 29.09.2021
6141 Rain 12 1010 92 5629 15.14 266 20:38 29.09.2021
6142 Rain 12 1008 93 10000 16.64 236 20:19 29.09.2021
6143 Rain 11 1009 93 10000 13.13 223 19:24 29.09.2021
6144 Clouds 12 1009 92 10000 11.25 220 18:18 29.09.2021
6145 Rain 12 1010 92 10000 9.16 196 16:55 29.09.2021
6146 Rain 12 1010 94 9193 8.93 184 16:27 29.09.2021
6147 Rain 13 1010 94 9188 8.93 184 15:35 29.09.2021
6148 Clouds 14 1010 86 10000 8.45 186 14:37 29.09.2021
6149 Clouds 14 1011 87 10000 7.29 147 13:33 29.09.2021
6150 Clouds 14 1012 86 10000 7.65 137 12:38 29.09.2021
6151 Clouds 13 1013 88 10000 8.2 141 11:20 29.09.2021
6152 Clouds 12 1014 88 10000 8.46 143 10:28 29.09.2021
6153 Clouds 12 1014 88 10000 8.46 143 09:41 29.09.2021
6154 Clouds 12 1014 88 10000 8.3 138 07:52 29.09.2021
6155 Clouds 12 1015 88 10000 7.77 139 06:46 29.09.2021
6156 Clouds 13 1020 85 10000 4.95 157 00:28 29.09.2021
6157 Clouds 14 1020 86 10000 4.16 131 22:26 28.09.2021
6158 Clouds 15 1020 86 10000 4.16 131 21:54 28.09.2021
6159 Clouds 15 1020 86 10000 3.73 116 21:21 28.09.2021
6160 Clouds 15 1021 85 10000 3.16 109 19:49 28.09.2021
6161 Clouds 12 1021 87 10000 1.87 91 19:29 28.09.2021
6162 Clouds 16 1021 87 10000 1.87 91 18:41 28.09.2021
6163 Clouds 19 1021 90 10000 0.68 228 16:57 28.09.2021
6164 Clouds 12 1022 90 10000 2.8 228 15:21 28.09.2021
6165 Clear 11 1022 92 10000 3.83 216 13:27 28.09.2021
6166 Clear 11 1022 92 10000 4.82 216 12:25 28.09.2021
6167 Clear 16 1022 92 10000 4.82 216 11:51 28.09.2021
6168 Clear 11 1022 92 10000 5 212 11:32 28.09.2021
6169 Clear 11 1022 92 10000 5 212 10:30 28.09.2021
6170 Clear 12 1021 92 10000 5.68 210 09:29 28.09.2021
6171 Clear 11 1021 92 10000 5.68 210 08:44 28.09.2021
6172 Clear 11 1021 92 10000 5.51 215 08:20 28.09.2021
6173 Clear 12 1020 91 10000 5.9 218 06:46 28.09.2021
6174 Clouds 14 1020 90 10000 5.06 238 01:38 28.09.2021
6175 Clouds 14 1019 90 10000 4.92 251 00:34 28.09.2021
6176 Clouds 15 1018 91 10000 5.7 258 23:52 27.09.2021
6177 Clouds 15 1017 90 10000 6.97 262 23:25 27.09.2021
6178 Clouds 15 1017 90 10000 6.97 262 22:44 27.09.2021
6179 Clouds 15 1016 89 10000 7.95 270 21:38 27.09.2021
6180 Rain 19 1015 90 10000 8.82 267 20:33 27.09.2021
6181 Rain 19 1014 94 10000 8.99 258 19:40 27.09.2021
6182 Rain 20 1013 98 6453 8.92 229 18:55 27.09.2021
6183 Clouds 20 1012 94 6311 9.68 209 17:41 27.09.2021
6184 Clouds 14 1011 92 10000 7.64 181 17:21 27.09.2021
6185 Clouds 21 1011 92 10000 7.64 181 16:37 27.09.2021
6186 Clouds 21 1011 92 10000 7.64 181 16:37 27.09.2021
6187 Clouds 21 1011 95 5847 7.48 180 15:39 27.09.2021
6188 Clouds 21 1012 95 10000 5.83 169 13:57 27.09.2021
6189 Clouds 20 1013 97 10000 5.54 179 12:53 27.09.2021
6190 Clouds 19 1013 100 2318 6.02 192 10:51 27.09.2021
6191 Clouds 17 1013 100 3902 6.05 176 09:46 27.09.2021
6192 Clouds 16 1013 100 151 4.63 175 08:32 27.09.2021
6193 Clouds 16 1014 98 9359 3.78 168 05:18 27.09.2021
6194 Clouds 17 1014 98 10000 2.23 220 00:39 27.09.2021
6195 Clouds 13 1014 94 10000 2.46 211 22:27 26.09.2021
6196 Clouds 18 1014 94 10000 2.46 211 21:45 26.09.2021
6197 Clouds 19 1014 92 10000 2.62 195 20:45 26.09.2021
6198 Clouds 19 1014 91 10000 2.88 188 20:20 26.09.2021
6199 Clouds 19 1014 91 10000 2.88 188 19:37 26.09.2021
6200 Clouds 20 1014 89 10000 3.54 191 18:45 26.09.2021
6201 Clouds 21 1014 86 10000 4.13 175 17:50 26.09.2021
6202 Rain 13 1014 85 10000 4.52 155 17:21 26.09.2021
6203 Clouds 13 1014 87 10000 4.79 147 16:28 26.09.2021
6204 Clouds 21 1014 87 10000 4.79 147 15:57 26.09.2021
6205 Clear 22 1014 91 10000 4.63 142 14:45 26.09.2021
6206 Clouds 22 1014 94 10000 4.93 139 13:45 26.09.2021
6207 Clouds 22 1015 96 10000 4.92 133 12:33 26.09.2021
6208 Clouds 21 1015 97 10000 5.21 125 11:59 26.09.2021
6209 Clouds 21 1015 97 10000 5.21 125 11:37 26.09.2021
6210 Clouds 11 1015 96 10000 5.62 119 10:23 26.09.2021
6211 Clouds 17 1015 96 10000 5.82 116 08:55 26.09.2021
6212 Clouds 17 1015 98 10000 5.36 124 06:32 26.09.2021
6213 Clouds 10 1016 100 75 3.58 116 00:21 26.09.2021
6214 Clouds 10 1016 99 108 3.09 123 23:24 25.09.2021
6215 Clouds 14 1016 99 108 3.09 124 22:38 25.09.2021
6216 Clouds 16 1016 99 257 2.65 129 21:55 25.09.2021
6217 Clouds 10 1016 99 257 2.65 129 21:31 25.09.2021
6218 Clouds 14 1016 99 263 1.5 106 20:45 25.09.2021
6219 Clouds 18 1016 99 465 1.44 302 18:55 25.09.2021
6220 Clouds 18 1016 99 308 2.25 276 17:55 25.09.2021
6221 Clouds 19 1016 99 233 3.08 270 15:48 25.09.2021
6222 Clouds 18 1015 99 162 3.39 262 13:57 25.09.2021
6223 Clouds 10 1015 99 162 3.39 262 13:31 25.09.2021
6224 Clouds 9 1015 99 260 4.21 269 12:25 25.09.2021
6225 Clouds 17 1014 99 185 4.78 270 10:34 25.09.2021
6226 Clouds 10 1014 99 210 5.18 273 09:32 25.09.2021
6227 Clouds 16 1013 99 1073 5.64 256 07:56 25.09.2021
6228 Clouds 16 1012 99 10000 6.2 248 05:46 25.09.2021
6229 Clouds 17 1011 97 10000 8.55 245 23:51 24.09.2021
6230 Clouds 17 1011 97 10000 9.92 247 21:42 24.09.2021
6231 Clouds 18 1011 98 2667 10.06 247 20:34 24.09.2021
6232 Clouds 18 1011 98 413 10.21 249 19:47 24.09.2021
6233 Clouds 18 1011 97 10000 10.58 250 18:34 24.09.2021
6234 Clouds 18 1010 96 10000 10.65 251 17:54 24.09.2021
6235 Clouds 18 1010 96 10000 10.65 251 17:36 24.09.2021
6236 Clouds 18 1010 96 10000 10.54 246 17:18 24.09.2021
6237 Clouds 17 1012 95 10000 9.42 238 13:58 24.09.2021
6238 Clouds 17 1012 96 10000 9.14 239 13:18 24.09.2021
6239 Clouds 16 1012 96 10000 9.14 239 12:39 24.09.2021
6240 Clouds 11 1012 97 10000 8.5 236 12:20 24.09.2021
6241 Clouds 15 1012 91 10000 7.56 238 10:27 24.09.2021
6242 Clouds 14 1012 86 10000 7.59 246 08:55 24.09.2021
6243 Clouds 13 1013 84 10000 7.8 256 07:35 24.09.2021
6244 Clouds 14 1013 85 10000 7.41 264 06:47 24.09.2021
6245 Clouds 13 1013 85 10000 8.45 278 04:58 24.09.2021
6246 Clouds 14 1013 84 10000 11.43 288 00:35 24.09.2021
6247 Clouds 10 1012 83 10000 12.84 292 22:30 23.09.2021
6248 Clouds 11 1012 82 10000 13.08 292 21:56 23.09.2021
6249 Clouds 15 1012 80 10000 13.03 297 20:35 23.09.2021
6250 Clouds 15 1012 79 10000 12.6 301 19:48 23.09.2021
6251 Clouds 16 1011 86 10000 12.13 295 17:47 23.09.2021
6252 Clouds 17 1010 91 10000 13.11 276 15:36 23.09.2021
6253 Clouds 16 1010 93 10000 13.03 274 14:59 23.09.2021
6254 Clouds 15 1011 94 10000 13.51 266 13:48 23.09.2021
6255 Clouds 16 1011 94 10000 13.35 255 13:21 23.09.2021
6256 Clouds 16 1011 94 10000 13.35 255 12:52 23.09.2021
6257 Clouds 11 1011 93 10000 12.92 250 12:22 23.09.2021
6258 Clouds 16 1011 93 10000 12.92 250 11:47 23.09.2021
6259 Clouds 15 1012 95 10000 11.93 243 10:27 23.09.2021
6260 Clouds 14 1012 95 10000 11.93 243 09:52 23.09.2021
6261 Clouds 13 1013 95 10000 10.81 240 08:25 23.09.2021
6262 Clouds 14 1016 95 10000 10.18 236 04:41 23.09.2021
6263 Clouds 14 1020 94 10000 8.5 236 23:35 22.09.2021
6264 Clouds 14 1021 94 10000 8.02 242 22:37 22.09.2021
6265 Clear 15 1021 94 10000 7.87 246 21:56 22.09.2021
6266 Clear 11 1022 93 10000 7.71 242 21:34 22.09.2021
6267 Clear 15 1022 93 10000 7.71 242 20:57 22.09.2021
6268 Clear 17 1022 91 10000 7.48 250 19:33 22.09.2021
6269 Clear 18 1023 90 10000 7.28 254 18:40 22.09.2021
6270 Clear 11 1023 90 10000 7.36 250 17:48 22.09.2021
6271 Clear 11 1023 90 10000 7.34 245 16:40 22.09.2021
6272 Clear 12 1025 92 10000 7.03 244 15:29 22.09.2021
6273 Clouds 12 1025 93 10000 6.98 236 14:25 22.09.2021
6274 Clouds 16 1027 98 5599 7.99 242 12:19 22.09.2021
6275 Clouds 15 1027 98 499 8.21 244 10:57 22.09.2021
6276 Clouds 11 1027 98 1784 6.69 240 09:28 22.09.2021
6277 Clouds 12 1027 98 1784 6.69 240 08:30 22.09.2021
6278 Clouds 12 1027 98 1784 6.69 240 08:30 22.09.2021
6279 Clouds 12 1027 90 10000 5 250 07:25 22.09.2021
6280 Clouds 11 1027 90 10000 4.38 248 06:18 22.09.2021
6281 Clouds 11 1027 90 10000 4.38 248 05:36 22.09.2021
6282 Clouds 11 1027 88 10000 4.26 270 03:52 22.09.2021
6283 Clouds 13 1028 90 10000 5.05 297 00:37 22.09.2021
6284 Clouds 12 1027 91 10000 5.51 297 23:24 21.09.2021
6285 Clouds 14 1028 92 10000 5.75 302 21:37 21.09.2021
6286 Clouds 12 1027 93 10000 6.07 305 20:27 21.09.2021
6287 Clouds 12 1027 93 10000 5.86 299 19:23 21.09.2021
6288 Clouds 12 1027 94 10000 6.51 299 17:49 21.09.2021
6289 Clouds 16 1026 95 10000 6.9 285 16:38 21.09.2021
6290 Clouds 16 1026 96 10000 7.27 279 15:52 21.09.2021
6291 Clouds 16 1026 94 10000 8.51 274 14:58 21.09.2021
6292 Clouds 16 1026 92 10000 8.06 261 13:57 21.09.2021
6293 Clouds 16 1027 90 10000 8.24 259 13:39 21.09.2021
6294 Clouds 15 1027 91 10000 7.7 258 12:40 21.09.2021
6295 Clouds 12 1027 88 10000 7.9 259 10:39 21.09.2021
6296 Clouds 13 1026 86 10000 7.25 251 08:41 21.09.2021
6297 Clouds 12 1027 78 10000 5.19 242 07:37 21.09.2021
6298 Clouds 11 1027 73 10000 1.53 355 01:53 21.09.2021
6299 Clouds 10 1026 72 10000 3.14 33 22:50 20.09.2021
6300 Clouds 11 1026 73 10000 3.5 33 21:42 20.09.2021
6301 Clouds 11 1026 72 10000 4.09 20 21:20 20.09.2021
6302 Clouds 12 1026 73 10000 4.41 14 19:46 20.09.2021
6303 Clouds 15 1025 73 10000 3.26 19 17:54 20.09.2021
6304 Clouds 15 1025 74 10000 2.58 46 16:58 20.09.2021
6305 Clouds 12 1025 75 10000 2.9 67 16:23 20.09.2021
6306 Clouds 15 1025 75 10000 2.9 67 15:34 20.09.2021
6307 Clouds 11 1024 79 10000 4.1 81 14:27 20.09.2021
6308 Clouds 14 1024 81 10000 4.69 82 12:44 20.09.2021
6309 Clouds 11 1024 81 10000 4.96 85 12:22 20.09.2021
6310 Clouds 12 1024 80 10000 5.03 85 10:49 20.09.2021
6311 Clouds 12 1023 80 10000 5.13 86 09:51 20.09.2021
6312 Clouds 11 1023 80 10000 5.13 86 09:31 20.09.2021
6313 Clouds 11 1023 81 10000 5.56 88 08:35 20.09.2021
6314 Clouds 11 1022 83 10000 6.06 86 06:21 20.09.2021
6315 Clouds 13 1020 83 10000 6.65 90 22:58 19.09.2021
6316 Clouds 13 1020 83 10000 6.94 89 21:50 19.09.2021
6317 Clouds 13 1019 82 10000 7.09 88 21:19 19.09.2021
6318 Clouds 13 1019 79 10000 7.62 88 19:59 19.09.2021
6319 Clouds 14 1019 80 10000 7.3 90 18:53 19.09.2021
6320 Clouds 14 1019 80 10000 7.3 90 18:53 19.09.2021
6321 Clouds 15 1019 80 10000 6.6 85 17:49 19.09.2021
6322 Clouds 15 1019 81 10000 6.25 79 16:35 19.09.2021
6323 Clouds 13 1019 79 10000 5.77 74 15:32 19.09.2021
6324 Clouds 15 1019 77 10000 5.06 79 14:49 19.09.2021
6325 Clouds 15 1020 78 10000 5.87 92 13:57 19.09.2021
6326 Clouds 15 1020 79 10000 6.57 90 12:56 19.09.2021
6327 Clouds 14 1020 81 10000 6.84 92 11:49 19.09.2021
6328 Clouds 12 1020 82 10000 7.06 90 11:22 19.09.2021
6329 Clouds 12 1019 84 10000 6.94 89 09:52 19.09.2021
6330 Clouds 12 1019 86 10000 6.78 92 09:23 19.09.2021
6331 Clouds 10 1019 86 10000 6.59 99 06:49 19.09.2021
6332 Clouds 12 1020 84 10000 7.03 108 01:36 19.09.2021
6333 Clouds 14 1020 84 10000 8.43 110 23:19 18.09.2021
6334 Clouds 15 1019 85 10000 7.85 106 21:56 18.09.2021
6335 Clouds 16 1019 86 10000 7.18 99 20:47 18.09.2021
6336 Clouds 16 1018 83 10000 6.4 98 19:58 18.09.2021
6337 Clouds 16 1018 83 10000 6.4 98 19:36 18.09.2021
6338 Clouds 16 1018 85 10000 5.21 95 19:18 18.09.2021
6339 Clouds 14 1018 85 10000 5.21 95 18:30 18.09.2021
6340 Clouds 17 1018 90 10000 3.48 88 16:35 18.09.2021
6341 Clouds 17 1019 93 10000 4.19 113 13:59 18.09.2021
6342 Clouds 17 1019 93 10000 4.19 113 13:31 18.09.2021
6343 Clouds 17 1019 95 10000 4.79 112 12:52 18.09.2021
6344 Clouds 16 1018 96 10000 4.54 113 11:59 18.09.2021
6345 Clouds 13 1018 97 10000 4.45 112 11:29 18.09.2021
6346 Clouds 13 1018 97 10000 4.45 112 10:30 18.09.2021
6347 Clouds 13 1018 97 10000 4.45 112 10:30 18.09.2021
6348 Clouds 14 1017 98 10000 1.83 77 09:23 18.09.2021
6349 Clouds 13 1017 98 10000 1.71 15 08:25 18.09.2021
6350 Clouds 12 1016 91 10000 3.9 343 00:53 18.09.2021
6351 Clear 12 1016 90 10000 3.83 346 23:55 17.09.2021
6352 Clear 12 1016 90 10000 3.78 348 22:48 17.09.2021
6353 Clear 12 1016 90 10000 4.03 350 22:23 17.09.2021
6354 Clear 14 1016 90 10000 4.03 350 21:32 17.09.2021
6355 Clear 12 1016 90 10000 4.03 350 21:32 17.09.2021
6356 Clouds 12 1016 88 10000 4.38 347 19:31 17.09.2021
6357 Clouds 15 1015 87 10000 4.46 351 18:40 17.09.2021
6358 Clouds 16 1015 85 10000 4.45 344 16:35 17.09.2021
6359 Clouds 16 1016 85 10000 2.99 325 14:48 17.09.2021
6360 Clouds 15 1016 87 10000 3.24 349 11:51 17.09.2021
6361 Clouds 13 1015 87 10000 4.15 352 10:21 17.09.2021
6362 Clouds 14 1015 86 10000 5.68 330 07:46 17.09.2021
6363 Clouds 13 1015 82 10000 5.99 319 05:27 17.09.2021
6364 Clouds 14 1015 83 10000 7.34 329 00:31 17.09.2021
6365 Clouds 16 1014 90 10000 7.18 311 22:42 16.09.2021
6366 Clouds 13 1014 93 10000 7.08 305 22:23 16.09.2021
6367 Clouds 16 1014 93 10000 7.08 305 21:35 16.09.2021
6368 Clouds 16 1013 96 10000 7.94 299 20:29 16.09.2021
6369 Clouds 16 1013 94 10000 8.48 294 18:46 16.09.2021
6370 Clouds 17 1012 96 10000 9.01 291 18:18 16.09.2021
6371 Clouds 17 1012 96 10000 9.58 293 16:37 16.09.2021
6372 Clouds 18 1012 96 10000 11.73 281 14:49 16.09.2021
6373 Clouds 17 1012 92 10000 11.45 281 13:33 16.09.2021
6374 Clouds 18 1012 92 10000 11.28 281 12:42 16.09.2021
6375 Clouds 17 1011 93 10000 11.15 278 11:49 16.09.2021
6376 Clouds 17 1011 95 10000 10.75 275 10:54 16.09.2021
6377 Clouds 13 1011 96 10000 10.75 271 10:21 16.09.2021
6378 Clouds 16 1010 96 10000 10.54 269 09:18 16.09.2021
6379 Clouds 15 1010 95 10000 10.73 265 07:48 16.09.2021
6380 Clouds 15 1010 96 10000 10.65 266 06:56 16.09.2021
6381 Clouds 15 1010 96 10000 10.65 266 06:37 16.09.2021
6382 Clouds 14 1009 87 10000 9.1 274 03:22 16.09.2021
6383 Clouds 17 1009 97 9669 8.84 256 00:46 16.09.2021
6384 Clouds 13 1008 96 9097 8.43 239 23:24 15.09.2021
6385 Clouds 13 1008 97 10000 7.89 238 22:26 15.09.2021
6386 Clouds 18 1008 97 10000 7.89 238 21:31 15.09.2021
6387 Clouds 18 1008 95 10000 6.75 239 20:34 15.09.2021
6388 Clouds 19 1009 90 10000 5.39 235 19:31 15.09.2021
6389 Clouds 19 1008 93 10000 3.77 225 18:41 15.09.2021
6390 Clouds 19 1008 94 10000 2.9 239 17:39 15.09.2021
6391 Clouds 18 1009 98 2031 3.73 249 16:29 15.09.2021
6392 Clouds 18 1009 99 381 3.12 240 14:59 15.09.2021
6393 Clouds 15 1009 99 381 3.12 240 14:40 15.09.2021
6394 Clouds 18 1009 99 6864 3.18 183 13:45 15.09.2021
6395 Clouds 18 1009 98 10000 3.82 176 13:26 15.09.2021
6396 Clouds 18 1009 98 10000 3.82 176 12:33 15.09.2021
6397 Clouds 17 1009 98 10000 4.79 175 11:50 15.09.2021
6398 Clouds 17 1009 98 10000 4.89 173 10:57 15.09.2021
6399 Clouds 15 1009 98 10000 4.89 173 10:30 15.09.2021
6400 Clouds 16 1009 98 10000 6.52 151 08:47 15.09.2021
6401 Clouds 15 1010 90 10000 7.36 112 07:26 15.09.2021
6402 Clouds 16 1013 87 10000 8.22 97 00:55 15.09.2021
6403 Clouds 15 1014 86 10000 7.39 74 22:24 14.09.2021
6404 Clouds 15 1014 85 10000 7.29 64 21:21 14.09.2021
6405 Clouds 15 1014 85 10000 7.29 64 21:21 14.09.2021
6406 Clouds 17 1014 81 10000 7.06 59 20:18 14.09.2021
6407 Clouds 20 1015 80 10000 6.09 51 18:57 14.09.2021
6408 Clouds 21 1015 79 10000 5.58 45 17:33 14.09.2021
6409 Clouds 15 1016 78 10000 4.08 61 16:37 14.09.2021
6410 Clouds 15 1016 79 10000 4.19 72 14:32 14.09.2021
6411 Clouds 19 1017 80 10000 4.25 82 13:53 14.09.2021
6412 Clouds 17 1018 77 10000 2.79 124 11:41 14.09.2021
6413 Clouds 15 1017 77 10000 2.53 103 10:20 14.09.2021
6414 Clouds 14 1017 77 10000 2.53 103 09:45 14.09.2021
6415 Clear 10 1017 76 10000 0.77 147 07:50 14.09.2021
6416 Clouds 15 1018 77 10000 3.08 281 01:28 14.09.2021
6417 Clouds 15 1018 75 10000 2.75 267 23:27 13.09.2021
6418 Clouds 15 1019 73 10000 3.06 277 22:27 13.09.2021
6419 Clouds 12 1019 73 10000 3.06 277 21:55 13.09.2021
6420 Clouds 15 1018 73 10000 3.32 280 21:23 13.09.2021
6421 Clouds 16 1018 74 10000 3.44 278 19:35 13.09.2021
6422 Clouds 16 1018 74 10000 3.71 273 18:44 13.09.2021
6423 Clouds 15 1018 75 10000 4.37 282 17:27 13.09.2021
6424 Clouds 14 1018 76 10000 4.78 283 16:23 13.09.2021
6425 Clouds 17 1018 76 10000 5.46 281 14:43 13.09.2021
6426 Clouds 16 1018 78 10000 6.21 278 11:43 13.09.2021
6427 Clouds 14 1018 77 10000 6.16 288 10:26 13.09.2021
6428 Clouds 15 1017 75 10000 6.91 293 07:57 13.09.2021
6429 Clouds 15 1016 89 10000 7.48 308 00:29 13.09.2021
6430 Clouds 16 1016 93 10000 7.09 282 22:42 12.09.2021
6431 Clouds 15 1015 92 10000 7.82 278 22:21 12.09.2021
6432 Clouds 17 1015 88 10000 7.61 277 20:47 12.09.2021
6433 Clouds 17 1015 88 10000 8.9 278 19:58 12.09.2021
6434 Clouds 14 1015 90 10000 9.2 273 19:29 12.09.2021
6435 Clouds 18 1015 90 10000 9.2 273 18:53 12.09.2021
6436 Clouds 18 1015 87 10000 8.43 264 16:58 12.09.2021
6437 Clouds 18 1015 90 10000 7.68 261 15:41 12.09.2021
6438 Clouds 18 1015 90 10000 7.23 262 14:37 12.09.2021
6439 Clouds 15 1015 88 10000 7.05 271 12:28 12.09.2021
6440 Clouds 18 1015 89 10000 6.61 260 10:21 12.09.2021
6441 Clouds 17 1015 90 10000 6.76 265 08:39 12.09.2021
6442 Clouds 17 1014 96 10000 7.36 240 04:59 12.09.2021
6443 Clouds 18 1015 96 10000 7.68 262 00:46 12.09.2021
6444 Clouds 18 1014 97 10000 7.49 264 22:35 11.09.2021
6445 Clouds 18 1014 97 10000 7.27 263 21:38 11.09.2021
6446 Clouds 18 1013 97 9103 7.16 258 19:35 11.09.2021
6447 Clouds 18 1013 97 1828 6.72 259 17:56 11.09.2021
6448 Clouds 15 1013 95 10000 7.59 258 17:21 11.09.2021
6449 Clouds 18 1013 96 10000 7.84 242 15:24 11.09.2021
6450 Clouds 15 1013 96 10000 8.64 239 13:22 11.09.2021
6451 Clouds 19 1013 96 10000 8.35 238 11:40 11.09.2021
6452 Clouds 18 1013 96 10000 7.63 238 09:50 11.09.2021
6453 Clouds 16 1012 98 6541 7.22 238 08:31 11.09.2021
6454 Clouds 17 1012 97 10000 6.92 231 07:34 11.09.2021
6455 Clouds 17 1012 98 6733 4.46 221 02:29 11.09.2021
6456 Rain 16 1012 98 799 5.4 255 22:28 10.09.2021
6457 Rain 18 1012 98 799 5.4 255 21:56 10.09.2021
6458 Rain 18 1012 98 799 5.4 255 21:35 10.09.2021
6459 Clouds 21 1011 93 10000 3.54 226 18:47 10.09.2021
6460 Clouds 22 1011 90 10000 2.75 156 17:42 10.09.2021
6461 Clouds 22 1011 92 10000 3.45 129 15:38 10.09.2021
6462 Clouds 17 1012 90 10000 2.12 240 13:20 10.09.2021
6463 Clouds 18 1012 93 10000 3.45 238 10:32 10.09.2021
6464 Clouds 18 1010 98 593 4.81 252 07:52 10.09.2021
6465 Clouds 18 1010 99 144 5.76 261 05:23 10.09.2021
6466 Clouds 19 1009 78 10000 3.43 136 23:52 09.09.2021
6467 Clouds 21 1009 70 10000 3.03 126 21:47 09.09.2021
6468 Clouds 21 1009 70 10000 2.98 121 20:47 09.09.2021
6469 Clear 24 1009 71 10000 2.72 112 20:24 09.09.2021
6470 Clear 26 1009 72 10000 2.94 109 18:39 09.09.2021
6471 Clear 26 1009 74 10000 2.76 119 17:41 09.09.2021
6472 Clouds 18 1010 78 10000 3.45 121 16:27 09.09.2021
6473 Clouds 25 1011 81 10000 4.26 119 13:38 09.09.2021
6474 Clouds 21 1011 85 10000 5.31 122 11:57 09.09.2021
6475 Clouds 19 1012 86 10000 5.36 124 10:54 09.09.2021
6476 Clouds 16 1012 87 10000 5.6 121 09:34 09.09.2021
6477 Clouds 16 1012 87 10000 5.6 121 09:34 09.09.2021
6478 Clear 13 1012 86 10000 5.78 117 07:34 09.09.2021
6479 Clear 14 1013 86 10000 5.39 119 04:47 09.09.2021
6480 Clear 17 1015 85 10000 4.85 121 23:54 08.09.2021
6481 Clear 19 1015 80 10000 4.44 115 21:47 08.09.2021
6482 Clear 20 1016 79 10000 4.3 116 20:37 08.09.2021
6483 Clear 22 1016 78 10000 4.06 92 19:46 08.09.2021
6484 Clear 24 1016 77 10000 3.88 92 18:47 08.09.2021
6485 Clear 24 1016 78 10000 3.62 95 17:59 08.09.2021
6486 Clear 24 1016 78 10000 3.62 95 17:39 08.09.2021
6487 Clear 18 1018 80 10000 3.38 131 15:21 08.09.2021
6488 Clouds 17 1019 82 10000 3.62 155 13:28 08.09.2021
6489 Clouds 23 1019 82 10000 3.62 155 12:41 08.09.2021
6490 Clouds 22 1019 84 10000 3.74 162 12:22 08.09.2021
6491 Clouds 17 1020 85 10000 3.93 171 11:26 08.09.2021
6492 Clouds 17 1020 85 10000 3.93 171 11:26 08.09.2021
6493 Clouds 17 1020 85 10000 3.93 171 10:31 08.09.2021
6494 Clouds 17 1020 85 10000 3.93 171 10:31 08.09.2021
6495 Clouds 18 1020 86 10000 3.97 178 09:37 08.09.2021
6496 Clouds 14 1020 86 10000 3.65 191 07:45 08.09.2021
6497 Clouds 14 1020 87 10000 3.62 196 06:43 08.09.2021
6498 Clouds 16 1022 82 10000 3.86 173 23:18 07.09.2021
6499 Clouds 16 1022 80 10000 3.58 167 22:19 07.09.2021
6500 Clouds 17 1022 78 10000 3.38 157 20:41 07.09.2021
6501 Clouds 20 1022 77 10000 2.03 153 18:53 07.09.2021
6502 Clouds 18 1023 78 10000 1.39 160 18:25 07.09.2021
6503 Clouds 21 1023 79 10000 1.26 184 17:25 07.09.2021
6504 Clouds 21 1023 80 10000 1.87 194 15:56 07.09.2021
6505 Clouds 20 1024 80 10000 2.49 185 14:48 07.09.2021
6506 Clouds 21 1024 82 10000 2.73 185 13:52 07.09.2021
6507 Clouds 21 1024 79 10000 2.93 188 13:52 07.09.2021
6508 Clouds 18 1024 81 10000 3.53 195 11:58 07.09.2021
6509 Clouds 17 1024 81 10000 3.19 190 10:50 07.09.2021
6510 Clouds 16 1024 81 10000 2.45 191 09:40 07.09.2021
6511 Clouds 14 1024 77 10000 1.71 220 07:47 07.09.2021
6512 Clouds 13 1024 76 10000 1.4 228 06:19 07.09.2021
6513 Clouds 17 1024 78 10000 1.79 279 02:38 07.09.2021
6514 Clouds 13 1024 78 10000 1.79 279 01:57 07.09.2021
6515 Clouds 14 1024 78 10000 1.57 302 23:49 06.09.2021
6516 Clouds 17 1024 78 10000 1.57 302 23:30 06.09.2021
6517 Clouds 13 1024 79 10000 1.7 325 22:51 06.09.2021
6518 Clouds 13 1024 80 10000 2.3 324 21:55 06.09.2021
6519 Clouds 16 1024 80 10000 2.6 313 20:35 06.09.2021
6520 Clouds 18 1024 78 10000 3.3 319 19:19 06.09.2021
6521 Clouds 18 1024 78 10000 3.3 319 18:35 06.09.2021
6522 Clouds 19 1024 76 10000 3.38 314 17:50 06.09.2021
6523 Clouds 17 1024 74 10000 3.83 284 16:20 06.09.2021
6524 Clouds 19 1024 75 10000 2.63 246 14:59 06.09.2021
6525 Clouds 18 1024 77 10000 2.27 269 12:59 06.09.2021
6526 Clouds 18 1024 77 10000 2.27 269 12:41 06.09.2021
6527 Clouds 17 1024 79 10000 0.55 221 10:27 06.09.2021
6528 Clouds 9 1024 77 10000 0.48 346 07:39 06.09.2021
6529 Clouds 17 1023 78 10000 2.17 131 04:27 06.09.2021
6530 Clouds 17 1024 77 10000 4.03 84 23:23 05.09.2021
6531 Clouds 17 1024 77 10000 4.03 84 22:32 05.09.2021
6532 Clear 14 1023 76 10000 4.09 82 21:56 05.09.2021
6533 Clear 17 1023 76 10000 4.03 68 21:20 05.09.2021
6534 Clear 19 1023 76 10000 4.09 48 19:45 05.09.2021
6535 Clear 19 1023 72 10000 3.02 37 17:52 05.09.2021
6536 Clear 19 1023 68 10000 2 68 15:58 05.09.2021
6537 Clear 19 1024 70 10000 2.79 93 15:19 05.09.2021
6538 Clear 17 1024 76 10000 4.92 97 12:44 05.09.2021
6539 Clear 16 1024 79 10000 5.5 98 11:35 05.09.2021
6540 Clear 15 1024 80 10000 5.98 99 10:40 05.09.2021
6541 Clear 14 1023 81 10000 6.44 99 09:34 05.09.2021
6542 Clear 11 1023 81 10000 6.8 100 08:34 05.09.2021
6543 Clear 11 1023 85 10000 6.78 99 05:47 05.09.2021
6544 Clear 13 1022 81 10000 8.15 102 00:39 05.09.2021
6545 Clear 14 1022 82 10000 8.61 100 23:56 04.09.2021
6546 Clear 16 1021 82 10000 8.66 98 23:24 04.09.2021
6547 Clear 16 1021 82 10000 8.66 98 22:35 04.09.2021
6548 Clear 15 1021 79 10000 4.2 56 21:18 04.09.2021
6549 Clouds 17 1020 81 10000 3.86 1 19:33 04.09.2021
6550 Clouds 16 1019 77 10000 3.44 342 17:25 04.09.2021
6551 Clouds 18 1020 77 10000 3.1 7 14:37 04.09.2021
6552 Clouds 17 1020 73 10000 4.1 7 11:54 04.09.2021
6553 Clouds 17 1020 71 10000 4.48 3 10:55 04.09.2021
6554 Clouds 14 1019 72 10000 6.24 348 08:18 04.09.2021
6555 Clouds 15 1020 75 10000 6.14 342 00:50 04.09.2021
6556 Clouds 15 1020 76 10000 6.43 345 00:19 04.09.2021
6557 Clouds 16 1020 77 10000 6.92 346 23:22 03.09.2021
6558 Clouds 15 1020 78 10000 7.33 346 21:43 03.09.2021
6559 Clouds 16 1020 79 10000 7.5 344 21:23 03.09.2021
6560 Clouds 16 1020 79 10000 7.5 344 20:30 03.09.2021
6561 Clouds 15 1020 79 10000 7.5 342 19:38 03.09.2021
6562 Clouds 16 1020 79 10000 7.36 341 18:33 03.09.2021
6563 Clouds 16 1021 80 10000 7.09 340 17:21 03.09.2021
6564 Clouds 16 1021 80 10000 6.91 339 15:42 03.09.2021
6565 Clouds 17 1021 81 10000 6.54 338 14:40 03.09.2021
6566 Clouds 16 1022 83 10000 6.59 332 11:21 03.09.2021
6567 Clouds 15 1022 83 10000 6.41 332 09:55 03.09.2021
6568 Clouds 16 1022 84 10000 6.4 335 08:22 03.09.2021
6569 Clouds 15 1022 85 10000 6.35 328 06:50 03.09.2021
6570 Clear 12 1025 84 10000 3.9 290 23:58 02.09.2021
6571 Clear 14 1025 82 10000 3.05 289 22:21 02.09.2021
6572 Clear 16 1025 80 10000 2.52 288 20:51 02.09.2021
6573 Clouds 17 1026 78 10000 2.44 293 18:49 02.09.2021
6574 Clouds 17 1026 75 10000 2.03 274 16:39 02.09.2021
6575 Clouds 15 1027 75 10000 2.15 256 15:31 02.09.2021
6576 Clouds 15 1027 75 10000 2.54 221 13:33 02.09.2021
6577 Clouds 16 1027 77 10000 2.82 225 11:44 02.09.2021
6578 Clouds 15 1027 78 10000 3.17 231 11:24 02.09.2021
6579 Clouds 15 1027 77 10000 2.59 254 09:20 02.09.2021
6580 Clouds 15 1026 80 10000 4.18 274 07:36 02.09.2021
6581 Clouds 14 1026 79 10000 5.28 285 05:53 02.09.2021
6582 Clouds 13 1026 79 10000 5.13 309 02:38 02.09.2021
6583 Clear 15 1027 86 10000 4.38 298 01:50 02.09.2021
6584 Clear 14 1027 87 10000 5.24 293 23:41 01.09.2021
6585 Clear 16 1027 85 10000 5.16 288 23:23 01.09.2021
6586 Clear 16 1027 85 10000 5.16 288 22:30 01.09.2021
6587 Clear 14 1027 86 10000 4.58 290 21:33 01.09.2021
6588 Clear 17 1026 83 10000 3.84 293 19:38 01.09.2021
6589 Clear 18 1027 78 10000 3.59 296 17:57 01.09.2021
6590 Clear 19 1027 78 10000 3.42 298 17:18 01.09.2021
6591 Clear 19 1027 78 10000 3.42 298 16:46 01.09.2021
6592 Clear 18 1027 78 10000 4.02 292 15:18 01.09.2021
6593 Clouds 18 1027 78 10000 3.82 256 11:48 01.09.2021
6594 Clouds 18 1027 78 10000 3.22 257 10:42 01.09.2021
6595 Clouds 15 1026 79 10000 2.3 290 08:46 01.09.2021
6596 Clouds 12 1026 88 10000 4 326 07:50 01.09.2021
6597 Clouds 15 1025 87 10000 4.41 326 23:41 31.08.2021
6598 Clouds 16 1025 86 10000 4.93 322 22:24 31.08.2021
6599 Clouds 16 1025 86 10000 5.73 321 20:56 31.08.2021
6600 Clouds 16 1024 86 10000 5.63 314 19:44 31.08.2021
6601 Clouds 19 1024 85 10000 6.15 323 17:53 31.08.2021
6602 Clouds 19 1024 85 10000 6.15 323 17:33 31.08.2021
6603 Clouds 19 1024 85 10000 6.15 330 16:41 31.08.2021
6604 Clouds 20 1024 85 10000 6.34 331 15:56 31.08.2021
6605 Clouds 19 1024 91 10000 6.23 343 12:54 31.08.2021
6606 Clouds 16 1024 89 10000 5.63 353 11:25 31.08.2021
6607 Clouds 18 1024 89 10000 5.63 353 10:45 31.08.2021
6608 Clouds 16 1024 87 10000 5.57 2 09:43 31.08.2021
6609 Clouds 16 1023 85 10000 6.16 1 08:23 31.08.2021
6610 Clear 13 1023 78 10000 5.24 3 05:58 31.08.2021
6611 Clear 15 1022 77 10000 4.05 38 00:23 31.08.2021
6612 Clear 17 1022 79 10000 3.86 43 23:25 30.08.2021
6613 Clear 16 1022 83 10000 4.47 26 21:42 30.08.2021
6614 Clear 17 1021 84 10000 5.61 6 20:42 30.08.2021
6615 Clear 19 1021 83 10000 6.46 358 19:55 30.08.2021
6616 Clear 17 1021 84 10000 7.43 355 19:29 30.08.2021
6617 Clear 17 1021 85 10000 7.8 355 18:23 30.08.2021
6618 Clear 20 1021 85 10000 7.81 353 16:49 30.08.2021
6619 Clear 20 1021 85 10000 7.41 355 15:50 30.08.2021
6620 Clouds 19 1021 85 10000 7.03 358 14:37 30.08.2021
6621 Clouds 16 1021 86 10000 6.53 12 13:27 30.08.2021
6622 Clouds 18 1021 87 10000 6.86 27 11:56 30.08.2021
6623 Clouds 16 1020 89 10000 7.07 29 08:23 30.08.2021
6624 Clouds 17 1019 88 10000 5.91 34 22:18 29.08.2021
6625 Clouds 17 1019 91 10000 5.82 28 21:25 29.08.2021
6626 Clouds 17 1019 91 10000 6.26 2 19:32 29.08.2021
6627 Clouds 17 1019 89 10000 6.74 357 18:30 29.08.2021
6628 Clouds 18 1019 84 10000 5.96 15 16:33 29.08.2021
6629 Clouds 17 1019 86 10000 7.42 15 15:25 29.08.2021
6630 Clouds 17 1019 88 10000 7.39 22 13:57 29.08.2021
6631 Clouds 16 1018 90 10000 8.02 28 12:58 29.08.2021
6632 Clouds 16 1018 92 10000 9.07 26 12:19 29.08.2021
6633 Clouds 16 1018 92 10000 9.07<